# Wetter Temperatur Luftdruck Luftfeuchtigkeit Sichtweite Windgeschwindigkeit Windrichtung Zeit
1 Clouds 7 1032 82 10000 6.69 220 14:52 23.01.2022
2 Clouds 7 1032 82 10000 6.69 220 14:18 23.01.2022
3 Clouds 7 1033 83 10000 5.14 230 12:46 23.01.2022
4 Clouds 7 1033 83 10000 6.17 220 12:20 23.01.2022
5 Clouds 7 1033 83 10000 5.14 220 11:26 23.01.2022
6 Clouds 7 1033 83 10000 5.14 230 10:57 23.01.2022
7 Clouds 7 1033 84 10000 5.14 230 10:25 23.01.2022
8 Clouds 7 1033 84 10000 5.14 230 09:31 23.01.2022
9 Clouds 7 1034 85 10000 6.17 230 08:49 23.01.2022
10 Clouds 7 1035 91 10000 4.63 220 03:49 23.01.2022
11 Clouds 8 1035 93 10000 4.63 230 01:38 23.01.2022
12 Clouds 8 1035 93 10000 5.14 220 00:47 23.01.2022
13 Clouds 8 1036 93 10000 3.6 220 23:59 22.01.2022
14 Clouds 8 1036 93 10000 4.63 200 22:53 22.01.2022
15 Clouds 8 1036 93 10000 3.09 200 22:19 22.01.2022
16 Clouds 8 1036 93 10000 4.12 230 20:33 22.01.2022
17 Clouds 8 1037 93 10000 4.63 220 19:46 22.01.2022
18 Clouds 8 1036 93 10000 5.66 220 18:37 22.01.2022
19 Clouds 8 1036 91 10000 5.14 240 17:46 22.01.2022
20 Clouds 8 1036 91 10000 5.66 230 17:25 22.01.2022
21 Clouds 8 1036 90 10000 5.66 240 16:54 22.01.2022
22 Clouds 9 1036 90 10000 4.63 240 15:45 22.01.2022
23 Clouds 9 1036 90 10000 5.14 250 14:55 22.01.2022
24 Clouds 9 1037 90 10000 4.12 240 13:31 22.01.2022
25 Clouds 9 1037 90 10000 4.63 250 12:40 22.01.2022
26 Clouds 9 1037 90 10000 5.14 240 12:20 22.01.2022
27 Clouds 8 1036 93 10000 4.63 220 10:54 22.01.2022
28 Drizzle 7 1036 93 3900 6.17 220 10:25 22.01.2022
29 Clouds 7 1036 93 10000 4.63 230 08:59 22.01.2022
30 Clouds 7 1036 93 10000 4.63 230 08:39 22.01.2022
31 Clouds 7 1036 93 10000 6.17 230 06:46 22.01.2022
32 Clouds 7 1037 92 10000 4.63 240 02:40 22.01.2022
33 Clouds 7 1038 93 10000 5.14 220 23:52 21.01.2022
34 Clouds 7 1038 93 10000 4.63 220 23:21 21.01.2022
35 Clouds 6 1038 92 10000 4.63 230 21:45 21.01.2022
36 Clouds 6 1038 89 10000 5.14 230 19:48 21.01.2022
37 Clouds 7 1038 89 10000 5.14 240 17:53 21.01.2022
38 Clouds 8 1036 81 10000 6.69 260 16:37 21.01.2022
39 Clouds 8 1039 86 10000 4.63 270 15:23 21.01.2022
40 Clouds 8 1037 89 10000 5.66 270 12:48 21.01.2022
41 Clouds 6 1039 92 10000 4.63 250 11:29 21.01.2022
42 Clouds 6 1039 90 10000 4.12 240 10:47 21.01.2022
43 Clouds 5 1040 92 10000 5.14 240 08:59 21.01.2022
44 Clouds 5 1039 90 10000 5.14 250 08:20 21.01.2022
45 Clouds 3 1041 89 10000 1.54 210 01:55 21.01.2022
46 Clouds 2 1039 85 10000 2.06 260 22:51 20.01.2022
47 Clouds 2 1039 86 10000 1.54 240 21:49 20.01.2022
48 Clouds 2 1039 87 10000 1.54 250 21:25 20.01.2022
49 Clouds 3 1039 84 10000 2.57 220 19:54 20.01.2022
50 Clouds 3 1039 82 10000 2.57 240 19:18 20.01.2022
51 Clouds 4 1038 81 10000 2.06 230 17:37 20.01.2022
52 Clouds 5 1038 75 10000 2.57 260 16:24 20.01.2022
53 Clouds 6 1038 74 10000 1.03 0 15:31 20.01.2022
54 Clouds 5 1039 78 10000 1.54 210 14:20 20.01.2022
55 Clouds 4 1039 83 10000 2.06 280 12:49 20.01.2022
56 Clouds 3 1039 84 10000 1.54 260 12:29 20.01.2022
57 Clouds 2 1039 85 10000 1.51 252 11:19 20.01.2022
58 Clear 0 1038 90 10000 0.51 0 09:50 20.01.2022
59 Clear 0 1038 90 10000 1.03 170 08:45 20.01.2022
60 Clear 0 1036 89 10000 1.54 300 06:57 20.01.2022
61 Clear 3 1033 77 10000 4.12 300 00:40 20.01.2022
62 Clear 4 1031 77 10000 2.57 260 22:38 19.01.2022
63 Clear 5 1031 79 10000 3.1 295 21:34 19.01.2022
64 Clouds 5 1029 79 10000 3.6 260 20:56 19.01.2022
65 Clouds 5 1029 77 10000 3.6 270 20:30 19.01.2022
66 Clouds 6 1028 73 10000 3.6 280 18:59 19.01.2022
67 Clouds 6 1030 73 10000 4.12 270 17:51 19.01.2022
68 Clouds 6 1027 75 10000 4.63 280 17:18 19.01.2022
69 Clouds 6 1027 75 10000 4.63 280 17:18 19.01.2022
70 Clouds 6 1027 75 10000 4.63 280 17:18 19.01.2022
71 Clouds 6 1027 75 10000 4.63 280 17:18 19.01.2022
72 Clouds 7 1028 75 10000 6.17 290 15:32 19.01.2022
73 Clouds 7 1027 79 10000 6.69 290 13:25 19.01.2022
74 Clouds 7 1024 77 10000 7.2 290 11:58 19.01.2022
75 Clouds 7 1024 78 10000 7.2 290 11:38 19.01.2022
76 Clouds 6 1021 80 10000 5.14 280 09:35 19.01.2022
77 Clouds 7 1020 79 10000 7.2 300 08:38 19.01.2022
78 Clouds 9 1016 90 7000 9.77 240 05:20 19.01.2022
79 Clouds 9 1024 91 10000 10.8 220 00:21 19.01.2022
80 Clouds 9 1025 90 10000 9.77 210 23:18 18.01.2022
81 Clouds 8 1027 90 10000 8.75 210 21:45 18.01.2022
82 Clouds 8 1028 90 10000 8.23 210 20:34 18.01.2022
83 Clouds 8 1029 91 10000 9.26 210 19:49 18.01.2022
84 Clouds 8 1029 91 10000 8.23 210 19:31 18.01.2022
85 Rain 8 1030 90 9000 7.72 200 18:19 18.01.2022
86 Rain 8 1031 89 9000 5.66 210 17:32 18.01.2022
87 Rain 8 1031 85 10000 5.14 210 16:20 18.01.2022
88 Clouds 8 1032 84 10000 3.6 230 15:25 18.01.2022
89 Clouds 8 1033 84 10000 3.6 210 14:22 18.01.2022
90 Clouds 7 1035 87 10000 4.12 200 11:37 18.01.2022
91 Clouds 5 1035 92 10000 4.63 190 10:25 18.01.2022
92 Clouds 3 1036 90 10000 2.06 60 08:29 18.01.2022
93 Clouds 2 1036 89 10000 1.54 100 07:43 18.01.2022
94 Clouds 3 1039 92 10000 0.51 0 00:39 18.01.2022
95 Clouds 4 1037 91 10000 1.03 0 22:40 17.01.2022
96 Clouds 5 1036 88 10000 1.54 250 21:42 17.01.2022
97 Clouds 5 1039 89 10000 1.54 210 20:44 17.01.2022
98 Clouds 6 1039 88 10000 4.63 230 18:46 17.01.2022
99 Clouds 6 1040 85 10000 2.57 250 18:24 17.01.2022
100 Clouds 7 1040 87 10000 4.63 230 17:19 17.01.2022
101 Clouds 7 1039 85 10000 4.63 220 15:47 17.01.2022
102 Clouds 8 1039 83 10000 4.63 230 14:58 17.01.2022
103 Clouds 8 1040 84 10000 4.63 220 14:31 17.01.2022
104 Clouds 8 1040 84 10000 5.66 260 13:18 17.01.2022
105 Clouds 7 1040 86 10000 5.66 250 11:51 17.01.2022
106 Clouds 7 1039 87 10000 5.14 250 10:47 17.01.2022
107 Clouds 7 1038 88 10000 4.12 240 09:35 17.01.2022
108 Clouds 6 1038 88 10000 4.12 230 08:43 17.01.2022
109 Clouds 7 1038 87 10000 4.12 250 07:20 17.01.2022
110 Clouds 6 1036 84 10000 4.12 260 00:58 17.01.2022
111 Clouds 7 1035 81 10000 5.66 260 23:27 16.01.2022
112 Clouds 6 1033 80 10000 4.63 250 20:50 16.01.2022
113 Clouds 6 1029 75 10000 6.69 260 19:55 16.01.2022
114 Clouds 6 1029 76 10000 4.12 270 18:45 16.01.2022
115 Clouds 6 1031 76 10000 5.14 260 17:46 16.01.2022
116 Clouds 7 1028 71 10000 4.63 260 16:50 16.01.2022
117 Clouds 7 1027 73 10000 6.17 260 15:34 16.01.2022
118 Clouds 7 1026 74 10000 6.17 270 14:29 16.01.2022
119 Clear 6 1026 80 10000 4.12 230 12:51 16.01.2022
120 Clear 5 1025 81 10000 2.57 260 11:48 16.01.2022
121 Clear 5 1024 79 10000 3.6 270 10:58 16.01.2022
122 Clear 5 1023 82 10000 4.12 220 10:26 16.01.2022
123 Clouds 5 1022 83 10000 4.63 250 09:54 16.01.2022
124 Clear 5 1025 85 10000 3.6 200 09:22 16.01.2022
125 Clear 5 1024 85 10000 3.09 280 08:47 16.01.2022
126 Clouds 6 1020 89 10000 1.54 230 03:58 16.01.2022
127 Clouds 6 1021 92 10000 2.06 240 23:50 15.01.2022
128 Clouds 6 1021 92 10000 2.06 240 23:50 15.01.2022
129 Clouds 6 1021 95 10000 4.12 220 22:19 15.01.2022
130 Clouds 6 1021 95 2800 2.57 240 21:19 15.01.2022
131 Drizzle 6 1021 93 4800 2.06 210 20:40 15.01.2022
132 Drizzle 6 1022 93 2200 1.03 0 19:30 15.01.2022
133 Mist 6 1022 93 1300 0.51 0 18:45 15.01.2022
134 Drizzle 6 1022 93 1900 0.51 0 17:30 15.01.2022
135 Clouds 6 1023 89 6000 0 0 15:59 15.01.2022
136 Haze 6 1024 91 4900 1.03 30 13:56 15.01.2022
137 Clouds 5 1026 91 6000 0.51 0 12:18 15.01.2022
138 Clouds 5 1026 92 10000 2.06 210 10:38 15.01.2022
139 Clouds 5 1027 89 10000 2.06 200 08:31 15.01.2022
140 Clouds 5 1030 86 10000 2.57 160 00:28 15.01.2022
141 Clouds 6 1034 87 10000 2.06 180 21:52 14.01.2022
142 Clouds 6 1035 92 10000 3.09 130 20:37 14.01.2022
143 Clouds 6 1032 92 10000 2.06 140 19:58 14.01.2022
144 Clouds 6 1035 92 10000 2.06 140 18:48 14.01.2022
145 Clouds 6 1035 89 10000 5.14 200 17:57 14.01.2022
146 Clouds 7 1035 91 10000 3.09 210 16:48 14.01.2022
147 Clouds 8 1036 90 10000 3.6 230 15:37 14.01.2022
148 Clouds 8 1037 90 10000 3.6 220 14:38 14.01.2022
149 Haze 8 1038 93 5000 4.63 210 13:34 14.01.2022
150 Clouds 8 1038 92 10000 4.12 210 12:24 14.01.2022
151 Clouds 8 1038 93 10000 0.45 183 10:47 14.01.2022
152 Clouds 8 1038 93 10000 2.57 240 08:54 14.01.2022
153 Clouds 8 1038 93 10000 3.09 230 08:20 14.01.2022
154 Clouds 8 1039 92 10000 0.89 126 03:55 14.01.2022
155 Clouds 8 1039 92 10000 1.34 74 00:50 14.01.2022
156 Clouds 7 1038 92 10000 1.34 79 22:35 13.01.2022
157 Clouds 7 1038 89 10000 1.34 323 21:30 13.01.2022
158 Clouds 7 1038 89 10000 1.34 66 20:54 13.01.2022
159 Clouds 8 1038 89 10000 1.34 86 19:32 13.01.2022
160 Clouds 8 1038 88 10000 1.34 79 18:57 13.01.2022
161 Clouds 8 1038 87 10000 1.79 96 17:25 13.01.2022
162 Clouds 8 1038 85 10000 2.24 59 16:19 13.01.2022
163 Clouds 8 1038 84 10000 2.24 90 15:35 13.01.2022
164 Clouds 8 1039 85 10000 1.79 107 13:47 13.01.2022
165 Clouds 8 1040 84 10000 2.68 79 12:20 13.01.2022
166 Clouds 8 1039 84 10000 2.24 88 09:38 13.01.2022
167 Clouds 8 1039 84 10000 2.24 91 08:54 13.01.2022
168 Clouds 8 1039 84 10000 1.79 93 08:24 13.01.2022
169 Clouds 8 1039 86 10000 2.24 90 07:21 13.01.2022
170 Clouds 8 1039 86 10000 2.24 85 05:57 13.01.2022
171 Clouds 8 1039 84 10000 2.24 88 05:18 13.01.2022
172 Clouds 8 1040 88 10000 2.68 82 01:49 13.01.2022
173 Clouds 8 1040 91 10000 1.34 50 23:54 12.01.2022
174 Clouds 8 1040 91 10000 1.34 326 23:35 12.01.2022
175 Clouds 8 1040 86 10000 2.24 98 22:56 12.01.2022
176 Clouds 9 1040 86 10000 2.24 94 21:56 12.01.2022
177 Clouds 8 1039 86 10000 2.68 95 21:21 12.01.2022
178 Clouds 9 1040 88 10000 2.68 62 20:56 12.01.2022
179 Clouds 9 1040 85 10000 2.68 62 19:28 12.01.2022
180 Clouds 9 1039 87 10000 1.79 77 18:28 12.01.2022
181 Clouds 9 1039 89 10000 2.68 95 16:59 12.01.2022
182 Clouds 9 1039 88 10000 3.13 58 15:53 12.01.2022
183 Clouds 9 1039 88 10000 1.79 85 14:46 12.01.2022
184 Clouds 9 1039 88 10000 2.24 78 12:58 12.01.2022
185 Clouds 9 1039 88 10000 2.24 78 12:58 12.01.2022
186 Clouds 9 1039 87 10000 0.89 37 09:59 12.01.2022
187 Clouds 8 1038 90 10000 1.34 46 08:33 12.01.2022
188 Clouds 8 1038 90 10000 2.24 62 07:33 12.01.2022
189 Clouds 8 1037 90 10000 1.79 66 05:30 12.01.2022
190 Clouds 7 1035 89 10000 2.24 71 23:29 11.01.2022
191 Clouds 7 1034 89 10000 1.79 65 22:41 11.01.2022
192 Clouds 7 1034 87 10000 1.79 66 22:20 11.01.2022
193 Clouds 7 1034 87 10000 1.34 101 20:40 11.01.2022
194 Clouds 7 1033 87 10000 1.34 21 19:41 11.01.2022
195 Clouds 7 1032 86 10000 1.79 337 18:22 11.01.2022
196 Clouds 7 1032 86 10000 1.34 76 17:18 11.01.2022
197 Clouds 8 1031 84 10000 1.34 96 16:36 11.01.2022
198 Clouds 8 1030 84 10000 1.79 80 14:57 11.01.2022
199 Clouds 8 1031 84 10000 1.79 42 14:39 11.01.2022
200 Clouds 7 1030 85 10000 2.24 33 13:53 11.01.2022
201 Clouds 7 1027 86 10000 5.14 210 13:31 11.01.2022
202 Clouds 6 1030 88 10000 1.34 69 12:37 11.01.2022
203 Clouds 4 1029 88 10000 2.57 290 10:45 11.01.2022
204 Clouds 4 1027 88 10000 3.6 220 08:27 11.01.2022
205 Clouds 5 1024 88 10000 0.45 353 04:30 11.01.2022
206 Clouds 5 1024 88 10000 0.45 353 04:30 11.01.2022
207 Clouds 6 1021 89 10000 0.89 206 00:28 11.01.2022
208 Clouds 7 1020 89 10000 1.34 5 23:40 10.01.2022
209 Clouds 8 1019 90 10000 0.89 88 22:42 10.01.2022
210 Clouds 8 1019 90 10000 1.34 104 22:18 10.01.2022
211 Clouds 8 1018 90 4500 0.89 158 21:36 10.01.2022
212 Clouds 9 1017 90 10000 0.45 199 21:18 10.01.2022
213 Rain 9 1017 90 10000 0.89 124 20:54 10.01.2022
214 Rain 9 1016 92 10000 2.24 118 20:19 10.01.2022
215 Clouds 10 1015 93 10000 1.79 101 19:39 10.01.2022
216 Clouds 10 1015 93 4000 3.58 52 19:19 10.01.2022
217 Clouds 10 1014 93 6000 3.13 340 18:46 10.01.2022
218 Clouds 10 1013 92 2700 0.45 237 16:49 10.01.2022
219 Clouds 9 1013 92 6000 6.69 190 16:27 10.01.2022
220 Clouds 9 1013 92 10000 0.45 214 14:44 10.01.2022
221 Drizzle 8 1013 93 3900 0.45 232 13:35 10.01.2022
222 Clouds 7 1013 93 3900 0.45 211 11:57 10.01.2022
223 Clouds 6 1013 96 8000 0.45 217 10:50 10.01.2022
224 Clouds 6 1012 96 8000 3.09 50 09:40 10.01.2022
225 Clouds 4 1011 96 2700 0.51 0 05:52 10.01.2022
226 Fog 3 1010 98 350 0.89 233 02:38 10.01.2022
227 Mist 3 1006 98 3700 1.03 0 01:21 10.01.2022
228 Mist 3 1008 96 4000 0.45 1 00:21 10.01.2022
229 Clouds 3 1006 95 10000 1.54 90 22:47 09.01.2022
230 Clouds 4 1006 95 10000 2.06 30 22:21 09.01.2022
231 Clouds 4 1005 95 10000 0.51 120 21:41 09.01.2022
232 Clouds 4 1005 95 10000 0.51 120 21:41 09.01.2022
233 Clouds 4 1004 95 10000 1.54 10 21:22 09.01.2022
234 Clouds 3 1004 95 10000 1.54 10 21:22 09.01.2022
235 Clouds 4 1001 94 7000 1.03 190 20:46 09.01.2022
236 Clouds 4 1003 95 10000 0.45 1 20:28 09.01.2022
237 Clouds 4 1002 94 10000 1.03 0 19:39 09.01.2022
238 Clouds 4 1002 93 10000 0.45 1 19:20 09.01.2022
239 Clouds 4 1001 92 10000 2.06 260 18:38 09.01.2022
240 Clouds 4 1000 92 10000 1.54 270 18:18 09.01.2022
241 Clouds 5 999 92 10000 3.09 230 17:30 09.01.2022
242 Clouds 6 999 88 10000 3.09 240 16:49 09.01.2022
243 Clouds 6 998 90 10000 4.63 220 15:46 09.01.2022
244 Clouds 6 997 90 10000 0.45 1 15:25 09.01.2022
245 Clouds 6 997 92 10000 0.45 237 14:39 09.01.2022
246 Clouds 6 997 90 10000 0.45 76 13:48 09.01.2022
247 Clouds 5 996 91 7000 1.79 67 11:58 09.01.2022
248 Rain 5 996 89 10000 1.34 102 11:28 09.01.2022
249 Clouds 5 996 90 10000 1.34 124 09:55 09.01.2022
250 Clouds 4 995 92 10000 1.34 136 09:20 09.01.2022
251 Clouds 3 995 91 10000 0.89 90 06:57 09.01.2022
252 Clouds 3 993 89 10000 1.34 90 01:30 09.01.2022
253 Clouds 4 993 89 10000 0.89 90 00:38 09.01.2022
254 Rain 4 992 88 7000 2.24 91 23:34 08.01.2022
255 Clouds 4 992 87 10000 0.89 138 22:48 08.01.2022
256 Clouds 3 991 88 10000 2.24 95 21:28 08.01.2022
257 Clouds 3 991 87 10000 1.34 132 20:43 08.01.2022
258 Clouds 4 991 87 10000 1.34 108 20:22 08.01.2022
259 Clouds 4 991 87 10000 2.68 90 19:22 08.01.2022
260 Clouds 4 991 88 10000 4.63 230 17:38 08.01.2022
261 Clouds 4 991 87 10000 0.45 116 16:45 08.01.2022
262 Clouds 5 991 85 10000 0.89 84 15:33 08.01.2022
263 Clouds 6 991 86 10000 1.79 98 13:58 08.01.2022
264 Clouds 6 991 85 8000 1.79 105 11:41 08.01.2022
265 Clouds 6 991 91 10000 1.79 85 10:33 08.01.2022
266 Clouds 6 991 95 10000 5.14 250 09:57 08.01.2022
267 Clouds 6 991 96 10000 5.14 250 09:33 08.01.2022
268 Rain 4 996 93 3500 0.45 231 06:18 08.01.2022
269 Rain 1 1007 93 8000 2.06 50 01:41 08.01.2022
270 Clouds 0 1009 94 10000 1.54 60 23:31 07.01.2022
271 Clear 0 1007 91 10000 1.03 0 21:49 07.01.2022
272 Clouds 0 1009 89 10000 1.03 0 20:32 07.01.2022
273 Clouds 1 1009 89 10000 3.09 240 19:27 07.01.2022
274 Clouds 1 1009 89 10000 3.09 240 19:27 07.01.2022
275 Clouds 1 1008 91 10000 4.12 230 18:49 07.01.2022
276 Clouds 0 1008 91 10000 2.57 210 18:21 07.01.2022
277 Clouds 1 1007 86 10000 1.34 97 17:23 07.01.2022
278 Clouds 2 1005 88 10000 1.79 106 14:55 07.01.2022
279 Rain 2 1005 90 10000 0.45 18 13:52 07.01.2022
280 Clouds 2 1004 91 10000 0.89 154 12:51 07.01.2022
281 Clouds 1 1003 93 10000 4.12 220 11:22 07.01.2022
282 Rain 2 1000 91 10000 2.24 101 04:25 07.01.2022
283 Rain 2 1000 92 10000 1.79 127 02:46 07.01.2022
284 Rain 2 1000 91 10000 2.24 115 01:48 07.01.2022
285 Rain 2 1000 91 10000 2.68 73 01:48 07.01.2022
286 Rain 3 1000 90 10000 2.68 85 01:25 07.01.2022
287 Rain 3 1000 88 9000 1.34 110 00:30 07.01.2022
288 Rain 4 999 87 10000 2.24 81 22:33 06.01.2022
289 Clouds 5 999 88 10000 2.24 70 20:51 06.01.2022
290 Rain 4 999 88 10000 1.34 121 20:18 06.01.2022
291 Rain 5 996 84 10000 4.12 270 19:36 06.01.2022
292 Clouds 6 998 83 10000 3.13 101 17:51 06.01.2022
293 Clouds 6 998 88 10000 2.24 130 17:23 06.01.2022
294 Clouds 7 998 88 10000 0.45 296 16:32 06.01.2022
295 Clouds 6 999 90 10000 1.79 300 15:44 06.01.2022
296 Rain 6 999 90 10000 2.24 304 15:21 06.01.2022
297 Clouds 5 1001 92 10000 1.79 276 14:20 06.01.2022
298 Rain 4 1002 91 3900 3.58 251 13:33 06.01.2022
299 Rain 4 1004 90 4000 2.24 278 12:20 06.01.2022
300 Rain 3 1006 89 8000 1.34 258 11:29 06.01.2022
301 Rain 3 1009 80 10000 2.24 308 09:56 06.01.2022
302 Clouds 2 1014 81 10000 0.89 231 06:37 06.01.2022
303 Clouds 0 1020 84 10000 0.45 241 00:27 06.01.2022
304 Clear 0 1021 87 10000 0.45 160 23:22 05.01.2022
305 Clear 0 1021 85 10000 1.03 0 22:42 05.01.2022
306 Clear -1 1021 85 10000 1.03 0 22:21 05.01.2022
307 Clear -1 1021 85 10000 1.03 260 21:25 05.01.2022
308 Clear -1 1021 83 10000 1.03 0 20:30 05.01.2022
309 Clear 0 1021 80 10000 1.54 250 19:29 05.01.2022
310 Clear 1 1020 77 10000 3.09 220 18:20 05.01.2022
311 Clear 3 1019 71 10000 2.06 220 16:56 05.01.2022
312 Clear 4 1019 67 10000 0.45 125 16:18 05.01.2022
313 Clear 5 1019 67 10000 0.45 112 14:56 05.01.2022
314 Clear 5 1018 69 10000 0.89 104 13:34 05.01.2022
315 Clear 3 1017 75 10000 1.79 99 12:20 05.01.2022
316 Clear 2 1010 81 10000 3.09 280 08:29 05.01.2022
317 Clear 2 1012 83 10000 3.6 260 06:37 05.01.2022
318 Clouds 3 1007 75 10000 1.79 110 01:24 05.01.2022
319 Clouds 3 1006 74 10000 2.68 88 23:42 04.01.2022
320 Clouds 3 1006 74 10000 1.79 100 23:19 04.01.2022
321 Clouds 3 1005 77 10000 1.79 100 21:36 04.01.2022
322 Clouds 2 1005 75 10000 2.68 86 20:41 04.01.2022
323 Clear 2 1004 73 10000 2.24 85 18:35 04.01.2022
324 Clear 2 1004 74 10000 1.79 105 17:19 04.01.2022
325 Clear 3 1004 74 10000 0.89 339 16:31 04.01.2022
326 Clouds 3 1004 71 10000 2.24 104 14:58 04.01.2022
327 Clouds 3 1004 71 10000 2.68 111 14:37 04.01.2022
328 Clouds 3 1004 73 10000 1.79 114 13:55 04.01.2022
329 Clear 2 1004 77 10000 2.24 94 11:44 04.01.2022
330 Clear 1 1004 79 10000 0.89 127 10:18 04.01.2022
331 Clear 1 1004 80 10000 1.34 111 08:36 04.01.2022
332 Clouds 0 1004 87 10000 0.89 124 04:24 04.01.2022
333 Clouds -1 1005 88 10000 2.06 260 00:42 04.01.2022
334 Clouds -1 1005 86 10000 3.6 240 23:49 03.01.2022
335 Clouds 0 1004 86 10000 2.57 230 22:21 03.01.2022
336 Clouds 0 1007 88 10000 1.98 257 21:38 03.01.2022
337 Clouds 1 1004 80 10000 3.09 340 20:34 03.01.2022
338 Clouds 3 1004 78 10000 1.34 154 18:54 03.01.2022
339 Clouds 3 1003 86 10000 0.45 192 18:29 03.01.2022
340 Clouds 4 1003 85 10000 0.89 216 17:20 03.01.2022
341 Clouds 5 1002 86 10000 0.89 205 16:28 03.01.2022
342 Clouds 6 1000 91 10000 1.34 205 14:31 03.01.2022
343 Clouds 8 999 91 10000 0.45 177 12:51 03.01.2022
344 Rain 7 999 92 10000 0.89 143 11:50 03.01.2022
345 Rain 8 998 90 10000 2.24 100 10:37 03.01.2022
346 Rain 8 997 87 10000 2.68 91 08:54 03.01.2022
347 Rain 8 996 88 10000 2.68 86 07:52 03.01.2022
348 Rain 8 997 90 4900 4.02 82 02:28 03.01.2022
349 Clouds 9 997 84 10000 3.13 30 23:22 02.01.2022
350 Clouds 9 997 84 10000 2.68 104 22:56 02.01.2022
351 Clouds 9 997 87 10000 2.68 50 21:52 02.01.2022
352 Clouds 9 997 87 10000 3.58 81 20:45 02.01.2022
353 Rain 9 997 88 7000 3.58 61 20:25 02.01.2022
354 Rain 9 997 85 10000 3.58 24 19:31 02.01.2022
355 Clouds 9 997 82 10000 3.13 35 18:51 02.01.2022
356 Clouds 9 997 83 10000 3.13 48 17:56 02.01.2022
357 Clouds 9 997 83 10000 3.58 5 17:38 02.01.2022
358 Clouds 9 997 83 10000 3.13 87 17:18 02.01.2022
359 Clouds 9 997 84 6000 3.13 56 16:27 02.01.2022
360 Clouds 10 999 81 10000 3.58 57 14:38 02.01.2022
361 Clouds 10 1000 82 10000 2.68 50 12:57 02.01.2022
362 Clouds 10 1000 83 10000 3.13 22 12:25 02.01.2022
363 Clouds 9 1000 84 10000 2.68 57 11:33 02.01.2022
364 Clouds 9 1001 86 10000 2.68 57 10:49 02.01.2022
365 Clouds 9 1001 87 10000 2.24 49 09:45 02.01.2022
366 Clouds 7 1003 88 10000 1.34 349 05:51 02.01.2022
367 Clouds 8 1006 87 10000 1.79 315 01:48 02.01.2022
368 Clouds 9 1006 85 10000 1.79 84 23:40 01.01.2022
369 Clouds 9 1006 86 10000 2.24 89 22:57 01.01.2022
370 Clouds 10 1005 86 10000 2.24 75 22:23 01.01.2022
371 Clouds 10 1005 88 10000 1.79 112 21:44 01.01.2022
372 Clouds 10 1004 88 10000 2.68 43 20:55 01.01.2022
373 Clouds 11 1004 90 10000 2.68 46 19:58 01.01.2022
374 Clouds 11 1005 89 9000 2.68 67 19:26 01.01.2022
375 Rain 11 1004 85 4300 2.68 340 17:59 01.01.2022
376 Clouds 12 1004 78 9000 4.02 345 16:41 01.01.2022
377 Clouds 12 1005 77 10000 2.68 31 16:19 01.01.2022
378 Clouds 13 1004 76 10000 3.58 357 15:26 01.01.2022
379 Clouds 13 1004 74 10000 4.47 44 13:58 01.01.2022
380 Clouds 13 1004 76 9000 3.58 31 12:50 01.01.2022
381 Clouds 13 1004 81 9000 3.13 37 11:56 01.01.2022
382 Clouds 13 1003 82 8000 2.24 76 11:22 01.01.2022
383 Clouds 14 1003 82 9000 3.58 351 10:27 01.01.2022
384 Clouds 13 1003 83 9000 4.02 17 09:45 01.01.2022
385 Clouds 13 1004 84 10000 1.79 309 08:25 01.01.2022
386 Clouds 13 1006 81 10000 1.34 307 07:44 01.01.2022
387 Clouds 12 1006 82 10000 1.79 336 06:47 01.01.2022
388 Clouds 12 1008 88 10000 0.45 247 05:26 01.01.2022
389 Clouds 12 1008 90 10000 0.45 244 04:37 01.01.2022
390 Rain 11 1011 90 8000 0.89 236 01:59 01.01.2022
391 Clouds 11 1013 91 10000 0.45 235 23:36 31.12.2021
392 Clouds 11 1012 92 10000 0.51 0 21:53 31.12.2021
393 Rain 12 1013 90 10000 2.24 84 20:37 31.12.2021
394 Clouds 12 1012 87 10000 3.13 75 19:30 31.12.2021
395 Clouds 12 1009 87 10000 6.17 210 18:35 31.12.2021
396 Clouds 12 1011 87 10000 1.34 61 17:38 31.12.2021
397 Clouds 12 1010 87 10000 1.34 61 17:18 31.12.2021
398 Clouds 12 1010 87 8000 2.68 99 16:24 31.12.2021
399 Clouds 12 1009 87 10000 3.13 99 15:56 31.12.2021
400 Clouds 12 1009 88 6000 3.13 95 15:28 31.12.2021
401 Clouds 12 1008 89 4500 2.68 78 14:52 31.12.2021
402 Clouds 12 1008 92 5000 3.13 67 14:29 31.12.2021
403 Haze 12 1008 93 5000 2.68 107 13:36 31.12.2021
404 Haze 12 1007 93 4300 2.24 163 12:45 31.12.2021
405 Clouds 12 1006 94 10000 1.79 93 11:47 31.12.2021
406 Clouds 12 1005 94 9000 1.79 146 11:29 31.12.2021
407 Rain 11 1005 96 3700 0.45 225 10:35 31.12.2021
408 Drizzle 11 1004 96 4000 0.45 225 09:54 31.12.2021
409 Rain 11 1004 97 3100 0.89 224 09:32 31.12.2021
410 Drizzle 10 1004 97 3400 0.45 235 08:27 31.12.2021
411 Drizzle 10 1004 96 3500 1.34 249 07:30 31.12.2021
412 Mist 11 1006 94 4500 0.45 105 23:23 30.12.2021
413 Clouds 11 1006 96 9000 0.89 123 22:33 30.12.2021
414 Clouds 11 1006 96 9000 0.89 123 22:33 30.12.2021
415 Clouds 11 1005 93 8000 0.89 112 21:56 30.12.2021
416 Clouds 11 1005 93 8000 0.89 112 21:56 30.12.2021
417 Clouds 11 1005 93 8000 4.12 220 21:36 30.12.2021
418 Clouds 11 1005 93 10000 1.34 132 20:46 30.12.2021
419 Clouds 11 1005 93 10000 0.89 133 20:25 30.12.2021
420 Clouds 11 1005 93 10000 1.34 109 19:45 30.12.2021
421 Clouds 11 1006 93 10000 1.34 69 18:45 30.12.2021
422 Clouds 11 1006 93 10000 1.34 92 18:18 30.12.2021
423 Clouds 12 1006 91 10000 1.34 89 16:19 30.12.2021
424 Clouds 12 1006 90 10000 1.79 105 15:51 30.12.2021
425 Clouds 12 1006 88 10000 1.34 113 14:39 30.12.2021
426 Clouds 12 1005 88 10000 2.24 74 13:55 30.12.2021
427 Clouds 12 1005 88 10000 2.24 74 13:55 30.12.2021
428 Clouds 12 1004 89 10000 1.34 97 12:40 30.12.2021
429 Clouds 12 1003 90 10000 2.68 137 10:59 30.12.2021
430 Clouds 12 1002 95 10000 2.68 99 09:59 30.12.2021
431 Clouds 12 1002 95 10000 2.68 99 09:59 30.12.2021
432 Clouds 12 1001 92 10000 2.24 62 09:21 30.12.2021
433 Clouds 12 1000 94 5000 2.24 50 06:54 30.12.2021
434 Clouds 11 1000 85 10000 1.34 23 03:43 30.12.2021
435 Clouds 11 1000 85 10000 1.79 104 03:23 30.12.2021
436 Clouds 10 1000 87 9000 2.24 81 23:50 29.12.2021
437 Clouds 10 999 87 9000 2.24 94 23:23 29.12.2021
438 Clouds 11 999 84 10000 1.79 101 22:22 29.12.2021
439 Clouds 10 999 82 10000 2.24 100 21:43 29.12.2021
440 Clouds 10 998 83 10000 3.13 79 20:39 29.12.2021
441 Clouds 10 998 85 9000 2.68 70 19:50 29.12.2021
442 Clouds 10 997 88 8000 4.02 73 18:54 29.12.2021
443 Clouds 10 996 91 6000 3.13 97 17:56 29.12.2021
444 Rain 10 995 87 7000 3.58 60 17:28 29.12.2021
445 Clouds 11 993 85 10000 4.02 83 16:41 29.12.2021
446 Clouds 11 992 87 10000 3.58 120 15:59 29.12.2021
447 Drizzle 9 988 94 3600 1.34 76 14:24 29.12.2021
448 Rain 6 989 97 3300 2.24 189 12:39 29.12.2021
449 Rain 5 990 94 4000 4.02 214 11:49 29.12.2021
450 Rain 5 994 93 8000 2.68 208 09:59 29.12.2021
451 Clouds 4 997 96 10000 0.45 225 07:52 29.12.2021
452 Clouds 4 997 96 10000 0.45 225 07:52 29.12.2021
453 Clouds 3 999 96 8000 0.45 225 06:40 29.12.2021
454 Clouds 3 1000 93 6000 0.45 225 06:22 29.12.2021
455 Mist 3 1000 95 5000 1.54 60 05:40 29.12.2021
456 Clouds 4 1002 95 10000 1.03 40 02:48 29.12.2021
457 Clouds 5 1002 95 10000 0.51 0 00:24 29.12.2021
458 Mist 4 1002 92 5000 2.06 230 23:45 28.12.2021
459 Clouds 4 1002 93 10000 0.51 0 22:42 28.12.2021
460 Clouds 5 1002 92 10000 0.51 120 22:24 28.12.2021
461 Clouds 5 1002 96 10000 1.54 40 21:52 28.12.2021
462 Clouds 6 999 93 10000 2.06 210 20:40 28.12.2021
463 Clouds 6 1001 92 10000 1.03 0 19:31 28.12.2021
464 Clouds 6 1000 92 10000 1.03 0 18:41 28.12.2021
465 Clouds 6 999 94 10000 2.06 240 17:59 28.12.2021
466 Clouds 7 998 91 10000 2.06 270 16:34 28.12.2021
467 Clouds 8 998 88 10000 2.57 290 15:50 28.12.2021
468 Clouds 8 997 88 10000 3.09 280 15:22 28.12.2021
469 Clouds 8 997 85 10000 2.57 10 14:50 28.12.2021
470 Clouds 8 997 86 10000 2.57 350 14:21 28.12.2021
471 Clouds 8 996 86 10000 3.09 350 13:42 28.12.2021
472 Clouds 8 993 90 10000 3.09 330 13:24 28.12.2021
473 Clouds 7 995 90 10000 0.89 167 12:49 28.12.2021
474 Clouds 7 994 90 10000 0.89 181 11:46 28.12.2021
475 Drizzle 6 991 96 4100 2.24 207 08:53 28.12.2021
476 Mist 6 991 96 5000 2.24 227 06:58 28.12.2021
477 Clouds 5 992 93 10000 2.68 179 00:34 28.12.2021
478 Clouds 5 993 94 10000 1.79 207 23:26 27.12.2021
479 Clouds 5 993 94 7000 1.79 162 21:46 27.12.2021
480 Clouds 5 993 94 6000 2.24 172 21:24 27.12.2021
481 Clouds 5 993 94 10000 2.68 235 20:24 27.12.2021
482 Clouds 5 993 96 10000 3.13 194 19:42 27.12.2021
483 Clouds 5 993 94 10000 2.68 182 18:52 27.12.2021
484 Clouds 5 993 94 7000 1.34 193 17:49 27.12.2021
485 Clouds 5 993 96 7000 1.34 229 16:55 27.12.2021
486 Clouds 6 993 94 7000 0.45 231 15:52 27.12.2021
487 Clouds 6 994 94 10000 1.03 0 14:33 27.12.2021
488 Clouds 6 994 94 9000 0.89 202 13:40 27.12.2021
489 Clouds 5 995 97 4900 0.89 215 12:40 27.12.2021
490 Clouds 4 995 94 7000 0.89 215 10:32 27.12.2021
491 Clouds 4 995 97 9000 1.34 222 09:47 27.12.2021
492 Mist 4 995 96 5000 0.89 208 07:50 27.12.2021
493 Mist 4 995 96 4700 1.34 205 07:29 27.12.2021
494 Clouds 4 998 94 8000 1.34 212 02:21 27.12.2021
495 Clouds 4 999 93 4500 1.34 228 23:58 26.12.2021
496 Drizzle 4 999 93 5000 1.34 237 23:39 26.12.2021
497 Clouds 3 1000 93 10000 1.79 219 22:34 26.12.2021
498 Rain 4 1001 92 6000 1.79 222 20:59 26.12.2021
499 Clouds 4 1001 89 8000 1.79 174 19:49 26.12.2021
500 Clouds 4 1001 88 10000 2.24 216 18:24 26.12.2021
501 Clouds 3 1002 91 10000 2.24 175 17:24 26.12.2021
502 Clouds 4 1003 87 10000 2.68 182 14:29 26.12.2021
503 Clouds 3 1003 87 10000 3.13 188 13:41 26.12.2021
504 Clouds 3 1004 86 10000 3.13 186 13:20 26.12.2021
505 Clouds 3 1004 87 10000 2.68 175 12:33 26.12.2021
506 Clouds 3 1004 87 10000 2.68 175 12:33 26.12.2021
507 Clouds 2 1005 89 10000 2.24 197 10:42 26.12.2021
508 Rain 2 1004 86 10000 2.24 203 09:26 26.12.2021
509 Clouds 2 1004 85 9000 3.58 222 08:44 26.12.2021
510 Rain 2 1005 80 10000 3.13 188 07:59 26.12.2021
511 Clouds 2 1007 72 10000 4.02 177 01:30 26.12.2021
512 Rain 2 1007 73 10000 2.68 174 23:58 25.12.2021
513 Rain 2 1008 72 10000 3.13 187 23:27 25.12.2021
514 Clouds 2 1008 73 10000 2.68 190 22:28 25.12.2021
515 Clouds 2 1008 73 10000 3.13 181 21:00 25.12.2021
516 Clouds 2 1009 73 10000 2.68 194 19:28 25.12.2021
517 Clouds 2 1009 75 10000 2.68 203 18:57 25.12.2021
518 Clouds 2 1009 74 10000 3.13 173 18:21 25.12.2021
519 Clouds 3 1009 73 10000 2.68 213 16:42 25.12.2021
520 Clouds 3 1010 68 10000 3.13 202 15:26 25.12.2021
521 Clouds 4 1010 70 10000 3.58 252 13:41 25.12.2021
522 Clouds 4 1011 71 10000 3.13 251 11:54 25.12.2021
523 Clouds 3 1010 77 10000 2.68 231 10:18 25.12.2021
524 Clouds 3 1010 79 10000 3.13 207 09:42 25.12.2021
525 Clouds 2 1010 78 10000 2.24 212 04:36 25.12.2021
526 Clouds 3 1010 76 10000 1.34 168 01:30 25.12.2021
527 Clouds 4 1010 68 10000 2.24 243 23:55 24.12.2021
528 Clouds 4 1009 72 10000 2.24 224 20:53 24.12.2021
529 Clouds 4 1009 73 10000 3.58 224 19:25 24.12.2021
530 Clouds 5 1009 79 10000 3.13 251 18:23 24.12.2021
531 Clouds 5 1008 90 10000 4.02 255 16:30 24.12.2021
532 Clouds 6 1008 90 10000 4.02 185 15:49 24.12.2021
533 Clouds 6 1008 89 10000 4.02 164 15:20 24.12.2021
534 Clouds 6 1008 89 10000 3.13 164 14:31 24.12.2021
535 Clouds 6 1008 90 10000 3.58 200 13:44 24.12.2021
536 Clouds 5 1008 94 10000 3.13 247 12:49 24.12.2021
537 Clouds 5 1008 94 10000 3.58 191 12:23 24.12.2021
538 Clouds 5 1008 94 10000 3.13 186 11:40 24.12.2021
539 Clouds 5 1008 94 10000 2.68 186 11:18 24.12.2021
540 Clouds 5 1008 94 10000 2.68 169 10:33 24.12.2021
541 Clouds 4 1008 94 10000 1.79 194 08:38 24.12.2021
542 Clouds 4 1008 94 10000 2.24 187 07:58 24.12.2021
543 Haze 4 1007 92 3100 1.79 184 06:18 24.12.2021
544 Mist 6 1006 95 2300 1.34 227 00:20 24.12.2021
545 Mist 5 1006 97 3500 0.89 237 23:33 23.12.2021
546 Mist 5 1006 97 5000 1.34 222 22:44 23.12.2021
547 Clouds 5 1006 97 10000 1.34 225 22:22 23.12.2021
548 Clouds 6 1005 98 10000 1.79 225 21:39 23.12.2021
549 Clouds 6 1005 95 7000 2.24 218 20:22 23.12.2021
550 Rain 5 1005 97 6000 1.79 211 19:27 23.12.2021
551 Drizzle 5 1004 97 2800 3.13 179 17:58 23.12.2021
552 Drizzle 5 1004 97 2600 3.13 208 17:18 23.12.2021
553 Clouds 5 1004 95 3300 3.13 194 16:26 23.12.2021
554 Drizzle 5 1004 95 2200 3.13 195 15:32 23.12.2021
555 Clouds 5 1004 95 3700 3.58 209 14:58 23.12.2021
556 Clouds 5 1004 95 3700 3.58 193 14:38 23.12.2021
557 Rain 5 1005 95 10000 3.13 198 13:25 23.12.2021
558 Clouds 4 1006 95 6000 2.24 234 11:20 23.12.2021
559 Drizzle 3 1006 97 2500 2.24 194 09:53 23.12.2021
560 Drizzle 4 1006 97 2500 1.79 225 09:33 23.12.2021
561 Drizzle 3 1006 97 2100 1.34 239 08:25 23.12.2021
562 Drizzle 3 1008 94 2100 0.89 255 05:23 23.12.2021
563 Drizzle 2 1010 96 1500 0.89 237 00:34 23.12.2021
564 Drizzle 2 1011 94 1400 1.34 226 22:49 22.12.2021
565 Drizzle 2 1012 94 2100 1.79 214 21:57 22.12.2021
566 Clouds 2 1012 94 3400 1.34 233 21:30 22.12.2021
567 Rain 2 1012 94 2300 1.79 219 20:53 22.12.2021
568 Rain 2 1012 94 2300 1.79 219 20:53 22.12.2021
569 Drizzle 2 1012 96 2700 0.89 232 20:33 22.12.2021
570 Drizzle 1 1013 96 1700 0.89 244 19:42 22.12.2021
571 Drizzle 1 1013 95 3300 1.34 236 18:19 22.12.2021
572 Rain 1 1014 94 2500 2.24 216 17:37 22.12.2021
573 Rain 2 1015 92 3400 2.24 192 15:49 22.12.2021
574 Snow 2 1017 85 7000 0.45 269 13:57 22.12.2021
575 Clouds 2 1018 84 8000 0.45 270 12:47 22.12.2021
576 Clouds 1 1019 85 8000 0.89 248 11:37 22.12.2021
577 Clouds 2 1020 87 8000 0.45 270 09:43 22.12.2021
578 Clouds 2 1021 87 8000 0.45 248 07:55 22.12.2021
579 Clouds 2 1022 86 9000 0.45 270 05:51 22.12.2021
580 Clouds 2 1022 87 10000 2.57 80 05:31 22.12.2021
581 Clouds 2 1022 89 8000 2.06 60 04:55 22.12.2021
582 Clouds 2 1023 87 8000 0.45 248 04:35 22.12.2021
583 Clouds 2 1023 87 8000 2.57 50 03:34 22.12.2021
584 Clouds 2 1024 86 10000 0.45 270 02:25 22.12.2021
585 Clouds 2 1025 86 10000 2.57 100 23:47 21.12.2021
586 Clouds 2 1026 87 10000 2.06 110 22:29 21.12.2021
587 Clouds 2 1026 88 10000 2.06 110 21:53 21.12.2021
588 Clouds 2 1025 87 10000 1.54 170 21:26 21.12.2021
589 Clouds 2 1026 88 10000 3.6 180 20:24 21.12.2021
590 Clouds 2 1026 87 10000 0.45 260 19:52 21.12.2021
591 Clouds 2 1026 88 10000 2.57 200 19:26 21.12.2021
592 Clouds 2 1026 89 10000 0.45 141 18:22 21.12.2021
593 Clouds 3 1026 89 10000 1.03 0 17:51 21.12.2021
594 Clouds 3 1026 89 10000 0.45 68 16:39 21.12.2021
595 Clouds 3 1026 88 10000 2.06 110 15:29 21.12.2021
596 Clouds 2 1028 89 10000 0.45 7 13:51 21.12.2021
597 Clouds 2 1028 89 10000 0.45 270 13:31 21.12.2021
598 Clouds 2 1028 89 10000 2.06 210 12:20 21.12.2021
599 Clouds 3 1028 92 6000 1.03 170 10:37 21.12.2021
600 Clouds 3 1028 92 9000 1.54 170 09:35 21.12.2021
601 Clouds 3 1028 92 10000 0.45 270 08:30 21.12.2021
602 Clouds 3 1028 92 9000 0.45 270 07:32 21.12.2021
603 Clouds 3 1029 92 8000 1.54 150 06:54 21.12.2021
604 Clouds 3 1030 91 9000 1.03 0 03:20 21.12.2021
605 Clouds 4 1031 89 10000 1.03 0 00:46 21.12.2021
606 Clouds 4 1031 89 10000 0.51 0 23:34 20.12.2021
607 Clouds 4 1031 89 10000 1.03 0 22:34 20.12.2021
608 Clouds 4 1032 88 10000 1.54 110 21:48 20.12.2021
609 Clouds 4 1032 88 10000 1.54 100 21:24 20.12.2021
610 Clouds 4 1032 86 10000 0.89 310 20:48 20.12.2021
611 Clouds 4 1032 89 10000 1.54 150 19:55 20.12.2021
612 Clouds 4 1032 89 10000 0.45 300 19:32 20.12.2021
613 Clouds 4 1032 89 10000 0.45 270 18:55 20.12.2021
614 Clouds 4 1032 88 10000 1.54 100 17:55 20.12.2021
615 Clouds 4 1032 88 10000 2.06 110 17:37 20.12.2021
616 Clouds 4 1032 86 10000 2.06 130 16:43 20.12.2021
617 Clouds 5 1033 86 10000 0.45 282 15:52 20.12.2021
618 Clouds 5 1033 88 10000 2.57 150 14:56 20.12.2021
619 Clouds 5 1034 90 10000 0.51 0 13:18 20.12.2021
620 Clouds 4 1034 93 10000 1.03 0 11:23 20.12.2021
621 Clouds 4 1034 92 10000 1.54 80 09:51 20.12.2021
622 Clouds 4 1034 92 10000 1.54 130 09:31 20.12.2021
623 Clouds 4 1034 90 10000 1.54 0 08:42 20.12.2021
624 Clouds 5 1034 90 10000 0.45 270 07:50 20.12.2021
625 Clouds 5 1035 90 10000 1.54 80 07:30 20.12.2021
626 Clouds 4 1035 90 10000 0.45 248 04:36 20.12.2021
627 Clouds 5 1037 93 10000 1.54 40 23:59 19.12.2021
628 Clouds 4 1037 94 10000 0.45 254 22:52 19.12.2021
629 Clouds 4 1037 96 10000 2.06 50 21:50 19.12.2021
630 Clouds 4 1037 94 10000 0.45 248 21:30 19.12.2021
631 Clouds 4 1037 97 10000 0.45 248 20:32 19.12.2021
632 Clouds 4 1038 97 10000 0.89 254 19:51 19.12.2021
633 Clouds 4 1038 97 10000 0.89 224 19:22 19.12.2021
634 Clouds 4 1038 97 10000 0.89 254 18:29 19.12.2021
635 Clouds 4 1038 97 10000 1.34 237 17:53 19.12.2021
636 Clouds 3 1038 97 6000 1.34 251 17:19 19.12.2021
637 Clouds 3 1038 97 8000 0.89 227 16:26 19.12.2021
638 Clouds 3 1038 97 8000 0.89 227 16:26 19.12.2021
639 Clouds 3 1038 97 10000 1.79 224 15:42 19.12.2021
640 Clouds 3 1038 97 10000 1.34 211 15:20 19.12.2021
641 Clouds 3 1039 97 8000 2.68 212 14:41 19.12.2021
642 Mist 3 1039 97 5000 1.79 223 13:22 19.12.2021
643 Mist 3 1040 97 3900 1.34 231 12:36 19.12.2021
644 Mist 2 1040 97 2900 1.79 236 12:18 19.12.2021
645 Mist 2 1040 96 1200 1.34 236 11:18 19.12.2021
646 Mist 2 1040 96 1500 0.89 258 10:25 19.12.2021
647 Mist 2 1040 96 1100 0.89 253 09:41 19.12.2021
648 Fog 2 1040 96 500 0.45 248 08:25 19.12.2021
649 Fog 2 1041 96 650 2.06 40 04:45 19.12.2021
650 Fog 2 1041 96 650 2.06 40 04:45 19.12.2021
651 Fog 2 1042 97 200 1.79 238 01:19 19.12.2021
652 Fog 2 1042 96 200 1.79 219 00:52 19.12.2021
653 Fog 2 1039 100 150 0.51 0 22:36 18.12.2021
654 Fog 1 1039 100 150 0.51 0 21:57 18.12.2021
655 Fog 1 1039 100 150 0.51 0 21:35 18.12.2021
656 Fog 2 1042 99 150 0.51 0 20:44 18.12.2021
657 Fog 2 1042 95 150 0.51 0 19:59 18.12.2021
658 Fog 3 1042 99 100 0 0 19:20 18.12.2021
659 Fog 2 1042 98 150 0.51 0 18:21 18.12.2021
660 Fog 2 1042 96 150 0.51 0 17:48 18.12.2021
661 Fog 3 1042 99 200 1.03 0 16:26 18.12.2021
662 Fog 4 1042 99 250 0.51 0 15:26 18.12.2021
663 Fog 4 1043 99 200 1.03 0 14:32 18.12.2021
664 Fog 4 1043 99 200 0.51 0 13:20 18.12.2021
665 Fog 3 1043 97 350 1.54 210 11:21 18.12.2021
666 Fog 3 1043 96 250 1.54 150 09:39 18.12.2021
667 Fog 4 1043 96 200 1.54 160 08:46 18.12.2021
668 Fog 3 1043 96 150 1.54 170 08:19 18.12.2021
669 Clouds 5 1044 93 10000 1.54 170 02:51 18.12.2021
670 Clouds 6 1044 89 10000 2.06 140 00:27 18.12.2021
671 Clouds 6 1044 88 10000 1.54 150 23:39 17.12.2021
672 Clouds 7 1044 87 10000 1.03 0 21:56 17.12.2021
673 Clouds 7 1044 85 10000 1.03 0 20:58 17.12.2021
674 Clouds 7 1044 85 10000 1.03 0 20:38 17.12.2021
675 Clouds 7 1044 85 10000 0.51 0 19:18 17.12.2021
676 Clouds 7 1044 86 10000 1.03 210 18:38 17.12.2021
677 Clouds 8 1044 84 10000 0.45 135 17:26 17.12.2021
678 Clouds 8 1045 84 10000 1.54 140 16:44 17.12.2021
679 Clouds 8 1044 84 10000 1.54 170 16:21 17.12.2021
680 Clouds 9 1044 84 10000 1.54 180 15:20 17.12.2021
681 Clouds 9 1045 84 10000 1.54 150 14:38 17.12.2021
682 Clouds 9 1045 86 10000 1.54 200 12:46 17.12.2021
683 Clouds 8 1045 91 10000 1.54 250 11:27 17.12.2021
684 Clouds 8 1044 92 10000 1.54 230 09:55 17.12.2021
685 Clouds 8 1044 92 9000 2.57 220 08:58 17.12.2021
686 Clouds 8 1044 93 8000 2.57 230 08:20 17.12.2021
687 Clouds 8 1043 93 7000 2.57 240 05:25 17.12.2021
688 Clouds 7 1043 96 10000 0.45 267 02:52 17.12.2021
689 Clouds 8 1042 93 10000 1.54 290 23:20 16.12.2021
690 -273 0 0 0 0 0 22:23 16.12.2021
691 -273 0 0 0 0 0 22:23 16.12.2021
692 Clouds 8 1042 92 10000 2.06 220 22:23 16.12.2021
693 Clouds 8 1042 92 10000 2.06 220 22:23 16.12.2021
694 Clouds 8 1042 92 10000 0.45 225 21:44 16.12.2021
695 Clouds 9 1041 92 10000 0.45 45 20:48 16.12.2021
696 Clouds 9 1042 91 10000 1.03 0 20:22 16.12.2021
697 Clouds 9 1041 92 10000 0.45 45 19:31 16.12.2021
698 Clouds 9 1041 91 10000 0.45 90 18:36 16.12.2021
699 Clouds 10 1040 89 10000 2.57 250 17:48 16.12.2021
700 Clouds 10 1040 88 10000 0.89 54 16:37 16.12.2021
701 Clouds 10 1040 88 10000 0.45 71 16:18 16.12.2021
702 Clouds 10 1039 88 10000 0.45 52 13:47 16.12.2021
703 Clouds 10 1038 89 10000 1.34 110 12:30 16.12.2021
704 Clouds 9 1038 91 10000 1.34 173 11:19 16.12.2021
705 Clouds 9 1038 92 10000 1.34 161 10:41 16.12.2021
706 Clouds 10 1037 90 10000 1.34 258 09:43 16.12.2021
707 Clouds 10 1035 93 10000 0.89 237 06:51 16.12.2021
708 Clouds 10 1035 93 6000 0.45 245 06:18 16.12.2021
709 Rain 10 1032 96 8000 0.89 208 23:58 15.12.2021
710 Rain 10 1031 96 7000 0.89 246 22:50 15.12.2021
711 Mist 10 1031 96 3600 0.89 235 22:21 15.12.2021
712 Mist 10 1031 96 3600 0.89 114 21:31 15.12.2021
713 Clouds 10 1030 96 6000 1.34 192 20:51 15.12.2021
714 Clouds 10 1030 96 10000 0.89 191 19:53 15.12.2021
715 Mist 10 1029 96 4200 1.34 254 19:18 15.12.2021
716 Clouds 10 1028 96 10000 0.89 229 18:19 15.12.2021
717 Mist 10 1028 95 5000 0.89 233 17:45 15.12.2021
718 Clouds 10 1028 95 3600 1.34 109 17:21 15.12.2021
719 Rain 11 1023 92 3300 5.14 220 15:48 15.12.2021
720 Clouds 11 1023 92 7000 4.63 220 15:29 15.12.2021
721 Clouds 10 1026 95 7000 0.89 243 14:44 15.12.2021
722 Clouds 10 1025 94 3300 0.89 279 13:28 15.12.2021
723 Clouds 10 1024 92 7000 1.79 88 11:41 15.12.2021
724 Clouds 10 1023 89 10000 2.24 81 10:18 15.12.2021
725 Clouds 9 1022 92 7000 2.68 86 07:55 15.12.2021
726 Rain 9 1021 92 10000 2.68 103 04:22 15.12.2021
727 Rain 9 1021 92 8000 2.68 178 23:53 14.12.2021
728 Rain 9 1020 91 10000 2.68 61 22:55 14.12.2021
729 Clouds 9 1020 91 10000 2.24 77 22:37 14.12.2021
730 Clouds 9 1020 91 10000 3.58 86 21:38 14.12.2021
731 Clouds 9 1020 91 5000 2.68 88 20:20 14.12.2021
732 Clouds 9 1020 88 10000 2.24 71 19:21 14.12.2021
733 Clouds 9 1020 88 10000 2.24 82 18:38 14.12.2021
734 Clouds 9 1020 88 10000 1.79 107 17:51 14.12.2021
735 Clouds 9 1020 89 10000 3.58 81 16:43 14.12.2021
736 Clouds 8 1020 91 10000 2.24 90 15:54 14.12.2021
737 Clouds 8 1020 91 8000 1.79 91 13:35 14.12.2021
738 Rain 8 1021 92 8000 2.24 135 12:47 14.12.2021
739 Rain 7 1020 89 8000 1.79 140 11:25 14.12.2021
740 Rain 8 1020 87 10000 2.68 85 10:28 14.12.2021
741 Clouds 8 1020 87 10000 2.24 65 09:53 14.12.2021
742 Clouds 7 1020 85 10000 1.79 85 08:40 14.12.2021
743 Clouds 7 1021 85 10000 2.24 54 08:20 14.12.2021
744 Clouds 6 1021 88 10000 1.34 194 06:27 14.12.2021
745 Clouds 4 1023 89 10000 4.63 220 23:40 13.12.2021
746 Clouds 5 1020 90 10000 5.14 210 22:18 13.12.2021
747 Clouds 5 1020 89 10000 5.66 220 21:34 13.12.2021
748 Clouds 4 1023 91 10000 5.14 230 20:50 13.12.2021
749 Clouds 5 1025 89 10000 0.45 93 19:59 13.12.2021
750 Clouds 5 1022 88 10000 0.89 107 19:27 13.12.2021
751 Clouds 6 1022 84 10000 0.89 101 17:27 13.12.2021
752 Clouds 7 1021 83 10000 1.79 84 16:24 13.12.2021
753 Clouds 7 1021 83 10000 1.79 60 15:43 13.12.2021
754 Clouds 7 1021 83 10000 1.79 60 15:43 13.12.2021
755 Clouds 7 1021 83 10000 1.34 79 13:57 13.12.2021
756 Clouds 7 1021 83 10000 1.34 117 13:31 13.12.2021
757 Clouds 7 1021 86 10000 1.34 59 12:36 13.12.2021
758 Clouds 7 1023 87 10000 0.89 18 11:40 13.12.2021
759 Clouds 7 1020 87 10000 0.89 153 11:19 13.12.2021
760 Clouds 7 1019 84 10000 1.34 96 10:21 13.12.2021
761 Clouds 7 1017 83 10000 2.68 70 08:31 13.12.2021
762 Clouds 7 1015 86 10000 0.89 35 05:37 13.12.2021
763 Clouds 8 1014 85 10000 2.68 65 03:57 13.12.2021
764 Clouds 12 1007 84 10000 1.79 275 23:43 12.12.2021
765 Rain 12 1007 86 10000 3.13 337 21:56 12.12.2021
766 Clouds 12 1009 88 9000 1.79 262 20:46 12.12.2021
767 Clouds 11 1010 90 10000 0.89 245 19:33 12.12.2021
768 Clouds 10 1011 94 9000 2.57 110 17:46 12.12.2021
769 Rain 9 1012 95 2500 0.89 231 16:28 12.12.2021
770 Drizzle 9 1012 94 2500 0.89 230 15:51 12.12.2021
771 Clouds 9 1012 91 3800 0.45 243 15:26 12.12.2021
772 Clouds 9 1013 89 10000 0.45 200 14:37 12.12.2021
773 Clouds 9 1014 89 10000 0.45 232 13:34 12.12.2021
774 Rain 9 1015 89 10000 3.6 210 12:32 12.12.2021
775 Rain 8 1015 91 10000 3.09 190 11:44 12.12.2021
776 Rain 8 1015 91 10000 1.03 0 11:25 12.12.2021
777 Clouds 7 1015 94 10000 2.06 70 10:39 12.12.2021
778 Clouds 7 1014 92 10000 1.03 0 09:44 12.12.2021
779 Clouds 8 1014 92 10000 0.45 227 08:38 12.12.2021
780 Clouds 8 1013 90 10000 0.45 169 06:34 12.12.2021
781 Clouds 8 1012 89 10000 4.12 210 05:22 12.12.2021
782 Clouds 8 1012 88 10000 3.6 190 03:57 12.12.2021
783 Clouds 9 1010 86 10000 0.45 105 23:48 11.12.2021
784 Clouds 10 1009 86 10000 1.79 114 22:24 11.12.2021
785 Clouds 10 1008 86 10000 2.24 95 21:52 11.12.2021
786 Clouds 10 1008 84 10000 1.79 101 21:21 11.12.2021
787 Clouds 10 1007 92 10000 1.79 128 19:37 11.12.2021
788 Clouds 11 1007 95 8000 2.68 108 18:53 11.12.2021
789 Clouds 10 1006 96 10000 2.24 116 18:30 11.12.2021
790 Rain 10 1006 94 9000 1.79 101 17:37 11.12.2021
791 Drizzle 9 1007 95 4200 1.54 0 15:55 11.12.2021
792 Drizzle 8 1007 95 4200 1.54 0 15:35 11.12.2021
793 Rain 7 1008 94 4300 0.45 225 13:21 11.12.2021
794 Rain 6 1010 93 7000 2.06 80 11:46 11.12.2021
795 Rain 5 1011 92 10000 3.09 150 09:47 11.12.2021
796 Clouds 4 1011 92 9000 1.54 50 09:18 11.12.2021
797 Clouds 1 1011 95 7000 1.03 110 02:40 11.12.2021
798 Clear 1 1008 94 7000 1.03 10 00:40 11.12.2021
799 Fog 1 1009 94 550 0.45 248 23:23 10.12.2021
800 Clear 1 1008 93 10000 1.03 0 21:57 10.12.2021
801 Clear 1 1008 93 10000 0.45 243 21:36 10.12.2021
802 Clouds 2 1006 91 10000 2.06 210 19:22 10.12.2021
803 Clouds 3 1006 89 10000 1.54 240 18:39 10.12.2021
804 Rain 3 1003 88 10000 1.03 0 16:57 10.12.2021
805 Clouds 3 1003 90 10000 0.45 130 16:29 10.12.2021
806 Clouds 4 1002 88 10000 4.63 260 15:41 10.12.2021
807 Rain 5 1003 87 10000 0.89 123 15:21 10.12.2021
808 Clouds 5 1001 82 10000 0.45 199 13:52 10.12.2021
809 Clouds 5 1001 84 10000 0.45 157 13:26 10.12.2021
810 Clouds 4 1001 85 10000 1.34 123 12:45 10.12.2021
811 Rain 3 999 88 10000 1.03 0 11:30 10.12.2021
812 Clouds 2 999 89 10000 2.06 200 10:38 10.12.2021
813 Clouds 2 997 89 10000 3.6 250 08:58 10.12.2021
814 Clouds 2 996 90 10000 1.79 122 06:59 10.12.2021
815 Clouds 3 993 87 10000 0.89 138 02:50 10.12.2021
816 Rain 4 991 85 10000 1.34 118 00:55 10.12.2021
817 Rain 6 990 85 10000 0.45 132 23:23 09.12.2021
818 Clouds 6 990 87 10000 1.79 126 22:28 09.12.2021
819 Clouds 6 990 85 10000 1.79 121 21:59 09.12.2021
820 Clouds 6 989 93 9000 1.34 127 21:19 09.12.2021
821 Rain 6 990 93 7000 0.45 225 20:28 09.12.2021
822 Clouds 5 990 92 10000 2.06 90 19:22 09.12.2021
823 Clouds 5 991 88 10000 3.6 100 18:49 09.12.2021
824 Rain 5 992 86 10000 3.09 110 17:56 09.12.2021
825 Rain 5 993 85 10000 3.6 150 17:26 09.12.2021
826 Clouds 5 993 85 10000 3.6 160 16:55 09.12.2021
827 Clouds 6 994 84 10000 0.45 301 15:46 09.12.2021
828 Clouds 6 995 84 10000 0.89 287 14:50 09.12.2021
829 Clouds 6 997 85 10000 0.89 129 13:25 09.12.2021
830 Clouds 6 997 89 10000 0.89 150 12:42 09.12.2021
831 Clouds 5 997 94 10000 2.57 230 11:24 09.12.2021
832 Clouds 4 998 94 5000 1.54 240 09:44 09.12.2021
833 Clouds 1 997 93 10000 1.03 0 06:50 09.12.2021
834 Clear 2 996 90 10000 0.89 126 03:43 09.12.2021
835 Clouds 4 994 87 10000 0.45 142 23:45 08.12.2021
836 Clouds 4 993 87 10000 0.89 132 23:21 08.12.2021
837 Clouds 4 993 86 10000 2.24 74 22:49 08.12.2021
838 Clouds 4 991 87 10000 1.34 130 21:46 08.12.2021
839 Clouds 4 991 88 10000 1.79 124 21:27 08.12.2021
840 Clouds 5 989 88 10000 2.57 270 19:59 08.12.2021
841 Clouds 5 989 89 10000 0.45 148 19:36 08.12.2021
842 Clouds 5 988 88 10000 0.45 158 18:46 08.12.2021
843 Clouds 5 987 88 10000 0.45 149 17:37 08.12.2021
844 Clouds 6 984 89 10000 0.45 145 15:57 08.12.2021
845 Clouds 6 984 89 10000 2.57 300 15:28 08.12.2021
846 Clouds 6 983 89 10000 3.09 290 14:40 08.12.2021
847 Clouds 4 980 95 10000 0.45 203 11:36 08.12.2021
848 Clouds 4 978 93 6000 2.06 230 10:31 08.12.2021
849 Rain 4 977 90 10000 1.03 0 09:25 08.12.2021
850 Clouds 4 975 90 10000 2.24 206 07:26 08.12.2021
851 Clouds 4 972 89 10000 2.24 220 04:57 08.12.2021
852 Rain 5 971 84 10000 4.47 174 23:34 07.12.2021
853 Clouds 5 969 83 10000 8.75 70 21:51 07.12.2021
854 Clouds 5 973 84 10000 4.47 211 21:23 07.12.2021
855 Clouds 5 974 84 10000 4.02 251 20:20 07.12.2021
856 Clouds 4 975 84 10000 4.02 236 18:43 07.12.2021
857 Rain 4 976 84 10000 4.92 203 17:52 07.12.2021
858 Clouds 4 977 87 10000 4.02 242 17:19 07.12.2021
859 Clouds 4 979 88 10000 4.47 230 16:31 07.12.2021
860 Clouds 3 980 92 10000 4.92 250 15:33 07.12.2021
861 Rain 2 984 92 7000 5.81 199 14:18 07.12.2021
862 Rain 3 989 85 10000 4.47 231 12:55 07.12.2021
863 Rain 3 993 89 10000 3.13 228 11:29 07.12.2021
864 Rain 2 995 91 10000 2.24 232 10:33 07.12.2021
865 Clouds 2 1000 91 10000 0.89 239 08:26 07.12.2021
866 Clouds 3 1002 91 10000 1.54 160 06:19 07.12.2021
867 Clouds 2 1002 92 10000 0.45 44 05:37 07.12.2021
868 Rain 3 1003 89 10000 2.68 84 23:47 06.12.2021
869 Clouds 3 1003 90 10000 2.06 220 22:57 06.12.2021
870 Clouds 3 1003 90 10000 0.89 143 22:35 06.12.2021
871 Clouds 3 1003 91 10000 1.34 130 21:51 06.12.2021
872 Clouds 3 1002 89 10000 1.79 101 20:33 06.12.2021
873 Rain 3 1002 89 10000 2.06 260 19:55 06.12.2021
874 Clouds 3 1001 91 10000 0.45 141 19:20 06.12.2021
875 Clouds 4 1001 89 10000 0.89 111 18:23 06.12.2021
876 Clouds 4 1001 87 10000 2.24 99 17:40 06.12.2021
877 Clouds 4 1000 88 10000 0.45 149 16:32 06.12.2021
878 Rain 4 1000 89 9000 1.34 132 15:38 06.12.2021
879 Clouds 5 1001 85 10000 1.34 108 13:46 06.12.2021
880 Clouds 5 1001 86 10000 5.14 240 12:39 06.12.2021
881 Rain 4 1002 91 10000 3.13 96 10:38 06.12.2021
882 Rain 4 1003 92 6000 0.89 243 08:45 06.12.2021
883 Rain 3 1007 90 8000 6.69 190 06:39 06.12.2021
884 Clouds -2 1015 91 10000 0.51 0 22:54 05.12.2021
885 Clouds -2 1016 89 7000 0.51 0 21:43 05.12.2021
886 Clouds -1 1016 91 10000 0.51 160 21:19 05.12.2021
887 Clouds -1 1017 89 10000 1.54 240 20:19 05.12.2021
888 Clouds -1 1019 88 9000 0.45 232 19:33 05.12.2021
889 Clear 0 1019 86 10000 1.03 260 18:43 05.12.2021
890 Clear 0 1020 85 10000 1.54 230 18:19 05.12.2021
891 Clear 0 1020 84 10000 2.06 230 17:48 05.12.2021
892 Clear 3 1019 76 10000 1.03 250 16:45 05.12.2021
893 Clear 4 1019 72 10000 2.06 280 16:26 05.12.2021
894 Clear 5 1019 67 10000 2.06 280 14:49 05.12.2021
895 Clear 5 1019 69 10000 0.45 149 14:31 05.12.2021
896 Clear 5 1019 70 10000 0.89 125 13:50 05.12.2021
897 Clear 5 1019 71 10000 2.57 300 13:22 05.12.2021
898 Clear 3 1019 78 10000 0.45 135 12:31 05.12.2021
899 Clear 2 1018 82 10000 1.03 210 11:57 05.12.2021
900 Clear 2 1020 80 10000 1.34 166 10:52 05.12.2021
901 Clear 1 1017 78 10000 0.89 158 09:59 05.12.2021
902 Clouds 3 1015 75 10000 2.57 300 07:55 05.12.2021
903 Clouds 4 1009 79 10000 1.79 98 02:28 05.12.2021
904 Clouds 5 1006 76 10000 0.45 14 23:31 04.12.2021
905 Clouds 5 1004 74 10000 2.24 164 21:54 04.12.2021
906 Clouds 5 1002 75 10000 4.92 149 20:55 04.12.2021
907 Clouds 5 1002 80 10000 6.26 156 19:55 04.12.2021
908 Clouds 5 1001 80 10000 4.47 155 19:31 04.12.2021
909 Clouds 5 999 82 10000 2.24 149 17:59 04.12.2021
910 Clouds 5 998 81 10000 3.13 133 17:38 04.12.2021
911 Clouds 5 998 81 10000 1.34 139 16:48 04.12.2021
912 Clouds 5 998 81 10000 1.34 139 16:48 04.12.2021
913 Clouds 5 997 81 10000 1.79 112 16:30 04.12.2021
914 Clouds 5 997 81 10000 1.79 115 16:30 04.12.2021
915 Clouds 5 996 82 10000 3.13 148 15:18 04.12.2021
916 Rain 3 992 94 10000 0.89 186 11:47 04.12.2021
917 Rain 3 992 94 4300 1.34 134 11:29 04.12.2021
918 Rain 2 992 95 10000 0.89 170 10:43 04.12.2021
919 Clouds 3 990 92 10000 0.51 0 08:45 04.12.2021
920 Rain 4 991 91 10000 1.54 230 06:24 04.12.2021
921 Clouds 4 991 91 10000 0.89 90 04:41 04.12.2021
922 Clouds 7 994 89 10000 2.68 103 23:49 03.12.2021
923 Clouds 7 994 89 10000 2.68 103 23:49 03.12.2021
924 Clouds 7 994 89 10000 2.68 103 23:49 03.12.2021
925 Clouds 7 995 88 10000 2.24 359 22:57 03.12.2021
926 Clouds 8 995 88 10000 1.79 28 22:38 03.12.2021
927 Clouds 8 996 88 10000 1.34 57 21:25 03.12.2021
928 Clouds 7 997 87 10000 1.34 82 20:46 03.12.2021
929 Clouds 7 997 91 10000 0.89 126 19:40 03.12.2021
930 Clouds 7 998 85 10000 0.45 107 18:28 03.12.2021
931 Clouds 6 998 86 10000 0.45 90 17:58 03.12.2021
932 Clouds 8 1000 82 10000 2.68 99 14:23 03.12.2021
933 Clouds 7 1001 86 10000 3.58 97 12:52 03.12.2021
934 Clouds 7 1002 85 10000 2.24 105 11:38 03.12.2021
935 Clouds 7 1002 85 10000 1.79 127 10:32 03.12.2021
936 Clouds 6 1002 82 10000 3.58 82 08:25 03.12.2021
937 Clouds 7 1002 82 10000 3.58 89 07:38 03.12.2021
938 Drizzle 4 1003 93 3300 2.06 60 02:24 03.12.2021
939 Rain 3 1005 89 7000 3.09 170 00:47 03.12.2021
940 Rain 3 1007 89 8000 0.45 222 23:46 02.12.2021
941 Rain 3 1009 88 10000 1.54 160 21:43 02.12.2021
942 Rain 3 1010 87 10000 0.45 203 21:20 02.12.2021
943 Clouds 2 1011 85 10000 2.06 40 20:38 02.12.2021
944 Clouds 2 1012 80 10000 1.03 0 19:31 02.12.2021
945 Clouds 3 1015 77 10000 1.03 230 17:43 02.12.2021
946 Clouds 4 1016 72 10000 0.45 139 15:42 02.12.2021
947 Clouds 4 1016 71 10000 0.89 123 14:59 02.12.2021
948 Clouds 4 1016 71 10000 1.34 134 14:33 02.12.2021
949 Clouds 3 1017 78 10000 0.89 125 12:52 02.12.2021
950 Clouds 2 1018 78 10000 0.89 142 12:18 02.12.2021
951 Clouds 1 1017 72 10000 1.34 166 09:41 02.12.2021
952 Clouds 1 1017 69 10000 1.79 163 08:52 02.12.2021
953 Clouds 1 1015 74 10000 1.34 134 04:54 02.12.2021
954 Clear 1 1013 82 10000 0.45 153 00:53 02.12.2021
955 Clear 2 1015 79 10000 0.45 151 23:28 01.12.2021
956 Clear 2 1013 79 10000 0.89 142 22:24 01.12.2021
957 Clear 2 1012 72 10000 0.89 166 20:53 01.12.2021
958 Clear 3 1012 68 10000 1.79 95 19:57 01.12.2021
959 Clouds 3 1012 67 10000 1.34 138 19:28 01.12.2021
960 Clouds 4 1010 67 10000 0.45 175 17:45 01.12.2021
961 Clouds 4 1009 68 10000 2.24 175 16:46 01.12.2021
962 Clouds 5 1006 64 10000 6.71 209 14:52 01.12.2021
963 Clouds 6 1005 70 10000 4.92 173 13:45 01.12.2021
964 Clouds 6 1004 77 10000 3.58 183 12:50 01.12.2021
965 Rain 6 1000 87 10000 2.68 210 10:42 01.12.2021
966 Clouds 6 997 87 10000 0.89 95 09:20 01.12.2021
967 Clouds 6 997 87 10000 1.34 111 08:29 01.12.2021
968 Clouds 6 996 85 10000 2.24 122 07:33 01.12.2021
969 Clouds 6 996 84 10000 2.24 109 06:34 01.12.2021
970 Clouds 7 995 86 10000 1.34 112 03:45 01.12.2021
971 Rain 7 996 93 10000 0.89 122 00:59 01.12.2021
972 Rain 7 995 92 10000 0.45 194 23:54 30.11.2021
973 Rain 7 995 90 10000 1.79 211 23:23 30.11.2021
974 Rain 10 994 94 6000 3.6 220 21:30 30.11.2021
975 Rain 10 995 96 7000 0.89 121 20:44 30.11.2021
976 Rain 10 996 95 10000 1.34 294 19:53 30.11.2021
977 Rain 10 997 93 10000 1.34 76 19:30 30.11.2021
978 Rain 11 998 93 8000 1.34 97 18:35 30.11.2021
979 Clouds 11 1001 92 9000 2.68 99 16:49 30.11.2021
980 Clouds 11 1003 94 10000 2.24 102 15:18 30.11.2021
981 Clouds 11 1005 94 10000 2.68 102 14:20 30.11.2021
982 Rain 11 1006 95 10000 2.24 100 13:25 30.11.2021
983 Rain 11 1007 94 7000 2.68 93 12:45 30.11.2021
984 Clouds 11 1007 93 10000 2.24 89 11:27 30.11.2021
985 Clouds 11 1008 93 10000 3.13 87 10:56 30.11.2021
986 Clouds 10 1008 95 10000 3.13 76 10:31 30.11.2021
987 Clouds 10 1009 92 10000 2.24 104 08:52 30.11.2021
988 Clouds 10 1009 92 10000 2.68 88 08:20 30.11.2021
989 Drizzle 10 1009 92 5000 3.13 87 07:47 30.11.2021
990 Clouds 10 1010 90 10000 3.13 83 02:41 30.11.2021
991 Clouds 10 1010 92 10000 4.02 94 01:41 30.11.2021
992 Clouds 10 1010 90 10000 2.68 98 00:19 30.11.2021
993 Clouds 10 1009 92 10000 3.13 90 23:23 29.11.2021
994 Clouds 10 1009 92 10000 3.58 89 22:52 29.11.2021
995 Clouds 10 1009 92 10000 4.47 89 22:32 29.11.2021
996 Clouds 10 1010 92 10000 4.47 100 21:23 29.11.2021
997 Clouds 10 1010 93 10000 3.58 75 20:57 29.11.2021
998 Clouds 10 1010 93 7000 2.24 108 20:29 29.11.2021
999 Clouds 10 1010 93 10000 2.68 114 19:55 29.11.2021
1000 Clouds 10 1010 93 10000 2.68 107 19:33 29.11.2021
1001 Clouds 9 1010 93 10000 3.13 94 18:48 29.11.2021
1002 Clouds 7 1007 98 729 4.25 249 17:22 29.11.2021
1003 Clouds 7 1007 98 729 4.25 249 16:59 29.11.2021
1004 Rain 6 1008 98 4902 3.84 228 16:29 29.11.2021
1005 Clouds 5 1009 98 4848 3.69 224 15:32 29.11.2021
1006 Clouds 5 1009 98 4848 3.69 224 14:42 29.11.2021
1007 Clouds 4 1010 96 10000 3.38 226 13:32 29.11.2021
1008 Clouds 3 1011 88 10000 2.34 218 12:28 29.11.2021
1009 Clouds 3 1011 88 10000 2.34 218 11:35 29.11.2021
1010 Clouds 2 1012 82 10000 2.14 226 10:32 29.11.2021
1011 Clouds 0 1012 86 10000 0.51 0 09:24 29.11.2021
1012 Clouds -1 1012 86 10000 1.03 80 06:19 29.11.2021
1013 Clouds -3 1013 93 10000 1.03 220 01:40 29.11.2021
1014 Clouds -3 1013 93 10000 0.51 0 00:39 29.11.2021
1015 Clouds -2 1013 86 10000 2.06 250 23:43 28.11.2021
1016 Clouds -1 1013 80 10000 0.51 0 22:47 28.11.2021
1017 Clouds -1 1013 80 10000 2.06 280 21:42 28.11.2021
1018 Clouds 1 1012 69 10000 1.03 0 21:19 28.11.2021
1019 Clouds 0 1012 80 10000 1.03 0 19:58 28.11.2021
1020 Clouds 1 1012 75 10000 1.54 0 18:45 28.11.2021
1021 Clouds 2 1011 75 10000 2.57 30 18:27 28.11.2021
1022 Clouds 2 1010 69 10000 3.6 20 17:49 28.11.2021
1023 Clouds 3 1010 70 10000 2.06 350 17:30 28.11.2021
1024 Clouds 4 1009 70 10000 4.12 20 16:28 28.11.2021
1025 Clouds 5 1009 70 10000 3.09 350 15:53 28.11.2021
1026 Clouds 4 1009 87 10000 2.06 250 14:57 28.11.2021
1027 Clouds 4 1009 87 10000 2.06 250 14:35 28.11.2021
1028 Clouds 2 1008 93 10000 3.6 270 12:58 28.11.2021
1029 Clouds 1 1008 100 10000 3.09 270 12:29 28.11.2021
1030 Clouds 0 1008 100 10000 1.03 300 10:53 28.11.2021
1031 Clouds 0 1008 100 10000 1.03 10 10:20 28.11.2021
1032 Clouds 0 1007 100 7000 1.03 0 09:36 28.11.2021
1033 Snow 1 1008 80 10000 2.06 270 06:29 28.11.2021
1034 Clouds 0 1012 80 10000 2.57 270 23:33 27.11.2021
1035 Clouds 2 1013 60 10000 3.09 300 20:33 27.11.2021
1036 Clouds 2 1012 60 10000 7.2 340 18:49 27.11.2021
1037 Clouds 3 1012 56 10000 5.66 330 16:31 27.11.2021
1038 Clouds 4 1012 52 10000 4.12 350 15:32 27.11.2021
1039 Clouds 4 1012 56 10000 5.14 340 13:46 27.11.2021
1040 Clouds 3 1012 60 10000 4.63 330 12:29 27.11.2021
1041 Clouds 3 1011 56 10000 3.09 360 10:31 27.11.2021
1042 Clouds 2 1010 55 10000 3.09 10 09:41 27.11.2021
1043 Clouds 3 1008 52 10000 7.72 360 07:44 27.11.2021
1044 Clouds 4 1006 56 10000 7.2 350 04:56 27.11.2021
1045 Clouds 5 1001 52 10000 7.2 350 00:55 27.11.2021
1046 Clouds 5 998 52 10000 10.29 340 23:29 26.11.2021
1047 Clouds 5 997 56 10000 10.8 350 22:25 26.11.2021
1048 Clouds 5 996 56 10000 12.86 350 21:34 26.11.2021
1049 Clouds 5 994 65 10000 8.23 340 20:45 26.11.2021
1050 Clouds 5 993 65 10000 8.23 330 19:56 26.11.2021
1051 Rain 5 992 65 10000 9.77 330 19:28 26.11.2021
1052 Rain 4 991 70 10000 7.72 310 17:55 26.11.2021
1053 Clouds 4 990 65 10000 8.23 300 17:21 26.11.2021
1054 Clear 6 990 61 10000 9.26 300 15:46 26.11.2021
1055 Clear 6 995 66 10000 6.26 324 13:35 26.11.2021
1056 Clouds 6 996 72 10000 5.81 327 11:58 26.11.2021
1057 Clouds 5 996 84 10000 1.34 265 10:37 26.11.2021
1058 Clouds 5 995 84 10000 1.79 273 08:57 26.11.2021
1059 Clouds 6 995 82 10000 0.89 258 08:21 26.11.2021
1060 Clouds 6 994 84 10000 2.68 322 07:25 26.11.2021
1061 Clouds 7 994 84 10000 4.02 305 06:26 26.11.2021
1062 Clouds 8 995 88 10000 3.58 281 03:57 26.11.2021
1063 Rain 8 999 89 10000 5.36 276 01:53 26.11.2021
1064 Rain 7 1007 89 10000 5.36 272 22:48 25.11.2021
1065 Rain 6 1011 86 10000 4.02 269 21:26 25.11.2021
1066 Clouds 5 1013 88 10000 2.24 257 20:27 25.11.2021
1067 Clouds 4 1017 85 10000 3.58 275 18:46 25.11.2021
1068 Clouds 4 1018 82 10000 2.24 270 17:47 25.11.2021
1069 Clouds 5 1018 80 10000 3.13 277 17:25 25.11.2021
1070 Clouds 5 1019 78 10000 4.02 293 16:32 25.11.2021
1071 Clouds 5 1021 77 10000 2.68 286 14:59 25.11.2021
1072 Clouds 5 1023 81 10000 1.34 251 13:26 25.11.2021
1073 Clouds 5 1024 82 10000 1.79 301 12:23 25.11.2021
1074 Clouds 4 1024 82 10000 0.45 1 11:48 25.11.2021
1075 Clouds 2 1024 89 10000 1.34 276 09:25 25.11.2021
1076 Clear 4 1023 81 10000 1.34 333 05:27 25.11.2021
1077 Clear 3 1022 82 10000 1.34 203 02:48 25.11.2021
1078 Clear 3 1021 89 10000 0.89 189 22:45 24.11.2021
1079 Clear 3 1021 87 10000 0.89 223 22:23 24.11.2021
1080 Clear 3 1021 86 10000 1.79 287 21:28 24.11.2021
1081 Clear 3 1020 86 10000 1.34 268 20:46 24.11.2021
1082 Clear 4 1019 84 10000 1.79 278 20:18 24.11.2021
1083 Clouds 4 1019 86 10000 1.34 271 18:30 24.11.2021
1084 Clouds 4 1019 86 10000 1.34 271 18:30 24.11.2021
1085 Clouds 5 1019 85 10000 1.79 269 16:53 24.11.2021
1086 Clouds 7 1019 79 10000 1.79 272 15:23 24.11.2021
1087 Clouds 7 1019 81 10000 1.79 266 14:42 24.11.2021
1088 Clouds 7 1019 83 10000 2.24 270 14:19 24.11.2021
1089 Clouds 7 1021 87 10000 2.68 276 11:51 24.11.2021
1090 Clouds 7 1020 87 10000 2.68 282 11:20 24.11.2021
1091 Clouds 7 1020 89 10000 2.24 267 10:47 24.11.2021
1092 Rain 7 1021 89 10000 2.24 270 10:21 24.11.2021
1093 Clouds 9 1021 85 10000 3.13 249 07:46 24.11.2021
1094 Clouds 9 1022 83 10000 3.13 260 06:51 24.11.2021
1095 Clouds 9 1025 82 10000 4.02 272 03:50 24.11.2021
1096 Clouds 9 1029 81 10000 2.24 271 23:44 23.11.2021
1097 Clouds 9 1030 84 10000 2.68 261 22:39 23.11.2021
1098 Clouds 9 1030 82 10000 4.47 266 21:46 23.11.2021
1099 Clouds 9 1031 88 10000 2.68 260 20:48 23.11.2021
1100 Clouds 8 1031 86 10000 2.24 279 19:37 23.11.2021
1101 Clouds 9 1032 84 10000 3.13 270 18:37 23.11.2021
1102 Clouds 9 1032 88 10000 2.24 270 17:57 23.11.2021
1103 Clouds 9 1033 88 10000 2.24 270 16:55 23.11.2021
1104 Clouds 9 1033 87 10000 3.13 276 15:57 23.11.2021
1105 Clouds 9 1033 85 10000 2.68 289 15:19 23.11.2021
1106 Clouds 9 1034 85 10000 3.58 283 13:43 23.11.2021
1107 Clouds 8 1035 93 10000 2.68 267 10:41 23.11.2021
1108 Clouds 7 1035 93 10000 2.68 273 09:57 23.11.2021
1109 Clouds 6 1035 95 10000 1.79 256 08:43 23.11.2021
1110 Clouds 6 1035 92 10000 0.45 227 05:57 23.11.2021
1111 Clouds 6 1036 93 10000 1.79 271 03:42 23.11.2021
1112 Clouds 7 1036 91 10000 1.34 250 00:28 23.11.2021
1113 Clouds 8 1033 87 10000 3.6 240 23:20 22.11.2021
1114 Clouds 8 1033 87 10000 3.09 240 22:32 22.11.2021
1115 Clouds 8 1033 87 10000 4.12 240 21:46 22.11.2021
1116 Clouds 8 1033 87 10000 3.09 230 21:26 22.11.2021
1117 Clouds 8 1033 87 10000 4.12 230 20:49 22.11.2021
1118 Clouds 8 1033 87 10000 4.12 230 20:49 22.11.2021
1119 Clouds 8 1033 81 10000 4.12 240 19:26 22.11.2021
1120 Clouds 8 1033 87 10000 5.14 250 18:50 22.11.2021
1121 Clouds 8 1033 87 10000 5.14 250 18:50 22.11.2021
1122 Clouds 8 1033 87 10000 5.14 250 18:31 22.11.2021
1123 Clouds 8 1033 81 10000 4.12 250 16:56 22.11.2021
1124 Clouds 8 1035 84 10000 0.45 265 15:42 22.11.2021
1125 Clouds 5 1037 88 10000 0.45 272 12:56 22.11.2021
1126 Clouds 3 1034 93 10000 0.51 0 11:39 22.11.2021
1127 Clouds 1 1033 93 10000 1.03 0 10:36 22.11.2021
1128 Clouds 0 1033 93 10000 1.03 0 08:46 22.11.2021
1129 Clouds 0 1033 91 10000 0.51 0 08:24 22.11.2021
1130 Clear 0 1035 92 10000 0.89 141 02:31 22.11.2021
1131 Clouds 1 1034 88 10000 0.45 185 23:22 21.11.2021
1132 Clouds 1 1034 88 10000 1.54 0 22:46 21.11.2021
1133 Clouds 3 1033 85 10000 0.45 232 21:33 21.11.2021
1134 Clouds 3 1032 81 10000 0.45 282 20:38 21.11.2021
1135 Clouds 4 1032 79 10000 0.45 222 19:43 21.11.2021
1136 Clouds 4 1032 79 10000 0.45 222 19:43 21.11.2021
1137 Clouds 5 1031 74 10000 3.13 350 17:59 21.11.2021
1138 Clouds 5 1031 74 10000 2.68 356 17:36 21.11.2021
1139 Clouds 8 1029 64 10000 1.34 10 15:21 21.11.2021
1140 Clouds 8 1029 66 10000 1.79 17 14:42 21.11.2021
1141 Clouds 7 1029 72 10000 2.68 329 13:23 21.11.2021
1142 Clear 6 1029 77 10000 1.79 287 12:27 21.11.2021
1143 Clear 5 1029 78 10000 2.24 297 11:39 21.11.2021
1144 Clear 4 1028 80 10000 0.89 256 10:19 21.11.2021
1145 Clear 3 1027 81 10000 2.24 325 09:47 21.11.2021
1146 Clear 3 1027 84 10000 1.79 309 08:34 21.11.2021
1147 Clear 2 1026 85 10000 2.24 284 07:54 21.11.2021
1148 Clouds 3 1026 86 10000 1.79 271 07:33 21.11.2021
1149 Clouds 3 1025 86 10000 1.79 270 05:43 21.11.2021
1150 Clear 5 1025 83 10000 0.89 131 04:35 21.11.2021
1151 Clear 5 1023 83 10000 0.89 195 02:57 21.11.2021
1152 Clear 5 1023 84 10000 0.89 195 02:32 21.11.2021
1153 Rain 5 1022 82 10000 2.24 276 00:51 21.11.2021
1154 Clear 5 1022 88 10000 1.79 269 22:55 20.11.2021
1155 Clear 6 1022 85 10000 2.24 273 21:34 20.11.2021
1156 Clear 6 1022 85 10000 1.34 254 20:33 20.11.2021
1157 Clouds 7 1021 83 10000 2.68 273 18:45 20.11.2021
1158 Clouds 8 1020 83 10000 3.58 273 18:24 20.11.2021
1159 Clouds 9 1020 80 10000 3.13 281 17:22 20.11.2021
1160 Clouds 10 1020 77 10000 3.58 279 15:40 20.11.2021
1161 Rain 10 1020 83 10000 2.24 278 14:39 20.11.2021
1162 Clouds 10 1020 86 10000 2.68 267 14:20 20.11.2021
1163 Drizzle 11 1020 93 2900 5.36 275 11:56 20.11.2021
1164 Haze 10 1020 92 5000 3.13 279 09:59 20.11.2021
1165 Clouds 10 1021 91 10000 3.58 217 08:48 20.11.2021
1166 Clouds 10 1022 89 10000 2.24 254 06:57 20.11.2021
1167 Clouds 10 1023 90 10000 4.02 266 05:21 20.11.2021
1168 Clouds 11 1023 90 10000 4.92 274 04:50 20.11.2021
1169 Clouds 11 1026 89 10000 4.47 270 00:45 20.11.2021
1170 Clouds 11 1026 88 10000 3.58 267 00:26 20.11.2021
1171 Clouds 12 1026 89 10000 3.58 262 22:54 19.11.2021
1172 Clouds 12 1026 91 10000 3.13 269 21:36 19.11.2021
1173 Clouds 12 1027 88 10000 2.68 270 20:48 19.11.2021
1174 Clouds 12 1027 88 10000 3.13 256 20:29 19.11.2021
1175 Clouds 12 1027 87 10000 3.58 254 19:47 19.11.2021
1176 Clouds 13 1027 86 10000 3.58 267 18:49 19.11.2021
1177 Clouds 13 1027 88 10000 1.79 244 18:18 19.11.2021
1178 Clouds 13 1027 88 10000 1.79 269 16:47 19.11.2021
1179 Clouds 13 1027 87 10000 6.71 276 15:31 19.11.2021
1180 Clouds 13 1027 88 9000 5.81 269 12:43 19.11.2021
1181 Clouds 13 1026 88 10000 5.36 271 10:26 19.11.2021
1182 Clouds 13 1025 88 10000 5.36 281 08:39 19.11.2021
1183 Clouds 13 1025 88 10000 6.71 275 07:26 19.11.2021
1184 Clouds 13 1024 85 10000 4.47 261 04:22 19.11.2021
1185 Clouds 13 1025 85 10000 4.92 273 23:59 18.11.2021
1186 Clouds 13 1025 85 10000 4.47 275 23:41 18.11.2021
1187 Clouds 13 1025 88 10000 8.05 288 21:41 18.11.2021
1188 Clouds 13 1025 89 10000 6.26 270 20:46 18.11.2021
1189 Clouds 13 1025 88 10000 5.36 272 20:28 18.11.2021
1190 Clouds 13 1024 89 10000 5.36 264 19:43 18.11.2021
1191 Clouds 13 1024 89 10000 4.92 270 18:40 18.11.2021
1192 Clouds 13 1024 89 10000 3.58 240 17:58 18.11.2021
1193 Clouds 13 1024 89 10000 5.81 270 17:36 18.11.2021
1194 Clouds 13 1023 92 10000 4.92 266 16:43 18.11.2021
1195 Clouds 13 1023 92 9000 4.47 261 15:24 18.11.2021
1196 Clouds 13 1024 90 10000 5.81 278 13:21 18.11.2021
1197 Clouds 13 1024 91 10000 5.81 263 11:45 18.11.2021
1198 Clouds 13 1023 91 10000 4.47 259 11:26 18.11.2021
1199 Clouds 13 1023 93 10000 5.36 268 10:55 18.11.2021
1200 Clouds 13 1022 93 10000 4.47 269 09:28 18.11.2021
1201 Clouds 13 1021 93 10000 4.92 271 07:34 18.11.2021
1202 Clouds 13 1020 93 10000 5.81 282 05:47 18.11.2021
1203 Drizzle 11 1020 94 5000 5.36 272 02:46 18.11.2021
1204 Clouds 11 1021 93 10000 5.36 274 01:21 18.11.2021
1205 Clouds 10 1021 92 3100 3.58 249 22:41 17.11.2021
1206 Drizzle 10 1021 92 8000 3.13 245 22:20 17.11.2021
1207 Drizzle 10 1021 92 6000 2.68 242 21:36 17.11.2021
1208 Clouds 10 1022 90 10000 3.58 272 20:18 17.11.2021
1209 Clouds 10 1021 83 10000 3.13 279 17:44 17.11.2021
1210 Clouds 10 1021 82 10000 4.02 277 16:59 17.11.2021
1211 Rain 10 1021 84 10000 3.13 265 13:59 17.11.2021
1212 Clouds 10 1020 82 10000 3.58 263 12:39 17.11.2021
1213 Rain 9 1020 85 10000 3.13 270 11:37 17.11.2021
1214 Clouds 8 1020 87 10000 3.13 271 10:28 17.11.2021
1215 Clouds 7 1020 85 10000 2.24 252 09:23 17.11.2021
1216 Clouds 7 1019 87 10000 1.79 272 07:41 17.11.2021
1217 Clouds 5 1017 90 10000 0.89 259 03:31 17.11.2021
1218 Rain 7 1016 86 10000 3.58 276 00:46 17.11.2021
1219 Rain 8 1016 84 10000 4.47 259 22:41 16.11.2021
1220 Clouds 9 1015 82 10000 2.68 274 20:20 16.11.2021
1221 Rain 9 1015 83 10000 3.13 270 19:57 16.11.2021
1222 Clouds 10 1014 87 10000 4.47 279 18:53 16.11.2021
1223 Clouds 10 1014 91 10000 6.26 281 18:29 16.11.2021
1224 Rain 11 1013 92 10000 4.02 246 17:31 16.11.2021
1225 Clouds 10 1013 92 5000 3.58 247 16:31 16.11.2021
1226 Rain 10 1014 92 7000 4.02 237 15:48 16.11.2021
1227 Clouds 10 1016 87 8000 4.92 254 13:49 16.11.2021
1228 Clouds 10 1016 87 10000 7.72 220 10:52 16.11.2021
1229 Clouds 9 1019 88 9000 2.24 226 09:44 16.11.2021
1230 Clouds 9 1020 86 10000 2.24 258 08:24 16.11.2021
1231 Clouds 9 1021 83 10000 2.24 230 07:30 16.11.2021
1232 Clouds 9 1026 84 10000 2.24 270 01:20 16.11.2021
1233 Clouds 8 1027 90 10000 0.45 225 22:48 15.11.2021
1234 Clouds 7 1027 93 10000 0.45 225 22:20 15.11.2021
1235 Clouds 7 1027 93 10000 0.45 225 21:51 15.11.2021
1236 Clouds 7 1027 90 10000 0.45 225 21:25 15.11.2021
1237 Clouds 8 1028 89 10000 0.45 225 19:41 15.11.2021
1238 Clouds 8 1028 86 10000 0.89 253 17:50 15.11.2021
1239 Clouds 10 1028 80 10000 2.24 268 16:19 15.11.2021
1240 Clouds 11 1028 82 10000 2.24 272 15:39 15.11.2021
1241 Clouds 11 1028 82 10000 1.79 268 15:19 15.11.2021
1242 Rain 11 1028 89 10000 1.79 275 12:43 15.11.2021
1243 Clouds 10 1028 94 10000 0.45 244 10:53 15.11.2021
1244 Mist 9 1028 96 3200 1.79 268 09:24 15.11.2021
1245 Clouds 9 1026 96 10000 0.89 263 07:26 15.11.2021
1246 Rain 11 1026 96 10000 1.79 283 04:45 15.11.2021
1247 Clouds 10 1027 92 10000 1.54 0 22:47 14.11.2021
1248 Clouds 10 1027 91 10000 0.45 90 22:28 14.11.2021
1249 Clouds 10 1027 92 10000 2.06 40 19:36 14.11.2021
1250 Clouds 10 1027 94 10000 0.45 111 19:18 14.11.2021
1251 Clouds 10 1027 92 8000 0.45 111 18:54 14.11.2021
1252 Clouds 10 1027 92 8000 0.89 112 18:36 14.11.2021
1253 Clouds 10 1027 92 6000 0.89 112 18:18 14.11.2021
1254 Clouds 10 1027 91 7000 0.45 111 17:54 14.11.2021
1255 Clouds 10 1027 91 7000 0.45 111 17:36 14.11.2021
1256 Clouds 10 1027 91 10000 0.45 111 17:18 14.11.2021
1257 Clouds 10 1027 91 10000 0.45 112 16:43 14.11.2021
1258 Clouds 11 1027 91 10000 2.57 50 16:19 14.11.2021
1259 Clouds 10 1027 91 10000 0.89 112 15:21 14.11.2021
1260 Clouds 10 1027 91 10000 1.34 111 14:45 14.11.2021
1261 Clouds 10 1027 91 10000 0.89 135 14:22 14.11.2021
1262 Clouds 10 1028 94 10000 0.45 157 13:52 14.11.2021
1263 Clouds 10 1028 92 10000 0.45 158 13:28 14.11.2021
1264 Haze 9 1028 89 5000 0.45 135 12:23 14.11.2021
1265 Clouds 9 1028 92 10000 0.45 135 11:28 14.11.2021
1266 Clouds 8 1028 92 10000 0.45 135 10:39 14.11.2021
1267 Clouds 8 1028 93 10000 0.45 135 09:41 14.11.2021
1268 Clouds 7 1027 93 10000 0.51 0 08:51 14.11.2021
1269 Clouds 6 1026 96 10000 0 0 04:47 14.11.2021
1270 Fog 5 1025 93 10000 1.54 90 23:20 13.11.2021
1271 Fog 6 1025 95 10000 0.45 248 22:21 13.11.2021
1272 Fog 6 1025 95 10000 1.54 0 21:36 13.11.2021
1273 Fog 6 1024 92 10000 1.54 30 20:46 13.11.2021
1274 Clouds 7 1024 92 10000 1.03 0 19:32 13.11.2021
1275 Fog 8 1022 90 10000 1.03 350 18:32 13.11.2021
1276 Clouds 9 1022 87 10000 0.89 248 17:41 13.11.2021
1277 Clear 11 1022 82 10000 0.89 256 16:29 13.11.2021
1278 Clear 12 1021 78 10000 1.34 256 14:45 13.11.2021
1279 Clear 12 1021 79 10000 0.89 277 13:56 13.11.2021
1280 Clear 12 1020 81 10000 0.45 306 12:43 13.11.2021
1281 Clear 10 1020 88 10000 0.45 225 11:51 13.11.2021
1282 Clear 9 1019 91 10000 0.45 270 11:22 13.11.2021
1283 Clouds 7 1019 92 10000 0.89 203 10:34 13.11.2021
1284 Clear 7 1019 94 10000 0.89 262 09:49 13.11.2021
1285 Clear 7 1018 94 10000 0.45 247 09:28 13.11.2021
1286 Clouds 6 1018 92 10000 0.45 270 08:49 13.11.2021
1287 Clear 7 1017 89 10000 1.34 275 07:51 13.11.2021
1288 Clouds 8 1014 88 10000 3.13 293 04:43 13.11.2021
1289 Clouds 8 1014 88 10000 2.68 288 04:20 13.11.2021
1290 Clouds 10 1009 85 10000 4.92 304 00:18 13.11.2021
1291 -273 0 0 0 0 0 22:34 12.11.2021
1292 Clouds 11 1007 86 10000 2.68 311 22:34 12.11.2021
1293 Clouds 11 1004 92 10000 2.24 269 20:49 12.11.2021
1294 Clouds 11 1002 90 10000 2.24 289 19:32 12.11.2021
1295 Clouds 11 1002 90 10000 2.24 289 19:32 12.11.2021
1296 Clouds 11 1000 93 10000 3.58 272 18:59 12.11.2021
1297 Clouds 11 999 91 10000 3.13 275 18:20 12.11.2021
1298 Clouds 11 997 92 4300 3.13 240 15:55 12.11.2021
1299 Clouds 12 997 92 10000 3.58 237 13:46 12.11.2021
1300 Rain 11 998 93 5000 1.79 226 11:26 12.11.2021
1301 Rain 11 999 92 3300 2.24 204 10:40 12.11.2021
1302 Rain 10 1000 89 10000 1.34 181 08:59 12.11.2021
1303 Clouds 10 1000 88 10000 2.68 207 08:29 12.11.2021
1304 Clouds 12 1008 87 10000 2.68 101 00:37 12.11.2021
1305 Clouds 12 1010 88 6000 2.24 165 23:30 11.11.2021
1306 Rain 12 1011 85 10000 3.13 177 22:21 11.11.2021
1307 Rain 12 1012 84 10000 2.24 209 21:26 11.11.2021
1308 Rain 12 1014 87 10000 1.79 192 20:18 11.11.2021
1309 Clouds 11 1015 88 10000 1.79 101 18:42 11.11.2021
1310 Rain 10 1016 89 10000 2.24 125 17:42 11.11.2021
1311 Clouds 11 1018 81 10000 1.34 144 15:51 11.11.2021
1312 Clouds 11 1019 76 10000 0.89 168 14:42 11.11.2021
1313 Clouds 11 1020 76 10000 0.89 179 14:22 11.11.2021
1314 Clouds 11 1021 76 10000 0.89 172 13:35 11.11.2021
1315 Clouds 10 1022 80 10000 0.45 213 12:27 11.11.2021
1316 Clouds 8 1022 91 10000 0.89 261 09:59 11.11.2021
1317 Clouds 8 1022 91 10000 0.89 249 09:23 11.11.2021
1318 Clouds 9 1022 88 10000 0.45 312 07:33 11.11.2021
1319 Clouds 9 1022 82 10000 0.89 253 00:40 11.11.2021
1320 Clouds 7 1023 89 10000 4.12 210 22:46 10.11.2021
1321 Clouds 7 1023 88 10000 0.45 261 21:54 10.11.2021
1322 Clouds 6 1023 90 10000 0.45 225 20:56 10.11.2021
1323 Clouds 6 1023 88 10000 1.54 0 20:25 10.11.2021
1324 Clouds 7 1023 88 10000 0.45 203 19:45 10.11.2021
1325 Clouds 8 1023 85 10000 1.34 250 17:28 10.11.2021
1326 Clouds 10 1023 78 10000 2.68 269 15:47 10.11.2021
1327 Clouds 11 1024 81 10000 2.24 267 14:25 10.11.2021
1328 Clouds 10 1024 82 10000 0.45 301 13:37 10.11.2021
1329 Clouds 9 1025 85 10000 0.45 350 12:24 10.11.2021
1330 Clouds 5 1023 92 10000 1.03 0 09:21 10.11.2021
1331 Clouds 5 1023 91 10000 1.54 0 08:41 10.11.2021
1332 Clouds 6 1022 89 10000 0.51 0 06:45 10.11.2021
1333 Clouds 6 1021 87 10000 0.45 15 05:58 10.11.2021
1334 Clouds 7 1021 86 10000 1.34 260 04:58 10.11.2021
1335 Clouds 10 1018 88 10000 2.24 240 22:29 09.11.2021
1336 Clouds 10 1018 86 10000 0.89 235 20:50 09.11.2021
1337 Clouds 10 1018 89 10000 0.89 203 19:36 09.11.2021
1338 Clouds 10 1018 88 10000 2.24 266 18:50 09.11.2021
1339 Clouds 11 1017 83 10000 2.68 240 16:57 09.11.2021
1340 Clouds 12 1017 79 10000 3.13 274 15:36 09.11.2021
1341 Clouds 12 1018 79 10000 4.47 279 13:50 09.11.2021
1342 Clouds 12 1017 84 10000 2.68 271 12:47 09.11.2021
1343 Clouds 11 1017 89 10000 3.58 272 11:18 09.11.2021
1344 Clouds 11 1017 93 10000 1.34 220 09:59 09.11.2021
1345 Clouds 11 1017 94 10000 1.34 217 09:21 09.11.2021
1346 Clouds 11 1016 93 10000 1.34 215 07:52 09.11.2021
1347 Rain 12 1016 93 6000 2.24 263 02:37 09.11.2021
1348 Rain 12 1015 95 8000 3.58 252 01:51 09.11.2021
1349 Rain 13 1015 95 10000 3.13 278 00:39 09.11.2021
1350 Clouds 14 1014 93 5000 4.92 279 23:30 08.11.2021
1351 Clouds 14 1014 92 8000 4.47 260 22:38 08.11.2021
1352 Haze 14 1014 92 4900 4.02 242 21:45 08.11.2021
1353 Rain 14 1015 93 10000 3.13 238 20:34 08.11.2021
1354 Clouds 14 1015 92 10000 3.58 224 19:27 08.11.2021
1355 Clouds 13 1016 96 6000 1.79 243 17:41 08.11.2021
1356 Clouds 12 1016 96 6000 0.45 319 15:49 08.11.2021
1357 Clouds 12 1019 94 10000 2.89 192 14:56 08.11.2021
1358 Clouds 11 1017 93 4000 0.45 18 14:24 08.11.2021
1359 Drizzle 10 1019 93 1900 0.45 22 12:59 08.11.2021
1360 Mist 9 1019 91 2100 0.89 10 11:54 08.11.2021
1361 Clouds 8 1020 89 6000 0.45 225 10:41 08.11.2021
1362 Clouds 7 1021 88 10000 0.45 225 08:56 08.11.2021
1363 Clouds 7 1021 90 10000 2.06 20 08:18 08.11.2021
1364 Clouds 6 1022 89 10000 2.06 60 06:55 08.11.2021
1365 Clouds 5 1023 91 10000 0.45 225 03:35 08.11.2021
1366 Clouds 6 1023 83 10000 0.45 183 00:18 08.11.2021
1367 Clouds 7 1023 81 10000 3.13 272 22:48 07.11.2021
1368 Clouds 7 1023 77 10000 1.79 199 21:24 07.11.2021
1369 Clouds 8 1022 75 10000 1.34 262 20:18 07.11.2021
1370 Clouds 9 1021 71 10000 5.36 281 18:30 07.11.2021
1371 Clouds 9 1020 71 10000 6.26 275 17:40 07.11.2021
1372 Clouds 10 1020 67 10000 3.58 294 16:21 07.11.2021
1373 Clouds 11 1019 66 10000 6.26 277 14:47 07.11.2021
1374 Clouds 11 1019 64 10000 5.81 284 14:24 07.11.2021
1375 Clouds 10 1018 69 10000 7.6 277 11:58 07.11.2021
1376 Clouds 10 1018 69 10000 7.15 299 11:18 07.11.2021
1377 Clouds 9 1016 76 10000 6.71 273 08:58 07.11.2021
1378 Clouds 8 1015 77 10000 6.71 285 02:49 07.11.2021
1379 Clouds 8 1015 75 10000 5.81 282 00:18 07.11.2021
1380 Rain 8 1014 82 10000 4.02 266 22:54 06.11.2021
1381 Clouds 8 1014 80 10000 5.36 276 21:43 06.11.2021
1382 Rain 9 1013 79 10000 5.36 277 20:52 06.11.2021
1383 Clouds 9 1013 79 10000 6.26 266 19:39 06.11.2021
1384 Clouds 10 1011 81 10000 6.26 274 17:25 06.11.2021
1385 Clouds 12 1010 82 8000 4.92 265 15:46 06.11.2021
1386 Drizzle 12 1010 93 2900 6.26 223 13:39 06.11.2021
1387 Drizzle 12 1010 93 2900 6.26 223 13:39 06.11.2021
1388 Rain 11 1011 93 4200 4.92 243 12:38 06.11.2021
1389 Rain 10 1015 92 4900 2.24 211 09:49 06.11.2021
1390 Clouds 10 1018 91 10000 4.02 252 08:24 06.11.2021
1391 Clouds 10 1022 91 10000 2.24 245 03:22 06.11.2021
1392 Clouds 10 1024 91 10000 2.24 253 23:40 05.11.2021
1393 Clouds 10 1024 91 10000 1.79 223 22:52 05.11.2021
1394 Clouds 10 1025 91 10000 2.68 261 21:55 05.11.2021
1395 Clouds 10 1025 90 10000 2.68 260 20:21 05.11.2021
1396 Clouds 10 1025 90 10000 3.13 262 19:49 05.11.2021
1397 Clouds 10 1026 88 10000 2.24 261 18:42 05.11.2021
1398 Clouds 11 1025 87 10000 2.24 258 17:34 05.11.2021
1399 Clouds 11 1025 87 10000 3.13 260 16:35 05.11.2021
1400 Clouds 12 1025 84 10000 2.68 270 13:59 05.11.2021
1401 Clouds 11 1025 87 10000 3.13 239 11:43 05.11.2021
1402 Clouds 9 1025 91 10000 1.79 271 08:57 05.11.2021
1403 Clouds 9 1024 92 10000 1.79 266 07:45 05.11.2021
1404 Clouds 9 1023 91 10000 1.79 263 05:33 05.11.2021
1405 Clouds 8 1024 92 10000 2.06 220 02:27 05.11.2021
1406 Clouds 6 1024 90 10000 0.89 239 00:53 05.11.2021
1407 Clouds 6 1024 86 10000 2.06 250 23:25 04.11.2021
1408 Clouds 6 1024 87 10000 1.54 0 22:20 04.11.2021
1409 Clouds 5 1024 87 10000 0.89 242 21:44 04.11.2021
1410 Clouds 5 1024 88 10000 0.89 225 21:19 04.11.2021
1411 Clouds 6 1024 83 10000 0.45 225 20:23 04.11.2021
1412 Clouds 6 1023 79 10000 0.45 225 19:48 04.11.2021
1413 Clouds 6 1023 80 10000 0.45 230 19:19 04.11.2021
1414 Clouds 7 1023 75 10000 0.45 248 18:20 04.11.2021
1415 Clouds 8 1023 72 10000 1.79 271 16:53 04.11.2021
1416 Clouds 9 1022 69 10000 3.58 309 15:34 04.11.2021
1417 Clouds 8 1022 71 10000 1.79 310 13:40 04.11.2021
1418 Clouds 3 1021 91 10000 0.89 210 09:50 04.11.2021
1419 Clouds 1 1021 95 10000 0.45 229 08:31 04.11.2021
1420 Clouds 1 1020 93 10000 0.89 265 07:35 04.11.2021
1421 Clouds 1 1020 94 10000 1.54 0 06:18 04.11.2021
1422 Clouds 5 1017 84 10000 2.68 321 22:53 03.11.2021
1423 Clouds 5 1017 82 10000 4.02 327 21:50 03.11.2021
1424 Clouds 5 1017 87 10000 3.13 333 21:31 03.11.2021
1425 Clear 6 1016 85 10000 2.68 325 20:38 03.11.2021
1426 Clouds 6 1016 82 10000 3.58 330 20:18 03.11.2021
1427 Clouds 7 1015 80 10000 0.89 288 19:19 03.11.2021
1428 Clouds 8 1015 74 10000 2.68 328 18:25 03.11.2021
1429 Clouds 8 1014 73 10000 1.34 314 17:36 03.11.2021
1430 Clouds 10 1013 67 10000 2.24 348 16:26 03.11.2021
1431 Clouds 10 1013 67 10000 1.34 308 15:44 03.11.2021
1432 Clouds 10 1013 69 10000 3.13 352 13:57 03.11.2021
1433 Clouds 10 1012 75 10000 2.24 335 12:33 03.11.2021
1434 Clouds 8 1011 86 10000 0.89 248 11:27 03.11.2021
1435 Clouds 7 1011 88 10000 1.34 247 10:49 03.11.2021
1436 Clouds 4 1010 92 10000 0.45 247 09:31 03.11.2021
1437 Clouds 3 1009 93 10000 0.89 198 08:23 03.11.2021
1438 Clouds 4 1009 91 10000 1.34 261 07:39 03.11.2021
1439 Clouds 5 1010 90 10000 0.89 267 05:35 03.11.2021
1440 Clouds 5 1006 90 10000 0.45 286 02:28 03.11.2021
1441 Clouds 5 1001 89 10000 3.09 230 23:51 02.11.2021
1442 Clouds 6 1001 89 10000 2.57 230 22:46 02.11.2021
1443 Clouds 6 1003 89 10000 0.89 271 21:29 02.11.2021
1444 Clouds 7 1002 89 10000 0.45 303 20:33 02.11.2021
1445 Clouds 8 1002 87 10000 1.34 307 19:51 02.11.2021
1446 Clouds 8 1001 85 10000 0.45 244 18:59 02.11.2021
1447 Clouds 9 1000 83 10000 0.45 251 17:59 02.11.2021
1448 Clouds 9 1000 83 10000 0.89 233 17:38 02.11.2021
1449 Clouds 11 999 77 10000 0.89 241 16:31 02.11.2021
1450 Clouds 11 999 77 10000 0.89 245 15:32 02.11.2021
1451 Clouds 11 999 74 10000 0.89 252 14:28 02.11.2021
1452 Clouds 11 999 77 10000 2.68 265 13:27 02.11.2021
1453 Clouds 10 998 82 10000 1.79 251 12:39 02.11.2021
1454 Clouds 9 998 90 10000 0.89 254 11:33 02.11.2021
1455 Clouds 7 998 93 10000 0.89 256 10:53 02.11.2021
1456 Clouds 7 997 96 10000 2.57 210 10:27 02.11.2021
1457 Clouds 6 999 94 10000 0.45 125 08:43 02.11.2021
1458 Clouds 5 995 93 10000 0.89 240 06:53 02.11.2021
1459 Clouds 5 994 92 10000 3.09 220 03:48 02.11.2021
1460 Clouds 5 994 91 10000 0.89 186 02:21 02.11.2021
1461 Clouds 6 993 89 10000 0.89 216 22:47 01.11.2021
1462 Clouds 7 992 87 10000 1.34 248 20:52 01.11.2021
1463 Clouds 7 992 87 10000 2.24 255 20:33 01.11.2021
1464 Clouds 7 991 86 10000 1.79 258 19:52 01.11.2021
1465 Clouds 8 991 85 10000 2.68 257 19:24 01.11.2021
1466 Clouds 8 990 83 10000 1.34 249 18:21 01.11.2021
1467 Clouds 9 990 80 10000 2.68 268 17:19 01.11.2021
1468 Clouds 9 989 79 10000 4.92 269 16:43 01.11.2021
1469 Clouds 9 989 77 10000 5.36 270 15:46 01.11.2021
1470 Clouds 10 988 76 10000 6.71 272 15:20 01.11.2021
1471 Clouds 10 988 76 10000 6.71 272 15:20 01.11.2021
1472 Clouds 10 988 76 10000 7.15 267 14:41 01.11.2021
1473 Clouds 10 987 75 10000 6.26 270 14:19 01.11.2021
1474 Clouds 10 986 76 10000 5.81 284 13:18 01.11.2021
1475 Clouds 9 984 79 10000 4.47 280 11:56 01.11.2021
1476 Clouds 9 983 83 10000 5.81 271 10:23 01.11.2021
1477 Clouds 9 980 82 10000 4.92 290 08:43 01.11.2021
1478 Clouds 9 979 87 10000 4.92 274 07:47 01.11.2021
1479 Clouds 7 974 95 10000 1.88 228 03:58 01.11.2021
1480 Clouds 7 974 95 10000 1.88 228 03:39 01.11.2021
1481 Fog 6 978 95 200 1.03 30 23:58 31.10.2021
1482 Fog 6 978 96 100 1.54 280 21:26 31.10.2021
1483 Fog 6 978 96 150 0.51 0 20:24 31.10.2021
1484 Fog 8 978 92 8000 0.89 225 18:43 31.10.2021
1485 Clouds 8 978 92 10000 1.54 360 18:21 31.10.2021
1486 Clouds 10 978 90 7000 0.45 181 16:48 31.10.2021
1487 Clouds 10 978 90 7000 0.45 181 16:48 31.10.2021
1488 Clouds 11 980 88 10000 0.89 121 14:53 31.10.2021
1489 Clouds 9 982 96 4500 1.34 97 12:58 31.10.2021
1490 Clouds 9 982 96 4500 1.34 97 12:58 31.10.2021
1491 Rain 8 983 94 8000 3.13 96 12:19 31.10.2021
1492 Rain 8 985 92 9000 4.02 107 10:51 31.10.2021
1493 Rain 7 988 92 10000 3.13 62 09:26 31.10.2021
1494 Rain 7 988 92 10000 3.58 65 08:46 31.10.2021
1495 Clouds 5 996 95 10000 0.89 105 02:54 31.10.2021
1496 Clouds 7 996 93 10000 2.06 120 23:42 30.10.2021
1497 Clouds 7 995 90 10000 0.45 224 21:46 30.10.2021
1498 Clouds 7 994 90 10000 0.45 212 21:25 30.10.2021
1499 Clouds 9 994 89 10000 1.79 217 19:35 30.10.2021
1500 Clouds 10 992 85 10000 2.24 217 17:43 30.10.2021
1501 Clouds 11 991 83 10000 2.24 236 15:30 30.10.2021
1502 Clouds 11 991 87 10000 2.24 232 13:56 30.10.2021
1503 Clouds 10 991 86 10000 1.79 247 13:22 30.10.2021
1504 Clouds 10 991 92 10000 1.34 216 12:57 30.10.2021
1505 Clouds 10 990 94 10000 1.03 0 11:49 30.10.2021
1506 Clouds 9 990 94 10000 0.45 135 10:32 30.10.2021
1507 Clouds 9 989 94 10000 0.45 131 08:54 30.10.2021
1508 Clouds 9 989 94 10000 1.34 153 07:42 30.10.2021
1509 Rain 9 990 94 10000 2.24 115 05:44 30.10.2021
1510 Clouds 7 993 94 10000 0.45 123 01:37 30.10.2021
1511 Clouds 8 994 91 10000 0.45 187 22:54 29.10.2021
1512 Clouds 8 994 93 10000 0.89 174 22:32 29.10.2021
1513 Clouds 9 993 93 10000 1.34 236 20:46 29.10.2021
1514 Clouds 9 993 93 10000 1.34 233 20:24 29.10.2021
1515 Clouds 10 991 94 10000 0.89 227 18:36 29.10.2021
1516 Clouds 9 990 97 10000 1.34 254 16:54 29.10.2021
1517 Rain 9 990 94 10000 3.13 273 15:21 29.10.2021
1518 Rain 10 990 97 10000 3.13 256 12:24 29.10.2021
1519 Rain 10 992 97 8000 0.45 248 10:46 29.10.2021
1520 Drizzle 11 993 97 5000 0.45 248 08:41 29.10.2021
1521 Clouds 12 996 95 3300 0.45 68 00:37 29.10.2021
1522 Rain 11 997 97 7000 0.45 104 23:27 28.10.2021
1523 Clouds 11 997 97 10000 0.89 95 22:18 28.10.2021
1524 Clouds 11 998 95 10000 0.89 125 20:54 28.10.2021
1525 Clouds 12 998 94 10000 0.89 114 19:51 28.10.2021
1526 Clouds 12 998 92 10000 0.45 164 18:26 28.10.2021
1527 Clouds 12 998 92 10000 0.89 68 17:18 28.10.2021
1528 Clouds 12 999 92 10000 3.09 160 15:48 28.10.2021
1529 Rain 12 1000 92 10000 0.45 135 14:23 28.10.2021
1530 Clouds 13 1001 94 10000 0.45 135 13:24 28.10.2021
1531 Clouds 13 1001 95 10000 0.89 199 12:41 28.10.2021
1532 Clouds 12 1001 95 10000 0.45 158 10:57 28.10.2021
1533 Clouds 12 1001 95 10000 2.06 230 09:39 28.10.2021
1534 Clouds 12 1001 96 10000 2.06 220 08:59 28.10.2021
1535 Clouds 12 1001 97 10000 2.06 220 08:34 28.10.2021
1536 Clouds 12 1001 97 10000 0.51 0 07:20 28.10.2021
1537 Rain 13 1004 94 10000 0.89 177 23:59 27.10.2021
1538 Rain 14 1004 94 10000 1.34 225 22:31 27.10.2021
1539 Clouds 14 1004 94 10000 1.34 222 21:33 27.10.2021
1540 Clouds 14 1004 94 10000 1.34 248 20:53 27.10.2021
1541 Clouds 14 1004 94 10000 0.89 238 20:33 27.10.2021
1542 Rain 14 1001 96 10000 2.57 230 19:40 27.10.2021
1543 Rain 14 1001 96 2900 0.51 0 18:52 27.10.2021
1544 Rain 15 1005 92 10000 1.34 201 16:27 27.10.2021
1545 Rain 15 1005 92 10000 2.24 232 15:32 27.10.2021
1546 Clouds 15 1006 92 10000 3.58 203 14:40 27.10.2021
1547 Clouds 16 1006 88 10000 4.02 198 12:33 27.10.2021
1548 Rain 15 1006 89 10000 3.58 250 10:58 27.10.2021
1549 Clouds 15 1006 90 10000 2.68 237 09:51 27.10.2021
1550 Clouds 13 1006 94 10000 1.34 225 08:22 27.10.2021
1551 Rain 13 1006 93 10000 2.68 244 07:22 27.10.2021
1552 Rain 14 1006 93 7000 3.13 255 02:24 27.10.2021
1553 Rain 14 1005 91 4600 4.47 256 00:56 27.10.2021
1554 Rain 15 1005 89 4000 5.36 217 00:26 27.10.2021
1555 Rain 15 1004 88 5000 4.92 268 23:41 26.10.2021
1556 Rain 15 1004 88 8000 4.47 223 22:37 26.10.2021
1557 Rain 15 1004 87 10000 5.81 226 21:57 26.10.2021
1558 Clouds 15 1004 84 10000 4.02 220 20:27 26.10.2021
1559 Clouds 15 1005 86 10000 5.36 229 19:26 26.10.2021
1560 Clouds 15 1005 87 10000 4.02 221 18:40 26.10.2021
1561 Rain 14 1005 90 10000 4.47 235 16:22 26.10.2021
1562 Clouds 14 1006 92 3900 3.58 220 14:19 26.10.2021
1563 Drizzle 12 1007 91 3000 2.68 234 11:34 26.10.2021
1564 Clouds 10 1008 93 6000 0.45 182 09:59 26.10.2021
1565 Rain 9 1009 89 10000 1.34 166 07:24 26.10.2021
1566 Rain 10 1011 88 10000 1.34 212 03:37 26.10.2021
1567 Clouds 9 1011 85 10000 0.89 188 23:49 25.10.2021
1568 Clouds 8 1011 90 10000 0.89 155 22:39 25.10.2021
1569 Clouds 8 1011 91 10000 0.45 138 22:18 25.10.2021
1570 Clouds 8 1011 88 10000 0.89 92 21:26 25.10.2021
1571 Clouds 8 1011 87 10000 1.79 232 19:45 25.10.2021
1572 Clouds 8 1011 87 10000 1.79 242 19:25 25.10.2021
1573 Clouds 8 1011 84 10000 2.24 215 18:51 25.10.2021
1574 Clouds 9 1010 83 10000 2.24 247 17:43 25.10.2021
1575 Clouds 12 1010 73 10000 4.47 238 15:38 25.10.2021
1576 Clouds 11 1009 78 10000 3.58 240 13:54 25.10.2021
1577 Clouds 10 1008 82 10000 3.13 241 11:58 25.10.2021
1578 Clouds 9 1008 85 10000 1.79 244 09:58 25.10.2021
1579 Clouds 9 1007 85 10000 2.24 238 07:40 25.10.2021
1580 Clouds 9 1007 84 10000 2.24 238 05:55 25.10.2021
1581 Clouds 11 1006 88 10000 2.68 217 00:53 25.10.2021
1582 Clouds 11 1006 88 10000 2.24 242 00:34 25.10.2021
1583 Clouds 11 1007 90 10000 2.24 207 23:45 24.10.2021
1584 Clouds 11 1006 87 10000 2.24 209 22:40 24.10.2021
1585 Clouds 11 1006 89 10000 2.24 209 22:20 24.10.2021
1586 Clouds 12 1009 88 10000 1.34 219 21:33 24.10.2021
1587 Rain 13 1006 83 10000 2.68 148 20:42 24.10.2021
1588 Clouds 13 1007 83 10000 2.24 176 19:49 24.10.2021
1589 Clear 13 1007 80 10000 2.24 200 18:30 24.10.2021
1590 Clouds 14 1007 78 10000 3.58 232 17:48 24.10.2021
1591 Clouds 15 1008 77 10000 4.47 224 15:57 24.10.2021
1592 Clouds 15 1008 79 10000 4.02 235 15:19 24.10.2021
1593 Clouds 15 1009 82 10000 3.13 186 13:19 24.10.2021
1594 Clouds 14 1009 85 10000 2.68 181 12:23 24.10.2021
1595 Clouds 14 1009 88 10000 3.58 204 11:34 24.10.2021
1596 Clouds 13 1009 89 10000 1.79 202 10:38 24.10.2021
1597 Clouds 13 1009 90 10000 1.79 181 10:38 24.10.2021
1598 Clouds 13 1008 92 6000 3.58 232 08:39 24.10.2021
1599 Rain 12 1012 89 10000 1.34 196 01:53 24.10.2021
1600 Clouds 13 1013 84 10000 4.02 182 23:51 23.10.2021
1601 Clouds 12 1014 87 10000 3.13 202 22:40 23.10.2021
1602 Rain 13 1015 83 9000 2.68 190 20:42 23.10.2021
1603 Clouds 13 1015 79 10000 3.13 223 19:26 23.10.2021
1604 Clouds 13 1015 78 10000 2.24 198 18:41 23.10.2021
1605 Clouds 13 1015 77 10000 1.34 192 17:44 23.10.2021
1606 Clouds 13 1015 77 10000 1.34 192 17:44 23.10.2021
1607 Clouds 14 1016 74 10000 1.79 190 16:45 23.10.2021
1608 Clouds 14 1017 74 10000 3.13 223 14:45 23.10.2021
1609 Clouds 10 1019 84 10000 0.89 128 09:45 23.10.2021
1610 Clouds 7 1023 92 10000 0.51 0 00:28 23.10.2021
1611 Mist 7 1023 94 3000 1.03 40 23:23 22.10.2021
1612 Clouds 8 1023 87 10000 0.89 215 20:56 22.10.2021
1613 Clouds 10 1022 74 10000 0.89 216 18:57 22.10.2021
1614 Clouds 11 1021 71 10000 2.24 243 17:44 22.10.2021
1615 Clouds 12 1021 65 10000 3.13 254 15:57 22.10.2021
1616 Clouds 12 1020 67 10000 3.13 265 14:30 22.10.2021
1617 Clouds 11 1019 75 10000 2.24 252 12:38 22.10.2021
1618 Clouds 9 1017 82 10000 1.79 270 10:48 22.10.2021
1619 Clouds 8 1016 81 10000 3.13 254 09:56 22.10.2021
1620 Clouds 8 1016 81 10000 3.13 254 09:56 22.10.2021
1621 Clouds 8 1015 85 10000 3.58 265 09:30 22.10.2021
1622 Clouds 9 1014 82 10000 1.79 222 07:26 22.10.2021
1623 Clouds 9 1012 83 10000 3.58 258 03:48 22.10.2021
1624 Rain 8 1013 86 9000 4.02 247 00:24 22.10.2021
1625 Rain 8 1013 82 10000 4.02 254 23:40 21.10.2021
1626 Clouds 8 1013 82 10000 7.6 256 22:21 21.10.2021
1627 Clouds 8 1014 78 10000 2.68 238 20:53 21.10.2021
1628 Clouds 8 1014 75 10000 3.58 250 20:19 21.10.2021
1629 Rain 8 1014 74 10000 4.47 248 19:30 21.10.2021
1630 Rain 8 1014 74 10000 4.47 248 19:30 21.10.2021
1631 Clouds 9 1014 75 10000 3.58 257 18:52 21.10.2021
1632 Clouds 9 1014 75 10000 4.02 256 18:22 21.10.2021
1633 Clouds 9 1014 75 10000 4.92 265 17:42 21.10.2021
1634 Clouds 10 1014 68 10000 6.26 253 16:18 21.10.2021
1635 Clouds 10 1013 64 10000 4.47 282 15:21 21.10.2021
1636 Clouds 10 1013 62 10000 4.02 270 14:39 21.10.2021
1637 Clouds 10 1013 68 10000 4.47 285 13:26 21.10.2021
1638 Clear 6 1011 80 10000 1.79 254 11:27 21.10.2021
1639 Clear 4 1008 80 10000 3.58 312 08:59 21.10.2021
1640 Clear 5 1005 79 10000 0.45 259 07:29 21.10.2021
1641 Clear 4 1002 78 10000 0.89 228 05:33 21.10.2021
1642 Clouds 6 994 86 10000 4.92 1 23:45 20.10.2021
1643 Rain 9 993 78 10000 1.79 240 22:21 20.10.2021
1644 Clouds 9 993 82 10000 1.79 234 21:43 20.10.2021
1645 Clouds 9 993 86 10000 2.68 239 20:56 20.10.2021
1646 Clouds 9 993 84 10000 2.68 239 20:35 20.10.2021
1647 Clouds 9 994 82 10000 2.68 253 19:59 20.10.2021
1648 Clouds 10 994 80 10000 3.58 233 18:56 20.10.2021
1649 Clouds 11 994 79 10000 3.58 246 17:51 20.10.2021
1650 Rain 12 995 72 10000 5.36 269 15:44 20.10.2021
1651 Clouds 11 996 82 10000 2.68 249 11:42 20.10.2021
1652 Clouds 10 997 84 10000 2.68 258 08:54 20.10.2021
1653 Clouds 11 999 86 10000 2.24 262 04:50 20.10.2021
1654 Clouds 13 1000 90 10000 4.47 251 00:48 20.10.2021
1655 Rain 14 999 89 10000 3.58 241 00:18 20.10.2021
1656 Clouds 15 999 92 10000 2.24 207 21:44 19.10.2021
1657 Clouds 15 999 92 10000 2.24 202 20:54 19.10.2021
1658 Clouds 16 999 92 10000 2.24 242 20:25 19.10.2021
1659 Rain 16 999 93 10000 1.34 241 19:41 19.10.2021
1660 Clouds 16 999 91 10000 1.79 230 19:19 19.10.2021
1661 Clouds 17 1000 91 10000 1.34 221 17:59 19.10.2021
1662 Drizzle 16 1001 93 4000 0.45 135 15:48 19.10.2021
1663 Drizzle 15 1002 93 4600 1.03 0 15:20 19.10.2021
1664 Clouds 15 1003 93 6000 2.06 130 14:26 19.10.2021
1665 Rain 15 1004 93 5000 0.45 119 13:29 19.10.2021
1666 Clouds 15 1005 93 10000 0.45 107 11:36 19.10.2021
1667 Rain 15 1006 94 10000 1.54 0 10:23 19.10.2021
1668 Clouds 14 1004 95 8000 1.54 0 08:58 19.10.2021
1669 Rain 14 1008 96 7000 1.54 60 06:50 19.10.2021
1670 Clouds 15 1010 93 10000 1.79 245 00:24 19.10.2021
1671 Clouds 15 1010 95 10000 1.34 252 23:50 18.10.2021
1672 Clouds 15 1010 93 10000 0.89 235 23:19 18.10.2021
1673 Clouds 15 1010 95 10000 1.34 236 22:53 18.10.2021
1674 Clouds 15 1009 96 10000 0.89 218 21:19 18.10.2021
1675 Drizzle 15 1009 96 5000 0.89 259 20:41 18.10.2021
1676 Clouds 15 1008 93 10000 0.89 265 19:53 18.10.2021
1677 Clouds 15 1008 93 10000 0.89 253 19:30 18.10.2021
1678 Clouds 15 1008 91 10000 0.89 164 18:54 18.10.2021
1679 Drizzle 15 1009 92 5000 0.89 163 15:32 18.10.2021
1680 Drizzle 13 1010 95 3200 1.34 93 13:32 18.10.2021
1681 Rain 14 1011 93 10000 0.89 90 10:42 18.10.2021
1682 Clouds 13 1012 97 10000 0.45 128 09:28 18.10.2021
1683 Clouds 13 1015 96 8000 0.89 94 03:22 18.10.2021
1684 Mist 12 1015 96 4700 0.89 83 23:31 17.10.2021
1685 Clouds 13 1014 95 2600 0.89 72 21:55 17.10.2021
1686 Clouds 13 1014 96 7000 1.34 72 21:18 17.10.2021
1687 Clouds 12 1014 97 7000 0.89 69 20:38 17.10.2021
1688 Mist 13 1014 97 3900 0.89 69 19:39 17.10.2021
1689 Clouds 13 1016 96 10000 0.45 45 18:58 17.10.2021
1690 Drizzle 13 1013 95 2000 0.89 57 17:34 17.10.2021
1691 Clouds 12 1013 95 3300 0.89 94 15:42 17.10.2021
1692 Clouds 11 1013 97 2700 0.89 73 14:24 17.10.2021
1693 Drizzle 11 1013 97 1900 0.89 72 13:42 17.10.2021
1694 Drizzle 10 1013 97 2800 0.89 91 11:57 17.10.2021
1695 Drizzle 9 1012 96 3100 0.45 22 10:34 17.10.2021
1696 Drizzle 9 1012 97 2100 1.03 260 09:30 17.10.2021
1697 Clouds 9 1011 97 5000 1.03 250 07:19 17.10.2021
1698 Rain 10 1015 94 6000 0.89 22 00:53 17.10.2021
1699 Rain 9 1015 95 4100 1.34 13 00:22 17.10.2021
1700 Drizzle 9 1016 95 5000 2.24 77 21:49 16.10.2021
1701 Rain 9 1017 95 4200 1.79 30 20:32 16.10.2021
1702 Rain 8 1017 95 8000 1.34 37 19:46 16.10.2021
1703 Rain 8 1018 92 6000 1.34 33 19:23 16.10.2021
1704 Rain 9 1018 92 10000 0.89 169 18:56 16.10.2021
1705 Rain 9 1018 91 10000 0.89 170 18:37 16.10.2021
1706 Rain 9 1018 91 10000 0.89 162 18:18 16.10.2021
1707 Clouds 9 1018 90 10000 1.34 172 17:25 16.10.2021
1708 Clouds 9 1019 82 10000 0.45 181 15:25 16.10.2021
1709 Clouds 7 1023 86 10000 0.45 181 11:55 16.10.2021
1710 Clouds 6 1021 89 10000 1.54 0 10:43 16.10.2021
1711 Clouds 6 1021 90 10000 2.06 50 08:20 16.10.2021
1712 Clouds 7 1024 82 10000 1.03 260 01:25 16.10.2021
1713 Clouds 6 1024 84 10000 1.03 0 23:55 15.10.2021
1714 Clouds 7 1024 81 10000 1.54 0 23:20 15.10.2021
1715 Clouds 7 1024 81 10000 1.03 0 22:19 15.10.2021
1716 Clouds 7 1024 81 10000 0.45 248 21:26 15.10.2021
1717 Clouds 7 1024 80 10000 0.45 219 20:46 15.10.2021
1718 Clouds 8 1024 75 10000 0.45 248 19:31 15.10.2021
1719 Clouds 9 1024 71 10000 0.89 254 18:40 15.10.2021
1720 Clouds 11 1025 66 10000 1.79 288 16:28 15.10.2021
1721 Clouds 11 1025 64 10000 1.34 238 15:36 15.10.2021
1722 Clouds 8 1026 82 10000 0.89 290 12:42 15.10.2021
1723 Clouds 6 1026 90 10000 0.45 213 11:36 15.10.2021
1724 Clear 4 1023 91 10000 0.34 127 10:46 15.10.2021
1725 Fog 2 1022 92 10000 0.51 0 09:46 15.10.2021
1726 Clear 3 1023 91 10000 0.45 301 05:31 15.10.2021
1727 Clouds 7 1020 87 10000 1.34 318 00:48 15.10.2021
1728 Clouds 7 1019 87 10000 0.45 290 00:21 15.10.2021
1729 Clouds 9 1018 85 10000 0.45 149 22:51 14.10.2021
1730 Clouds 9 1018 85 10000 0.45 149 22:51 14.10.2021
1731 Clouds 10 1017 84 10000 0.89 240 21:44 14.10.2021
1732 Clouds 11 1015 85 10000 2.68 296 20:38 14.10.2021
1733 Clouds 12 1015 86 10000 2.68 296 20:18 14.10.2021
1734 Clouds 13 1014 92 10000 4.92 260 19:33 14.10.2021
1735 Drizzle 13 1014 92 5000 4.92 242 17:30 14.10.2021
1736 Clouds 13 1015 91 9000 1.79 240 16:49 14.10.2021
1737 Clouds 13 1016 88 10000 3.13 241 15:35 14.10.2021
1738 Clouds 13 1014 88 3700 10.29 240 14:41 14.10.2021
1739 Clouds 13 1018 86 10000 4.47 252 13:37 14.10.2021
1740 Clouds 12 1019 86 10000 4.47 234 11:44 14.10.2021
1741 Clouds 12 1020 83 10000 3.58 221 09:55 14.10.2021
1742 Clouds 12 1024 84 10000 3.13 226 06:54 14.10.2021
1743 Clouds 12 1028 81 10000 2.24 240 00:57 14.10.2021
1744 Clouds 12 1028 79 10000 1.34 248 00:22 14.10.2021
1745 Clouds 12 1027 83 10000 2.24 245 21:53 13.10.2021
1746 Clouds 12 1027 86 10000 1.79 222 21:32 13.10.2021
1747 Clouds 12 1027 84 10000 2.68 240 19:48 13.10.2021
1748 Clouds 13 1026 84 10000 2.68 243 18:49 13.10.2021
1749 Clouds 13 1027 84 10000 4.02 261 17:49 13.10.2021
1750 Clouds 14 1027 79 10000 3.58 267 15:24 13.10.2021
1751 Clouds 14 1027 83 10000 3.13 228 14:44 13.10.2021
1752 Clouds 13 1028 83 10000 3.13 246 12:55 13.10.2021
1753 Clouds 12 1028 86 10000 3.13 251 11:55 13.10.2021
1754 Clouds 12 1028 86 10000 2.68 250 10:39 13.10.2021
1755 Clouds 13 1028 90 10000 2.24 243 07:58 13.10.2021
1756 Clouds 13 1028 89 10000 1.79 240 06:33 13.10.2021
1757 Clouds 13 1028 92 10000 2.24 256 02:24 13.10.2021
1758 Clouds 13 1028 92 10000 4.12 240 23:55 12.10.2021
1759 Clouds 13 1029 93 10000 2.57 250 23:29 12.10.2021
1760 Clouds 13 1029 93 10000 2.57 260 22:43 12.10.2021
1761 Clouds 13 1029 90 10000 0.51 20 21:30 12.10.2021
1762 Clouds 12 1029 92 10000 0.51 30 20:34 12.10.2021
1763 Clouds 13 1028 88 10000 0.51 360 19:52 12.10.2021
1764 Clouds 14 1028 86 10000 0.45 67 18:27 12.10.2021
1765 Clouds 14 1028 85 10000 0.45 346 17:38 12.10.2021
1766 Clouds 13 1028 86 10000 0.89 1 16:38 12.10.2021
1767 Clouds 13 1029 87 10000 0.89 24 15:44 12.10.2021
1768 Clouds 13 1029 90 10000 0.89 358 14:30 12.10.2021
1769 Clouds 12 1029 88 10000 2.24 47 13:42 12.10.2021
1770 Clouds 13 1028 90 10000 1.34 288 11:36 12.10.2021
1771 Clouds 13 1028 88 10000 2.68 270 09:41 12.10.2021
1772 Clouds 13 1028 88 10000 3.13 260 08:42 12.10.2021
1773 Clouds 13 1027 89 10000 3.13 265 06:49 12.10.2021
1774 Clouds 13 1028 92 10000 2.68 247 05:29 12.10.2021
1775 Clouds 12 1028 92 10000 2.24 250 04:29 12.10.2021
1776 Clouds 12 1029 88 10000 2.68 250 00:18 12.10.2021
1777 Clouds 12 1029 88 10000 2.68 250 00:18 12.10.2021
1778 Clouds 12 1029 88 10000 1.34 234 00:18 12.10.2021
1779 Clouds 12 1029 88 10000 1.34 234 00:18 12.10.2021
1780 Clouds 12 1029 87 10000 2.24 253 23:37 11.10.2021
1781 Clouds 12 1029 88 10000 3.58 254 22:56 11.10.2021
1782 Clouds 12 1030 88 10000 2.68 262 21:41 11.10.2021
1783 Clouds 12 1030 87 10000 0.89 205 20:32 11.10.2021
1784 Clouds 12 1030 87 10000 3.13 257 19:36 11.10.2021
1785 Clouds 13 1031 79 10000 2.68 245 18:24 11.10.2021
1786 Clouds 14 1031 74 10000 3.13 254 16:41 11.10.2021
1787 Clouds 14 1031 74 10000 2.68 252 16:21 11.10.2021
1788 Clouds 14 1031 77 10000 2.68 250 15:45 11.10.2021
1789 Clouds 14 1032 81 10000 2.68 263 14:54 11.10.2021
1790 Clouds 14 1032 79 10000 5.36 262 14:22 11.10.2021
1791 Clouds 14 1032 78 10000 3.13 237 13:35 11.10.2021
1792 Clouds 12 1033 87 10000 1.34 256 11:24 11.10.2021
1793 Clouds 11 1033 89 10000 0.45 248 09:47 11.10.2021
1794 Clouds 10 1033 91 10000 0.89 260 08:40 11.10.2021
1795 Clouds 10 1033 87 10000 4.47 261 01:47 11.10.2021
1796 Clouds 10 1032 88 10000 4.02 270 00:59 11.10.2021
1797 Clouds 10 1032 88 10000 4.02 270 00:59 11.10.2021
1798 Clouds 10 1032 88 10000 4.02 270 00:41 11.10.2021
1799 Clouds 10 1032 88 10000 2.24 308 22:42 10.10.2021
1800 Clouds 10 1032 87 10000 1.79 260 21:50 10.10.2021
1801 Clouds 10 1032 87 10000 2.68 258 21:20 10.10.2021
1802 Clouds 10 1032 86 10000 1.79 243 20:40 10.10.2021
1803 Clouds 11 1032 85 10000 1.34 248 20:40 10.10.2021
1804 Clouds 10 1032 87 10000 1.34 233 20:19 10.10.2021
1805 Clouds 11 1032 86 10000 1.34 231 19:44 10.10.2021
1806 Clouds 11 1032 85 10000 2.24 250 19:26 10.10.2021
1807 Clouds 12 1032 82 10000 4.47 266 18:20 10.10.2021
1808 Clouds 13 1031 79 10000 3.58 263 15:54 10.10.2021
1809 Clouds 13 1031 77 10000 2.68 262 15:35 10.10.2021
1810 Clouds 13 1032 81 10000 3.58 266 13:41 10.10.2021
1811 Clouds 12 1032 84 10000 2.24 229 12:43 10.10.2021
1812 Clouds 11 1032 91 10000 1.79 209 11:31 10.10.2021
1813 Clouds 10 1032 93 10000 1.79 229 10:29 10.10.2021
1814 Clouds 9 1032 96 10000 0.89 189 09:19 10.10.2021
1815 Clouds 8 1032 96 10000 0.89 201 08:50 10.10.2021
1816 Mist 9 1032 93 3300 2.06 230 04:51 10.10.2021
1817 Clouds 10 1032 93 10000 0.45 314 02:20 10.10.2021
1818 Clouds 11 1032 93 10000 2.57 230 00:50 10.10.2021
1819 Clouds 10 1032 92 10000 0.45 292 23:45 09.10.2021
1820 Clouds 11 1031 90 10000 0.89 270 22:20 09.10.2021
1821 Clouds 12 1031 90 10000 3.58 265 21:30 09.10.2021
1822 Clouds 13 1030 93 10000 2.24 187 20:19 09.10.2021
1823 Clouds 14 1030 93 10000 1.79 185 19:41 09.10.2021
1824 Clouds 14 1029 93 10000 1.79 176 18:48 09.10.2021
1825 Clouds 15 1029 93 6000 1.34 168 17:57 09.10.2021
1826 Clouds 15 1029 93 10000 1.34 175 16:20 09.10.2021
1827 Clouds 15 1029 93 4700 1.34 177 14:28 09.10.2021
1828 Clouds 15 1029 93 6000 0.89 158 13:38 09.10.2021
1829 Rain 15 1028 92 10000 0.45 157 12:27 09.10.2021
1830 Clouds 15 1028 92 10000 0.45 158 10:45 09.10.2021
1831 Rain 15 1028 92 10000 0.89 158 10:19 09.10.2021
1832 Clouds 15 1028 88 10000 2.06 180 08:45 09.10.2021
1833 Clouds 15 1028 88 10000 1.54 0 08:20 09.10.2021
1834 Clouds 15 1028 91 10000 1.54 110 06:37 09.10.2021
1835 Clouds 15 1029 87 10000 1.54 0 04:43 09.10.2021
1836 Clouds 15 1029 88 10000 3.09 190 02:46 09.10.2021
1837 Clouds 15 1029 88 10000 0.89 157 00:24 09.10.2021
1838 Clouds 15 1029 89 10000 1.34 152 23:31 08.10.2021
1839 Clouds 15 1026 88 10000 2.06 0 22:46 08.10.2021
1840 Clouds 15 1029 89 10000 0.45 158 21:44 08.10.2021
1841 Clouds 15 1029 86 10000 0.89 157 19:49 08.10.2021
1842 Clouds 17 1029 85 10000 3.6 200 18:23 08.10.2021
1843 Clouds 16 1026 88 10000 4.63 170 16:55 08.10.2021
1844 Clouds 16 1026 89 10000 4.12 170 16:24 08.10.2021
1845 Clouds 16 1026 92 10000 5.14 180 14:56 08.10.2021
1846 Clouds 16 1026 92 10000 3.6 160 13:45 08.10.2021
1847 Clouds 16 1025 90 10000 4.63 170 11:41 08.10.2021
1848 Clouds 15 1024 93 10000 2.57 160 10:42 08.10.2021
1849 Rain 15 1024 93 10000 3.6 200 09:46 08.10.2021
1850 Rain 16 1022 93 10000 2.57 190 03:36 08.10.2021
1851 Clouds 16 1019 92 10000 6.17 210 23:24 07.10.2021
1852 Rain 17 1019 92 9000 5.14 190 21:48 07.10.2021
1853 Rain 17 1018 92 7000 6.17 190 21:28 07.10.2021
1854 Rain 17 1018 92 8000 6.17 200 20:29 07.10.2021
1855 Rain 17 1017 89 10000 7.2 200 19:32 07.10.2021
1856 Clouds 17 1017 91 10000 5.66 200 18:40 07.10.2021
1857 Clouds 18 1017 90 9000 6.17 200 17:27 07.10.2021
1858 Rain 18 1017 88 10000 7.72 200 15:58 07.10.2021
1859 Clouds 18 1016 88 10000 4.63 180 14:48 07.10.2021
1860 Rain 17 1016 91 10000 6.17 180 13:43 07.10.2021
1861 Drizzle 17 1016 89 5000 3.6 180 12:49 07.10.2021
1862 Clouds 17 1016 89 10000 5.66 190 10:57 07.10.2021
1863 Clouds 16 1016 91 10000 6.17 190 10:22 07.10.2021
1864 Clouds 16 1016 92 10000 6.69 190 09:34 07.10.2021
1865 Clouds 16 1015 88 6000 5.66 200 08:52 07.10.2021
1866 Clouds 16 1015 88 10000 4.63 180 07:57 07.10.2021
1867 Clouds 16 1015 88 10000 4.63 180 07:37 07.10.2021
1868 Clouds 14 1015 95 10000 1.54 0 04:24 07.10.2021
1869 Drizzle 12 1016 93 3400 3.09 60 00:29 07.10.2021
1870 Drizzle 12 1016 90 5000 1.54 0 22:55 06.10.2021
1871 Clouds 11 1016 90 10000 1.54 90 22:23 06.10.2021
1872 Rain 12 1017 82 10000 4.12 150 20:43 06.10.2021
1873 Rain 12 1017 78 10000 4.12 170 20:20 06.10.2021
1874 Clouds 13 1017 72 10000 2.06 140 18:43 06.10.2021
1875 Clouds 14 1017 68 10000 3.09 200 16:58 06.10.2021
1876 Clouds 14 1017 68 10000 3.09 200 16:58 06.10.2021
1877 Clouds 14 1017 68 10000 3.09 200 16:58 06.10.2021
1878 Clouds 15 1017 63 10000 2.57 210 15:33 06.10.2021
1879 Clouds 14 1018 65 10000 0.51 0 14:30 06.10.2021
1880 Clouds 13 1017 68 10000 0.51 0 13:23 06.10.2021
1881 Clouds 12 1018 72 10000 0.51 0 12:44 06.10.2021
1882 Clouds 11 1017 75 10000 0.51 0 12:22 06.10.2021
1883 Clear 6 1016 90 10000 1.54 0 10:23 06.10.2021
1884 Clear 5 1017 88 10000 0.66 259 09:39 06.10.2021
1885 Clear 4 1016 93 10000 2.06 280 08:52 06.10.2021
1886 Clouds 4 1015 89 10000 3.09 220 07:50 06.10.2021
1887 Clouds 5 1014 85 10000 3.6 240 05:27 06.10.2021
1888 Clouds 5 1014 85 10000 3.6 240 05:27 06.10.2021
1889 Clouds 8 1011 71 10000 3.6 300 01:23 06.10.2021
1890 Clouds 9 1010 70 10000 6.69 330 00:18 06.10.2021
1891 Clouds 9 1010 72 10000 6.17 330 23:45 05.10.2021
1892 Clouds 9 1010 75 10000 5.14 310 23:27 05.10.2021
1893 Clouds 9 1009 76 10000 3.09 280 22:28 05.10.2021
1894 Clouds 10 1008 77 10000 3.6 330 21:50 05.10.2021
1895 Clouds 11 1008 74 10000 5.14 310 20:48 05.10.2021
1896 Clouds 11 1007 73 10000 5.14 310 20:24 05.10.2021
1897 Clouds 12 1006 68 10000 4.63 320 19:47 05.10.2021
1898 Clouds 13 1005 64 10000 6.17 330 18:57 05.10.2021
1899 Clouds 13 1004 63 10000 5.14 330 16:48 05.10.2021
1900 Clouds 13 1003 74 10000 5.14 330 14:38 05.10.2021
1901 Clouds 11 1003 82 10000 4.12 300 13:35 05.10.2021
1902 Clouds 10 1002 86 10000 4.12 290 12:48 05.10.2021
1903 Clouds 10 1002 84 10000 4.63 300 12:18 05.10.2021
1904 Clouds 8 1002 91 10000 4.12 330 11:19 05.10.2021
1905 Clouds 6 1001 96 10000 1.54 250 09:26 05.10.2021
1906 Fog 5 1001 94 250 0.51 0 04:47 05.10.2021
1907 Fog 7 1001 91 8000 1.54 0 23:53 04.10.2021
1908 Clear 8 1001 93 10000 1.03 0 22:38 04.10.2021
1909 Clouds 11 1001 85 10000 3.09 200 19:59 04.10.2021
1910 Clouds 12 1000 81 10000 5.66 210 18:34 04.10.2021
1911 Clouds 13 1000 79 10000 8.23 210 16:24 04.10.2021
1912 Clouds 13 1000 81 10000 6.69 200 15:31 04.10.2021
1913 Clouds 13 1000 80 10000 7.72 200 14:42 04.10.2021
1914 Clouds 13 1000 84 10000 4.12 220 13:57 04.10.2021
1915 Clouds 13 1000 81 10000 5.14 200 13:24 04.10.2021
1916 Clouds 12 1000 86 10000 4.12 230 12:26 04.10.2021
1917 Clouds 11 1000 90 9000 5.14 190 11:30 04.10.2021
1918 Clouds 10 999 91 10000 4.12 170 10:18 04.10.2021
1919 Clouds 9 999 90 9000 3.09 190 08:41 04.10.2021
1920 Rain 9 998 90 10000 3.09 170 07:26 04.10.2021
1921 Clouds 10 995 88 10000 5.14 210 00:33 04.10.2021
1922 Clouds 10 993 90 10000 5.66 240 22:35 03.10.2021
1923 Clouds 11 992 87 10000 5.14 220 21:39 03.10.2021
1924 Clouds 11 992 87 10000 4.63 210 21:19 03.10.2021
1925 Clouds 11 990 87 10000 5.14 220 19:58 03.10.2021
1926 Rain 12 988 80 10000 7.72 240 18:56 03.10.2021
1927 Rain 12 988 81 10000 7.2 240 18:27 03.10.2021
1928 Clouds 12 986 78 10000 7.2 240 16:34 03.10.2021
1929 Clouds 13 984 79 10000 7.2 250 14:46 03.10.2021
1930 Clouds 13 984 78 10000 7.2 250 14:46 03.10.2021
1931 Clouds 12 983 83 10000 7.72 220 13:58 03.10.2021
1932 Clouds 12 983 88 10000 8.23 220 13:22 03.10.2021
1933 Clouds 12 982 86 10000 7.2 220 12:29 03.10.2021
1934 Clouds 10 982 89 10000 3.6 210 10:37 03.10.2021
1935 Clouds 8 980 90 10000 2.57 180 08:36 03.10.2021
1936 Fog 5 982 94 500 0.51 0 01:44 03.10.2021
1937 Clouds 7 983 92 10000 2.06 220 22:40 02.10.2021
1938 Clouds 9 985 89 10000 2.06 270 20:56 02.10.2021
1939 Clouds 10 985 84 10000 2.06 240 19:40 02.10.2021
1940 Clouds 11 985 85 10000 3.6 200 18:51 02.10.2021
1941 Clouds 11 985 87 10000 3.09 210 17:41 02.10.2021
1942 Rain 11 985 90 10000 3.09 80 17:19 02.10.2021
1943 Rain 10 988 94 10000 6.17 80 14:49 02.10.2021
1944 Rain 14 1004 83 10000 7.72 220 15:49 30.09.2021
1945 Rain 14 1005 88 10000 5.66 230 14:48 30.09.2021
1946 Clouds 15 1005 89 10000 8.23 230 12:36 30.09.2021
1947 Clouds 15 1005 90 10000 7.2 230 11:34 30.09.2021
1948 Clouds 14 1005 93 10000 8.23 220 10:40 30.09.2021
1949 Rain 12 1006 94 4800 3.6 60 08:56 30.09.2021
1950 Rain 12 1007 94 5000 2.57 70 08:27 30.09.2021
1951 Rain 9 1012 89 10000 3.6 100 05:53 30.09.2021
1952 Rain 8 1017 87 10000 1.03 0 02:59 30.09.2021
1953 Clouds 7 1019 87 10000 1.03 10 00:40 30.09.2021
1954 Clouds 7 1019 87 10000 1.54 250 23:29 29.09.2021
1955 Clouds 8 1020 80 10000 4.12 240 21:55 29.09.2021
1956 Clouds 9 1019 74 10000 5.14 250 20:57 29.09.2021
1957 Clouds 10 1019 72 10000 4.63 250 20:22 29.09.2021
1958 Clouds 12 1019 69 10000 4.12 280 19:28 29.09.2021
1959 Clouds 12 1019 70 10000 5.14 290 18:18 29.09.2021
1960 Clouds 13 1018 68 10000 6.17 280 16:56 29.09.2021
1961 Clouds 12 1018 73 10000 6.17 270 16:29 29.09.2021
1962 Clouds 12 1018 78 10000 4.63 260 15:35 29.09.2021
1963 Clouds 13 1017 70 10000 7.72 270 14:38 29.09.2021
1964 Clouds 13 1016 67 10000 5.14 280 13:33 29.09.2021
1965 Clouds 12 1016 72 10000 4.63 270 12:39 29.09.2021
1966 Clear 11 1015 77 10000 3.09 280 11:23 29.09.2021
1967 Clear 9 1014 88 10000 1.03 0 10:31 29.09.2021
1968 Clear 7 1013 93 10000 2.57 260 09:42 29.09.2021
1969 Clouds 6 1012 94 10000 1.54 0 07:52 29.09.2021
1970 Clouds 5 1011 95 10000 1.03 0 06:46 29.09.2021
1971 Clouds 7 1008 91 10000 2.06 240 00:28 29.09.2021
1972 Clouds 8 1007 87 10000 2.06 230 22:26 28.09.2021
1973 Clouds 9 1007 87 10000 3.09 260 21:54 28.09.2021
1974 Clouds 9 1007 85 10000 1.54 230 21:21 28.09.2021
1975 Clouds 11 1006 76 10000 3.09 210 19:49 28.09.2021
1976 Clouds 12 1006 75 10000 3.09 210 19:29 28.09.2021
1977 Clouds 12 1006 74 10000 4.12 200 18:41 28.09.2021
1978 Clouds 13 1007 73 10000 4.63 200 16:57 28.09.2021
1979 Clouds 13 1007 75 10000 4.63 210 15:21 28.09.2021
1980 Clouds 13 1008 75 10000 4.12 190 13:27 28.09.2021
1981 Clouds 12 1008 78 10000 5.66 180 12:24 28.09.2021
1982 Clouds 12 1008 79 10000 6.17 180 11:48 28.09.2021
1983 Clouds 12 1008 79 10000 4.63 180 11:27 28.09.2021
1984 Clouds 10 1008 84 10000 5.14 180 10:27 28.09.2021
1985 Clouds 9 1008 88 10000 5.14 190 09:29 28.09.2021
1986 Clouds 8 1008 88 10000 5.66 190 08:43 28.09.2021
1987 Clouds 9 1008 85 10000 6.69 190 08:18 28.09.2021
1988 Clouds 9 1008 89 10000 5.14 170 06:46 28.09.2021
1989 Clouds 9 1007 87 10000 1.54 0 01:35 28.09.2021
1990 Clouds 10 1007 87 10000 4.12 190 00:30 28.09.2021
1991 Clouds 9 1006 85 10000 5.66 180 23:49 27.09.2021
1992 Clouds 9 1006 86 10000 4.63 170 23:24 27.09.2021
1993 Clear 9 1006 86 10000 1.54 0 22:20 27.09.2021
1994 Clear 10 1005 80 10000 3.6 210 20:54 27.09.2021
1995 Clouds 11 1004 79 10000 4.63 220 20:26 27.09.2021
1996 Clouds 12 1004 73 10000 5.66 240 19:37 27.09.2021
1997 Clouds 13 1003 70 10000 8.75 240 18:52 27.09.2021
1998 Clouds 13 1003 70 10000 8.75 240 18:52 27.09.2021
1999 Clouds 13 1002 78 10000 9.77 240 17:37 27.09.2021
2000 Clouds 14 1001 73 10000 9.26 250 16:56 27.09.2021
2001 Clouds 14 1001 72 10000 9.26 250 16:33 27.09.2021
2002 Clouds 12 1000 81 10000 6.69 250 15:36 27.09.2021
2003 Clouds 13 999 79 10000 6.69 250 13:44 27.09.2021
2004 Clouds 10 999 92 10000 3.09 230 12:22 27.09.2021
2005 Rain 9 999 95 10000 3.09 230 10:48 27.09.2021
2006 Rain 9 998 93 8000 1.54 240 09:40 27.09.2021
2007 Rain 10 999 93 8000 2.06 260 07:44 27.09.2021
2008 Rain 12 1001 93 10000 1.03 270 03:31 27.09.2021
2009 Rain 14 1001 91 10000 2.57 260 23:42 26.09.2021
2010 Rain 16 1000 90 10000 5.14 150 21:55 26.09.2021
2011 Rain 17 1000 90 10000 5.14 160 21:27 26.09.2021
2012 Clouds 17 1001 88 9000 3.6 130 20:25 26.09.2021
2013 Clouds 17 1001 87 4900 4.63 160 19:54 26.09.2021
2014 Rain 17 1004 84 10000 0.89 221 19:25 26.09.2021
2015 Rain 17 1004 84 10000 0.89 221 19:25 26.09.2021
2016 Rain 17 1004 84 10000 0.89 221 19:25 26.09.2021
2017 Rain 17 1004 84 10000 0.89 221 19:25 26.09.2021
2018 Rain 17 1004 84 10000 0.89 221 19:25 26.09.2021
2019 Rain 18 1005 79 3900 0.89 221 18:34 26.09.2021
2020 Clouds 19 1005 73 10000 1.34 178 17:37 26.09.2021
2021 Clouds 19 1005 73 10000 0.89 143 17:18 26.09.2021
2022 Clouds 18 1006 83 10000 0.45 150 16:22 26.09.2021
2023 Clouds 18 1006 84 10000 0.45 125 15:22 26.09.2021
2024 Clouds 18 1007 79 10000 0.89 161 14:18 26.09.2021
2025 Clouds 17 1004 83 10000 7.2 180 13:42 26.09.2021
2026 Clouds 18 1007 81 10000 0.89 202 12:26 26.09.2021
2027 Clouds 18 1007 81 10000 1.34 226 11:53 26.09.2021
2028 Clouds 17 1008 86 10000 0.45 199 10:59 26.09.2021
2029 Clouds 17 1007 88 10000 0.45 158 09:38 26.09.2021
2030 Clouds 16 1008 89 10000 3.6 190 08:30 26.09.2021
2031 Clouds 17 1011 86 10000 2.06 140 00:28 26.09.2021
2032 Clouds 16 1011 90 10000 1.54 90 23:43 25.09.2021
2033 Clouds 16 1011 90 10000 1.54 90 23:43 25.09.2021
2034 Clouds 16 1011 91 10000 0.51 0 22:39 25.09.2021
2035 Clouds 16 1011 91 10000 1.03 0 22:18 25.09.2021
2036 Clouds 16 1011 91 10000 1.03 0 22:18 25.09.2021
2037 Clouds 16 1011 91 10000 2.06 200 21:40 25.09.2021
2038 Clouds 17 1011 88 10000 1.54 200 20:52 25.09.2021
2039 Clouds 18 1012 88 10000 0.45 209 19:33 25.09.2021
2040 Clouds 18 1012 89 10000 0.45 221 18:28 25.09.2021
2041 Clouds 18 1012 87 9000 1.79 241 17:21 25.09.2021
2042 Clouds 19 1013 82 10000 0.45 196 14:30 25.09.2021
2043 Clouds 19 1014 83 10000 0.45 200 13:54 25.09.2021
2044 Clouds 17 1014 86 10000 2.57 220 12:36 25.09.2021
2045 Clouds 15 1014 91 10000 1.54 0 10:36 25.09.2021
2046 Clouds 15 1014 92 10000 2.06 220 09:56 25.09.2021
2047 Clouds 14 1014 93 10000 2.57 220 08:52 25.09.2021
2048 Clouds 14 1014 92 10000 3.09 220 07:46 25.09.2021
2049 Clouds 14 1014 88 10000 1.79 262 00:50 25.09.2021
2050 Clouds 14 1014 88 10000 1.79 262 00:50 25.09.2021
2051 Clouds 15 1013 87 10000 0.89 250 21:57 24.09.2021
2052 Clouds 15 1013 87 10000 1.79 256 21:25 24.09.2021
2053 Clouds 15 1012 89 10000 0.89 221 20:19 24.09.2021
2054 Clouds 16 1011 87 10000 2.68 249 18:36 24.09.2021
2055 Clouds 17 1011 87 7000 2.68 250 17:56 24.09.2021
2056 Clouds 17 1011 86 7000 3.13 245 17:38 24.09.2021
2057 Clouds 17 1011 83 10000 3.13 257 17:19 24.09.2021
2058 Clouds 18 1011 85 10000 2.68 253 15:38 24.09.2021
2059 Clouds 17 1010 88 10000 2.24 223 13:20 24.09.2021
2060 Clouds 17 1010 89 10000 3.13 253 12:41 24.09.2021
2061 Clouds 16 1011 90 10000 1.79 263 12:23 24.09.2021
2062 Clouds 16 1008 88 10000 8.23 250 10:28 24.09.2021
2063 Clouds 15 1008 92 10000 4.12 220 08:57 24.09.2021
2064 Clouds 14 1008 94 3700 6.69 210 07:39 24.09.2021
2065 Clouds 14 1008 92 6000 8.23 220 06:50 24.09.2021
2066 Clouds 14 1009 88 10000 9.77 230 05:21 24.09.2021
2067 Clouds 14 1013 86 10000 6.69 230 00:48 24.09.2021
2068 Clouds 15 1014 89 10000 7.72 250 22:36 23.09.2021
2069 Clouds 14 1015 90 10000 4.62 243 21:56 23.09.2021
2070 Clouds 14 1015 92 7000 7.2 240 20:37 23.09.2021
2071 Mist 14 1015 91 4600 6.17 230 20:19 23.09.2021
2072 Clouds 15 1015 87 10000 4.63 250 18:25 23.09.2021
2073 Clouds 16 1015 83 10000 6.69 250 15:37 23.09.2021
2074 Clouds 16 1015 84 10000 7.2 240 15:18 23.09.2021
2075 Clouds 16 1015 81 10000 7.2 260 13:49 23.09.2021
2076 Clouds 16 1015 79 10000 5.14 270 13:22 23.09.2021
2077 Clouds 16 1015 79 10000 6.69 270 12:53 23.09.2021
2078 Clouds 15 1014 82 10000 7.2 270 12:23 23.09.2021
2079 Clouds 15 1014 83 8000 6.69 260 11:55 23.09.2021
2080 Clouds 14 1013 87 10000 7.2 250 10:27 23.09.2021
2081 Clouds 14 1013 87 10000 8.23 260 09:53 23.09.2021
2082 Clouds 13 1013 87 8000 7.2 260 08:31 23.09.2021
2083 Clouds 13 1013 81 10000 6.17 260 04:41 23.09.2021
2084 Clouds 13 1016 88 10000 1.54 0 23:35 22.09.2021
2085 Clouds 14 1016 93 10000 4.12 280 22:37 22.09.2021
2086 Clouds 14 1016 92 10000 3.6 260 21:56 22.09.2021
2087 Clouds 14 1016 92 10000 3.6 260 21:34 22.09.2021
2088 Clouds 15 1016 93 7000 6.69 260 20:57 22.09.2021
2089 Drizzle 16 1017 89 4700 6.69 250 19:33 22.09.2021
2090 Clouds 16 1017 90 10000 10.8 230 18:40 22.09.2021
2091 Clouds 16 1017 90 10000 10.8 230 18:39 22.09.2021
2092 Rain 16 1017 88 10000 7.2 231 17:48 22.09.2021
2093 Rain 17 1018 86 10000 7.44 229 16:38 22.09.2021
2094 Clouds 18 1019 81 10000 12.86 220 15:29 22.09.2021
2095 Clouds 16 1020 85 3600 11.32 220 13:58 22.09.2021
2096 Clouds 15 1021 82 10000 13.38 220 11:59 22.09.2021
2097 Clouds 15 1021 81 10000 10.29 210 10:52 22.09.2021
2098 Clouds 15 1022 82 10000 7.2 210 09:25 22.09.2021
2099 Clouds 14 1022 81 10000 10.8 210 08:29 22.09.2021
2100 Clouds 14 1023 81 10000 7.2 220 07:19 22.09.2021
2101 Clouds 14 1023 81 10000 4.12 240 05:56 22.09.2021
2102 Clouds 14 1023 81 10000 4.12 240 05:34 22.09.2021
2103 Clouds 15 1024 79 10000 4.63 260 03:50 22.09.2021
2104 Clouds 16 1025 87 10000 4.12 250 00:22 22.09.2021
2105 Clouds 16 1025 83 10000 5.14 220 22:54 21.09.2021
2106 Clouds 16 1026 83 10000 6.17 220 21:36 21.09.2021
2107 Clouds 16 1026 82 10000 3.13 215 20:26 21.09.2021
2108 Clouds 16 1026 80 10000 3.6 219 19:22 21.09.2021
2109 Clouds 17 1026 79 10000 4.41 234 17:36 21.09.2021
2110 Clouds 17 1027 77 10000 8.75 230 16:35 21.09.2021
2111 Clouds 17 1028 76 10000 6.69 220 15:39 21.09.2021
2112 Clouds 18 1028 74 10000 6.69 230 14:57 21.09.2021
2113 Clouds 17 1028 75 10000 7.2 220 13:56 21.09.2021
2114 Clouds 17 1028 75 10000 7.2 220 13:56 21.09.2021
2115 Clouds 17 1028 76 10000 7.2 220 13:36 21.09.2021
2116 Clouds 14 1029 84 9000 4.63 220 11:45 21.09.2021
2117 Clouds 12 1028 94 7000 3.09 220 09:58 21.09.2021
2118 Clouds 10 1028 100 6000 3.6 220 08:28 21.09.2021
2119 Clouds 11 1028 93 7000 3.09 220 06:41 21.09.2021
2120 Clouds 12 1026 94 10000 3.6 230 23:59 20.09.2021
2121 Clouds 13 1025 94 10000 5.66 240 22:25 20.09.2021
2122 Clouds 14 1025 88 10000 4.12 240 21:38 20.09.2021
2123 Clouds 15 1024 88 10000 5.14 230 20:31 20.09.2021
2124 Clouds 16 1024 80 10000 6.69 240 19:30 20.09.2021
2125 Clouds 16 1024 81 10000 5.14 240 17:46 20.09.2021
2126 Clouds 16 1024 86 10000 6.17 230 16:43 20.09.2021
2127 Clouds 17 1023 80 10000 7.2 220 15:49 20.09.2021
2128 Clouds 17 1023 78 10000 7.2 220 15:25 20.09.2021
2129 Clouds 17 1023 79 10000 4.12 220 14:24 20.09.2021
2130 Clouds 15 1024 87 10000 1.54 0 12:35 20.09.2021
2131 Clouds 13 1023 93 8000 1.03 0 11:26 20.09.2021
2132 Mist 10 1023 95 5000 0.51 0 10:18 20.09.2021
2133 Fog 10 1023 95 500 1.03 0 09:36 20.09.2021
2134 Fog 8 1023 95 450 0.51 0 09:18 20.09.2021
2135 Clouds 8 1022 95 10000 1.03 0 07:45 20.09.2021
2136 Clear 10 1020 92 10000 1.03 250 00:36 20.09.2021
2137 Clear 11 1018 88 10000 2.06 280 22:26 19.09.2021
2138 Clear 12 1018 84 10000 1.71 235 21:43 19.09.2021
2139 Clear 13 1016 82 10000 1.54 250 20:43 19.09.2021
2140 Clouds 15 1015 73 10000 5.14 260 19:31 19.09.2021
2141 Clouds 17 1015 70 10000 5.66 240 18:29 19.09.2021
2142 Clouds 17 1014 72 10000 5.66 260 17:23 19.09.2021
2143 Clouds 17 1014 78 9000 3.6 250 15:59 19.09.2021
2144 Clouds 17 1013 76 10000 5.66 230 15:30 19.09.2021
2145 Clouds 17 1013 76 10000 5.66 230 15:30 19.09.2021
2146 Clouds 16 1013 78 10000 4.12 220 14:48 19.09.2021
2147 Clouds 15 1013 86 10000 3.09 230 13:24 19.09.2021
2148 Clouds 15 1013 86 10000 2.57 210 12:50 19.09.2021
2149 Clouds 14 1012 89 10000 1.54 0 11:28 19.09.2021
2150 Clouds 13 1012 91 10000 0.51 0 10:47 19.09.2021
2151 Rain 13 1011 92 6000 1.03 0 09:40 19.09.2021
2152 Rain 13 1011 92 6000 1.03 0 09:40 19.09.2021
2153 Drizzle 13 1010 93 5000 1.54 0 08:35 19.09.2021
2154 Rain 13 1009 94 10000 1.03 0 06:41 19.09.2021
2155 Rain 15 1011 88 10000 1.54 0 23:38 18.09.2021
2156 Clouds 16 1012 84 10000 1.03 340 22:23 18.09.2021
2157 Clouds 16 1011 79 10000 1.54 270 20:52 18.09.2021
2158 Clouds 17 1011 78 10000 1.54 270 20:32 18.09.2021
2159 Clouds 18 1011 73 10000 2.57 240 19:39 18.09.2021
2160 Clouds 18 1011 71 10000 0.51 0 19:20 18.09.2021
2161 Clouds 19 1012 67 10000 0.51 0 18:32 18.09.2021
2162 Clouds 19 1012 67 10000 2.57 260 17:31 18.09.2021
2163 Clouds 19 1013 70 10000 1.03 0 16:18 18.09.2021
2164 Clouds 17 1014 85 10000 2.06 40 13:49 18.09.2021
2165 Clouds 16 1014 86 10000 2.06 60 13:29 18.09.2021
2166 Clouds 15 1014 89 10000 2.06 30 12:49 18.09.2021
2167 Clouds 15 1014 89 10000 2.06 30 12:49 18.09.2021
2168 Clouds 14 1014 94 10000 1.54 0 11:40 18.09.2021
2169 Mist 12 1014 95 1000 1.54 40 10:31 18.09.2021
2170 Fog 11 1014 95 450 1.54 0 09:27 18.09.2021
2171 Fog 11 1014 95 550 0.51 0 08:55 18.09.2021
2172 Clouds 13 1013 92 10000 1.73 253 02:50 18.09.2021
2173 Clouds 13 1012 91 10000 1.6 227 00:41 18.09.2021
2174 Clouds 13 1012 91 10000 1.96 226 23:47 17.09.2021
2175 Rain 14 1011 92 10000 1.79 208 22:37 17.09.2021
2176 Rain 13 1011 91 10000 2.06 230 22:18 17.09.2021
2177 Rain 14 1010 91 10000 3.6 260 20:45 17.09.2021
2178 Drizzle 16 1008 86 5000 5.14 180 18:54 17.09.2021
2179 Clouds 18 1008 84 10000 5.14 170 16:51 17.09.2021
2180 Clouds 18 1008 82 10000 4.12 170 16:24 17.09.2021
2181 Clouds 17 1009 77 10000 4.63 150 12:37 17.09.2021
2182 Clouds 17 1009 79 10000 3.09 150 10:41 17.09.2021
2183 Clouds 15 1009 86 10000 2.06 90 08:25 17.09.2021
2184 Clouds 15 1009 85 10000 2.06 130 06:49 17.09.2021
2185 Clouds 15 1012 88 10000 3.09 80 00:49 17.09.2021
2186 Clouds 15 1013 85 10000 1.31 176 22:50 16.09.2021
2187 Rain 15 1013 85 10000 1.65 172 22:24 16.09.2021
2188 Rain 15 1013 83 10000 1.54 0 21:39 16.09.2021
2189 Clouds 15 1013 85 10000 4.63 160 20:43 16.09.2021
2190 Clouds 16 1013 84 10000 3.6 170 19:41 16.09.2021
2191 Clouds 16 1013 85 6000 5.14 210 18:19 16.09.2021
2192 Clouds 18 1013 75 10000 5.14 210 17:22 16.09.2021
2193 Clouds 18 1015 69 10000 5.66 210 14:53 16.09.2021
2194 Clouds 17 1015 70 10000 5.66 200 13:48 16.09.2021
2195 Clouds 16 1015 75 10000 4.63 220 12:47 16.09.2021
2196 Clouds 16 1015 75 10000 4.63 210 12:26 16.09.2021
2197 Clouds 15 1016 81 10000 1.03 0 11:24 16.09.2021
2198 Clouds 14 1016 86 10000 0.51 0 10:30 16.09.2021
2199 Clouds 12 1015 90 10000 0.51 0 09:39 16.09.2021
2200 Clouds 10 1015 93 10000 1.03 240 08:32 16.09.2021
2201 Clouds 11 1015 90 10000 0.51 0 06:59 16.09.2021
2202 Clouds 11 1015 90 10000 0.51 0 06:39 16.09.2021
2203 Clouds 12 1015 88 10000 3.6 240 04:18 16.09.2021
2204 Clouds 14 1015 87 10000 2.06 230 00:59 16.09.2021
2205 Clouds 14 1015 87 10000 1.54 0 23:31 15.09.2021
2206 Clouds 15 1015 87 10000 3.09 260 22:44 15.09.2021
2207 Clouds 15 1015 89 10000 4.12 220 21:31 15.09.2021
2208 Clouds 16 1014 89 10000 3.09 240 20:51 15.09.2021
2209 Clouds 16 1014 85 10000 4.63 230 19:33 15.09.2021
2210 Clouds 16 1014 81 10000 5.66 230 18:53 15.09.2021
2211 Clear 18 1014 72 10000 4.63 220 17:42 15.09.2021
2212 Clouds 18 1014 72 10000 4.63 220 16:43 15.09.2021
2213 Clouds 18 1014 72 10000 5.14 230 16:43 15.09.2021
2214 Clouds 19 1014 72 10000 3.09 210 15:22 15.09.2021
2215 Clouds 19 1014 74 10000 2.06 240 14:42 15.09.2021
2216 Clouds 18 1015 83 10000 1.03 0 13:47 15.09.2021
2217 Clouds 17 1015 82 10000 0.51 0 13:28 15.09.2021
2218 Clouds 16 1015 88 10000 1.03 0 12:33 15.09.2021
2219 Clouds 15 1015 91 7000 1.54 0 11:51 15.09.2021
2220 Clouds 15 1015 91 7000 1.54 0 11:51 15.09.2021
2221 Mist 14 1015 94 4100 0.51 0 10:57 15.09.2021
2222 Mist 14 1015 94 4100 0.51 0 10:33 15.09.2021
2223 Mist 13 1014 95 3800 1.03 220 08:50 15.09.2021
2224 Mist 13 1014 95 2000 1.54 290 07:26 15.09.2021
2225 Mist 14 1014 94 4500 0.51 0 00:55 15.09.2021
2226 Clouds 15 1014 94 6000 1.03 0 22:24 14.09.2021
2227 Clouds 15 1014 93 10000 1.54 20 21:21 14.09.2021
2228 Clouds 16 1014 92 6000 1.54 0 20:18 14.09.2021
2229 Clouds 16 1014 89 10000 1.54 80 18:57 14.09.2021
2230 Clouds 17 1014 87 10000 2.06 60 17:33 14.09.2021
2231 Clouds 17 1014 86 10000 1.03 0 16:37 14.09.2021
2232 Clouds 16 1014 91 10000 2.06 50 14:32 14.09.2021
2233 Clouds 16 1015 90 10000 2.06 60 13:53 14.09.2021
2234 Clouds 14 1015 95 8000 2.06 80 11:41 14.09.2021
2235 Clouds 14 1015 94 3400 2.57 70 10:20 14.09.2021
2236 Drizzle 13 1014 95 2600 2.57 70 09:45 14.09.2021
2237 Drizzle 13 1014 95 2200 2.06 50 07:28 14.09.2021
2238 Clouds 13 1016 94 10000 2.57 60 01:28 14.09.2021
2239 Clouds 13 1016 91 3500 3.09 80 23:27 13.09.2021
2240 Clouds 14 1016 88 10000 2.57 60 22:27 13.09.2021
2241 Clouds 14 1016 87 10000 3.09 70 21:55 13.09.2021
2242 Clouds 14 1016 85 10000 2.57 50 21:23 13.09.2021
2243 Clouds 15 1016 79 10000 3.6 120 19:34 13.09.2021
2244 Clouds 15 1016 78 10000 4.12 120 18:44 13.09.2021
2245 Clouds 15 1017 74 10000 4.63 120 17:21 13.09.2021
2246 Clouds 16 1017 70 10000 4.63 130 16:23 13.09.2021
2247 Clouds 17 1018 59 10000 5.14 90 14:30 13.09.2021
2248 Clouds 13 1019 79 10000 3.6 70 11:21 13.09.2021
2249 Clouds 11 1020 84 10000 3.09 80 09:54 13.09.2021
2250 Clouds 10 1019 86 10000 3.6 70 07:46 13.09.2021
2251 Clouds 12 1021 81 10000 3.6 70 00:18 13.09.2021
2252 Clouds 13 1021 77 10000 4.12 80 22:42 12.09.2021
2253 Clouds 13 1021 78 10000 3.6 50 22:20 12.09.2021
2254 Clouds 15 1020 72 10000 4.12 80 20:41 12.09.2021
2255 Clouds 15 1020 73 10000 5.14 90 19:54 12.09.2021
2256 Clouds 15 1020 72 10000 4.12 60 19:29 12.09.2021
2257 Clouds 16 1020 70 10000 4.63 50 18:50 12.09.2021
2258 Clouds 17 1020 64 10000 3.09 80 16:58 12.09.2021
2259 Clouds 16 1020 66 10000 3.09 60 15:37 12.09.2021
2260 Clouds 16 1020 69 10000 2.06 80 14:32 12.09.2021
2261 Clouds 13 1020 85 10000 1.03 0 11:49 12.09.2021
2262 Clouds 12 1019 88 10000 0.51 0 10:18 12.09.2021
2263 Clouds 11 1018 90 10000 1.54 230 08:38 12.09.2021
2264 Clouds 10 1017 89 10000 2.57 220 04:59 12.09.2021
2265 Clouds 11 1017 87 10000 4.12 250 00:46 12.09.2021
2266 Clouds 12 1016 85 10000 3.6 250 22:29 11.09.2021
2267 Clouds 13 1016 82 10000 4.12 250 21:37 11.09.2021
2268 Clouds 16 1014 76 10000 4.63 270 19:34 11.09.2021
2269 Clouds 16 1014 78 10000 5.66 270 17:56 11.09.2021
2270 Clouds 17 1013 77 10000 6.17 300 16:24 11.09.2021
2271 Clouds 17 1012 82 10000 4.63 260 14:27 11.09.2021
2272 Clouds 17 1012 83 10000 5.66 260 13:20 11.09.2021
2273 Clouds 16 1012 87 10000 6.17 250 11:35 11.09.2021
2274 Clouds 15 1011 91 10000 4.63 230 09:42 11.09.2021
2275 Clouds 15 1010 92 10000 4.63 240 07:53 11.09.2021
2276 Clouds 15 1010 92 10000 4.63 240 07:34 11.09.2021
2277 Clouds 17 1009 92 7000 1.54 250 01:20 11.09.2021
2278 Clouds 17 1009 90 10000 3.6 220 22:27 10.09.2021
2279 Clouds 17 1009 90 10000 2.57 230 21:56 10.09.2021
2280 Clouds 18 1008 87 10000 3.6 230 20:41 10.09.2021
2281 Clouds 20 1008 81 10000 4.63 230 18:34 10.09.2021
2282 Clouds 20 1008 82 10000 1.03 0 17:27 10.09.2021
2283 Clouds 20 1007 83 10000 1.54 0 15:36 10.09.2021
2284 Clouds 19 1007 88 10000 1.54 0 13:18 10.09.2021
2285 Mist 16 1006 95 3200 1.54 230 09:51 10.09.2021
2286 Mist 16 1006 95 1700 0.51 50 07:51 10.09.2021
2287 Drizzle 16 1006 94 2500 2.06 60 03:43 10.09.2021
2288 Clouds 17 1006 90 6000 3.09 80 22:33 09.09.2021
2289 Clouds 17 1006 91 7000 4.12 80 21:46 09.09.2021
2290 Clouds 17 1006 89 7000 2.57 50 20:47 09.09.2021
2291 Clouds 17 1005 88 6000 3.09 70 20:21 09.09.2021
2292 Rain 18 1006 88 6000 2.57 80 18:34 09.09.2021
2293 Clouds 18 1006 84 10000 5.14 60 16:41 09.09.2021
2294 Clouds 19 1007 85 9000 5.14 60 15:51 09.09.2021
2295 Haze 17 1007 92 4900 3.09 110 12:53 09.09.2021
2296 Clouds 16 1007 93 2900 3.6 80 11:47 09.09.2021
2297 Rain 16 1007 92 2300 3.6 40 10:25 09.09.2021
2298 Haze 17 1006 91 5000 2.06 80 08:50 09.09.2021
2299 Haze 17 1007 91 4400 1.54 30 06:26 09.09.2021
2300 Haze 17 1008 87 4200 1.54 0 02:56 09.09.2021
2301 Clouds 20 1009 75 10000 3.09 70 22:45 08.09.2021
2302 Clouds 22 1009 69 10000 1.54 50 21:35 08.09.2021
2303 Clouds 25 1009 53 10000 3.09 170 19:56 08.09.2021
2304 Clouds 27 1009 52 10000 3.09 150 19:22 08.09.2021
2305 Clouds 28 1010 49 10000 2.57 200 18:29 08.09.2021
2306 Clouds 28 1010 54 10000 1.03 0 17:56 08.09.2021
2307 Clouds 27 1011 55 10000 2.06 20 16:34 08.09.2021
2308 Clouds 25 1013 73 10000 1.54 0 14:26 08.09.2021
2309 Clouds 21 1014 94 8000 1.54 0 12:47 08.09.2021
2310 Clouds 20 1014 88 10000 0.08 0 12:27 08.09.2021
2311 Clouds 19 1014 75 10000 0.78 49 11:30 08.09.2021
2312 Mist 17 1014 100 1400 0.51 0 10:38 08.09.2021
2313 Fog 15 1014 99 650 1.03 0 10:20 08.09.2021
2314 Fog 14 1015 95 150 0.51 270 08:36 08.09.2021
2315 Fog 13 1015 94 150 0.51 310 07:35 08.09.2021
2316 Clouds 13 1016 94 6000 1.03 200 05:28 08.09.2021
2317 Clouds 18 1018 89 10000 1.54 250 22:43 07.09.2021
2318 Clouds 19 1017 86 10000 0.51 260 21:52 07.09.2021
2319 Clouds 22 1018 73 10000 2.06 330 19:52 07.09.2021
2320 Clouds 24 1018 69 10000 1.03 0 18:45 07.09.2021
2321 Clouds 24 1019 70 10000 1.03 0 17:49 07.09.2021
2322 Clouds 23 1020 72 10000 1.54 0 16:38 07.09.2021
2323 Clouds 22 1020 74 10000 2.57 240 15:36 07.09.2021
2324 Clouds 22 1021 75 10000 3.09 230 14:42 07.09.2021
2325 Clouds 20 1021 81 10000 3.6 240 12:41 07.09.2021
2326 Clouds 19 1021 85 10000 2.06 210 11:37 07.09.2021
2327 Clouds 18 1021 87 6000 1.03 0 10:41 07.09.2021
2328 Haze 17 1021 93 4800 1.03 0 08:34 07.09.2021
2329 Mist 17 1021 91 5000 1.03 0 07:23 07.09.2021
2330 Haze 17 1021 91 5000 1.54 240 05:40 07.09.2021
2331 Mist 17 1022 91 4400 2.06 250 02:34 07.09.2021
2332 Mist 17 1022 92 4600 4.12 220 00:43 07.09.2021
2333 Haze 17 1022 91 5000 4.12 220 23:34 06.09.2021
2334 Clouds 17 1022 92 6000 4.63 230 22:53 06.09.2021
2335 Clouds 17 1022 91 6000 4.63 230 22:32 06.09.2021
2336 Clouds 18 1021 88 7000 5.14 210 20:55 06.09.2021
2337 Clouds 19 1021 88 7000 5.14 230 19:23 06.09.2021
2338 Clouds 19 1021 86 8000 5.66 230 18:48 06.09.2021
2339 Clouds 19 1021 86 10000 6.17 220 18:23 06.09.2021
2340 Clouds 19 1021 87 10000 5.66 230 17:36 06.09.2021
2341 Clouds 19 1021 87 8000 6.69 210 15:52 06.09.2021
2342 Clouds 18 1022 92 8000 2.06 240 13:48 06.09.2021
2343 Drizzle 17 1022 91 3000 2.06 220 12:47 06.09.2021
2344 Drizzle 16 1021 92 3600 0 0 10:45 06.09.2021
2345 Clouds 15 1020 94 2700 0.51 0 07:59 06.09.2021
2346 Clouds 15 1021 92 6000 0 0 04:45 06.09.2021
2347 Rain 16 1021 92 3200 1.03 0 23:34 05.09.2021
2348 Rain 16 1021 88 7000 0.51 0 22:47 05.09.2021
2349 Rain 16 1021 87 7000 1.03 50 21:58 05.09.2021
2350 Rain 17 1021 84 9000 1.03 330 21:30 05.09.2021
2351 Rain 17 1021 84 9000 1.03 330 21:30 05.09.2021
2352 Rain 19 1020 72 10000 2.06 310 19:56 05.09.2021
2353 Clouds 19 1020 72 10000 2.06 280 18:41 05.09.2021
2354 Clouds 20 1020 66 10000 4.12 190 17:30 05.09.2021
2355 Clouds 20 1020 64 10000 2.06 50 15:28 05.09.2021
2356 Clouds 20 1021 68 10000 2.06 90 14:19 05.09.2021
2357 Clouds 16 1021 79 10000 2.57 70 12:29 05.09.2021
2358 Clouds 14 1021 84 10000 1.54 0 10:48 05.09.2021
2359 Clouds 13 1021 86 10000 2.57 50 10:23 05.09.2021
2360 Clouds 12 1021 87 10000 2.57 60 09:21 05.09.2021
2361 Clouds 11 1020 92 10000 1.03 0 07:48 05.09.2021
2362 Clouds 14 1020 80 10000 3.09 40 00:51 05.09.2021
2363 Clouds 14 1020 80 10000 2.57 40 00:22 05.09.2021
2364 Clouds 15 1020 78 10000 2.06 70 23:35 04.09.2021
2365 Clouds 15 1020 77 10000 4.63 70 22:35 04.09.2021
2366 Clouds 15 1020 77 10000 3.6 80 22:35 04.09.2021
2367 Clouds 16 1019 76 10000 4.12 60 21:55 04.09.2021
2368 Clouds 17 1019 71 10000 4.12 50 19:41 04.09.2021
2369 Clouds 17 1019 63 10000 3.09 100 18:39 04.09.2021
2370 Clouds 17 1020 64 10000 3.6 110 15:54 04.09.2021
2371 Clouds 14 1021 75 10000 4.63 120 12:48 04.09.2021
2372 Clouds 14 1021 77 10000 4.12 100 11:19 04.09.2021
2373 Clouds 12 1021 85 10000 3.6 60 08:58 04.09.2021
2374 Clouds 13 1022 85 10000 2.06 60 04:50 04.09.2021
2375 Clouds 13 1023 86 10000 3.6 70 00:24 04.09.2021
2376 Clouds 13 1024 85 10000 4.12 60 23:31 03.09.2021
2377 Clouds 14 1023 81 10000 5.14 60 21:53 03.09.2021
2378 Clouds 14 1023 80 10000 5.14 60 21:33 03.09.2021
2379 Clouds 14 1023 79 10000 4.63 60 20:41 03.09.2021
2380 Clouds 15 1023 78 10000 3.6 30 19:46 03.09.2021
2381 Clouds 16 1023 78 10000 5.14 40 18:55 03.09.2021
2382 Clouds 16 1024 76 10000 4.12 40 17:40 03.09.2021
2383 Clouds 16 1025 76 10000 3.09 50 16:23 03.09.2021
2384 Clouds 15 1026 78 10000 3.6 60 14:47 03.09.2021
2385 Clouds 12 1027 86 10000 3.6 80 11:56 03.09.2021
2386 Clouds 12 1027 91 9000 3.09 70 10:22 03.09.2021
2387 Mist 12 1027 92 4900 2.06 50 08:39 03.09.2021
2388 Mist 11 1027 90 5000 3.09 50 07:37 03.09.2021
2389 Clear 12 1029 89 8000 4.63 60 00:44 03.09.2021
2390 Clear 13 1030 84 10000 2.06 30 22:54 02.09.2021
2391 Clear 16 1029 78 10000 3.09 50 21:19 02.09.2021
2392 Clear 18 1030 70 10000 1.54 0 19:24 02.09.2021
2393 Clouds 19 1032 70 10000 3.6 30 17:30 02.09.2021
2394 Clouds 18 1033 73 10000 4.63 40 15:48 02.09.2021
2395 Clouds 16 1034 77 10000 4.12 30 13:51 02.09.2021
2396 Clouds 15 1034 80 10000 4.12 50 12:21 02.09.2021
2397 Clouds 14 1034 81 10000 4.12 50 11:33 02.09.2021
2398 Clouds 13 1034 82 10000 2.57 50 09:38 02.09.2021
2399 Clouds 13 1034 84 10000 3.6 70 07:45 02.09.2021
2400 Clouds 13 1034 85 10000 4.63 70 06:57 02.09.2021
2401 Clouds 13 1035 86 10000 4.12 70 02:44 02.09.2021
2402 Clear 13 1035 86 10000 4.63 70 01:53 02.09.2021
2403 Clear 13 1035 85 10000 4.63 70 01:18 02.09.2021
2404 Clear 14 1034 79 10000 4.63 70 23:34 01.09.2021
2405 Clear 15 1034 77 10000 5.14 60 22:34 01.09.2021
2406 Clear 17 1033 72 10000 2.06 10 21:33 01.09.2021
2407 Clouds 21 1033 57 10000 0.51 0 19:59 01.09.2021
2408 Clouds 23 1034 54 10000 1.03 0 17:58 01.09.2021
2409 Clouds 23 1034 55 10000 1.03 0 17:35 01.09.2021
2410 Clouds 22 1034 55 10000 1.03 0 16:46 01.09.2021
2411 Clouds 21 1035 58 10000 0.51 0 15:24 01.09.2021
2412 Clear 17 1036 76 10000 1.03 0 11:49 01.09.2021
2413 Clear 15 1036 81 10000 0.51 0 10:55 01.09.2021
2414 Fog 10 1036 93 9000 1.54 230 08:46 01.09.2021
2415 Clouds 9 1036 90 10000 0.64 38 07:50 01.09.2021
2416 Clouds 15 1036 82 10000 2.06 30 23:43 31.08.2021
2417 Clouds 16 1035 73 10000 3.09 70 22:29 31.08.2021
2418 Clouds 17 1034 69 10000 2.06 20 20:56 31.08.2021
2419 Clouds 18 1034 67 10000 2.57 40 19:44 31.08.2021
2420 Clouds 18 1035 64 10000 2.57 70 17:53 31.08.2021
2421 Clouds 18 1035 63 10000 2.57 70 17:33 31.08.2021
2422 Clouds 18 1035 63 10000 4.12 70 16:49 31.08.2021
2423 Clouds 18 1035 63 10000 5.14 90 15:59 31.08.2021
2424 Clouds 15 1036 70 10000 2.06 350 12:55 31.08.2021
2425 Clouds 14 1035 71 10000 2.06 50 11:25 31.08.2021
2426 Clouds 14 1035 74 10000 2.06 40 10:45 31.08.2021
2427 Clouds 13 1035 75 10000 2.06 60 09:43 31.08.2021
2428 Clouds 11 1035 82 10000 2.06 60 08:23 31.08.2021
2429 Clouds 12 1034 78 10000 2.06 50 05:57 31.08.2021
2430 Clouds 13 1033 77 10000 3.6 60 23:37 30.08.2021
2431 Clouds 14 1033 63 10000 1.03 0 22:54 30.08.2021
2432 Clouds 15 1032 70 10000 2.06 100 21:41 30.08.2021
2433 Clouds 15 1031 69 10000 1.54 150 20:42 30.08.2021
2434 Clouds 16 1031 68 10000 2.06 100 19:54 30.08.2021
2435 Clouds 16 1031 68 10000 2.57 90 19:24 30.08.2021
2436 Clouds 15 1032 73 10000 3.09 60 17:51 30.08.2021
2437 Clouds 16 1032 72 10000 2.57 50 16:32 30.08.2021
2438 Clouds 15 1032 72 10000 3.6 50 15:50 30.08.2021
2439 Clouds 16 1032 69 10000 4.12 60 14:24 30.08.2021
2440 Clouds 15 1032 72 10000 3.6 50 13:21 30.08.2021
2441 Clouds 14 1032 82 10000 2.57 40 11:29 30.08.2021
2442 Clouds 13 1031 82 10000 2.57 80 04:57 30.08.2021
2443 Clouds 16 1029 72 10000 3.6 80 21:57 29.08.2021
2444 Clouds 17 1029 69 10000 3.6 90 20:54 29.08.2021
2445 Clouds 18 1028 65 10000 3.09 70 19:28 29.08.2021
2446 Clouds 19 1029 66 10000 3.09 100 18:25 29.08.2021
2447 Clouds 17 1029 72 10000 2.06 100 15:58 29.08.2021
2448 Clouds 16 1029 77 10000 3.09 100 14:28 29.08.2021
2449 Clouds 16 1029 79 10000 3.09 50 13:55 29.08.2021
2450 Clouds 16 1029 81 10000 2.57 50 12:57 29.08.2021
2451 Clouds 16 1029 82 10000 3.09 50 12:18 29.08.2021
2452 Clouds 15 1029 83 10000 2.57 50 11:40 29.08.2021
2453 Clouds 15 1029 85 10000 2.06 60 10:46 29.08.2021
2454 Clouds 14 1029 87 10000 2.57 80 10:28 29.08.2021
2455 Clouds 14 1029 87 10000 4.12 50 09:30 29.08.2021
2456 Clouds 13 1029 89 10000 4.63 70 04:18 29.08.2021
2457 Clouds 16 1028 85 10000 2.06 240 22:43 28.08.2021
2458 Clouds 20 1027 69 10000 3.6 250 20:31 28.08.2021
2459 Clouds 21 1027 70 10000 2.57 290 19:19 28.08.2021
2460 Clouds 22 1027 69 10000 2.57 270 18:22 28.08.2021
2461 Clouds 22 1027 68 10000 3.09 260 17:45 28.08.2021
2462 Clouds 22 1027 68 10000 3.6 230 16:28 28.08.2021
2463 Clouds 21 1028 71 10000 2.57 230 14:51 28.08.2021
2464 Clouds 20 1028 73 10000 3.09 220 13:47 28.08.2021
2465 Clouds 19 1028 75 10000 2.57 240 12:47 28.08.2021
2466 Clouds 18 1028 78 10000 2.06 230 12:24 28.08.2021
2467 Clouds 15 1028 87 10000 0.51 0 10:45 28.08.2021
2468 Clouds 12 1029 89 10000 0.51 290 09:33 28.08.2021
2469 Clear 9 1028 89 10000 0.05 239 07:25 28.08.2021
2470 Clear 14 1027 78 10000 4.63 50 22:57 27.08.2021
2471 Clear 17 1026 73 10000 4.12 50 21:26 27.08.2021
2472 Clear 18 1026 68 10000 3.6 40 20:35 27.08.2021
2473 Clear 20 1026 57 10000 2.06 30 19:29 27.08.2021
2474 Clear 21 1026 53 10000 2.57 30 18:38 27.08.2021
2475 Clear 21 1026 52 10000 1.54 0 17:30 27.08.2021
2476 Clear 21 1026 55 10000 1.03 0 16:28 27.08.2021
2477 Clear 19 1026 62 10000 1.03 0 14:44 27.08.2021
2478 Clear 17 1027 69 10000 1.54 0 12:55 27.08.2021
2479 Clouds 15 1027 73 10000 3.09 40 11:38 27.08.2021
2480 Clouds 13 1027 80 10000 2.57 50 10:45 27.08.2021
2481 Clouds 13 1027 81 10000 2.57 80 09:51 27.08.2021
2482 Clouds 12 1026 83 10000 3.6 70 08:48 27.08.2021
2483 Clouds 12 1026 84 10000 2.57 70 07:39 27.08.2021
2484 Clouds 12 1026 87 10000 2.57 90 05:31 27.08.2021
2485 Clouds 13 1026 83 10000 4.63 60 00:37 27.08.2021
2486 Clouds 14 1026 80 10000 4.63 70 23:28 26.08.2021
2487 Clouds 16 1025 75 10000 4.63 50 22:19 26.08.2021
2488 Clouds 15 1025 76 10000 4.63 50 22:19 26.08.2021
2489 Clouds 16 1025 75 10000 4.63 50 22:19 26.08.2021
2490 Clear 17 1024 71 10000 5.14 50 21:28 26.08.2021
2491 Clear 21 1023 60 10000 3.09 60 19:20 26.08.2021
2492 Clouds 22 1024 55 10000 2.06 30 17:45 26.08.2021
2493 Clouds 22 1025 58 10000 2.06 0 16:44 26.08.2021
2494 Clouds 22 1025 59 10000 1.54 0 16:26 26.08.2021
2495 Clouds 19 1026 77 10000 2.57 70 13:53 26.08.2021
2496 Clouds 18 1026 80 10000 3.09 70 12:57 26.08.2021
2497 Clouds 17 1026 83 10000 3.09 70 12:31 26.08.2021
2498 Clouds 17 1026 84 10000 3.09 70 12:31 26.08.2021
2499 Clouds 16 1026 88 10000 3.09 60 10:21 26.08.2021
2500 Clouds 15 1026 91 8000 2.06 40 08:34 26.08.2021
2501 Clouds 14 1025 91 8000 1.03 360 06:34 26.08.2021
2502 Clouds 18 1025 80 10000 3.09 40 22:55 25.08.2021
2503 Clouds 19 1025 82 10000 3.6 50 22:36 25.08.2021
2504 Clouds 20 1025 81 10000 3.09 40 21:54 25.08.2021
2505 Clouds 23 1025 69 10000 1.54 0 20:49 25.08.2021
2506 Clouds 24 1025 68 10000 2.57 310 20:28 25.08.2021
2507 Clouds 26 1025 60 10000 1.03 0 18:45 25.08.2021
2508 Clouds 26 1026 57 10000 2.06 280 17:43 25.08.2021
2509 Clouds 26 1027 60 10000 2.06 310 15:45 25.08.2021
2510 Clouds 25 1027 65 10000 1.03 0 14:48 25.08.2021
2511 Clear 24 1028 67 10000 1.03 0 14:30 25.08.2021
2512 Clouds 23 1028 71 10000 1.03 0 13:25 25.08.2021
2513 Clouds 19 1029 82 10000 1.03 0 11:27 25.08.2021
2514 Clouds 17 1029 88 10000 0.51 0 10:43 25.08.2021
2515 Clouds 16 1029 93 8000 0.51 0 09:56 25.08.2021
2516 Fog 14 1029 93 3000 0.51 270 09:18 25.08.2021
2517 Clouds 14 1030 92 10000 0.96 50 08:30 25.08.2021
2518 Fog 14 1030 93 150 1.54 250 04:19 25.08.2021
2519 Clouds 17 1031 88 10000 2.57 240 23:54 24.08.2021
2520 Clouds 19 1031 77 10000 2.06 260 21:49 24.08.2021
2521 Clouds 22 1030 64 10000 2.06 300 20:48 24.08.2021
2522 Clouds 23 1030 63 10000 2.57 290 19:52 24.08.2021
2523 Clouds 24 1031 57 10000 2.06 270 17:58 24.08.2021
2524 Clouds 24 1031 57 10000 2.06 270 17:58 24.08.2021
2525 Clouds 24 1031 57 10000 2.06 270 17:58 24.08.2021
2526 Clouds 24 1031 57 10000 2.06 270 17:58 24.08.2021
2527 Clouds 25 1031 58 10000 2.57 290 17:28 24.08.2021
2528 Clouds 25 1031 60 10000 3.09 290 16:56 24.08.2021
2529 Clouds 23 1032 71 10000 0.51 0 14:29 24.08.2021
2530 Clouds 20 1033 79 8000 1.03 0 13:25 24.08.2021
2531 Mist 18 1033 100 4600 0.51 0 11:46 24.08.2021
2532 Mist 16 1033 100 2100 1.03 0 10:48 24.08.2021
2533 Fog 15 1033 99 1600 1.54 60 10:26 24.08.2021
2534 Fog 13 1033 95 250 1.54 0 08:50 24.08.2021
2535 Clouds 13 1032 93 10000 0.33 40 06:51 24.08.2021
2536 Clouds 13 1032 91 10000 0.52 124 04:54 24.08.2021
2537 Clouds 16 1032 90 10000 1.54 260 00:47 24.08.2021
2538 Clouds 17 1031 84 10000 2.06 40 22:52 23.08.2021
2539 Clouds 18 1031 79 10000 1.54 10 22:21 23.08.2021
2540 Clouds 21 1030 65 10000 1.03 0 20:31 23.08.2021
2541 Clouds 22 1030 64 10000 0.51 0 18:58 23.08.2021
2542 Clouds 22 1031 69 10000 0.51 0 16:37 23.08.2021
2543 Clouds 20 1031 80 10000 1.54 0 14:29 23.08.2021
2544 Clouds 19 1031 86 8000 1.03 0 12:57 23.08.2021
2545 Clouds 17 1031 91 7000 2.06 100 11:49 23.08.2021
2546 Mist 15 1030 95 4000 2.06 40 10:38 23.08.2021
2547 Mist 15 1030 95 3500 2.06 20 09:40 23.08.2021
2548 Mist 15 1029 94 2000 2.57 40 08:20 23.08.2021
2549 Mist 15 1028 93 3000 2.06 50 06:48 23.08.2021
2550 Mist 15 1028 93 3300 2.57 60 05:40 23.08.2021
2551 Clouds 16 1026 88 10000 2.57 90 00:51 23.08.2021
2552 Clouds 18 1025 84 10000 3.09 60 22:44 22.08.2021
2553 Clouds 18 1025 83 10000 2.57 50 22:23 22.08.2021
2554 Clouds 19 1023 78 10000 4.63 50 20:21 22.08.2021
2555 Clouds 20 1023 77 10000 3.6 60 19:28 22.08.2021
2556 Clouds 21 1021 76 10000 1.54 0 16:28 22.08.2021
2557 Clouds 19 1021 81 10000 1.54 0 14:56 22.08.2021
2558 Clouds 20 1021 81 10000 1.54 0 14:35 22.08.2021
2559 Clouds 19 1020 85 10000 0.51 0 13:20 22.08.2021
2560 Clouds 18 1020 86 10000 0.51 0 12:51 22.08.2021
2561 Clouds 17 1019 88 10000 1.03 0 11:58 22.08.2021
2562 Clouds 17 1019 89 10000 1.03 0 11:39 22.08.2021
2563 Clouds 16 1019 96 9000 0.51 0 10:20 22.08.2021
2564 Clouds 15 1017 96 9000 1.54 210 08:18 22.08.2021
2565 Clouds 15 1015 95 8000 1.03 340 04:46 22.08.2021
2566 Clouds 15 1014 94 8000 1.03 0 22:49 21.08.2021
2567 Clouds 16 1013 94 7000 2.06 310 22:25 21.08.2021
2568 Rain 17 1013 92 6000 3.09 50 19:22 21.08.2021
2569 Rain 17 1013 92 6000 3.09 50 19:22 21.08.2021
2570 Rain 17 1013 91 10000 2.57 30 18:39 21.08.2021
2571 Clouds 17 1013 90 10000 1.54 30 17:48 21.08.2021
2572 Clouds 17 1013 92 10000 1.54 30 16:50 21.08.2021
2573 Rain 17 1013 93 10000 0.51 20 15:51 21.08.2021
2574 Rain 16 1013 91 10000 1.54 250 15:26 21.08.2021
2575 Rain 16 1014 89 10000 5.14 210 14:20 21.08.2021
2576 Rain 18 1013 88 10000 3.09 160 12:41 21.08.2021
2577 Rain 18 1013 89 10000 1.54 0 12:22 21.08.2021
2578 Clouds 17 1012 92 10000 2.06 100 09:20 21.08.2021
2579 Rain 17 1012 91 10000 3.09 50 00:54 21.08.2021
2580 Rain 17 1012 90 10000 3.09 50 22:33 20.08.2021
2581 Clouds 18 1013 86 10000 4.63 100 19:51 20.08.2021
2582 Clouds 18 1013 82 10000 3.09 120 17:46 20.08.2021
2583 Clouds 18 1013 77 10000 3.09 70 14:35 20.08.2021
2584 Clouds 16 1013 83 10000 3.6 60 12:44 20.08.2021
2585 Clouds 15 1013 86 10000 3.09 60 11:29 20.08.2021
2586 Clouds 13 1013 88 10000 1.54 60 10:23 20.08.2021
2587 Clouds 12 1013 91 9000 1.54 20 09:28 20.08.2021
2588 Clouds 11 1013 93 9000 1.03 0 08:36 20.08.2021
2589 Clouds 10 1012 90 10000 0.75 87 04:46 20.08.2021
2590 Fog 10 1013 93 6000 1.03 290 04:20 20.08.2021
2591 Clouds 14 1012 84 10000 2.06 240 23:30 19.08.2021
2592 Clouds 15 1011 80 10000 1.03 0 22:38 19.08.2021
2593 Clouds 16 1011 76 10000 0 0 21:55 19.08.2021
2594 Clouds 17 1011 73 10000 2.06 280 20:20 19.08.2021
2595 Clouds 17 1011 73 10000 3.6 240 18:24 19.08.2021
2596 Clouds 17 1011 70 10000 1.54 0 16:55 19.08.2021
2597 Clouds 17 1011 73 10000 2.57 230 14:37 19.08.2021
2598 Clouds 16 1011 75 10000 1.03 0 12:50 19.08.2021
2599 Clouds 15 1011 74 10000 1.54 0 12:28 19.08.2021
2600 Clouds 15 1011 80 10000 1.54 0 10:49 19.08.2021
2601 Clouds 14 1011 84 10000 1.54 240 09:48 19.08.2021
2602 Clouds 13 1011 85 10000 1.03 240 09:27 19.08.2021
2603 Clouds 12 1011 87 10000 1.03 220 08:33 19.08.2021
2604 Clouds 11 1012 88 10000 2.06 260 03:37 19.08.2021
2605 Clouds 12 1013 86 10000 1.99 243 02:19 19.08.2021
2606 Clouds 13 1012 81 10000 2.92 249 23:29 18.08.2021
2607 Clouds 13 1013 80 10000 3.6 240 22:31 18.08.2021
2608 Clouds 15 1013 72 10000 4.63 280 20:50 18.08.2021
2609 Clouds 16 1013 71 10000 5.14 270 20:20 18.08.2021
2610 Clouds 17 1013 71 10000 6.69 260 19:26 18.08.2021
2611 Clouds 18 1013 69 10000 7.2 290 18:33 18.08.2021
2612 Clouds 18 1013 73 10000 6.17 270 16:52 18.08.2021
2613 Clouds 18 1013 74 10000 6.17 260 15:40 18.08.2021
2614 Clouds 18 1013 74 10000 6.69 270 15:21 18.08.2021
2615 Clouds 18 1014 77 10000 6.69 290 12:50 18.08.2021
2616 Clouds 18 1014 78 10000 6.69 280 12:27 18.08.2021
2617 Clouds 17 1014 81 10000 5.14 300 11:37 18.08.2021
2618 Clouds 14 1015 90 10000 4.63 240 07:53 18.08.2021
2619 Clouds 14 1017 82 10000 5.14 260 01:29 18.08.2021
2620 Clouds 15 1017 80 10000 4.63 250 22:39 17.08.2021
2621 Clouds 16 1017 77 10000 5.66 270 21:46 17.08.2021
2622 Clouds 16 1017 77 10000 5.66 270 21:22 17.08.2021
2623 Clouds 19 1017 69 10000 6.17 280 19:20 17.08.2021
2624 Clouds 19 1017 69 10000 5.66 260 17:47 17.08.2021
2625 Clouds 19 1016 68 10000 6.69 270 17:21 17.08.2021
2626 Clouds 19 1016 69 10000 6.17 270 15:41 17.08.2021
2627 Clouds 19 1017 71 10000 5.66 270 14:47 17.08.2021
2628 Clouds 17 1016 80 10000 4.63 250 12:37 17.08.2021
2629 Clouds 15 1015 84 10000 4.12 240 09:27 17.08.2021
2630 Clouds 14 1015 88 10000 4.63 260 08:36 17.08.2021
2631 Clouds 14 1015 92 10000 2.57 240 06:41 17.08.2021
2632 Clouds 14 1018 87 10000 4.12 250 23:24 16.08.2021
2633 Clouds 14 1018 87 10000 4.12 250 22:52 16.08.2021
2634 Clouds 14 1018 87 10000 4.12 250 22:34 16.08.2021
2635 Clouds 15 1018 84 10000 4.63 260 21:37 16.08.2021
2636 Clouds 15 1018 80 10000 5.66 250 20:50 16.08.2021
2637 Clouds 15 1018 80 10000 5.66 250 20:50 16.08.2021
2638 Clouds 16 1018 74 10000 5.14 260 19:26 16.08.2021
2639 Clouds 17 1017 69 10000 5.14 270 18:25 16.08.2021
2640 Clouds 18 1017 68 10000 6.69 300 17:52 16.08.2021
2641 Clouds 17 1017 71 10000 3.6 290 16:25 16.08.2021
2642 Clouds 18 1016 68 10000 4.63 290 14:58 16.08.2021
2643 Clouds 17 1016 68 9000 5.14 300 13:40 16.08.2021
2644 Clouds 17 1016 71 8000 3.6 290 12:56 16.08.2021
2645 Clouds 15 1015 77 10000 3.6 280 11:29 16.08.2021
2646 Clouds 13 1014 78 10000 3.09 190 08:54 16.08.2021
2647 Clouds 13 1013 78 10000 6.17 250 07:45 16.08.2021
2648 Clouds 13 1013 78 10000 4.12 250 07:26 16.08.2021
2649 Clouds 13 1012 79 6000 3.6 170 02:45 16.08.2021
2650 Clouds 14 1011 81 9000 3.09 250 23:32 15.08.2021
2651 Clouds 15 1010 76 10000 5.14 260 20:51 15.08.2021
2652 Rain 16 1010 73 10000 6.17 270 18:48 15.08.2021
2653 Clouds 16 1010 74 10000 6.17 270 18:18 15.08.2021
2654 Clouds 16 1010 71 10000 5.66 270 17:41 15.08.2021
2655 Clouds 17 1010 70 10000 2.57 290 16:27 15.08.2021
2656 Clouds 17 1010 69 10000 5.14 280 14:50 15.08.2021
2657 Clouds 17 1010 70 10000 4.12 280 14:30 15.08.2021
2658 Clouds 13 1011 91 10000 2.57 230 11:39 15.08.2021
2659 Fog 11 1011 95 1900 1.03 0 09:31 15.08.2021
2660 Fog 10 1014 93 4500 1.54 250 03:59 15.08.2021
2661 Clouds 12 1015 88 10000 3.6 210 00:42 15.08.2021
2662 Clouds 14 1015 82 10000 2.16 234 22:29 14.08.2021
2663 Clouds 17 1015 72 10000 3.6 250 20:59 14.08.2021
2664 Clouds 17 1015 72 10000 2.06 240 19:44 14.08.2021
2665 Clouds 17 1015 72 10000 4.63 240 19:23 14.08.2021
2666 Clouds 18 1015 72 10000 4.68 261 17:21 14.08.2021
2667 Clouds 17 1016 78 10000 6.69 240 15:52 14.08.2021
2668 Rain 17 1015 76 8000 4.63 260 14:25 14.08.2021
2669 Clouds 16 1014 76 10000 5.66 250 12:21 14.08.2021
2670 Clouds 14 1014 84 10000 6.69 260 10:48 14.08.2021
2671 Clouds 13 1013 88 10000 4.63 240 07:48 14.08.2021
2672 Clouds 13 1014 74 10000 7.2 260 23:53 13.08.2021
2673 Clouds 14 1013 76 10000 9.26 260 22:27 13.08.2021
2674 Clear 16 1013 73 10000 9.77 250 20:47 13.08.2021
2675 Clouds 16 1012 81 10000 11.32 240 18:48 13.08.2021
2676 Clouds 16 1012 86 9000 10.8 230 17:55 13.08.2021
2677 Clouds 17 1011 79 6000 8.75 220 16:25 13.08.2021
2678 Clouds 16 1010 74 10000 11.83 210 13:30 13.08.2021
2679 Clouds 15 1010 81 10000 9.26 210 11:20 13.08.2021
2680 Clouds 13 1010 88 10000 8.75 210 09:41 13.08.2021
2681 Rain 13 1010 87 10000 7.2 200 08:36 13.08.2021
2682 Clouds 13 1010 84 10000 5.66 200 07:18 13.08.2021
2683 Clouds 13 1010 85 10000 3.6 210 04:59 13.08.2021
2684 Clouds 14 1010 88 6000 5.14 200 22:56 12.08.2021
2685 Clear 15 1009 84 10000 5.14 200 21:20 12.08.2021
2686 Clouds 16 1010 85 10000 6.17 200 20:22 12.08.2021
2687 Clouds 16 1009 88 5000 6.17 200 19:42 12.08.2021
2688 Clouds 16 1009 79 10000 6.17 170 17:51 12.08.2021
2689 Clouds 17 1009 67 10000 6.76 192 16:29 12.08.2021
2690 Clouds 18 1010 66 10000 10.29 180 16:29 12.08.2021
2691 Clouds 17 1011 64 10000 7.72 180 14:31 12.08.2021
2692 Clouds 17 1011 70 10000 7.2 160 12:44 12.08.2021
2693 Clouds 15 1011 81 10000 3.5 153 10:49 12.08.2021
2694 Clouds 15 1011 81 10000 3.5 153 10:49 12.08.2021
2695 Fog 9 1013 94 10000 0.51 0 07:56 12.08.2021
2696 Clouds 10 1013 91 10000 1.54 200 01:51 12.08.2021
2697 Clouds 13 1012 83 10000 2.06 250 22:54 11.08.2021
2698 Clouds 16 1011 77 10000 4.63 280 20:41 11.08.2021
2699 Clouds 16 1010 86 10000 5.66 290 18:28 11.08.2021
2700 Rain 18 1009 88 10000 4.63 160 15:39 11.08.2021
2701 Rain 17 1010 89 10000 5.14 160 15:20 11.08.2021
2702 Rain 17 1010 85 10000 7.2 180 14:22 11.08.2021
2703 Drizzle 17 1011 87 5000 3.09 170 12:30 11.08.2021
2704 Drizzle 17 1011 87 5000 3.09 170 12:30 11.08.2021
2705 Rain 16 1011 85 10000 1.54 0 11:46 11.08.2021
2706 Clouds 17 1011 86 10000 2.57 90 11:21 11.08.2021
2707 Clouds 15 1012 87 10000 3.09 60 09:44 11.08.2021
2708 Clouds 13 1013 91 10000 1.54 30 07:30 11.08.2021
2709 Clouds 15 1014 84 10000 2 221 22:53 10.08.2021
2710 Clouds 15 1014 82 10000 2.28 233 22:29 10.08.2021
2711 Clouds 15 1014 82 10000 2.28 233 22:29 10.08.2021
2712 Clouds 17 1013 73 10000 5.66 240 20:57 10.08.2021
2713 Clouds 19 1013 70 10000 6.17 220 19:33 10.08.2021
2714 Clouds 18 1012 71 10000 5.66 220 18:31 10.08.2021
2715 Clouds 18 1013 78 10000 4.12 230 15:58 10.08.2021
2716 Clouds 19 1012 71 10000 2.57 290 14:42 10.08.2021
2717 Clouds 17 1012 82 10000 3.09 270 11:53 10.08.2021
2718 Clouds 15 1012 90 10000 1.54 0 09:48 10.08.2021
2719 Clouds 12 1011 93 10000 0.97 241 06:47 10.08.2021
2720 Clouds 12 1010 93 10000 0.93 238 04:58 10.08.2021
2721 Clouds 14 1009 92 10000 2.06 220 23:38 09.08.2021
2722 Clouds 15 1008 87 10000 0.51 0 21:54 09.08.2021
2723 Clouds 16 1008 87 10000 1.03 0 21:29 09.08.2021
2724 Thunderstorm 16 1007 84 5000 5.66 120 18:56 09.08.2021
2725 Clouds 19 1006 72 10000 6.17 210 16:58 09.08.2021
2726 Clouds 18 1006 82 10000 6.69 210 15:30 09.08.2021
2727 Rain 16 1005 88 10000 3.09 220 13:32 09.08.2021
2728 Clouds 16 1005 88 10000 2.06 230 12:46 09.08.2021
2729 Clouds 16 1004 90 10000 1.03 0 10:43 09.08.2021
2730 Clouds 15 1003 94 9000 1.54 250 08:25 09.08.2021
2731 Rain 15 1001 91 5000 4.12 220 22:41 08.08.2021
2732 Clouds 15 1000 91 9000 3.6 250 21:25 08.08.2021
2733 Rain 16 999 90 10000 1.54 150 18:50 08.08.2021
2734 Clouds 18 997 85 10000 2.06 300 16:39 08.08.2021
2735 Rain 17 997 89 10000 2.57 330 15:30 08.08.2021
2736 Clouds 17 997 84 10000 1.38 31 12:49 08.08.2021
2737 Clouds 16 994 89 10000 1.03 0 10:44 08.08.2021
2738 Clouds 14 993 95 6000 1.03 210 06:43 08.08.2021
2739 Clouds 14 993 95 5000 0.51 350 05:35 08.08.2021
2740 Rain 15 993 94 10000 1.54 280 00:29 08.08.2021
2741 Rain 16 992 89 5000 0.51 80 22:19 07.08.2021
2742 Rain 16 992 89 4900 1.03 0 21:39 07.08.2021
2743 Clouds 18 990 82 10000 2.06 330 18:59 07.08.2021
2744 Clouds 17 990 84 10000 3.09 200 17:19 07.08.2021
2745 Clouds 17 990 81 8000 5.14 80 16:24 07.08.2021
2746 Clouds 18 990 72 10000 4.63 90 14:25 07.08.2021
2747 Rain 17 989 81 10000 5.14 130 12:26 07.08.2021
2748 Clouds 16 989 88 10000 3.6 90 09:45 07.08.2021
2749 Clouds 15 989 92 10000 2.06 110 04:56 07.08.2021
2750 Clouds 15 993 92 10000 1.54 130 23:54 06.08.2021
2751 Rain 16 993 87 10000 2.06 70 21:22 06.08.2021
2752 Clouds 17 992 87 10000 0.45 90 20:27 06.08.2021
2753 Clouds 17 992 89 10000 2.06 50 19:55 06.08.2021
2754 Rain 17 992 83 10000 0.89 4 17:51 06.08.2021
2755 Clouds 19 993 77 10000 0.89 241 13:42 06.08.2021
2756 Rain 16 991 91 10000 4.12 60 09:57 06.08.2021
2757 Clouds 15 994 92 10000 0.45 49 08:39 06.08.2021
2758 Clouds 16 997 79 10000 0.89 81 00:37 06.08.2021
2759 Clouds 16 998 81 10000 0.89 102 23:19 05.08.2021
2760 Clouds 17 998 76 10000 1.34 92 21:30 05.08.2021
2761 Rain 17 999 73 10000 0.45 138 19:53 05.08.2021
2762 Clouds 19 996 62 10000 4.12 100 18:26 05.08.2021
2763 Rain 19 999 60 10000 6.17 120 15:44 05.08.2021
2764 Clouds 19 1003 64 10000 1.34 112 12:49 05.08.2021
2765 Clouds 16 1006 76 10000 0.45 168 08:52 05.08.2021
2766 Clouds 15 1006 79 10000 0.45 163 07:51 05.08.2021
2767 Clouds 16 1009 78 10000 0.45 67 02:19 05.08.2021
2768 Clouds 17 1011 75 10000 0.45 224 22:21 04.08.2021
2769 Clouds 18 1011 65 10000 1.34 244 21:26 04.08.2021
2770 Clouds 21 1011 52 10000 5.66 220 19:25 04.08.2021
2771 Clouds 21 1012 57 10000 0.45 150 17:22 04.08.2021
2772 Clouds 21 1013 60 10000 0.89 228 14:45 04.08.2021
2773 Clouds 19 1014 63 10000 0.45 40 12:21 04.08.2021
2774 Fog 9 1012 93 150 0.51 0 06:49 04.08.2021
2775 Clouds 18 1011 63 10000 3.6 240 20:55 03.08.2021
2776 Clouds 19 1011 61 10000 4.12 220 20:25 03.08.2021
2777 Clouds 19 1011 67 10000 4.63 200 18:37 03.08.2021
2778 Clouds 18 1015 72 10000 0.45 41 16:48 03.08.2021
2779 Clouds 16 1012 93 10000 1.54 0 13:56 03.08.2021
2780 Clouds 15 1016 84 10000 1.03 0 10:57 03.08.2021
2781 Clouds 13 1015 86 10000 0.51 0 09:30 03.08.2021
2782 Clouds 19 1016 55 10000 1.34 250 19:24 02.08.2021
2783 Clouds 20 1016 51 10000 0.89 276 16:40 02.08.2021
2784 Clouds 19 1017 53 10000 0.89 271 15:31 02.08.2021
2785 Clouds 16 1017 65 10000 0.89 198 12:29 02.08.2021
2786 Clouds 16 1014 66 10000 1.03 0 11:57 02.08.2021
2787 Clouds 13 1017 77 10000 1.03 0 09:50 02.08.2021
2788 Clouds 10 1020 85 10000 1.05 233 04:26 02.08.2021
2789 Clouds 19 1016 45 10000 0.89 329 18:26 01.08.2021
2790 Clouds 18 1016 50 10000 1.34 320 15:30 01.08.2021
2791 Clouds 16 1016 58 10000 0.45 72 11:38 01.08.2021
2792 Clouds 14 1016 66 10000 0.89 25 09:36 01.08.2021
2793 Clouds 13 1013 84 10000 0.89 38 03:48 01.08.2021
2794 Clouds 15 1011 78 10000 0.89 21 22:52 31.07.2021
2795 Clouds 17 1007 68 10000 4.63 240 20:54 31.07.2021
2796 Clouds 20 1010 64 10000 0.45 260 17:49 31.07.2021
2797 Clouds 19 1010 67 10000 1.34 10 16:36 31.07.2021
2798 Clouds 16 1010 79 10000 1.34 260 12:38 31.07.2021
2799 Clouds 14 1009 91 10000 2.57 220 08:34 31.07.2021
2800 Clouds 15 1009 86 10000 2.06 240 01:39 31.07.2021
2801 Clouds 15 1009 86 10000 2.06 240 01:39 31.07.2021
2802 Clouds 19 1007 70 10000 1.34 258 20:31 30.07.2021
2803 Clouds 19 1007 69 10000 0.89 305 19:23 30.07.2021
2804 Clouds 14 1007 89 10000 1.03 250 07:50 30.07.2021
2805 Clouds 18 1007 71 10000 2.68 253 16:53 29.07.2021
2806 Clouds 13 1005 90 10000 0.45 210 05:49 29.07.2021
2807 Clouds 13 1002 94 10000 2.06 260 04:29 29.07.2021
2808 Clouds 15 1002 77 10000 1.34 231 21:21 28.07.2021
2809 Clouds 17 1002 68 10000 1.79 255 17:22 28.07.2021
2810 Clouds 17 1003 75 10000 1.34 252 14:49 28.07.2021
2811 Rain 14 1004 91 7000 2.57 220 07:44 28.07.2021
2812 Clouds 18 1008 77 10000 3.6 240 21:46 27.07.2021
2813 Clouds 18 1008 75 10000 0.45 266 21:27 27.07.2021
2814 Clouds 20 1010 72 10000 0.45 196 14:52 27.07.2021
2815 Clouds 16 1010 85 10000 0.45 203 10:45 27.07.2021
2816 Clouds 15 1010 87 10000 2.06 250 07:38 27.07.2021
2817 Clouds 23 1010 61 10000 1.34 203 15:48 26.07.2021
2818 Clouds 22 1011 69 10000 0.89 232 14:24 26.07.2021
2819 Clear 14 1013 86 10000 1.54 10 04:51 26.07.2021
2820 Clouds 22 1010 60 10000 3.09 60 20:55 25.07.2021
2821 Clouds 24 1013 58 10000 0.45 97 18:22 25.07.2021
2822 Clouds 23 1014 56 10000 0.89 77 15:28 25.07.2021
2823 Clouds 17 1015 75 10000 0.89 79 10:44 25.07.2021
2824 Clouds 14 1015 81 10000 0.89 81 08:18 25.07.2021
2825 Clouds 23 1013 56 10000 1.34 73 20:24 24.07.2021
2826 Clouds 23 1013 56 10000 1.34 12 19:54 24.07.2021
2827 Clouds 20 1016 69 10000 1.34 88 12:34 24.07.2021
2828 Clouds 20 1018 72 10000 1.34 76 21:47 23.07.2021
2829 Clouds 23 1019 71 10000 2.57 20 14:36 23.07.2021
2830 Clouds 21 1019 79 10000 3.6 70 12:40 23.07.2021
2831 Clouds 19 1025 79 10000 0.89 32 22:53 22.07.2021
2832 Clouds 24 1027 68 10000 0.89 76 15:27 22.07.2021
2833 Clouds 18 1028 86 9000 0.89 73 11:19 22.07.2021
2834 Mist 16 1028 95 3500 0.89 65 08:34 22.07.2021
2835 Clear 17 1026 84 10000 2.57 250 01:43 22.07.2021
2836 Clear 24 1023 61 10000 2.57 260 21:42 21.07.2021
2837 Clear 25 1022 53 10000 3.09 280 21:22 21.07.2021
2838 Clouds 19 1024 85 10000 2.06 30 11:27 21.07.2021
2839 Clouds 17 1024 88 10000 2.06 40 09:19 21.07.2021
2840 Clouds 17 1023 89 10000 4.12 50 05:45 21.07.2021
2841 Clouds 23 1020 60 10000 3.09 320 21:47 20.07.2021
2842 Clouds 26 1020 50 10000 2.06 0 16:36 20.07.2021
2843 Clear 25 1020 52 10000 1.54 0 15:27 20.07.2021
2844 Clear 20 1021 71 10000 1.03 0 11:23 20.07.2021
2845 Clear 12 1021 90 10000 1.54 240 07:45 20.07.2021
2846 Clear 13 1020 89 10000 1.54 240 03:18 20.07.2021
2847 Clouds 25 1020 51 10000 1.54 0 18:24 19.07.2021
2848 Clouds 20 1022 59 10000 1.03 0 12:50 19.07.2021
2849 Clouds 13 1023 88 10000 1.54 250 07:27 19.07.2021
2850 Clouds 21 1025 64 10000 3.6 280 16:29 18.07.2021
2851 Clouds 17 1026 79 10000 3.6 260 10:20 18.07.2021
2852 Clear 18 1028 77 10000 5.66 280 22:58 17.07.2021
2853 Clear 19 1028 73 10000 5.66 270 21:58 17.07.2021
2854 Clear 19 1028 73 10000 5.66 270 21:40 17.07.2021
2855 Clouds 23 1028 64 10000 6.17 280 13:46 17.07.2021
2856 Clouds 21 1029 66 10000 5.14 270 11:30 17.07.2021
2857 Clouds 21 1029 66 10000 5.14 270 11:30 17.07.2021
2858 Clouds 15 1030 94 10000 2.57 230 04:48 17.07.2021
2859 Clouds 22 1029 69 10000 4.63 310 17:41 16.07.2021
2860 Clouds 20 1028 74 10000 2.57 260 11:44 16.07.2021
2861 Clouds 14 1027 94 10000 2.06 250 07:24 16.07.2021
2862 Clear 23 1025 60 10000 3.6 270 19:47 15.07.2021
2863 Clear 23 1025 60 10000 3.6 270 19:47 15.07.2021
2864 Clear 22 1024 60 10000 4.12 320 13:50 15.07.2021
2865 Clear 17 1024 72 10000 5.14 290 09:51 15.07.2021
2866 Clouds 16 1021 85 10000 6.69 250 00:31 15.07.2021
2867 Clouds 21 1019 66 10000 6.69 260 16:54 14.07.2021
2868 -273 0 0 0 0 0 12:01 14.07.2021
2869 Clouds 11 1018 93 10000 2.06 230 04:44 14.07.2021
2870 Clouds 20 1017 68 10000 5.66 260 20:23 13.07.2021
2871 Clouds 21 1017 68 10000 6.17 260 19:50 13.07.2021
2872 Clouds 21 1017 67 10000 5.66 260 19:23 13.07.2021
2873 Clouds 22 1017 65 10000 5.14 260 18:44 13.07.2021
2874 Clouds 22 1017 65 10000 4.12 280 18:24 13.07.2021
2875 Clouds 21 1017 73 10000 3.09 240 14:34 13.07.2021
2876 Clouds 16 1017 88 10000 0.51 0 09:38 13.07.2021
2877 Clouds 17 1015 85 10000 3.6 50 22:51 12.07.2021
2878 Clouds 22 1013 64 10000 4.12 70 17:29 12.07.2021
2879 Clouds 20 1013 70 10000 4.12 90 15:20 12.07.2021
2880 Clouds 16 1013 91 10000 3.09 50 00:31 12.07.2021
2881 Rain 18 1013 76 10000 2.57 40 21:57 11.07.2021
2882 Clouds 20 1013 65 10000 1.03 0 15:50 11.07.2021
2883 Clouds 15 1013 88 10000 1.03 30 01:55 11.07.2021
2884 Rain 20 1014 69 10000 1.03 0 17:38 10.07.2021
2885 Clouds 14 1017 90 7000 2.06 50 07:57 10.07.2021
2886 Clouds 14 1017 91 8000 0.51 0 07:22 10.07.2021
2887 Clouds 18 1019 76 10000 5.14 230 19:57 09.07.2021
2888 Clouds 20 1020 68 10000 3.09 220 14:51 09.07.2021
2889 Clouds 19 1020 72 10000 1.03 0 12:48 09.07.2021
2890 Clouds 16 1020 82 10000 2.06 250 23:55 08.07.2021
2891 Clouds 17 1020 78 10000 2.06 270 22:49 08.07.2021
2892 Clouds 18 1019 74 10000 1.54 0 19:49 08.07.2021
2893 Clouds 18 1019 72 10000 3.09 230 17:50 08.07.2021
2894 Clouds 19 1018 72 10000 3.09 310 13:49 08.07.2021
2895 Clouds 18 1018 70 10000 3.09 310 13:29 08.07.2021
2896 Clouds 18 1018 71 10000 2.57 300 12:33 08.07.2021
2897 Clouds 17 1017 72 10000 2.57 280 10:54 08.07.2021
2898 Clouds 12 1015 89 10000 0.51 0 06:20 08.07.2021
2899 Clouds 12 1015 85 10000 2.06 230 02:53 08.07.2021
2900 Clouds 15 1012 75 10000 3.6 250 22:58 07.07.2021
2901 Clear 17 1012 70 10000 4.63 280 22:19 07.07.2021
2902 Clear 18 1011 66 10000 4.63 270 21:44 07.07.2021
2903 Clouds 18 1011 67 10000 4.63 290 21:24 07.07.2021
2904 Clouds 20 1010 63 10000 5.14 290 19:58 07.07.2021
2905 Clouds 20 1010 62 10000 6.17 270 19:29 07.07.2021
2906 Clouds 21 1009 60 10000 5.66 260 17:36 07.07.2021
2907 Clouds 21 1008 60 10000 3.6 300 15:47 07.07.2021
2908 Clouds 18 1008 70 10000 4.12 260 13:56 07.07.2021
2909 Clouds 16 1005 77 10000 4.12 270 10:23 07.07.2021
2910 Clouds 13 1002 91 10000 1.03 0 06:47 07.07.2021
2911 Clouds 12 1002 100 10000 2.57 250 05:48 07.07.2021
2912 Clouds 14 1000 89 10000 0.51 0 02:48 07.07.2021
2913 Clouds 19 996 54 10000 2.57 310 19:31 06.07.2021
2914 Clouds 19 996 54 10000 2.57 300 18:53 06.07.2021
2915 Clouds 19 996 54 10000 2.06 300 18:31 06.07.2021
2916 Clouds 19 996 59 10000 1.54 0 16:58 06.07.2021
2917 Clouds 18 996 55 10000 1.54 0 13:33 06.07.2021
2918 Clouds 12 996 88 10000 1.03 230 09:42 06.07.2021
2919 Clouds 11 996 93 10000 1.03 240 08:35 06.07.2021
2920 Clouds 10 996 91 10000 1.6 29 07:38 06.07.2021
2921 Clouds 11 998 83 10000 2.57 140 01:53 06.07.2021
2922 Clouds 14 999 83 10000 1.54 240 23:18 05.07.2021
2923 Clouds 16 999 79 10000 2.57 240 21:24 05.07.2021
2924 Clouds 15 1000 85 10000 6.17 220 16:50 05.07.2021
2925 Clouds 15 999 93 8000 2.57 80 08:45 05.07.2021
2926 Clouds 14 1000 95 10000 4.63 80 05:47 05.07.2021
2927 Clouds 14 1001 95 10000 4.12 70 04:40 05.07.2021
2928 Clouds 16 1002 92 9000 3.09 60 23:19 04.07.2021
2929 Clouds 17 1003 88 10000 3.6 40 19:56 04.07.2021
2930 Clouds 20 1004 78 10000 1.03 0 16:51 04.07.2021
2931 Clouds 18 1004 84 5000 4.12 90 13:27 04.07.2021
2932 Clouds 16 1005 86 10000 2.06 80 09:25 04.07.2021
2933 Clouds 17 1007 88 10000 3.09 50 23:34 03.07.2021
2934 Clouds 17 1007 88 10000 2.57 60 22:40 03.07.2021
2935 Clouds 19 1009 78 10000 1.54 0 14:58 03.07.2021
2936 Clouds 19 1010 74 10000 3.6 60 12:38 03.07.2021
2937 Clouds 16 1011 86 10000 4.63 60 09:39 03.07.2021
2938 Clouds 15 1011 86 10000 3.09 50 09:20 03.07.2021
2939 Clouds 15 1011 87 10000 2.06 70 08:44 03.07.2021
2940 Clouds 19 1014 69 10000 3.09 90 17:28 02.07.2021
2941 Clouds 13 1016 84 10000 4.12 50 07:41 02.07.2021
2942 Clouds 12 1016 80 10000 3.6 60 06:24 02.07.2021
2943 Clouds 17 1016 73 10000 4.12 210 23:25 01.07.2021
2944 Clouds 18 1016 63 10000 3.09 260 22:29 01.07.2021
2945 Clouds 20 1016 52 10000 4.12 270 21:33 01.07.2021
2946 Clouds 22 1016 46 10000 4.63 250 19:36 01.07.2021
2947 Clouds 21 1016 53 10000 4.12 250 19:18 01.07.2021
2948 Clouds 22 1016 49 10000 3.6 230 18:38 01.07.2021
2949 Clouds 23 1017 45 10000 1.54 0 17:19 01.07.2021
2950 Clouds 22 1017 44 10000 1.54 0 15:31 01.07.2021
2951 Clouds 21 1018 42 10000 2.06 320 14:25 01.07.2021
2952 Clouds 17 1019 45 10000 2.06 70 10:56 01.07.2021
2953 Clouds 14 1019 72 10000 2.06 50 08:53 01.07.2021
2954 Clouds 16 1018 60 10000 3.6 60 23:23 30.06.2021
2955 Clouds 17 1018 59 10000 4.63 50 22:21 30.06.2021
2956 Clouds 18 1018 52 10000 4.63 50 21:44 30.06.2021
2957 Clouds 19 1018 52 10000 5.14 60 20:58 30.06.2021
2958 Clouds 20 1018 54 10000 4.12 60 19:43 30.06.2021
2959 Clouds 19 1019 66 10000 2.06 0 14:35 30.06.2021
2960 Clouds 17 1019 73 10000 2.57 80 13:25 30.06.2021
2961 Clouds 13 1019 86 10000 3.09 50 08:56 30.06.2021
2962 Clouds 16 1018 70 10000 4.63 70 22:36 29.06.2021
2963 Clouds 23 1016 57 10000 4.12 310 19:28 29.06.2021
2964 Clouds 24 1017 50 10000 3.09 260 17:44 29.06.2021
2965 Clouds 24 1017 50 10000 2.57 290 17:22 29.06.2021
2966 Clouds 23 1017 55 10000 2.06 0 15:50 29.06.2021
2967 Clouds 23 1018 59 10000 1.54 0 14:54 29.06.2021
2968 Clouds 22 1018 64 10000 2.06 30 13:20 29.06.2021
2969 Clouds 15 1018 77 10000 2.06 270 01:24 29.06.2021
2970 Clouds 15 1018 77 10000 2.06 270 01:24 29.06.2021
2971 Clouds 19 1016 60 10000 3.6 240 21:59 28.06.2021
2972 Clouds 21 1016 54 10000 3.09 280 20:25 28.06.2021
2973 Clouds 23 1016 49 10000 3.09 250 17:32 28.06.2021
2974 Clouds 22 1017 55 10000 2.57 270 15:23 28.06.2021
2975 Clouds 21 1017 62 10000 3.09 290 14:24 28.06.2021
2976 Clouds 16 1018 72 10000 1.03 0 10:50 28.06.2021
2977 Clouds 15 1019 72 10000 1.03 0 23:47 27.06.2021
2978 Clouds 18 1018 64 10000 2.57 270 21:54 27.06.2021
2979 Clouds 20 1018 61 10000 2.57 280 19:43 27.06.2021
2980 Clouds 20 1019 62 10000 2.57 260 16:54 27.06.2021
2981 Clouds 20 1020 61 10000 2.06 290 14:30 27.06.2021
2982 Clouds 15 1022 74 10000 0.51 0 09:33 27.06.2021
2983 Clouds 13 1023 79 10000 4.12 50 23:57 26.06.2021
2984 Clouds 16 1022 69 10000 3.09 70 21:24 26.06.2021
2985 Clouds 17 1022 67 10000 2.57 80 20:44 26.06.2021
2986 Clouds 17 1023 66 10000 2.57 70 19:25 26.06.2021
2987 Clouds 15 1023 68 10000 2.57 120 15:39 26.06.2021
2988 Clouds 14 1023 72 10000 2.57 50 12:57 26.06.2021
2989 Clouds 12 1023 77 10000 1.03 0 09:58 26.06.2021
2990 Clouds 11 1022 80 10000 0.51 300 06:20 26.06.2021
2991 Clouds 13 1021 65 10000 3.09 20 21:23 25.06.2021
2992 Clouds 14 1020 60 10000 6.69 30 19:56 25.06.2021
2993 Clouds 14 1021 61 10000 7.2 10 17:55 25.06.2021
2994 Rain 15 1020 58 10000 4.12 40 16:56 25.06.2021
2995 Clouds 15 1021 57 10000 3.6 50 15:47 25.06.2021
2996 Clouds 15 1020 58 10000 6.17 30 13:19 25.06.2021
2997 Clouds 12 1020 73 10000 0.51 0 09:35 25.06.2021
2998 Clouds 10 1020 80 10000 3.6 40 07:21 25.06.2021
2999 Clouds 11 1018 85 10000 3.09 40 03:56 25.06.2021
3000 Rain 14 1016 92 10000 2.06 260 22:48 24.06.2021
3001 Clouds 14 1016 92 10000 2.57 250 21:48 24.06.2021
3002 Rain 14 1017 91 10000 3.09 250 20:41 24.06.2021
3003 Rain 14 1017 91 10000 4.63 230 18:51 24.06.2021
3004 Rain 14 1018 90 10000 6.17 220 16:53 24.06.2021
3005 Rain 15 1019 86 10000 5.66 250 15:22 24.06.2021
3006 Rain 16 1019 83 10000 6.17 230 14:50 24.06.2021
3007 Clouds 16 1020 76 10000 5.66 270 12:25 24.06.2021
3008 Clouds 14 1021 84 10000 3.6 260 09:36 24.06.2021
3009 Clouds 13 1021 88 10000 4.63 240 08:24 24.06.2021
3010 Clouds 14 1022 91 10000 3.09 260 05:41 24.06.2021
3011 Clouds 15 1023 87 10000 3.6 240 23:28 23.06.2021
3012 Clouds 16 1023 84 10000 3.6 250 21:46 23.06.2021
3013 Clouds 16 1022 84 10000 4.12 250 20:48 23.06.2021
3014 Clouds 17 1022 84 10000 4.63 260 18:38 23.06.2021
3015 Rain 16 1022 84 10000 4.12 230 17:40 23.06.2021
3016 Rain 16 1022 83 10000 4.12 250 16:51 23.06.2021
3017 Clouds 15 1022 86 10000 5.66 220 14:29 23.06.2021
3018 Clouds 14 1022 87 10000 5.14 220 12:26 23.06.2021
3019 Clouds 13 1022 91 10000 3.6 230 10:39 23.06.2021
3020 Clouds 12 1022 91 10000 3.6 240 08:52 23.06.2021
3021 Clouds 12 1022 91 10000 3.09 240 08:25 23.06.2021
3022 Clouds 12 1022 90 9000 3.09 250 07:47 23.06.2021
3023 Clouds 12 1022 84 10000 3.6 240 04:34 23.06.2021
3024 Clouds 12 1024 79 10000 2.57 240 00:46 23.06.2021
3025 Clouds 12 1024 75 10000 4.12 260 23:57 22.06.2021
3026 Clouds 13 1023 67 10000 5.14 260 22:46 22.06.2021
3027 Clouds 13 1023 67 10000 5.66 260 22:25 22.06.2021
3028 Clouds 14 1023 58 10000 4.63 250 21:39 22.06.2021
3029 Clouds 16 1023 56 10000 5.66 260 19:45 22.06.2021
3030 Clouds 17 1022 50 10000 6.69 260 18:57 22.06.2021
3031 Clouds 17 1022 48 10000 6.17 250 18:25 22.06.2021
3032 Clouds 18 1022 46 10000 4.63 250 17:22 22.06.2021
3033 Clouds 18 1022 47 10000 4.12 270 16:32 22.06.2021
3034 Clouds 18 1022 49 10000 5.14 260 14:38 22.06.2021
3035 Clouds 17 1023 52 10000 3.09 290 13:50 22.06.2021
3036 Clouds 17 1023 56 10000 2.57 0 12:54 22.06.2021
3037 Clear 15 1023 60 10000 1.03 0 11:20 22.06.2021
3038 Clear 13 1023 69 10000 0.51 0 09:57 22.06.2021
3039 Clouds 6 1023 87 10000 0.28 7 06:46 22.06.2021
3040 Clouds 10 1022 66 10000 2.06 10 00:44 22.06.2021
3041 Clouds 11 1021 62 10000 2.57 40 23:19 21.06.2021
3042 Clouds 15 1020 47 10000 3.09 10 21:54 21.06.2021
3043 Clouds 16 1020 44 10000 3.09 20 21:18 21.06.2021
3044 Clouds 16 1020 44 10000 3.09 30 20:30 21.06.2021
3045 Clouds 17 1020 45 10000 2.06 20 19:51 21.06.2021
3046 Clouds 17 1019 45 10000 2.57 360 18:33 21.06.2021
3047 Clouds 17 1019 47 10000 1.54 0 17:23 21.06.2021
3048 Clouds 17 1019 51 10000 1.03 0 16:40 21.06.2021
3049 Clouds 17 1019 51 10000 1.03 0 16:19 21.06.2021
3050 Clouds 16 1019 54 10000 1.03 0 15:40 21.06.2021
3051 Clouds 15 1018 58 10000 1.03 0 13:55 21.06.2021
3052 Clouds 14 1018 62 10000 1.54 0 13:21 21.06.2021
3053 Clouds 14 1018 58 10000 2.06 30 12:35 21.06.2021
3054 Clouds 14 1018 64 10000 4.63 80 11:25 21.06.2021
3055 Clouds 13 1018 71 10000 5.14 80 10:24 21.06.2021
3056 Clouds 12 1017 80 10000 5.14 80 09:18 21.06.2021
3057 Clouds 12 1016 82 10000 4.12 50 08:19 21.06.2021
3058 Clouds 12 1016 82 10000 4.12 50 08:19 21.06.2021
3059 Clouds 12 1015 84 10000 2.57 40 06:24 21.06.2021
3060 Clouds 13 1013 71 10000 2.06 270 23:58 20.06.2021
3061 Clouds 14 1013 73 10000 2.06 270 23:34 20.06.2021
3062 Clouds 15 1013 68 10000 4.12 290 22:57 20.06.2021
3063 Clouds 15 1013 77 10000 3.09 280 21:55 20.06.2021
3064 Clouds 16 1012 77 10000 3.09 260 20:28 20.06.2021
3065 Clouds 16 1012 77 10000 3.6 300 19:40 20.06.2021
3066 Clouds 16 1012 76 10000 3.09 280 19:20 20.06.2021
3067 Clouds 16 1012 77 10000 3.6 290 17:47 20.06.2021
3068 Clouds 16 1012 74 10000 3.6 310 16:45 20.06.2021
3069 Clouds 16 1012 74 10000 3.09 250 15:44 20.06.2021
3070 Clouds 16 1012 74 10000 3.09 250 15:25 20.06.2021
3071 Clouds 16 1012 73 10000 3.09 250 14:42 20.06.2021
3072 Clouds 15 1012 72 10000 2.06 260 13:32 20.06.2021
3073 Clouds 15 1012 72 10000 1.03 0 12:34 20.06.2021
3074 Clouds 15 1012 72 10000 1.03 0 11:45 20.06.2021
3075 Clouds 15 1012 72 10000 1.03 0 11:45 20.06.2021
3076 Clouds 13 1012 84 10000 2.57 60 09:55 20.06.2021
3077 Clouds 13 1012 85 10000 2.57 60 09:36 20.06.2021
3078 Clouds 13 1012 83 10000 4.63 60 04:32 20.06.2021
3079 Clouds 13 1012 83 10000 4.63 60 04:32 20.06.2021
3080 Clouds 15 1012 82 10000 4.63 60 23:36 19.06.2021
3081 Clouds 15 1012 77 10000 4.12 60 22:52 19.06.2021
3082 Clouds 16 1012 67 10000 2.06 270 21:51 19.06.2021
3083 Clouds 18 1012 60 10000 2.57 220 20:50 19.06.2021
3084 Clouds 19 1012 59 10000 2.57 210 18:50 19.06.2021
3085 Clouds 19 1012 56 10000 4.63 190 18:21 19.06.2021
3086 Clouds 19 1012 58 10000 4.12 170 17:22 19.06.2021
3087 Clouds 18 1013 60 10000 4.63 190 15:56 19.06.2021
3088 Clouds 17 1013 63 10000 2.57 250 14:28 19.06.2021
3089 Clouds 17 1014 64 10000 3.09 140 12:48 19.06.2021
3090 Clouds 16 1014 72 10000 2.57 80 11:53 19.06.2021
3091 Clouds 15 1014 77 10000 3.09 80 10:42 19.06.2021
3092 Clouds 14 1014 82 10000 3.09 70 10:22 19.06.2021
3093 Clouds 13 1015 84 10000 3.6 70 08:57 19.06.2021
3094 Clouds 12 1015 89 10000 3.09 70 07:44 19.06.2021
3095 Clouds 12 1015 86 10000 3.09 70 05:55 19.06.2021
3096 Rain 12 1017 85 10000 5.14 60 01:28 19.06.2021
3097 Clouds 13 1017 82 10000 6.17 60 00:18 19.06.2021
3098 Clouds 13 1017 73 10000 5.14 60 23:26 18.06.2021
3099 Clouds 14 1017 69 10000 5.14 50 22:49 18.06.2021
3100 Clouds 14 1017 63 10000 5.14 50 22:18 18.06.2021
3101 Clouds 16 1017 59 10000 7.2 60 21:29 18.06.2021
3102 Clouds 16 1017 53 10000 7.2 60 20:58 18.06.2021
3103 Clouds 17 1017 56 10000 6.17 60 19:38 18.06.2021
3104 Clouds 18 1017 54 10000 4.63 60 18:23 18.06.2021
3105 Clouds 18 1017 52 10000 3.6 60 17:29 18.06.2021
3106 Clouds 18 1018 50 10000 1.54 0 16:21 18.06.2021
3107 Clouds 17 1018 48 10000 2.06 360 15:29 18.06.2021
3108 Clouds 17 1019 50 10000 2.57 300 14:32 18.06.2021
3109 Clouds 16 1019 52 10000 1.03 0 13:37 18.06.2021
3110 Clear 16 1020 52 10000 1.54 0 12:45 18.06.2021
3111 Clear 15 1020 55 10000 3.09 300 11:57 18.06.2021
3112 Clear 15 1020 55 10000 3.09 300 11:57 18.06.2021
3113 Clear 14 1020 58 10000 2.57 300 11:25 18.06.2021
3114 Clear 14 1020 59 10000 2.57 290 10:52 18.06.2021
3115 Clear 13 1020 62 10000 3.6 290 10:21 18.06.2021
3116 Clear 12 1020 70 10000 3.6 290 09:43 18.06.2021
3117 Clear 10 1020 75 10000 3.6 300 08:48 18.06.2021
3118 Clear 9 1020 82 10000 1.54 220 08:19 18.06.2021
3119 Clear 8 1020 85 10000 1.03 220 07:21 18.06.2021
3120 Clear 9 1018 83 10000 2.57 240 00:48 18.06.2021
3121 Clear 12 1017 71 10000 4.12 270 23:41 17.06.2021
3122 Clouds 14 1016 62 10000 4.63 280 22:49 17.06.2021
3123 Clouds 15 1016 65 10000 4.12 270 22:24 17.06.2021
3124 Clouds 15 1015 62 10000 5.14 250 21:38 17.06.2021
3125 Clouds 16 1015 61 10000 6.17 260 20:56 17.06.2021
3126 Clouds 17 1015 54 10000 5.66 270 20:24 17.06.2021
3127 Clouds 17 1015 55 10000 5.66 270 19:46 17.06.2021
3128 Clouds 18 1014 49 10000 6.17 260 18:40 17.06.2021
3129 Clouds 18 1014 50 10000 6.17 260 17:43 17.06.2021
3130 Clouds 18 1013 52 10000 5.66 250 17:19 17.06.2021
3131 Clouds 18 1013 53 10000 5.66 270 16:25 17.06.2021
3132 Clouds 18 1012 53 10000 4.12 250 14:58 17.06.2021
3133 Clouds 17 1012 53 10000 4.12 260 13:59 17.06.2021
3134 Clouds 17 1012 62 10000 3.09 270 12:50 17.06.2021
3135 Clouds 16 1012 67 10000 1.54 0 12:23 17.06.2021
3136 Clouds 16 1012 70 10000 1.54 0 10:54 17.06.2021
3137 Clouds 15 1011 77 10000 1.03 0 10:30 17.06.2021
3138 Clouds 15 1011 77 10000 1.03 0 10:30 17.06.2021
3139 Clouds 15 1011 78 10000 1.03 0 09:50 17.06.2021
3140 Clouds 14 1012 83 10000 1.03 0 09:22 17.06.2021
3141 Clouds 12 1011 89 10000 1.54 0 07:58 17.06.2021
3142 Clouds 11 1010 90 10000 1.54 240 06:49 17.06.2021
3143 Clouds 12 1010 83 10000 3.6 190 03:25 17.06.2021
3144 Clouds 13 1009 84 10000 1.54 260 23:50 16.06.2021
3145 Clouds 13 1009 84 10000 1.54 250 23:27 16.06.2021
3146 Clouds 15 1009 73 10000 3.09 250 22:35 16.06.2021
3147 Clouds 15 1009 72 10000 3.09 230 21:46 16.06.2021
3148 Clouds 16 1008 66 10000 4.12 240 21:22 16.06.2021
3149 Clouds 16 1008 65 10000 4.63 240 20:45 16.06.2021
3150 Clouds 16 1008 64 10000 5.14 220 20:19 16.06.2021
3151 Clouds 16 1008 63 10000 6.69 210 19:42 16.06.2021
3152 Clouds 17 1008 64 10000 4.63 220 18:56 16.06.2021
3153 Clouds 17 1008 63 10000 5.66 210 18:28 16.06.2021
3154 Clouds 16 1008 66 10000 6.69 210 17:44 16.06.2021
3155 Clouds 17 1008 63 10000 6.17 200 17:26 16.06.2021
3156 Clouds 17 1008 65 10000 6.17 220 16:44 16.06.2021
3157 Clouds 17 1008 65 10000 6.17 220 16:18 16.06.2021
3158 Clouds 16 1008 68 10000 6.17 230 15:37 16.06.2021
3159 Clouds 16 1008 70 10000 5.66 210 14:50 16.06.2021
3160 Clouds 16 1008 72 10000 5.66 220 14:32 16.06.2021
3161 Clouds 16 1009 75 10000 6.69 220 13:57 16.06.2021
3162 Clouds 15 1009 78 10000 6.17 220 13:23 16.06.2021
3163 Clouds 14 1009 80 10000 5.66 220 12:55 16.06.2021
3164 Clouds 14 1009 80 10000 5.66 220 12:33 16.06.2021
3165 Clouds 13 1008 85 10000 5.66 190 11:46 16.06.2021
3166 Rain 12 1009 87 10000 4.63 200 10:53 16.06.2021
3167 Clouds 12 1009 88 10000 4.63 200 10:34 16.06.2021
3168 Clouds 11 1008 92 10000 3.09 200 09:39 16.06.2021
3169 Rain 11 1009 93 7000 2.06 250 08:34 16.06.2021
3170 Rain 10 1009 100 7000 2.06 250 08:34 16.06.2021
3171 Rain 11 1008 93 6000 3.09 260 07:48 16.06.2021
3172 Rain 11 1008 91 5000 3.09 270 07:25 16.06.2021
3173 Rain 15 1008 88 10000 8.75 200 02:48 16.06.2021
3174 Clouds 16 1010 67 10000 4.63 190 23:49 15.06.2021
3175 Clouds 16 1010 65 10000 3.6 170 23:23 15.06.2021
3176 Clouds 16 1010 63 10000 4.12 190 22:50 15.06.2021
3177 Clouds 16 1011 62 10000 2.57 160 22:32 15.06.2021
3178 Clouds 16 1012 62 10000 4.12 170 21:27 15.06.2021
3179 Clouds 16 1013 68 10000 5.14 190 20:21 15.06.2021
3180 Clouds 16 1014 68 10000 4.12 190 19:32 15.06.2021
3181 Clouds 16 1015 69 10000 5.14 200 18:24 15.06.2021
3182 Clouds 17 1016 60 10000 6.69 190 16:51 15.06.2021
3183 Clouds 16 1017 64 10000 5.14 180 15:43 15.06.2021
3184 Clouds 16 1018 64 10000 5.14 170 15:19 15.06.2021
3185 Rain 16 1018 65 10000 5.66 190 14:44 15.06.2021
3186 Clouds 16 1019 64 10000 5.14 200 13:39 15.06.2021
3187 Clouds 15 1020 65 10000 6.17 190 12:54 15.06.2021
3188 Clouds 15 1020 64 10000 5.66 200 12:32 15.06.2021
3189 Clouds 15 1020 65 10000 4.63 190 11:43 15.06.2021
3190 Clouds 15 1020 68 10000 2.57 190 11:18 15.06.2021
3191 Clouds 14 1021 74 10000 2.57 170 10:43 15.06.2021
3192 Clouds 13 1021 75 10000 3.09 170 10:20 15.06.2021
3193 Clouds 12 1021 81 10000 0.51 0 08:52 15.06.2021
3194 Clouds 11 1021 85 10000 0.51 0 08:22 15.06.2021
3195 Clouds 9 1022 90 10000 0.51 20 06:58 15.06.2021
3196 Clouds 8 1022 90 9000 2.06 280 05:59 15.06.2021
3197 Clouds 9 1021 89 10000 1.54 240 04:29 15.06.2021
3198 Clouds 10 1021 85 10000 3.09 260 00:44 15.06.2021
3199 Clouds 11 1021 80 10000 4.63 240 23:40 14.06.2021
3200 Clouds 12 1021 79 10000 4.63 260 22:51 14.06.2021
3201 Clouds 12 1021 78 10000 4.12 300 22:22 14.06.2021
3202 Clouds 13 1021 75 10000 4.63 260 21:59 14.06.2021
3203 Clouds 13 1021 75 10000 4.63 260 21:37 14.06.2021
3204 Clouds 13 1021 75 10000 5.14 270 21:19 14.06.2021
3205 Clouds 13 1021 75 10000 5.14 240 20:43 14.06.2021
3206 Clouds 13 1021 78 10000 6.17 250 19:49 14.06.2021
3207 Clouds 13 1020 76 10000 8.23 260 19:30 14.06.2021
3208 Clouds 13 1020 74 10000 6.69 250 18:51 14.06.2021
3209 Clouds 13 1020 75 10000 6.69 250 18:22 14.06.2021
3210 Clouds 14 1020 70 10000 7.2 250 17:39 14.06.2021
3211 Clouds 14 1020 69 10000 7.72 250 17:20 14.06.2021
3212 Clouds 13 1020 73 10000 6.17 250 16:18 14.06.2021
3213 Clouds 13 1020 73 10000 6.17 250 16:18 14.06.2021
3214 Clouds 14 1019 69 10000 7.72 260 15:46 14.06.2021
3215 Clouds 15 1019 68 10000 7.2 250 14:54 14.06.2021
3216 Clouds 14 1019 68 10000 7.2 260 13:57 14.06.2021
3217 Clouds 14 1019 67 10000 6.17 250 13:28 14.06.2021
3218 Clouds 14 1018 68 10000 5.66 250 12:51 14.06.2021
3219 Clouds 14 1018 71 10000 9.77 260 11:57 14.06.2021
3220 Clouds 14 1018 70 10000 9.77 260 11:38 14.06.2021
3221 Clouds 13 1017 75 10000 11.32 260 10:46 14.06.2021
3222 Clouds 12 1017 80 10000 10.29 250 09:27 14.06.2021
3223 Clouds 12 1016 79 10000 8.75 250 08:49 14.06.2021
3224 Clouds 11 1016 82 10000 7.72 260 08:20 14.06.2021
3225 Clouds 11 1017 84 10000 9.26 260 07:37 14.06.2021
3226 Clouds 11 1017 91 10000 5.66 250 05:45 14.06.2021
3227 Rain 11 1017 91 6000 4.12 270 04:21 14.06.2021
3228 Drizzle 15 1018 90 3200 3.6 210 00:30 14.06.2021
3229 Clouds 16 1019 84 10000 4.63 240 23:25 13.06.2021
3230 Clouds 17 1019 81 10000 6.17 230 22:41 13.06.2021
3231 Clouds 17 1019 80 10000 8.23 220 22:21 13.06.2021
3232 Clouds 17 1019 78 10000 8.23 220 21:58 13.06.2021
3233 Clouds 18 1019 77 10000 8.23 220 21:35 13.06.2021
3234 Clouds 19 1019 74 10000 8.75 220 20:49 13.06.2021
3235 Clouds 19 1019 70 10000 9.77 220 20:29 13.06.2021
3236 Clouds 20 1019 69 10000 9.26 210 19:49 13.06.2021
3237 Clouds 21 1020 69 10000 9.77 210 19:30 13.06.2021
3238 Clouds 21 1020 66 10000 10.8 220 18:55 13.06.2021
3239 Clouds 22 1020 65 10000 10.29 210 18:27 13.06.2021
3240 Clouds 22 1021 64 10000 10.29 220 17:43 13.06.2021
3241 Clouds 22 1021 65 10000 10.29 220 16:39 13.06.2021
3242 Clouds 22 1022 66 10000 10.29 220 15:41 13.06.2021
3243 Clouds 22 1022 64 10000 10.29 220 14:48 13.06.2021
3244 Clouds 22 1022 63 10000 10.29 220 14:20 13.06.2021
3245 Clouds 22 1023 65 10000 8.75 210 13:25 13.06.2021
3246 Clouds 21 1023 70 10000 8.75 220 12:52 13.06.2021
3247 Clouds 21 1023 70 10000 8.75 220 12:52 13.06.2021
3248 Clouds 21 1023 71 10000 8.23 230 12:32 13.06.2021
3249 Clouds 20 1023 74 10000 8.75 210 11:46 13.06.2021
3250 Clouds 19 1023 80 10000 9.26 220 10:54 13.06.2021
3251 Clouds 19 1023 80 10000 9.26 220 10:54 13.06.2021
3252 Clouds 18 1023 82 10000 9.26 220 10:35 13.06.2021
3253 Clouds 17 1023 85 10000 5.66 230 09:49 13.06.2021
3254 Clouds 17 1023 86 10000 5.14 230 09:28 13.06.2021
3255 Clouds 16 1023 88 10000 5.14 230 08:53 13.06.2021
3256 Clouds 16 1023 94 10000 2.06 240 08:33 13.06.2021
3257 Clouds 15 1023 90 10000 3.6 220 07:34 13.06.2021
3258 Drizzle 14 1024 91 5000 4.63 220 04:21 13.06.2021
3259 Clouds 14 1024 73 10000 3.6 250 23:50 12.06.2021
3260 Clouds 14 1024 72 10000 3.6 230 23:18 12.06.2021
3261 Clouds 15 1024 71 10000 4.12 230 22:29 12.06.2021
3262 Clouds 15 1024 70 10000 3.6 240 21:44 12.06.2021
3263 Clouds 16 1023 66 10000 4.63 240 20:52 12.06.2021
3264 Clouds 17 1023 65 10000 5.14 260 20:21 12.06.2021
3265 Clouds 17 1023 63 10000 5.66 260 19:57 12.06.2021
3266 Clouds 17 1024 61 10000 6.17 260 18:53 12.06.2021
3267 Clouds 17 1023 60 10000 6.17 250 18:29 12.06.2021
3268 Clouds 17 1023 61 10000 7.2 260 17:32 12.06.2021
3269 Clouds 17 1023 61 10000 7.2 260 16:58 12.06.2021
3270 Clouds 17 1023 61 10000 6.69 260 15:40 12.06.2021
3271 Clouds 16 1023 64 10000 6.69 250 14:51 12.06.2021
3272 Clouds 16 1023 63 10000 6.69 250 14:31 12.06.2021
3273 Clouds 16 1022 66 10000 6.69 260 13:57 12.06.2021
3274 Clouds 15 1022 68 10000 6.69 250 12:40 12.06.2021
3275 Clouds 14 1022 72 10000 6.17 240 12:22 12.06.2021
3276 Clouds 14 1022 71 10000 6.17 260 11:33 12.06.2021
3277 Clouds 13 1022 73 10000 6.17 260 10:43 12.06.2021
3278 Clouds 13 1021 75 10000 5.14 250 10:25 12.06.2021
3279 Clouds 12 1021 74 10000 5.14 250 09:45 12.06.2021
3280 Clouds 12 1020 78 10000 5.66 230 08:25 12.06.2021
3281 Clouds 11 1019 81 10000 4.63 240 06:52 12.06.2021
3282 Clouds 11 1019 81 10000 5.14 250 04:58 12.06.2021
3283 Clouds 12 1018 74 10000 5.66 260 23:40 11.06.2021
3284 Clouds 13 1017 73 10000 5.66 270 22:25 11.06.2021
3285 Clouds 13 1017 72 10000 5.66 250 21:52 11.06.2021
3286 Clouds 14 1017 71 10000 5.66 250 21:33 11.06.2021
3287 Clouds 14 1017 69 10000 7.2 240 20:50 11.06.2021
3288 Clouds 14 1016 70 10000 5.66 250 20:19 11.06.2021
3289 Clouds 16 1016 70 10000 6.17 260 18:59 11.06.2021
3290 Clouds 17 1016 68 10000 6.17 270 18:32 11.06.2021
3291 Clouds 16 1015 68 10000 7.2 260 17:35 11.06.2021
3292 Clouds 15 1015 73 10000 6.69 260 16:32 11.06.2021
3293 Clouds 16 1014 68 10000 9.26 250 15:24 11.06.2021
3294 Clouds 16 1014 72 10000 9.26 240 14:32 11.06.2021
3295 Clouds 15 1014 69 10000 7.2 250 13:33 11.06.2021
3296 Clouds 16 1013 70 10000 6.69 260 12:27 11.06.2021
3297 Clouds 15 1012 70 10000 7.2 260 11:37 11.06.2021
3298 Clouds 15 1012 75 10000 7.2 270 10:56 11.06.2021
3299 Clouds 14 1011 85 10000 4.63 270 09:33 11.06.2021
3300 Clouds 15 1011 83 10000 6.69 270 08:47 11.06.2021
3301 Clouds 15 1010 85 10000 9.26 220 07:39 11.06.2021
3302 Clouds 16 1010 82 10000 6.69 220 04:27 11.06.2021
3303 Clouds 17 1009 84 10000 7.2 230 23:38 10.06.2021
3304 Clouds 17 1009 80 10000 5.66 210 22:42 10.06.2021
3305 Clouds 19 1010 77 10000 8.23 210 21:58 10.06.2021
3306 Clouds 19 1010 76 10000 4.63 190 21:21 10.06.2021
3307 Clouds 19 1010 77 10000 7.2 200 20:45 10.06.2021
3308 Clouds 20 1011 75 10000 6.17 200 19:32 10.06.2021
3309 Clouds 19 1011 79 10000 6.17 240 18:57 10.06.2021
3310 Clouds 19 1011 76 10000 6.17 230 18:28 10.06.2021
3311 Clouds 20 1011 76 10000 5.66 220 17:45 10.06.2021
3312 Clouds 19 1012 77 10000 7.2 200 16:47 10.06.2021
3313 Clouds 18 1012 80 10000 6.23 204 15:58 10.06.2021
3314 Clouds 18 1013 79 10000 6.44 207 15:19 10.06.2021
3315 Clouds 18 1013 80 10000 6.12 203 12:54 10.06.2021
3316 Clouds 18 1013 80 10000 5.5 203 12:23 10.06.2021
3317 Clouds 17 1014 81 10000 5.18 205 11:22 10.06.2021
3318 Clouds 16 1014 89 10000 4.35 199 09:43 10.06.2021
3319 Clouds 15 1014 91 10000 3.38 202 05:53 10.06.2021
3320 Clouds 16 1014 91 10000 3.09 208 00:25 10.06.2021
3321 Clouds 16 1015 89 10000 3.09 208 23:30 09.06.2021
3322 Clouds 16 1015 89 10000 3.01 195 22:27 09.06.2021
3323 Clouds 16 1015 94 10000 2.57 240 21:36 09.06.2021
3324 Clouds 17 1014 88 10000 2.7 203 21:18 09.06.2021
3325 Clouds 17 1014 84 10000 2.7 203 20:32 09.06.2021
3326 Clouds 17 1014 85 10000 2.82 196 19:48 09.06.2021
3327 Clouds 17 1014 89 7000 3.06 191 18:41 09.06.2021
3328 Clouds 18 1015 82 10000 3.85 195 15:48 09.06.2021
3329 Clouds 18 1015 82 10000 4.04 199 15:29 09.06.2021
3330 Clouds 17 1015 87 10000 3.79 195 14:27 09.06.2021
3331 Drizzle 16 1015 91 3400 3.79 195 13:32 09.06.2021
3332 Drizzle 16 1015 90 4400 3.42 187 12:46 09.06.2021
3333 Drizzle 16 1015 88 5000 3.3 175 12:28 09.06.2021
3334 Clouds 15 1016 82 10000 3.22 187 09:59 09.06.2021
3335 Clouds 15 1016 82 10000 2.7 181 08:55 09.06.2021
3336 Clouds 14 1016 84 10000 2.47 187 07:53 09.06.2021
3337 Clouds 14 1016 83 10000 2.31 181 05:51 09.06.2021
3338 Clouds 15 1018 83 10000 3.09 194 23:24 08.06.2021
3339 Clouds 16 1018 81 10000 3.04 194 22:47 08.06.2021
3340 Clouds 16 1018 79 10000 3.31 195 21:59 08.06.2021
3341 Clouds 17 1018 73 10000 3.21 205 20:39 08.06.2021
3342 Clouds 18 1019 63 10000 3.76 230 18:20 08.06.2021
3343 Clouds 19 1019 62 10000 3.76 230 17:49 08.06.2021
3344 Clouds 19 1019 63 10000 3.76 230 17:49 08.06.2021
3345 Clouds 19 1019 63 10000 4.76 232 16:29 08.06.2021
3346 Clouds 18 1019 66 10000 5.1 233 14:36 08.06.2021
3347 Clouds 17 1019 66 10000 5.29 224 12:40 08.06.2021
3348 Clouds 16 1020 71 10000 4.08 218 10:48 08.06.2021
3349 Clouds 12 1019 76 10000 1.36 177 05:44 08.06.2021
3350 Clouds 13 1020 67 10000 1.39 196 00:33 08.06.2021
3351 Clouds 16 1020 69 10000 2.37 229 22:28 07.06.2021
3352 Clouds 18 1019 60 10000 3.51 244 20:20 07.06.2021
3353 Clouds 20 1019 54 10000 3.44 235 18:30 07.06.2021
3354 Clouds 20 1021 44 10000 2.3 215 14:38 07.06.2021
3355 Clouds 18 1022 56 10000 1.7 197 12:39 07.06.2021
3356 Clouds 17 1022 64 10000 1.4 204 11:37 07.06.2021
3357 Clouds 14 1023 70 10000 0.87 107 10:21 07.06.2021
3358 Clouds 13 1022 75 10000 0.87 107 09:33 07.06.2021
3359 Clouds 10 1023 82 10000 0.82 58 07:55 07.06.2021
3360 Clouds 7 1023 87 10000 0.72 71 05:28 07.06.2021
3361 Clouds 16 1024 52 10000 1.38 226 21:30 06.06.2021
3362 Clouds 17 1024 49 10000 3.11 247 19:57 06.06.2021
3363 Clouds 18 1025 47 10000 3.9 236 18:20 06.06.2021
3364 Clouds 17 1025 53 10000 3.61 240 16:24 06.06.2021
3365 Clouds 16 1025 57 10000 3.92 253 13:47 06.06.2021
3366 Clouds 16 1025 59 10000 3.84 259 12:25 06.06.2021
3367 Clouds 14 1025 68 10000 3.46 260 10:46 06.06.2021
3368 Clouds 14 1025 70 10000 3.03 256 10:23 06.06.2021
3369 Clouds 13 1025 78 10000 2.79 251 09:28 06.06.2021
3370 Clear 12 1025 79 10000 2.79 251 08:54 06.06.2021
3371 Clouds 8 1024 88 10000 2.08 246 06:27 06.06.2021
3372 Clouds 12 1023 88 10000 2.07 229 00:33 06.06.2021
3373 Clouds 13 1023 86 10000 2.33 236 23:18 05.06.2021
3374 Clouds 14 1022 85 10000 2.64 231 21:49 05.06.2021
3375 Clouds 16 1022 80 10000 3.67 227 20:23 05.06.2021
3376 Clouds 18 1021 71 10000 4.09 228 18:45 05.06.2021
3377 Clouds 18 1022 65 10000 4.11 234 16:20 05.06.2021
3378 Clouds 18 1022 66 10000 3.88 236 15:26 05.06.2021
3379 Clouds 17 1022 68 10000 3.44 215 12:49 05.06.2021
3380 Clouds 16 1023 71 10000 3.5 215 11:40 05.06.2021
3381 Clear 13 1024 76 10000 1.17 177 09:26 05.06.2021
3382 Clouds 10 1023 86 10000 0.77 165 07:54 05.06.2021
3383 Clouds 9 1023 86 10000 0.81 145 04:25 05.06.2021
3384 Clouds 14 1023 70 10000 1.88 239 22:24 04.06.2021
3385 Clouds 15 1022 63 10000 1.88 239 21:42 04.06.2021
3386 Clouds 17 1022 52 10000 3.15 238 20:32 04.06.2021
3387 Clouds 17 1022 55 10000 3.91 238 18:42 04.06.2021
3388 Clouds 17 1022 59 10000 4.18 234 18:23 04.06.2021
3389 Clouds 17 1022 62 10000 4.4 231 15:56 04.06.2021
3390 Clouds 17 1021 62 10000 4.92 221 12:57 04.06.2021
3391 Clouds 16 1021 63 10000 4.51 215 11:29 04.06.2021
3392 Clouds 12 1020 83 10000 2.67 197 08:24 04.06.2021
3393 Clouds 10 1019 86 10000 1.99 179 06:32 04.06.2021
3394 Clouds 11 1018 79 10000 1.58 192 23:58 03.06.2021
3395 Clouds 15 1017 72 10000 1.71 186 21:59 03.06.2021
3396 Clouds 16 1017 74 10000 1.77 198 20:35 03.06.2021
3397 Clouds 16 1017 79 10000 1.71 204 19:53 03.06.2021
3398 Clouds 15 1017 83 10000 1.18 206 18:27 03.06.2021
3399 Clouds 16 1017 80 10000 0.43 214 16:51 03.06.2021
3400 Clouds 18 1017 72 10000 1.46 59 15:18 03.06.2021
3401 Clouds 15 1017 82 10000 3.17 44 12:59 03.06.2021
3402 Rain 12 1018 88 10000 4.21 55 10:24 03.06.2021
3403 Rain 12 1017 87 5000 4.2 55 09:50 03.06.2021
3404 Clouds 12 1018 83 10000 4.35 52 08:35 03.06.2021
3405 Clouds 11 1018 82 10000 4.24 49 00:24 03.06.2021
3406 Clouds 12 1017 65 10000 4.28 51 22:55 02.06.2021
3407 Clouds 14 1017 58 10000 4.52 54 21:34 02.06.2021
3408 Clouds 16 1016 49 10000 4.52 59 20:52 02.06.2021
3409 Clouds 17 1016 46 10000 4.88 63 20:22 02.06.2021
3410 Clouds 21 1016 52 10000 5.45 77 17:35 02.06.2021
3411 Clouds 22 1016 58 10000 5.26 80 16:35 02.06.2021
3412 Clouds 20 1016 61 10000 4.72 83 13:58 02.06.2021
3413 Clouds 17 1017 68 10000 4.64 71 12:25 02.06.2021
3414 Clouds 15 1017 76 10000 4.26 65 10:42 02.06.2021
3415 Clouds 14 1017 78 10000 3.93 59 10:24 02.06.2021
3416 Clouds 13 1017 81 10000 3.93 59 09:41 02.06.2021
3417 Clouds 11 1017 85 10000 3.65 55 08:44 02.06.2021
3418 Clouds 10 1017 87 9000 3.12 52 07:30 02.06.2021
3419 Clouds 11 1017 86 10000 2.59 48 04:22 02.06.2021
3420 Clouds 13 1017 80 10000 2.19 45 01:39 02.06.2021
3421 Clouds 19 1016 59 10000 1.24 39 21:44 01.06.2021
3422 Clouds 21 1016 60 10000 0.76 259 20:49 01.06.2021
3423 Clouds 22 1015 46 10000 1.52 214 19:44 01.06.2021
3424 Clouds 23 1015 46 10000 3.39 181 17:18 01.06.2021
3425 Clouds 23 1015 45 10000 3.41 173 15:35 01.06.2021
3426 Clouds 22 1016 58 10000 3.28 167 13:19 01.06.2021
3427 Clouds 21 1016 61 10000 3.14 166 12:28 01.06.2021
3428 Clouds 19 1016 67 10000 3.14 166 11:30 01.06.2021
3429 Clouds 19 1016 71 10000 3.09 155 10:57 01.06.2021
3430 Clouds 17 1016 74 10000 2.81 146 09:58 01.06.2021
3431 Clouds 15 1017 79 10000 1.88 128 08:54 01.06.2021
3432 Clouds 13 1017 83 10000 1.43 98 07:38 01.06.2021
3433 Clouds 13 1017 64 10000 2.46 98 01:27 01.06.2021
3434 Clear 14 1018 55 10000 2.08 104 23:39 31.05.2021
3435 Clear 15 1018 45 10000 1.93 115 23:19 31.05.2021
3436 Clear 18 1018 42 10000 2.33 145 22:24 31.05.2021
3437 Clear 20 1018 37 10000 3.15 164 20:51 31.05.2021
3438 Clouds 20 1018 37 10000 4.17 166 19:55 31.05.2021
3439 Clouds 20 1018 34 10000 4.59 169 18:39 31.05.2021
3440 Clouds 21 1019 35 10000 5.02 170 17:43 31.05.2021
3441 Clouds 22 1019 40 10000 5.26 174 16:40 31.05.2021
3442 Clear 22 1019 35 10000 4.58 164 15:39 31.05.2021
3443 Clouds 20 1020 52 10000 3.42 156 13:25 31.05.2021
3444 Clouds 20 1020 54 10000 3.42 156 12:52 31.05.2021
3445 Clouds 18 1021 61 10000 2.81 143 11:56 31.05.2021
3446 Clouds 18 1021 66 10000 2.81 143 11:34 31.05.2021
3447 Clouds 15 1022 80 10000 1.87 121 10:24 31.05.2021
3448 Clouds 13 1022 81 10000 1.35 112 09:19 31.05.2021
3449 Clear 12 1022 88 10000 1.08 107 08:19 31.05.2021
3450 Clear 11 1022 89 9000 1.08 107 07:38 31.05.2021
3451 Clear 9 1023 88 200 1.44 116 05:49 31.05.2021
3452 Clear 15 1025 72 10000 0.99 214 23:27 30.05.2021
3453 Clear 16 1025 67 10000 0.99 214 22:52 30.05.2021
3454 Clouds 18 1025 59 10000 1.23 238 22:32 30.05.2021
3455 Clouds 18 1025 63 10000 1.23 239 21:44 30.05.2021
3456 Clouds 19 1024 63 10000 1.36 235 21:21 30.05.2021
3457 Clouds 19 1025 60 10000 1.26 225 20:45 30.05.2021
3458 Clouds 19 1025 60 10000 1.26 225 20:45 30.05.2021
3459 Clouds 20 1025 61 10000 1.29 224 20:27 30.05.2021
3460 Clouds 21 1025 58 10000 1.29 224 19:31 30.05.2021
3461 Clouds 21 1025 58 10000 1.25 225 18:35 30.05.2021
3462 Clouds 21 1026 60 10000 1.73 232 17:26 30.05.2021
3463 Clouds 21 1026 60 10000 1.73 232 16:44 30.05.2021
3464 Clouds 21 1026 56 10000 2.2 241 15:56 30.05.2021
3465 Clouds 21 1026 56 10000 2.21 241 15:30 30.05.2021
3466 Clouds 21 1027 63 10000 2.03 228 13:45 30.05.2021
3467 Clouds 20 1028 68 10000 1.65 214 12:46 30.05.2021
3468 Clear 18 1028 72 10000 1.29 189 11:38 30.05.2021
3469 Clouds 17 1028 78 10000 0.98 155 10:52 30.05.2021
3470 Clouds 16 1029 81 8000 1.01 111 10:29 30.05.2021
3471 Clouds 15 1029 87 7000 1.01 111 09:49 30.05.2021
3472 Clear 14 1029 90 5000 1.19 93 09:29 30.05.2021
3473 Clear 12 1029 91 5000 1.19 93 08:45 30.05.2021
3474 Clear 9 1030 91 10000 1.06 59 06:29 30.05.2021
3475 Clouds 11 1030 90 5000 1.21 64 02:20 30.05.2021
3476 Clouds 13 1030 85 10000 0.97 64 23:51 29.05.2021
3477 Clouds 16 1030 67 10000 0.67 74 22:47 29.05.2021
3478 Clouds 17 1029 68 10000 0.87 95 22:19 29.05.2021
3479 Clouds 17 1029 63 10000 0.86 95 21:41 29.05.2021
3480 Clouds 17 1029 65 10000 0.86 109 20:54 29.05.2021
3481 Clouds 18 1029 63 10000 1.03 70 20:36 29.05.2021
3482 Clouds 18 1029 69 10000 0.5 75 19:58 29.05.2021
3483 Clouds 17 1028 72 10000 0.18 337 18:41 29.05.2021
3484 Clouds 17 1028 73 10000 1.49 269 17:27 29.05.2021
3485 Clouds 18 1028 71 10000 1.49 269 16:35 29.05.2021
3486 Clouds 18 1028 68 10000 0.74 314 15:26 29.05.2021
3487 Clouds 18 1027 66 10000 0.56 200 14:27 29.05.2021
3488 Clouds 18 1027 68 10000 0.56 200 13:32 29.05.2021
3489 Clouds 17 1027 68 10000 0.51 173 12:44 29.05.2021
3490 Clouds 17 1027 68 10000 0.51 173 12:44 29.05.2021
3491 Clouds 15 1027 72 10000 0.74 113 12:25 29.05.2021
3492 Clouds 15 1027 78 10000 0.74 113 11:31 29.05.2021
3493 Clouds 14 1027 81 10000 0.87 76 10:52 29.05.2021
3494 Clouds 13 1027 84 10000 0.96 61 10:26 29.05.2021
3495 Clouds 13 1027 85 10000 0.96 61 09:42 29.05.2021
3496 Clouds 12 1027 86 10000 0.66 38 09:18 29.05.2021
3497 Clouds 12 1026 90 9000 0.41 20 08:26 29.05.2021
3498 Clouds 11 1026 88 6000 0.87 66 06:50 29.05.2021
3499 Clouds 13 1024 84 10000 1.06 78 00:54 29.05.2021
3500 Clouds 13 1024 83 10000 0.7 91 23:50 28.05.2021
3501 Clouds 14 1023 76 10000 0.57 133 22:24 28.05.2021
3502 Clouds 14 1023 82 10000 0.57 133 21:36 28.05.2021
3503 Clouds 15 1023 76 10000 0.77 154 20:47 28.05.2021
3504 Clouds 14 1023 77 10000 0.51 151 19:58 28.05.2021
3505 Clouds 14 1023 77 10000 0.51 151 19:37 28.05.2021
3506 Clouds 14 1023 77 10000 0.57 145 18:50 28.05.2021
3507 Clouds 15 1023 77 10000 0.59 163 18:28 28.05.2021
3508 Clouds 14 1023 73 10000 0.59 163 17:37 28.05.2021
3509 Clouds 14 1024 79 10000 0.61 172 16:49 28.05.2021
3510 Clouds 14 1024 72 10000 0.71 182 15:58 28.05.2021
3511 Clouds 14 1024 72 10000 0.71 182 15:33 28.05.2021
3512 Clouds 14 1023 77 10000 0.45 103 14:38 28.05.2021
3513 Clouds 15 1023 72 10000 0.9 83 13:46 28.05.2021
3514 Clouds 14 1023 72 10000 1.15 81 12:59 28.05.2021
3515 Clouds 14 1023 72 10000 1.15 81 12:39 28.05.2021
3516 Clouds 12 1023 75 10000 0.81 96 11:44 28.05.2021
3517 Clouds 11 1023 81 10000 0.55 129 10:53 28.05.2021
3518 Clouds 11 1023 81 10000 0.55 129 10:30 28.05.2021
3519 Clouds 10 1022 84 10000 0.96 105 09:31 28.05.2021
3520 Clouds 9 1023 85 10000 0.93 101 08:48 28.05.2021
3521 Clouds 9 1022 88 10000 0.6 101 08:28 28.05.2021
3522 Clouds 8 1022 91 10000 0.6 101 07:40 28.05.2021
3523 Clouds 8 1022 92 10000 0.39 85 07:22 28.05.2021
3524 Clouds 7 1022 91 10000 0.39 85 06:36 28.05.2021
3525 Clouds 8 1021 89 10000 0.43 269 03:38 28.05.2021
3526 Clouds 11 1021 71 10000 0.83 251 23:43 27.05.2021
3527 Clouds 12 1021 73 10000 0.8 250 23:21 27.05.2021
3528 Clouds 13 1020 70 10000 1.43 260 22:21 27.05.2021
3529 Clouds 13 1020 69 10000 1.43 260 21:48 27.05.2021
3530 Clouds 14 1020 68 10000 1.96 261 21:27 27.05.2021
3531 Clouds 15 1020 67 10000 1.96 261 20:47 27.05.2021
3532 Clouds 15 1019 65 10000 2.68 250 20:23 27.05.2021
3533 Clouds 17 1019 57 10000 2.68 250 19:31 27.05.2021
3534 Clouds 18 1019 53 10000 2.81 243 18:43 27.05.2021
3535 Clouds 18 1019 53 10000 2.69 240 18:25 27.05.2021
3536 Clouds 17 1019 53 10000 2.97 228 17:26 27.05.2021
3537 Clouds 17 1019 48 10000 2.97 228 16:50 27.05.2021
3538 Clouds 17 1019 52 10000 2.97 228 16:31 27.05.2021
3539 Clouds 16 1019 56 10000 2.48 215 15:42 27.05.2021
3540 Clouds 16 1019 60 10000 2.21 213 15:18 27.05.2021
3541 Clouds 16 1019 66 10000 2.21 213 14:31 27.05.2021
3542 Clouds 15 1018 70 10000 2.02 204 13:54 27.05.2021
3543 Clouds 15 1018 74 10000 1.69 193 13:22 27.05.2021
3544 Clouds 15 1018 76 10000 1.69 193 12:59 27.05.2021
3545 Clouds 15 1018 76 10000 1.69 193 12:40 27.05.2021
3546 Clouds 14 1018 82 10000 1.19 176 12:22 27.05.2021
3547 Clouds 12 1018 87 10000 1.19 176 11:33 27.05.2021
3548 Clouds 11 1019 93 10000 1.05 179 10:54 27.05.2021
3549 Clouds 10 1019 96 7000 0.83 172 10:27 27.05.2021
3550 Clouds 10 1019 98 3300 0.83 172 09:54 27.05.2021
3551 Clouds 8 1018 95 2700 0.64 172 08:52 27.05.2021
3552 Clouds 8 1018 95 400 0.58 155 08:26 27.05.2021
3553 Clouds 7 1018 95 800 0.67 148 06:31 27.05.2021
3554 Clouds 7 1017 93 5000 1.35 203 01:54 27.05.2021
3555 Clouds 9 1017 87 10000 1.27 192 00:34 27.05.2021
3556 Clouds 10 1016 84 10000 0.94 194 23:29 26.05.2021
3557 Clouds 12 1016 81 10000 0.94 194 22:50 26.05.2021
3558 Clouds 12 1016 87 10000 0.94 194 22:31 26.05.2021
3559 Clouds 12 1016 87 10000 0.94 225 21:42 26.05.2021
3560 Clouds 13 1015 74 10000 1.52 238 21:23 26.05.2021
3561 Clouds 13 1015 74 10000 1.52 238 20:58 26.05.2021
3562 Clouds 13 1015 76 10000 3.6 290 20:39 26.05.2021
3563 Clouds 14 1015 74 10000 2.33 255 20:20 26.05.2021
3564 Clouds 14 1015 74 10000 2.33 255 19:43 26.05.2021
3565 Clouds 14 1015 72 10000 2.54 258 19:19 26.05.2021
3566 Rain 14 1015 65 10000 2.54 258 18:31 26.05.2021
3567 Rain 15 1015 63 10000 2.55 255 17:36 26.05.2021
3568 Clouds 15 1015 70 10000 2.53 266 16:50 26.05.2021
3569 Clouds 15 1015 71 10000 2.61 280 16:23 26.05.2021
3570 Clouds 14 1015 71 10000 2.61 280 15:57 26.05.2021
3571 Clouds 14 1015 72 10000 2.61 280 15:36 26.05.2021
3572 Rain 14 1016 68 10000 1.97 278 15:18 26.05.2021
3573 Rain 14 1016 69 10000 1.97 278 14:41 26.05.2021
3574 Rain 14 1016 67 10000 1.36 333 14:19 26.05.2021
3575 Clouds 14 1016 67 10000 1.36 333 13:41 26.05.2021
3576 Clouds 13 1016 71 10000 1.45 360 12:34 26.05.2021
3577 Clouds 12 1016 74 10000 1.4 4 11:56 26.05.2021
3578 Clouds 10 1016 78 10000 1.4 4 11:31 26.05.2021
3579 Clouds 10 1016 79 10000 1.37 345 10:58 26.05.2021
3580 Clouds 10 1016 79 10000 1.37 345 10:36 26.05.2021
3581 Clouds 9 1016 84 10000 1.36 314 09:57 26.05.2021
3582 Clouds 9 1016 84 10000 1.36 314 09:38 26.05.2021
3583 Clouds 8 1017 87 10000 1.38 319 08:58 26.05.2021
3584 Clouds 7 1016 88 10000 1.43 313 08:18 26.05.2021
3585 Clouds 7 1016 90 10000 1.43 313 07:34 26.05.2021
3586 Clouds 6 1016 91 10000 1.57 310 05:50 26.05.2021
3587 Clouds 7 1015 94 10000 1.27 317 01:40 26.05.2021
3588 Clouds 8 1015 87 10000 0.33 16 23:48 25.05.2021
3589 Clouds 10 1015 83 10000 1.28 90 22:54 25.05.2021
3590 Clouds 10 1015 80 10000 1.7 76 22:21 25.05.2021
3591 Clouds 10 1015 80 10000 1.69 77 21:43 25.05.2021
3592 Clouds 11 1014 80 10000 2.52 57 21:22 25.05.2021
3593 Clouds 11 1014 79 10000 2.52 57 20:36 25.05.2021
3594 Clouds 11 1013 76 10000 3.06 41 19:53 25.05.2021
3595 Clouds 12 1013 76 10000 3.06 41 19:34 25.05.2021
3596 Clouds 12 1013 73 10000 3.5 39 18:53 25.05.2021
3597 Clouds 12 1013 75 10000 3.5 39 18:33 25.05.2021
3598 Clouds 11 1012 77 10000 3.75 32 17:52 25.05.2021
3599 Rain 12 1012 78 10000 3.86 34 16:50 25.05.2021
3600 Clouds 12 1012 73 10000 3.86 34 16:32 25.05.2021
3601 Clouds 12 1012 66 10000 3.8 33 15:57 25.05.2021
3602 Clouds 12 1012 64 10000 3.02 37 15:27 25.05.2021
3603 Clouds 13 1012 60 10000 3.02 37 14:49 25.05.2021
3604 Clouds 13 1012 62 10000 4.46 32 14:30 25.05.2021
3605 Clouds 12 1012 64 10000 3.83 17 13:54 25.05.2021
3606 Clouds 12 1011 64 10000 4.07 20 13:28 25.05.2021
3607 Clouds 12 1011 65 10000 4.07 20 12:47 25.05.2021
3608 Clouds 12 1011 66 10000 3.57 0 12:26 25.05.2021
3609 Clouds 12 1011 68 10000 3.57 0 11:42 25.05.2021
3610 Clouds 11 1010 69 10000 2.93 330 11:21 25.05.2021
3611 Clouds 11 1010 72 10000 2.93 330 10:37 25.05.2021
3612 Clouds 11 1010 73 10000 3.34 313 09:50 25.05.2021
3613 Clouds 9 1010 78 10000 2.66 305 08:41 25.05.2021
3614 Clouds 9 1009 79 10000 1.9 276 07:54 25.05.2021
3615 Clouds 8 1009 96 10000 1.74 272 06:48 25.05.2021
3616 Clouds 9 1007 95 10000 2.07 295 03:32 25.05.2021
3617 Clouds 9 1007 95 10000 2.07 295 03:32 25.05.2021
3618 Clouds 9 1007 95 10000 2.07 295 03:32 25.05.2021
3619 Clouds 8 1005 95 10000 2.96 287 00:37 25.05.2021
3620 Clouds 9 1004 95 10000 2.5 283 23:32 24.05.2021
3621 Clouds 9 1004 96 10000 2.25 279 22:55 24.05.2021
3622 Clouds 9 1004 96 10000 2.22 278 22:34 24.05.2021
3623 Clouds 9 1002 95 10000 2.26 270 21:53 24.05.2021
3624 Clouds 10 1001 95 10000 2.36 275 21:21 24.05.2021
3625 Clouds 10 1001 95 10000 2.36 275 20:48 24.05.2021
3626 Clouds 10 1000 95 10000 3.05 267 20:21 24.05.2021
3627 Clouds 9 1000 95 10000 3.05 267 19:47 24.05.2021
3628 Clouds 9 1000 95 10000 4.02 257 19:29 24.05.2021
3629 Rain 9 1000 95 10000 4.02 257 18:58 24.05.2021
3630 Rain 9 1000 95 10000 4.02 257 18:30 24.05.2021
3631 Rain 9 999 92 10000 5.54 243 17:47 24.05.2021
3632 Rain 9 999 82 10000 5.94 255 17:22 24.05.2021
3633 Rain 9 999 82 10000 5.94 255 16:46 24.05.2021
3634 Rain 10 999 73 10000 6.09 264 15:51 24.05.2021
3635 Rain 10 999 68 10000 6.46 266 15:22 24.05.2021
3636 Rain 10 998 71 10000 8.23 270 14:40 24.05.2021
3637 Clouds 11 998 51 10000 6.94 267 13:56 24.05.2021
3638 Clouds 11 998 53 10000 6.6 270 13:27 24.05.2021
3639 Clouds 11 998 53 10000 6.6 270 13:27 24.05.2021
3640 Clouds 11 998 53 10000 6.6 270 12:52 24.05.2021
3641 Clouds 11 998 57 10000 6.04 274 12:29 24.05.2021
3642 Clouds 10 998 57 10000 6.04 274 11:50 24.05.2021
3643 Clouds 10 997 64 10000 5.32 276 11:24 24.05.2021
3644 Clouds 9 997 64 10000 5.32 276 10:51 24.05.2021
3645 Clouds 9 997 78 10000 4.61 271 10:20 24.05.2021
3646 Clouds 7 997 81 10000 6.17 260 09:35 24.05.2021
3647 Clouds 6 997 90 10000 3.85 260 08:57 24.05.2021
3648 Clouds 6 997 92 10000 3.44 254 08:36 24.05.2021
3649 Clouds 5 996 97 10000 2.53 246 06:57 24.05.2021
3650 Clouds 5 995 97 10000 1.55 253 04:26 24.05.2021
3651 Clouds 6 996 97 10000 1.23 259 03:23 24.05.2021
3652 Clouds 6 995 97 10000 0.79 264 00:39 24.05.2021
3653 Clouds 7 995 97 10000 0.23 134 23:41 23.05.2021
3654 Clouds 7 995 98 10000 0.76 138 23:20 23.05.2021
3655 Clouds 8 995 98 10000 0.76 138 22:32 23.05.2021
3656 Clouds 9 995 98 10000 1.27 133 21:50 23.05.2021
3657 Clouds 9 995 97 10000 2.11 152 21:21 23.05.2021
3658 Clouds 9 993 95 10000 4.1 106 20:52 23.05.2021
3659 Clouds 9 993 95 10000 4.1 106 20:32 23.05.2021
3660 Rain 8 994 95 10000 3.78 131 19:43 23.05.2021
3661 Rain 8 994 94 10000 3.94 137 19:24 23.05.2021
3662 Rain 9 994 94 7000 3.94 137 18:35 23.05.2021
3663 Rain 10 995 94 10000 4.51 135 17:51 23.05.2021
3664 Rain 10 996 93 10000 4.92 137 17:32 23.05.2021
3665 Rain 11 996 93 10000 4.92 137 16:54 23.05.2021
3666 Rain 11 997 92 10000 5.63 140 16:26 23.05.2021
3667 Clouds 11 997 92 10000 5.63 140 15:59 23.05.2021
3668 Clouds 11 997 92 10000 5.63 140 15:33 23.05.2021
3669 Rain 11 998 92 10000 6.19 150 14:58 23.05.2021
3670 Clouds 11 998 92 10000 6.22 149 14:34 23.05.2021
3671 Rain 11 998 87 10000 5.82 148 13:59 23.05.2021
3672 Rain 11 999 73 10000 6 158 13:25 23.05.2021
3673 Rain 11 999 73 10000 6 158 12:33 23.05.2021
3674 Clouds 11 999 62 10000 4.85 167 11:51 23.05.2021
3675 Clouds 10 1000 69 10000 4.17 171 11:25 23.05.2021
3676 Clouds 10 1000 69 10000 4.17 171 11:25 23.05.2021
3677 Clouds 11 1000 69 10000 4.19 171 10:37 23.05.2021
3678 Clouds 10 1000 78 10000 3.34 169 10:18 23.05.2021
3679 Clouds 10 1001 75 10000 3.64 175 09:36 23.05.2021
3680 Clouds 7 1002 79 10000 1.95 132 08:27 23.05.2021
3681 Clouds 6 1002 79 10000 1.95 132 07:45 23.05.2021
3682 Clouds 6 1002 79 10000 1.99 115 07:27 23.05.2021
3683 Clouds 6 1002 79 10000 1.99 115 07:27 23.05.2021
3684 Rain 5 1003 82 10000 1.26 143 05:27 23.05.2021
3685 Clouds 5 1005 83 10000 1.73 219 00:59 23.05.2021
3686 Clouds 5 1005 82 10000 1.95 232 23:42 22.05.2021
3687 Clear 7 1005 78 10000 2.11 242 23:20 22.05.2021
3688 Clear 7 1005 78 10000 2.11 242 22:44 22.05.2021
3689 Clouds 9 1004 70 10000 2.94 258 22:24 22.05.2021
3690 Clouds 10 1004 70 10000 2.94 258 21:46 22.05.2021
3691 Clouds 11 1003 64 10000 3.46 271 21:25 22.05.2021
3692 Clouds 11 1003 64 10000 3.46 271 20:46 22.05.2021
3693 Clouds 12 1003 61 10000 4.15 278 19:49 22.05.2021
3694 Clouds 12 1003 57 10000 3.88 278 19:29 22.05.2021
3695 Clouds 12 1003 57 10000 3.88 278 18:54 22.05.2021
3696 Clouds 12 1003 54 10000 3.82 277 18:28 22.05.2021
3697 Clouds 12 1003 54 10000 3.82 277 17:55 22.05.2021
3698 Clouds 13 1003 54 10000 3.82 277 17:30 22.05.2021
3699 Clouds 13 1003 53 10000 2.72 262 16:48 22.05.2021
3700 Clouds 12 1003 49 10000 2.71 259 15:48 22.05.2021
3701 Clouds 12 1003 45 10000 2.13 263 15:27 22.05.2021
3702 Clouds 12 1003 45 10000 2.49 266 14:32 22.05.2021
3703 Clouds 11 1003 44 10000 2.25 289 13:54 22.05.2021
3704 Clouds 11 1003 44 10000 2.25 289 13:32 22.05.2021
3705 Clouds 11 1003 46 10000 2.02 317 12:51 22.05.2021
3706 Clouds 10 1003 50 10000 2.19 335 12:22 22.05.2021
3707 Clouds 9 1003 50 10000 2.19 335 11:43 22.05.2021
3708 Clouds 9 1003 58 10000 2.54 337 10:43 22.05.2021
3709 Clouds 8 1003 69 10000 2.55 330 10:24 22.05.2021
3710 Clouds 7 1002 66 10000 1.79 338 08:59 22.05.2021
3711 Clouds 6 1002 66 10000 1.79 338 08:33 22.05.2021
3712 Clouds 5 1002 81 10000 0.86 316 07:46 22.05.2021
3713 Clouds 6 1001 87 10000 0.81 294 05:59 22.05.2021
3714 Clouds 7 999 70 10000 2.06 330 02:43 22.05.2021
3715 Rain 7 999 78 10000 2.43 353 23:46 21.05.2021
3716 Rain 8 998 80 10000 3.53 4 22:55 21.05.2021
3717 Rain 8 997 82 10000 4.56 11 22:28 21.05.2021
3718 Rain 8 997 82 10000 4.56 11 21:50 21.05.2021
3719 Rain 8 997 86 10000 4.99 9 21:26 21.05.2021
3720 Clouds 9 996 62 10000 4.63 360 20:51 21.05.2021
3721 Clouds 9 995 92 10000 5.58 9 20:29 21.05.2021
3722 Clouds 9 995 92 10000 5.58 9 19:54 21.05.2021
3723 Clouds 10 995 94 10000 6.07 13 19:28 21.05.2021
3724 Clouds 11 995 94 10000 6.07 13 18:47 21.05.2021
3725 Clouds 10 994 94 10000 6.62 15 18:25 21.05.2021
3726 Clouds 10 994 94 10000 6.62 15 17:40 21.05.2021
3727 Clouds 10 994 94 10000 6.62 15 17:40 21.05.2021
3728 Clouds 10 994 94 10000 6.62 15 17:40 21.05.2021
3729 Clouds 10 994 92 10000 7.05 17 17:21 21.05.2021
3730 Clouds 10 994 92 10000 7.05 17 16:40 21.05.2021
3731 Clouds 10 993 92 10000 7.05 19 16:20 21.05.2021
3732 Clouds 10 993 92 10000 7.05 19 15:44 21.05.2021
3733 Clouds 10 992 90 10000 7.29 17 15:25 21.05.2021
3734 Rain 11 992 91 10000 7.51 20 14:37 21.05.2021
3735 Clouds 10 992 92 10000 7.95 22 13:44 21.05.2021
3736 Clouds 10 991 93 10000 8.03 25 13:24 21.05.2021
3737 Clouds 10 990 95 10000 7.57 26 12:23 21.05.2021
3738 Clouds 10 990 95 10000 7.57 26 11:42 21.05.2021
3739 Clouds 10 990 96 10000 7.42 26 11:24 21.05.2021
3740 Clouds 10 990 96 10000 7.42 26 10:45 21.05.2021
3741 Rain 10 989 96 10000 7.18 31 10:18 21.05.2021
3742 Clouds 10 989 96 10000 7.18 31 09:32 21.05.2021
3743 Rain 9 989 96 10000 7.5 31 08:46 21.05.2021
3744 Rain 9 988 96 10000 6.85 34 08:18 21.05.2021
3745 Rain 9 988 97 10000 6.03 37 07:26 21.05.2021
3746 Rain 10 988 97 10000 5.38 41 05:20 21.05.2021
3747 Clouds 9 990 98 10000 5.07 51 00:36 21.05.2021
3748 Clouds 9 991 98 10000 4.51 56 23:55 20.05.2021
3749 Clouds 9 991 97 10000 4.79 68 23:25 20.05.2021
3750 Clouds 9 991 97 10000 4.79 68 22:57 20.05.2021
3751 Clouds 9 991 97 10000 4.79 68 22:36 20.05.2021
3752 Clouds 10 992 96 10000 5.13 69 21:55 20.05.2021
3753 Clouds 10 993 96 10000 5.1 67 21:24 20.05.2021
3754 Clouds 10 993 96 10000 5.1 67 20:59 20.05.2021
3755 Clouds 10 993 96 10000 5.1 67 20:33 20.05.2021
3756 Rain 10 994 95 10000 5.56 75 19:51 20.05.2021
3757 Clouds 10 996 95 10000 6.04 79 19:29 20.05.2021
3758 Clouds 10 996 95 10000 6.04 79 18:49 20.05.2021
3759 Rain 10 996 95 10000 6.04 79 18:30 20.05.2021
3760 Rain 10 997 95 10000 6.45 86 17:46 20.05.2021
3761 Clouds 10 999 93 10000 6.91 94 17:28 20.05.2021
3762 Clouds 10 999 93 10000 6.9 94 16:39 20.05.2021
3763 Clouds 10 1001 89 10000 6.51 93 16:19 20.05.2021
3764 Clouds 10 1001 89 10000 6.51 93 15:40 20.05.2021
3765 Clouds 10 1003 76 10000 8.75 80 15:21 20.05.2021
3766 Rain 10 1005 90 10000 5.33 110 14:26 20.05.2021
3767 Rain 9 1005 90 10000 5.33 110 13:58 20.05.2021
3768 Rain 9 1005 90 10000 5.33 110 13:34 20.05.2021
3769 Rain 9 1007 90 10000 5.39 122 12:48 20.05.2021
3770 Rain 10 1008 88 10000 4.06 115 12:20 20.05.2021
3771 Rain 11 1008 88 10000 4.06 115 11:55 20.05.2021
3772 Rain 12 1009 81 10000 3.5 119 11:21 20.05.2021
3773 Clouds 12 1009 81 10000 3.5 119 10:49 20.05.2021
3774 Clouds 12 1010 80 10000 3.53 117 10:26 20.05.2021
3775 Clouds 11 1010 80 10000 3.53 117 09:50 20.05.2021
3776 Clouds 11 1012 87 10000 2.87 104 09:27 20.05.2021
3777 Clouds 11 1012 87 10000 2.87 104 09:27 20.05.2021
3778 Clouds 10 1012 87 10000 2.87 104 08:58 20.05.2021
3779 Clouds 10 1012 87 10000 2.87 104 08:39 20.05.2021
3780 Clouds 9 1013 90 10000 2.41 85 08:20 20.05.2021
3781 Clouds 8 1013 90 10000 2.41 85 07:41 20.05.2021
3782 Clouds 8 1014 94 10000 2.02 70 06:53 20.05.2021
3783 Clouds 8 1015 97 10000 1.84 72 05:59 20.05.2021
3784 Clouds 8 1016 95 10000 1.72 70 04:55 20.05.2021
3785 Clouds 7 1017 100 10000 1.03 0 02:37 20.05.2021
3786 Clouds 8 1017 97 10000 0.73 125 00:31 20.05.2021
3787 Clouds 9 1017 95 10000 0.68 174 23:54 19.05.2021
3788 Clouds 9 1017 92 10000 1.74 228 23:23 19.05.2021
3789 Clouds 10 1017 92 10000 1.74 228 22:45 19.05.2021
3790 Clouds 11 1017 85 10000 2.45 240 22:25 19.05.2021
3791 Clouds 12 1017 85 10000 2.45 240 21:57 19.05.2021
3792 Clouds 12 1017 85 10000 2.45 240 21:57 19.05.2021
3793 Clouds 12 1017 85 10000 2.45 240 21:39 19.05.2021
3794 Clouds 13 1017 67 10000 4.63 270 21:20 19.05.2021
3795 Clouds 13 1017 80 10000 2.91 246 20:40 19.05.2021
3796 Clouds 14 1017 72 10000 3.75 254 20:18 19.05.2021
3797 Clouds 14 1017 72 10000 3.75 254 19:44 19.05.2021
3798 Clouds 14 1017 65 10000 4.29 257 19:22 19.05.2021
3799 Clouds 14 1017 65 10000 4.29 257 18:44 19.05.2021
3800 Clouds 14 1016 63 10000 4.6 253 18:25 19.05.2021
3801 Rain 14 1016 63 10000 4.6 253 17:40 19.05.2021
3802 Rain 14 1016 62 10000 4.93 248 17:19 19.05.2021
3803 Clouds 15 1016 62 10000 4.93 249 16:37 19.05.2021
3804 Clouds 15 1016 58 10000 4.87 249 15:56 19.05.2021
3805 Clouds 15 1016 58 10000 4.87 249 15:36 19.05.2021
3806 Clouds 15 1016 55 10000 4.77 247 14:56 19.05.2021
3807 Clouds 14 1016 55 10000 4.77 247 14:33 19.05.2021
3808 Clouds 14 1016 51 10000 3.98 242 13:51 19.05.2021
3809 Clouds 14 1016 51 10000 3.98 242 13:33 19.05.2021
3810 Clouds 14 1016 52 10000 3.21 247 12:45 19.05.2021
3811 Clouds 13 1016 55 10000 2.56 253 12:23 19.05.2021
3812 Clouds 12 1016 55 10000 2.56 253 11:56 19.05.2021
3813 Clouds 13 1016 55 10000 2.56 253 11:38 19.05.2021
3814 Clouds 12 1016 62 10000 2.04 256 11:18 19.05.2021
3815 Clouds 12 1016 62 10000 2.03 256 10:45 19.05.2021
3816 Clouds 11 1016 70 10000 1.74 253 10:26 19.05.2021
3817 Clear 10 1016 70 10000 1.74 253 09:31 19.05.2021
3818 Clear 10 1016 70 10000 1.74 253 09:31 19.05.2021
3819 Clear 9 1016 76 10000 1.29 243 08:59 19.05.2021
3820 Clear 8 1016 76 10000 1.29 243 08:36 19.05.2021
3821 Clear 6 1015 84 10000 0.89 232 07:57 19.05.2021
3822 Clear 4 1015 91 10000 0.98 239 07:22 19.05.2021
3823 Clear 4 1015 91 10000 0.98 239 06:36 19.05.2021
3824 Clouds 3 1014 92 10000 1.05 242 05:22 19.05.2021
3825 Clouds 6 1014 91 10000 0.65 239 02:42 19.05.2021
3826 Clouds 7 1013 89 10000 1.35 247 00:34 19.05.2021
3827 Clouds 8 1013 88 10000 1.76 239 23:49 18.05.2021
3828 Clouds 9 1013 87 10000 1.96 231 23:18 18.05.2021
3829 Clouds 10 1013 87 10000 1.96 231 22:38 18.05.2021
3830 Clouds 11 1012 81 10000 2.34 228 22:20 18.05.2021
3831 Clouds 13 1012 81 10000 2.34 228 21:39 18.05.2021
3832 Clouds 12 1012 74 10000 3.03 236 21:18 18.05.2021
3833 Clouds 12 1012 74 10000 3.03 236 21:18 18.05.2021
3834 Clouds 12 1012 74 10000 3.03 236 20:46 18.05.2021
3835 Clouds 13 1011 65 10000 3.49 250 20:19 18.05.2021
3836 Clouds 14 1011 65 10000 3.49 250 19:46 18.05.2021
3837 Clouds 14 1011 57 10000 3.81 261 19:23 18.05.2021
3838 Clouds 14 1011 57 10000 3.81 261 18:45 18.05.2021
3839 Clouds 14 1011 57 10000 3.83 266 18:24 18.05.2021
3840 Clouds 13 1011 57 10000 3.83 266 17:49 18.05.2021
3841 Rain 13 1011 57 10000 4 266 17:23 18.05.2021
3842 Clouds 13 1011 57 10000 4 266 16:35 18.05.2021
3843 Clouds 13 1011 59 10000 4.09 264 15:57 18.05.2021
3844 Clouds 12 1011 60 10000 4.23 260 15:36 18.05.2021
3845 Clouds 12 1010 61 10000 4.28 257 15:18 18.05.2021
3846 Clouds 12 1010 60 10000 4.43 254 14:29 18.05.2021
3847 Clouds 12 1010 60 10000 4.43 254 14:29 18.05.2021
3848 Rain 12 1010 60 10000 4.3 252 13:29 18.05.2021
3849 Clouds 13 1010 60 10000 4.3 252 12:37 18.05.2021
3850 Clouds 12 1010 61 10000 3.77 253 12:18 18.05.2021
3851 Clouds 11 1010 61 10000 3.77 253 11:35 18.05.2021
3852 Clouds 11 1010 64 10000 3.47 256 10:53 18.05.2021
3853 Clouds 11 1010 71 10000 3.22 253 10:30 18.05.2021
3854 Clouds 11 1010 70 10000 3.06 255 09:53 18.05.2021
3855 Clouds 10 1010 70 10000 3.06 255 09:33 18.05.2021
3856 Clouds 9 1009 87 10000 1.54 250 08:45 18.05.2021
3857 Clouds 7 1009 93 10000 1.54 270 08:19 18.05.2021
3858 Clouds 6 1009 93 10000 1.54 220 07:38 18.05.2021
3859 Clouds 5 1009 100 10000 0.51 270 06:29 18.05.2021
3860 Clouds 6 1008 87 10000 2.06 260 02:30 18.05.2021
3861 Clouds 6 1008 87 10000 2.06 260 01:47 18.05.2021
3862 Clouds 7 1008 81 10000 2.57 270 00:43 18.05.2021
3863 Clouds 7 1007 81 10000 3.09 250 00:23 18.05.2021
3864 Clouds 7 1007 87 10000 3.6 230 23:39 17.05.2021
3865 Clouds 8 1007 76 10000 2.57 250 23:20 17.05.2021
3866 Clouds 9 1007 76 10000 3.6 240 22:42 17.05.2021
3867 Clouds 10 1007 71 10000 3.6 240 22:22 17.05.2021
3868 Clouds 11 1007 71 10000 2.57 240 21:51 17.05.2021
3869 Clouds 12 1007 66 10000 3.09 270 21:20 17.05.2021
3870 Clouds 12 1007 66 10000 3.6 270 20:40 17.05.2021
3871 Clouds 12 1006 62 10000 6.17 260 20:21 17.05.2021
3872 Clouds 13 1006 58 10000 5.66 270 19:44 17.05.2021
3873 Clouds 13 1006 62 10000 6.17 260 19:26 17.05.2021
3874 Clouds 13 1006 58 10000 5.66 260 18:48 17.05.2021
3875 Clouds 14 1006 58 10000 5.66 250 18:30 17.05.2021
3876 Clouds 13 1006 62 10000 5.66 250 17:48 17.05.2021
3877 Clouds 14 1005 55 10000 7.2 260 17:28 17.05.2021
3878 Clouds 14 1005 51 10000 6.69 280 16:56 17.05.2021
3879 Clouds 14 1005 54 10000 5.14 260 16:21 17.05.2021
3880 Clouds 13 1005 54 10000 4.63 300 15:36 17.05.2021
3881 Clouds 13 1005 58 10000 3.6 290 15:18 17.05.2021
3882 Clouds 13 1005 58 10000 4.12 300 14:43 17.05.2021
3883 Clouds 13 1005 58 10000 2.57 260 14:24 17.05.2021
3884 Clouds 13 1005 58 10000 3.09 250 13:37 17.05.2021
3885 Clouds 12 1004 62 10000 2.06 250 12:42 17.05.2021
3886 Clouds 12 1004 62 10000 2.06 250 12:42 17.05.2021
3887 Clouds 12 1004 66 10000 2.57 280 12:23 17.05.2021
3888 Clouds 11 1004 76 10000 1.54 0 11:43 17.05.2021
3889 Clouds 10 1004 82 10000 1.54 0 11:21 17.05.2021
3890 Clouds 10 1004 87 10000 1.54 290 10:49 17.05.2021
3891 Clouds 10 1004 87 10000 1.54 0 10:26 17.05.2021
3892 Clouds 9 1003 93 9000 1.03 250 09:42 17.05.2021
3893 Clouds 9 1003 87 8000 0.51 0 08:37 17.05.2021
3894 Clouds 8 1003 93 9000 1.03 30 07:58 17.05.2021
3895 Clouds 8 1002 93 8000 1.54 30 07:25 17.05.2021
3896 Clouds 7 1002 93 10000 2.06 50 06:21 17.05.2021
3897 Clouds 8 1001 87 10000 1.03 80 03:40 17.05.2021
3898 Clouds 8 1000 87 10000 2.57 80 02:28 17.05.2021
3899 Clouds 9 1000 87 10000 2.57 50 00:47 17.05.2021
3900 Clouds 10 999 81 10000 3.09 30 23:52 16.05.2021
3901 Clouds 11 999 76 10000 4.12 10 23:23 16.05.2021
3902 Clouds 11 999 71 10000 4.12 20 22:44 16.05.2021
3903 Clouds 11 998 66 10000 3.09 30 22:26 16.05.2021
3904 Clouds 12 998 62 10000 3.6 60 21:45 16.05.2021
3905 Clouds 13 998 62 10000 5.14 60 21:26 16.05.2021
3906 Clouds 12 997 62 10000 4.63 50 20:49 16.05.2021
3907 Clouds 14 997 58 10000 4.63 60 20:22 16.05.2021
3908 Clouds 14 997 54 10000 3.6 70 19:57 16.05.2021
3909 Clouds 15 997 51 10000 4.63 80 19:24 16.05.2021
3910 Clouds 16 997 48 10000 4.12 70 18:55 16.05.2021
3911 Clouds 16 997 48 10000 4.12 70 18:37 16.05.2021
3912 Clouds 15 997 51 10000 4.12 40 18:18 16.05.2021
3913 Clouds 15 997 48 10000 1.54 0 17:41 16.05.2021
3914 Clouds 16 997 51 10000 4.12 50 17:22 16.05.2021
3915 Clouds 16 997 48 10000 4.63 40 16:53 16.05.2021
3916 Clouds 16 997 51 10000 4.12 30 16:25 16.05.2021
3917 Clouds 14 997 54 10000 3.6 360 15:52 16.05.2021
3918 Clouds 15 997 51 10000 2.57 70 15:27 16.05.2021
3919 Clouds 15 997 51 10000 3.6 90 14:49 16.05.2021
3920 Clouds 15 997 55 10000 4.12 100 14:23 16.05.2021
3921 Clouds 14 997 55 10000 4.12 100 13:58 16.05.2021
3922 Clouds 14 997 54 10000 3.6 70 13:39 16.05.2021
3923 Clouds 13 997 62 10000 4.63 70 13:18 16.05.2021
3924 Clouds 12 998 66 10000 3.6 60 12:51 16.05.2021
3925 Clouds 12 998 71 10000 4.63 40 12:29 16.05.2021
3926 Clouds 12 998 66 10000 4.12 70 11:45 16.05.2021
3927 Clouds 11 998 71 10000 4.12 60 11:23 16.05.2021
3928 Clouds 10 998 76 10000 3.6 60 10:39 16.05.2021
3929 Clouds 9 998 81 10000 2.06 70 10:20 16.05.2021
3930 Clouds 9 998 81 10000 4.12 80 09:45 16.05.2021
3931 Clouds 7 998 87 10000 1.54 10 09:24 16.05.2021
3932 Clouds 7 998 87 10000 2.06 50 08:40 16.05.2021
3933 Clouds 6 998 93 8000 1.54 50 08:22 16.05.2021
3934 Clouds 6 998 93 7000 1.54 30 07:31 16.05.2021
3935 Mist 5 998 93 4200 2.57 40 05:50 16.05.2021
3936 Clouds 8 998 76 10000 4.12 60 00:58 16.05.2021
3937 Clouds 9 998 71 10000 4.12 70 00:20 16.05.2021
3938 Clouds 10 998 66 10000 5.14 60 23:24 15.05.2021
3939 Clouds 10 997 76 10000 4.63 40 22:59 15.05.2021
3940 Clouds 10 997 76 10000 4.63 40 22:59 15.05.2021
3941 Clouds 11 997 71 10000 3.09 50 22:29 15.05.2021
3942 Clouds 12 998 66 10000 3.09 60 21:55 15.05.2021
3943 Clouds 13 998 62 10000 4.12 80 21:25 15.05.2021
3944 Clouds 13 998 62 10000 4.63 90 20:54 15.05.2021
3945 Clouds 13 998 62 10000 3.6 80 20:22 15.05.2021
3946 Clouds 14 998 54 10000 3.6 90 19:44 15.05.2021
3947 Clouds 14 998 58 10000 3.09 100 18:55 15.05.2021
3948 Clouds 14 998 58 10000 3.6 100 18:22 15.05.2021
3949 Clouds 14 998 54 10000 4.63 100 17:46 15.05.2021
3950 Clouds 13 999 62 10000 4.63 80 16:59 15.05.2021
3951 Clouds 13 999 62 10000 4.63 70 16:38 15.05.2021
3952 Clouds 13 999 62 10000 4.63 70 16:19 15.05.2021
3953 Clouds 13 999 62 10000 5.14 70 15:34 15.05.2021
3954 Clouds 14 999 58 10000 3.09 100 14:49 15.05.2021
3955 Clouds 14 1000 62 10000 2.57 40 14:27 15.05.2021
3956 Clouds 13 1000 71 10000 3.6 50 13:37 15.05.2021
3957 Clouds 13 1000 76 10000 4.12 50 13:18 15.05.2021
3958 Clouds 11 1001 87 10000 3.6 60 11:53 15.05.2021
3959 Clouds 10 1001 87 10000 3.09 60 11:18 15.05.2021
3960 Clouds 9 1001 87 10000 4.63 70 10:37 15.05.2021
3961 Clouds 8 1001 93 10000 4.12 70 09:45 15.05.2021
3962 Clouds 8 1002 93 10000 4.12 60 08:38 15.05.2021
3963 Clouds 8 1002 93 10000 3.6 70 07:54 15.05.2021
3964 Clouds 8 1002 93 10000 3.09 70 07:23 15.05.2021
3965 Clouds 8 1002 93 10000 3.09 70 06:51 15.05.2021
3966 Clouds 8 1002 93 10000 4.12 60 05:44 15.05.2021
3967 Clouds 8 1003 93 10000 3.09 60 04:18 15.05.2021
3968 Clouds 9 1006 100 9000 2.06 20 00:20 15.05.2021
3969 Clouds 9 1006 93 10000 1.54 30 23:29 14.05.2021
3970 Clouds 10 1006 87 10000 1.03 0 22:28 14.05.2021
3971 Clouds 10 1006 87 7000 1.03 0 21:56 14.05.2021
3972 Clouds 10 1007 87 10000 2.06 250 21:28 14.05.2021
3973 Clouds 11 1007 87 10000 3.6 220 20:49 14.05.2021
3974 Clouds 11 1007 82 10000 2.57 250 20:26 14.05.2021
3975 Rain 12 1007 66 10000 1.03 0 19:42 14.05.2021
3976 Clouds 13 1007 62 10000 1.54 0 19:22 14.05.2021
3977 Clouds 12 1007 66 10000 0.51 0 18:46 14.05.2021
3978 Clouds 12 1008 66 10000 1.03 0 18:22 14.05.2021
3979 Clouds 12 1008 71 10000 2.06 290 17:39 14.05.2021
3980 Clouds 12 1009 71 10000 2.06 250 17:19 14.05.2021
3981 Clouds 12 1009 62 10000 2.06 140 16:43 14.05.2021
3982 Clouds 12 1009 62 10000 2.06 80 16:25 14.05.2021
3983 Clouds 12 1010 62 10000 2.57 80 15:24 14.05.2021
3984 Clouds 12 1010 66 10000 3.09 50 14:41 14.05.2021
3985 Clouds 12 1010 66 10000 1.03 0 13:54 14.05.2021
3986 Clouds 12 1010 66 10000 1.54 0 13:29 14.05.2021
3987 Clouds 11 1011 66 10000 2.57 110 12:47 14.05.2021
3988 Clouds 11 1011 71 10000 3.09 90 12:27 14.05.2021
3989 Clouds 10 1011 71 10000 4.12 70 11:33 14.05.2021
3990 Clouds 9 1011 76 10000 2.57 100 10:57 14.05.2021
3991 Clouds 9 1011 76 10000 2.57 100 10:37 14.05.2021
3992 Clouds 9 1011 81 10000 2.06 60 09:46 14.05.2021
3993 Clouds 9 1011 81 10000 2.06 40 09:27 14.05.2021
3994 Clouds 8 1011 81 10000 1.54 0 08:42 14.05.2021
3995 Clouds 8 1011 81 10000 1.54 0 07:50 14.05.2021
3996 Clouds 8 1011 81 10000 3.09 90 06:46 14.05.2021
3997 Clouds 8 1013 81 10000 5.14 50 02:51 14.05.2021
3998 Clouds 8 1013 87 10000 5.14 80 01:36 14.05.2021
3999 Clouds 8 1013 81 10000 5.66 70 00:25 14.05.2021
4000 Clouds 9 1013 81 10000 5.66 60 23:47 13.05.2021
4001 Clouds 9 1013 81 10000 5.14 70 23:20 13.05.2021
4002 Clouds 9 1013 81 10000 5.14 70 22:43 13.05.2021
4003 Clouds 9 1012 81 10000 5.66 70 22:24 13.05.2021
4004 Clouds 9 1011 90 10000 2.68 71 21:43 13.05.2021
4005 Clouds 10 1011 83 10000 2.83 78 21:24 13.05.2021
4006 Clouds 10 1011 87 10000 2.54 85 20:49 13.05.2021
4007 Clouds 10 1011 81 10000 3.05 87 20:29 13.05.2021
4008 Clouds 11 1011 81 10000 3.05 87 19:40 13.05.2021
4009 Clouds 11 1011 77 10000 3.29 81 19:20 13.05.2021
4010 Clouds 12 1011 77 10000 3.29 81 18:50 13.05.2021
4011 Clouds 12 1011 77 10000 3.71 77 18:25 13.05.2021
4012 Clouds 12 1011 77 10000 3.71 77 17:52 13.05.2021
4013 Clouds 12 1011 77 10000 3.71 77 17:32 13.05.2021
4014 Clouds 12 1011 73 10000 4.04 72 17:00 13.05.2021
4015 Clouds 13 1011 74 10000 3.86 69 16:20 13.05.2021
4016 Clouds 13 1011 74 10000 3.86 69 15:57 13.05.2021
4017 Clouds 13 1011 74 10000 3.86 69 15:57 13.05.2021
4018 Clouds 13 1011 74 10000 3.86 69 15:38 13.05.2021
4019 Clouds 12 1011 78 10000 3.68 69 15:19 13.05.2021
4020 Clouds 12 1011 78 10000 3.69 69 14:42 13.05.2021
4021 Clouds 12 1011 79 10000 3.54 69 14:22 13.05.2021
4022 Clouds 11 1011 79 10000 3.54 69 13:46 13.05.2021
4023 Clouds 11 1011 80 10000 3.4 65 13:26 13.05.2021
4024 Clouds 10 1011 80 10000 3.39 65 12:45 13.05.2021
4025 Clouds 10 1011 85 10000 3.09 60 12:22 13.05.2021
4026 Clouds 9 1011 85 10000 3.09 60 11:43 13.05.2021
4027 Clouds 9 1011 89 10000 3.02 62 10:59 13.05.2021
4028 Clouds 8 1011 89 10000 2.98 62 10:39 13.05.2021
4029 Clouds 9 1011 91 10000 3.06 64 09:58 13.05.2021
4030 Clouds 9 1011 91 10000 3.06 64 09:30 13.05.2021
4031 Clouds 9 1011 95 10000 2.3 56 08:48 13.05.2021
4032 Clouds 8 1011 97 10000 2.23 57 08:22 13.05.2021
4033 Clouds 8 1011 97 10000 2.23 57 07:38 13.05.2021
4034 Clouds 8 1010 98 10000 2.16 64 05:59 13.05.2021
4035 Clouds 8 1010 98 10000 1.85 62 03:57 13.05.2021
4036 Clouds 7 1010 98 10000 1.59 49 02:33 13.05.2021
4037 Clouds 8 1009 95 10000 1.05 79 23:54 12.05.2021
4038 Clouds 10 1009 93 10000 0.67 91 22:57 12.05.2021
4039 Clouds 10 1008 92 10000 0.24 246 22:26 12.05.2021
4040 Clouds 11 1008 92 10000 0.24 246 21:56 12.05.2021
4041 Clouds 12 1007 54 10000 0.51 0 21:25 12.05.2021
4042 Clouds 12 1007 90 10000 0.85 238 20:51 12.05.2021
4043 Clouds 12 1007 86 10000 0.86 226 20:18 12.05.2021
4044 Clouds 12 1007 86 10000 0.86 226 19:37 12.05.2021
4045 Clouds 12 1007 84 6000 1.36 235 18:32 12.05.2021
4046 Rain 13 1007 84 10000 1.45 244 17:56 12.05.2021
4047 Clouds 12 1007 84 10000 1.45 244 17:36 12.05.2021
4048 Clouds 13 1006 85 10000 1.07 247 17:18 12.05.2021
4049 Clouds 13 1006 85 10000 1.07 247 16:36 12.05.2021
4050 Clouds 12 1006 76 10000 3.09 110 15:47 12.05.2021
4051 Rain 12 1006 82 10000 3.09 90 15:28 12.05.2021
4052 Rain 11 1006 82 10000 3.09 70 14:39 12.05.2021
4053 Clouds 11 1006 82 10000 3.6 50 14:19 12.05.2021
4054 Clouds 11 1006 76 10000 2.06 50 13:41 12.05.2021
4055 Clouds 10 1006 87 10000 1.54 0 12:46 12.05.2021
4056 Clouds 10 1006 93 10000 2.06 60 12:25 12.05.2021
4057 Clouds 9 1006 93 8000 3.6 70 11:39 12.05.2021
4058 Clouds 9 1006 87 10000 2.06 40 10:59 12.05.2021
4059 Clouds 9 1006 87 10000 2.06 40 10:32 12.05.2021
4060 Rain 8 1006 93 3800 3.09 60 09:49 12.05.2021
4061 Rain 8 1006 93 10000 2.06 60 09:28 12.05.2021
4062 Rain 8 1006 93 10000 2.57 70 08:55 12.05.2021
4063 Clouds 8 1006 93 10000 2.57 70 08:33 12.05.2021
4064 Clouds 7 1006 93 10000 3.09 90 07:59 12.05.2021
4065 Fog 6 1006 100 500 3.09 80 06:31 12.05.2021
4066 Rain 9 1007 93 10000 1.03 0 01:41 12.05.2021
4067 Rain 9 1007 93 8000 2.06 140 00:37 12.05.2021
4068 Rain 10 1006 76 10000 4.12 120 23:48 11.05.2021
4069 Rain 11 1006 62 10000 3.6 70 23:29 11.05.2021
4070 Rain 11 1006 58 10000 4.63 70 22:57 11.05.2021
4071 Clouds 12 1006 58 10000 4.63 70 22:38 11.05.2021
4072 Clouds 12 1006 71 10000 2.06 300 22:18 11.05.2021
4073 Clouds 13 1006 58 10000 1.03 0 21:44 11.05.2021
4074 Clouds 14 1006 54 10000 0.51 0 21:25 11.05.2021
4075 Clouds 14 1006 47 10000 1.03 0 20:44 11.05.2021
4076 Clouds 15 1005 51 10000 1.54 0 20:25 11.05.2021
4077 Clouds 15 1005 51 10000 1.03 0 19:44 11.05.2021
4078 Clouds 15 1005 54 10000 2.06 180 19:22 11.05.2021
4079 Clouds 15 1005 51 10000 3.6 160 18:46 11.05.2021
4080 Clouds 15 1005 58 10000 3.09 210 18:27 11.05.2021
4081 Clouds 15 1006 58 10000 3.6 200 17:44 11.05.2021
4082 Clouds 15 1006 58 10000 3.09 180 17:23 11.05.2021
4083 Clouds 14 1005 62 10000 3.09 220 16:42 11.05.2021
4084 Clouds 14 1005 58 10000 4.12 220 16:22 11.05.2021
4085 Clouds 14 1005 62 10000 5.14 230 15:43 11.05.2021
4086 Clouds 13 1005 62 10000 5.14 220 15:19 11.05.2021
4087 Clouds 14 1005 62 10000 6.17 220 14:43 11.05.2021
4088 Clouds 13 1005 62 10000 5.14 230 14:23 11.05.2021
4089 Clouds 13 1005 62 10000 5.14 190 13:47 11.05.2021
4090 Clouds 13 1004 62 10000 5.14 210 13:23 11.05.2021
4091 Clouds 13 1004 62 10000 6.69 200 12:54 11.05.2021
4092 Clouds 13 1004 62 10000 6.69 200 12:33 11.05.2021
4093 Clouds 13 1004 62 10000 6.69 200 11:49 11.05.2021
4094 Clouds 12 1003 62 10000 9.26 200 11:30 11.05.2021
4095 Clouds 11 1003 71 10000 6.17 190 10:55 11.05.2021
4096 Clouds 11 1003 71 10000 6.17 190 10:33 11.05.2021
4097 Clouds 10 1002 81 10000 5.66 190 09:59 11.05.2021
4098 Clouds 9 1002 81 10000 5.66 190 09:39 11.05.2021
4099 Clouds 9 1002 81 10000 6.17 180 09:21 11.05.2021
4100 Clouds 9 1001 81 10000 4.63 190 08:47 11.05.2021
4101 Clouds 8 1001 81 10000 5.14 190 08:29 11.05.2021
4102 Clouds 8 1000 81 10000 5.14 190 07:53 11.05.2021
4103 Clouds 8 1000 87 10000 6.69 190 07:24 11.05.2021
4104 Rain 9 998 93 10000 8.75 190 05:42 11.05.2021
4105 Clouds 10 995 82 10000 3.09 130 00:55 11.05.2021
4106 Clouds 10 995 82 10000 3.09 130 00:36 11.05.2021
4107 Clouds 11 994 82 10000 3.6 130 23:46 10.05.2021
4108 Clouds 11 994 76 10000 4.12 140 23:21 10.05.2021
4109 Clouds 11 994 76 10000 5.66 140 22:43 10.05.2021
4110 Clouds 12 993 71 10000 3.09 150 22:19 10.05.2021
4111 Clouds 12 993 71 10000 6.69 160 21:47 10.05.2021
4112 Clouds 12 993 71 10000 4.12 150 21:26 10.05.2021
4113 Clouds 12 993 71 10000 5.66 160 20:43 10.05.2021
4114 Clouds 12 993 76 10000 4.12 160 20:20 10.05.2021
4115 Clouds 12 992 76 10000 4.12 150 19:45 10.05.2021
4116 Clouds 12 992 82 10000 4.12 160 19:24 10.05.2021
4117 Clouds 13 992 82 10000 4.63 160 18:55 10.05.2021
4118 Clouds 12 992 76 10000 5.14 160 18:26 10.05.2021
4119 Clouds 13 992 76 10000 6.17 170 17:48 10.05.2021
4120 Clouds 13 992 76 10000 5.66 180 17:30 10.05.2021
4121 Clouds 13 991 76 10000 7.2 170 16:52 10.05.2021
4122 Clouds 13 991 76 10000 6.17 190 16:26 10.05.2021
4123 Clouds 13 991 77 10000 6.69 190 15:41 10.05.2021
4124 Clouds 13 991 87 10000 6.17 190 15:22 10.05.2021
4125 Clouds 13 991 82 10000 5.14 160 14:53 10.05.2021
4126 Clouds 13 991 82 10000 4.12 180 14:25 10.05.2021
4127 Clouds 12 991 82 7000 5.14 170 13:47 10.05.2021
4128 Rain 13 990 72 10000 4.63 160 12:52 10.05.2021
4129 Clouds 13 990 72 10000 4.63 160 12:30 10.05.2021
4130 Clouds 12 990 76 10000 3.6 190 11:48 10.05.2021
4131 Clouds 12 990 76 10000 4.12 110 11:27 10.05.2021
4132 Clouds 12 991 82 10000 3.6 130 10:50 10.05.2021
4133 Clouds 11 991 82 7000 3.6 140 10:31 10.05.2021
4134 Rain 11 991 82 10000 4.12 120 09:52 10.05.2021
4135 Clouds 11 991 82 10000 4.12 120 09:29 10.05.2021
4136 Rain 10 990 87 10000 3.6 90 08:38 10.05.2021
4137 Clouds 10 990 87 10000 3.6 90 08:18 10.05.2021
4138 Clouds 10 990 87 10000 3.6 90 07:41 10.05.2021
4139 Clouds 9 990 87 10000 4.12 90 07:23 10.05.2021
4140 Clouds 9 990 87 10000 3.6 90 06:43 10.05.2021
4141 Clouds 11 990 76 10000 3.6 150 01:35 10.05.2021
4142 Clouds 11 990 76 10000 2.57 110 23:59 09.05.2021
4143 Clouds 12 989 71 10000 4.12 140 22:44 09.05.2021
4144 Clouds 12 989 67 10000 5.14 150 22:21 09.05.2021
4145 Clouds 13 989 67 10000 5.14 140 21:50 09.05.2021
4146 Clouds 13 989 67 10000 5.14 160 21:31 09.05.2021
4147 Clouds 13 989 67 10000 8.23 170 20:42 09.05.2021
4148 Clouds 14 989 62 10000 6.17 170 20:23 09.05.2021
4149 Clouds 14 989 62 10000 7.72 170 19:42 09.05.2021
4150 Clouds 14 989 67 10000 8.23 170 19:21 09.05.2021
4151 Clouds 14 989 67 9000 8.23 180 18:48 09.05.2021
4152 Clouds 14 988 67 10000 8.23 160 18:25 09.05.2021
4153 Clouds 14 988 67 10000 8.23 160 17:33 09.05.2021
4154 Clouds 14 988 67 10000 8.23 160 17:33 09.05.2021
4155 Clouds 14 989 67 10000 7.72 170 16:41 09.05.2021
4156 Clouds 14 989 67 10000 7.72 170 16:23 09.05.2021
4157 Clouds 13 989 71 10000 5.14 170 15:23 09.05.2021
4158 Clouds 13 989 71 10000 6.69 160 14:53 09.05.2021
4159 Clouds 13 989 71 10000 6.17 180 14:24 09.05.2021
4160 Clouds 13 989 71 10000 9.26 180 13:40 09.05.2021
4161 Clouds 13 989 71 10000 5.66 180 12:50 09.05.2021
4162 Clouds 12 989 76 10000 7.2 170 12:23 09.05.2021
4163 Clouds 12 989 76 10000 3.09 150 11:24 09.05.2021
4164 Clouds 11 989 82 10000 2.57 150 10:53 09.05.2021
4165 Clouds 11 989 82 10000 2.57 150 10:35 09.05.2021
4166 Clouds 11 989 82 10000 3.09 50 09:42 09.05.2021
4167 Clouds 10 989 87 10000 2.57 70 09:20 09.05.2021
4168 Clouds 10 989 93 10000 2.06 40 08:48 09.05.2021
4169 Clouds 9 989 87 10000 1.54 0 08:27 09.05.2021
4170 Clouds 8 989 87 10000 2.06 130 07:41 09.05.2021
4171 Clouds 7 989 93 10000 1.03 0 06:41 09.05.2021
4172 Clouds 8 990 100 7000 2.06 120 04:42 09.05.2021
4173 Clouds 7 992 100 8000 3.09 50 00:31 09.05.2021
4174 Rain 7 992 100 7000 2.57 50 23:33 08.05.2021
4175 Clouds 8 992 93 10000 3.09 80 22:56 08.05.2021
4176 Clouds 8 992 93 10000 2.06 40 22:23 08.05.2021
4177 Clouds 7 993 93 10000 1.54 60 21:52 08.05.2021
4178 Clouds 7 993 93 10000 2.06 60 21:23 08.05.2021
4179 Clouds 7 993 93 10000 2.06 90 20:58 08.05.2021
4180 Clouds 7 993 87 10000 2.57 60 20:35 08.05.2021
4181 Clouds 7 993 93 10000 2.57 60 19:38 08.05.2021
4182 Clouds 7 993 93 10000 3.6 50 19:20 08.05.2021
4183 Drizzle 7 993 93 3700 3.09 60 18:41 08.05.2021
4184 Drizzle 6 993 100 3300 4.12 70 18:23 08.05.2021
4185 Drizzle 7 993 93 2400 5.14 60 17:44 08.05.2021
4186 Drizzle 6 994 93 4000 6.17 80 16:43 08.05.2021
4187 Drizzle 6 994 93 3400 6.17 70 16:24 08.05.2021
4188 Rain 6 995 93 3300 6.17 80 15:42 08.05.2021
4189 Rain 6 995 93 3200 6.69 80 15:22 08.05.2021
4190 Rain 6 996 81 10000 8.23 80 14:27 08.05.2021
4191 Rain 7 996 81 10000 8.23 90 13:57 08.05.2021
4192 Clouds 7 997 76 10000 8.75 80 13:25 08.05.2021
4193 Rain 7 998 76 10000 9.26 80 12:38 08.05.2021
4194 Rain 7 998 76 10000 9.26 80 12:38 08.05.2021
4195 Rain 7 998 76 10000 9.26 80 12:38 08.05.2021
4196 Rain 7 999 66 10000 7.72 90 11:54 08.05.2021
4197 Rain 7 999 66 10000 7.72 90 11:35 08.05.2021
4198 Rain 7 1001 70 10000 6.69 80 10:48 08.05.2021
4199 Rain 6 1001 75 10000 4.63 80 10:28 08.05.2021
4200 Clouds 6 1002 75 10000 6.17 80 09:53 08.05.2021
4201 Clouds 5 1002 75 10000 6.17 80 09:33 08.05.2021
4202 Clouds 4 1004 81 10000 3.09 80 08:31 08.05.2021
4203 Clouds 3 1005 81 10000 3.6 90 07:42 08.05.2021
4204 Clouds 3 1006 81 10000 2.06 100 07:23 08.05.2021
4205 Clouds 2 1007 87 10000 1.54 80 06:40 08.05.2021
4206 Clouds 2 1011 86 10000 1.54 220 02:30 08.05.2021
4207 Clouds 2 1012 80 10000 1.54 250 00:52 08.05.2021
4208 Clouds 2 1012 80 10000 1.54 250 00:34 08.05.2021
4209 Clouds 3 1012 75 10000 1.54 250 23:34 07.05.2021
4210 Clouds 5 1013 65 10000 2.06 260 22:57 07.05.2021
4211 Clouds 6 1013 65 10000 2.06 260 22:33 07.05.2021
4212 Clouds 9 1013 53 10000 3.09 250 21:45 07.05.2021
4213 Clouds 9 1013 53 10000 4.12 250 21:27 07.05.2021
4214 Clouds 10 1013 46 10000 4.63 260 20:50 07.05.2021
4215 Clouds 10 1013 50 10000 4.63 260 20:31 07.05.2021
4216 Clouds 10 1013 50 10000 4.63 270 19:49 07.05.2021
4217 Clouds 11 1013 46 10000 5.66 260 19:27 07.05.2021
4218 Clouds 11 1013 46 10000 5.66 260 18:47 07.05.2021
4219 Clouds 12 1013 43 10000 5.66 260 18:28 07.05.2021
4220 Clouds 12 1013 43 10000 5.66 260 18:28 07.05.2021
4221 Clouds 11 1013 43 10000 5.14 260 17:42 07.05.2021
4222 Clouds 11 1013 43 10000 5.66 260 17:20 07.05.2021
4223 Clouds 10 1013 50 10000 4.63 290 16:41 07.05.2021
4224 Clouds 11 1013 47 10000 4.63 280 16:22 07.05.2021
4225 Clouds 11 1014 46 10000 5.66 260 15:44 07.05.2021
4226 Clouds 11 1014 50 10000 4.63 250 15:26 07.05.2021
4227 Clouds 11 1014 46 10000 5.14 250 14:38 07.05.2021
4228 Clouds 11 1014 53 10000 6.17 270 14:19 07.05.2021
4229 Clouds 9 1014 61 10000 2.57 290 13:27 07.05.2021
4230 Clouds 9 1014 61 10000 2.06 240 12:49 07.05.2021
4231 Clouds 9 1014 62 10000 3.6 280 12:29 07.05.2021
4232 Clouds 9 1014 66 10000 2.06 290 11:52 07.05.2021
4233 Clouds 8 1014 71 10000 3.09 310 11:28 07.05.2021
4234 Clouds 7 1014 71 10000 1.54 0 10:44 07.05.2021
4235 Clouds 7 1013 76 10000 2.57 260 10:23 07.05.2021
4236 Clouds 6 1013 81 10000 2.57 260 09:55 07.05.2021
4237 Clouds 5 1013 93 10000 2.06 230 08:57 07.05.2021
4238 Clouds 4 1013 93 10000 2.06 230 08:34 07.05.2021
4239 Clouds 4 1013 93 10000 2.57 230 07:34 07.05.2021
4240 Clouds 4 1013 93 10000 2.57 230 07:34 07.05.2021
4241 Clouds 3 1012 93 10000 2.06 230 06:45 07.05.2021
4242 Clouds 2 1011 93 10000 2.57 240 04:28 07.05.2021
4243 Clouds 5 1010 87 10000 1.03 0 01:30 07.05.2021
4244 Clouds 5 1009 87 10000 1.03 0 23:18 06.05.2021
4245 Clouds 6 1009 81 10000 1.54 300 22:32 06.05.2021
4246 Clouds 7 1008 76 10000 3.6 360 21:43 06.05.2021
4247 Clouds 7 1007 81 10000 2.06 270 20:48 06.05.2021
4248 Clouds 8 1007 71 10000 5.14 40 20:25 06.05.2021
4249 Clouds 8 1007 76 10000 4.12 30 19:54 06.05.2021
4250 Clouds 9 1006 66 10000 2.57 10 19:25 06.05.2021
4251 Clouds 9 1006 66 10000 2.06 10 18:57 06.05.2021
4252 Clouds 9 1006 66 10000 2.06 10 18:34 06.05.2021
4253 Clouds 10 1005 62 10000 3.09 360 17:51 06.05.2021
4254 Clouds 10 1005 57 10000 4.63 10 17:28 06.05.2021
4255 Clouds 10 1005 58 10000 4.12 350 16:57 06.05.2021
4256 Clouds 10 1005 58 10000 4.12 350 16:35 06.05.2021
4257 Clouds 10 1005 58 10000 4.12 350 16:35 06.05.2021
4258 Rain 8 1005 71 10000 2.06 350 15:59 06.05.2021
4259 Rain 8 1005 71 10000 2.06 350 15:40 06.05.2021
4260 Rain 8 1005 71 10000 2.06 350 15:40 06.05.2021
4261 Rain 8 1005 76 10000 1.54 0 15:18 06.05.2021
4262 Rain 7 1005 71 10000 4.63 300 14:25 06.05.2021
4263 Rain 7 1005 66 10000 6.17 320 13:52 06.05.2021
4264 Rain 7 1004 66 10000 6.69 300 13:23 06.05.2021
4265 Rain 7 1004 66 10000 6.17 290 12:42 06.05.2021
4266 Clouds 6 1004 70 10000 4.63 290 12:22 06.05.2021
4267 Rain 6 1004 65 10000 6.17 300 11:47 06.05.2021
4268 Rain 6 1004 65 10000 5.14 290 11:20 06.05.2021
4269 Clouds 6 1004 70 10000 5.66 290 10:46 06.05.2021
4270 Rain 6 1004 70 10000 5.14 280 10:24 06.05.2021
4271 Clouds 5 1004 70 10000 4.63 300 09:45 06.05.2021
4272 Rain 5 1004 70 10000 5.14 300 09:23 06.05.2021
4273 Clouds 5 1004 75 10000 4.12 280 08:37 06.05.2021
4274 Clouds 5 1004 75 10000 4.12 260 08:19 06.05.2021
4275 Clouds 4 1004 81 10000 3.09 250 07:47 06.05.2021
4276 Rain 3 1005 81 10000 4.12 260 06:45 06.05.2021
4277 Rain 2 1005 87 10000 3.6 260 06:25 06.05.2021
4278 Snow 0 1005 93 10000 3.09 250 05:44 06.05.2021
4279 Clouds -1 1006 93 10000 2.06 230 04:31 06.05.2021
4280 Clear 1 1007 93 10000 2.06 240 02:30 06.05.2021
4281 Clouds 4 1008 75 10000 2.06 300 23:33 05.05.2021
4282 Clouds 5 1008 70 10000 0.51 0 22:31 05.05.2021
4283 Clouds 6 1007 65 10000 0.51 20 21:58 05.05.2021
4284 Clouds 6 1007 65 10000 0.51 20 21:35 05.05.2021
4285 Clouds 7 1008 65 10000 4.12 20 20:58 05.05.2021
4286 Clouds 7 1008 65 10000 4.12 20 20:58 05.05.2021
4287 Clouds 7 1008 65 10000 3.09 40 20:28 05.05.2021
4288 Clouds 7 1008 70 10000 4.12 30 19:42 05.05.2021
4289 Rain 7 1008 57 10000 5.14 10 19:23 05.05.2021
4290 Clouds 9 1007 49 10000 4.12 330 18:39 05.05.2021
4291 Clouds 9 1007 49 10000 6.17 330 18:18 05.05.2021
4292 Clouds 9 1007 46 10000 7.2 300 17:43 05.05.2021
4293 Clouds 9 1007 49 10000 5.66 300 17:24 05.05.2021
4294 Clouds 9 1007 53 10000 6.17 300 16:48 05.05.2021
4295 Clouds 9 1007 53 10000 6.17 300 16:48 05.05.2021
4296 Clouds 9 1007 57 10000 4.12 320 16:28 05.05.2021
4297 Clouds 10 1008 43 10000 3.6 310 15:46 05.05.2021
4298 Clouds 9 1008 53 10000 5.14 320 15:20 05.05.2021
4299 Clouds 9 1008 46 10000 3.6 280 14:42 05.05.2021
4300 Clouds 9 1008 50 10000 4.12 290 14:23 05.05.2021
4301 Clouds 9 1008 49 10000 4.63 280 13:32 05.05.2021
4302 Clouds 8 1008 53 10000 3.6 280 12:51 05.05.2021
4303 Clouds 8 1008 53 10000 4.12 280 12:26 05.05.2021
4304 Clouds 8 1008 57 10000 3.6 280 11:49 05.05.2021
4305 Clouds 7 1008 57 10000 3.09 280 11:26 05.05.2021
4306 Clouds 7 1008 57 10000 3.6 300 10:51 05.05.2021
4307 Clouds 6 1008 65 10000 3.6 290 10:26 05.05.2021
4308 Clouds 6 1008 70 10000 4.12 290 09:45 05.05.2021
4309 Clouds 4 1007 81 10000 2.57 280 08:50 05.05.2021
4310 Clouds 2 1007 93 10000 1.03 0 08:31 05.05.2021
4311 Clouds 1 1007 86 10000 1.54 220 07:55 05.05.2021
4312 Clouds 0 1007 86 10000 1.54 220 07:36 05.05.2021
4313 Clouds 0 1007 86 10000 2.57 230 06:43 05.05.2021
4314 Clouds 2 1007 75 10000 3.09 300 04:55 05.05.2021
4315 Clouds 4 1007 65 10000 4.12 340 01:39 05.05.2021
4316 Clouds 5 1006 75 10000 3.09 320 23:46 04.05.2021
4317 Clouds 6 1005 70 10000 3.09 320 23:20 04.05.2021
4318 Clouds 6 1005 65 10000 2.06 320 22:42 04.05.2021
4319 Clouds 7 1005 61 10000 4.12 350 22:19 04.05.2021
4320 Clouds 7 1004 61 10000 4.12 340 21:48 04.05.2021
4321 Clouds 8 1004 53 10000 5.66 320 21:27 04.05.2021
4322 Clouds 9 1003 57 10000 4.63 340 20:48 04.05.2021
4323 Clouds 10 1003 53 10000 5.66 350 20:26 04.05.2021
4324 Clouds 9 1003 53 10000 6.17 340 19:56 04.05.2021
4325 Clouds 9 1003 53 10000 6.17 340 19:37 04.05.2021
4326 Clouds 9 1003 61 10000 3.09 340 19:19 04.05.2021
4327 Clouds 9 1003 53 10000 4.63 310 18:40 04.05.2021
4328 Clouds 9 1002 61 10000 4.63 300 17:51 04.05.2021
4329 Clouds 9 1002 61 10000 6.17 330 17:31 04.05.2021
4330 Clouds 9 1002 57 10000 5.66 350 16:51 04.05.2021
4331 Clouds 9 1002 61 10000 5.14 340 16:25 04.05.2021
4332 Clouds 8 1002 66 10000 5.66 360 15:47 04.05.2021
4333 Clouds 7 1002 70 6000 7.72 340 15:22 04.05.2021
4334 Rain 8 1001 61 10000 6.17 330 14:34 04.05.2021
4335 Rain 9 1001 61 10000 6.17 320 13:42 04.05.2021
4336 Clouds 9 1000 61 10000 5.66 330 13:22 04.05.2021
4337 Clouds 9 1000 61 10000 7.72 330 12:55 04.05.2021
4338 Clouds 9 1000 61 10000 8.75 320 12:29 04.05.2021
4339 Clouds 8 999 71 10000 4.63 310 11:46 04.05.2021
4340 Clouds 7 999 70 10000 4.63 300 11:27 04.05.2021
4341 Rain 6 999 70 10000 6.17 310 10:44 04.05.2021
4342 Rain 6 999 75 10000 3.09 310 10:25 04.05.2021
4343 Rain 6 998 75 10000 4.12 310 09:43 04.05.2021
4344 Rain 6 998 75 10000 5.14 310 09:20 04.05.2021
4345 Rain 5 997 75 10000 5.66 310 08:49 04.05.2021
4346 Rain 5 997 75 10000 6.69 320 08:20 04.05.2021
4347 Rain 5 996 81 10000 7.2 320 07:47 04.05.2021
4348 Rain 5 996 81 10000 7.2 320 07:47 04.05.2021
4349 Clouds 5 995 75 10000 5.66 320 06:50 04.05.2021
4350 Rain 5 994 75 10000 6.69 330 06:22 04.05.2021
4351 Clouds 5 992 87 10000 3.6 320 03:58 04.05.2021
4352 Rain 4 991 81 10000 4.63 350 02:21 04.05.2021
4353 Rain 4 989 87 10000 5.66 20 00:23 04.05.2021
4354 Clouds 4 989 87 10000 5.66 20 23:33 03.05.2021
4355 Rain 4 988 87 10000 5.14 20 22:42 03.05.2021
4356 Rain 4 988 87 10000 4.63 40 22:23 03.05.2021
4357 Rain 4 988 87 10000 7.2 50 21:46 03.05.2021
4358 Rain 4 988 87 9000 7.2 60 21:25 03.05.2021
4359 Rain 4 989 93 5000 7.72 60 20:56 03.05.2021
4360 Rain 4 989 93 5000 7.72 60 20:38 03.05.2021
4361 Rain 4 989 87 10000 10.8 70 19:53 03.05.2021
4362 Rain 4 989 87 10000 10.8 70 19:32 03.05.2021
4363 Rain 5 991 87 7000 9.77 70 18:42 03.05.2021
4364 Rain 4 993 87 6000 8.23 80 17:57 03.05.2021
4365 Rain 4 994 87 5000 10.29 80 17:34 03.05.2021
4366 Rain 5 995 93 2600 10.29 90 16:52 03.05.2021
4367 Rain 5 996 87 6000 7.72 90 16:27 03.05.2021
4368 Rain 5 997 87 7000 8.75 100 15:50 03.05.2021
4369 Rain 5 999 93 9000 7.2 100 15:30 03.05.2021
4370 Rain 6 1000 87 8000 8.23 110 14:38 03.05.2021
4371 Rain 6 1001 87 10000 7.2 100 14:18 03.05.2021
4372 Rain 6 1003 87 10000 8.75 100 13:38 03.05.2021
4373 Rain 6 1003 87 10000 8.75 100 13:20 03.05.2021
4374 Rain 6 1004 81 10000 8.23 110 12:37 03.05.2021
4375 Rain 7 1005 81 9453 6.71 100 12:19 03.05.2021
4376 Rain 7 1006 81 10000 6.17 110 11:38 03.05.2021
4377 Rain 7 1008 76 10000 3.09 90 10:57 03.05.2021
4378 Rain 7 1008 76 10000 3.09 90 10:38 03.05.2021
4379 Clouds 6 1009 75 10000 4.12 80 09:56 03.05.2021
4380 Clouds 6 1009 75 10000 4.12 80 09:38 03.05.2021
4381 Clouds 5 1011 81 10000 3.6 60 08:46 03.05.2021
4382 Clouds 4 1011 87 10000 3.09 50 08:24 03.05.2021
4383 Rain 4 1012 87 10000 2.57 60 07:54 03.05.2021
4384 Clouds 3 1013 93 10000 2.06 40 06:34 03.05.2021
4385 Clouds 3 1014 93 10000 2.57 60 05:57 03.05.2021
4386 Clouds 3 1016 87 10000 0.51 0 03:58 03.05.2021
4387 Clouds 6 1017 75 10000 3.09 240 00:33 03.05.2021
4388 Clouds 7 1017 65 10000 3.6 260 23:28 02.05.2021
4389 Clouds 7 1017 65 10000 3.09 270 22:51 02.05.2021
4390 Clouds 7 1017 65 10000 3.09 270 22:33 02.05.2021
4391 Clouds 8 1017 57 10000 3.6 270 21:59 02.05.2021
4392 Clouds 8 1017 57 10000 3.6 270 21:40 02.05.2021
4393 Clouds 9 1017 53 10000 4.12 290 21:22 02.05.2021
4394 Clouds 9 1017 53 10000 4.63 270 20:24 02.05.2021
4395 Clouds 10 1017 50 10000 4.12 270 19:43 02.05.2021
4396 Clouds 10 1017 53 10000 4.63 290 19:23 02.05.2021
4397 Clouds 10 1018 50 10000 4.63 270 18:46 02.05.2021
4398 Clouds 10 1018 53 10000 5.14 300 18:28 02.05.2021
4399 Clouds 10 1018 50 10000 5.14 300 17:49 02.05.2021
4400 Clouds 10 1018 50 10000 4.63 280 17:29 02.05.2021
4401 Clouds 11 1018 50 10000 4.12 290 16:59 02.05.2021
4402 Clouds 10 1018 50 10000 4.12 290 16:39 02.05.2021
4403 Clouds 10 1018 50 10000 4.63 280 16:21 02.05.2021
4404 Clouds 10 1018 53 10000 5.14 300 15:43 02.05.2021
4405 Clouds 10 1018 53 10000 5.14 290 15:23 02.05.2021
4406 Clouds 10 1018 46 10000 5.14 270 14:41 02.05.2021
4407 Clouds 10 1018 50 10000 4.12 250 14:21 02.05.2021
4408 Clouds 9 1018 50 10000 3.6 270 13:45 02.05.2021
4409 Clouds 10 1018 53 10000 4.12 280 13:21 02.05.2021
4410 Clouds 10 1019 62 10000 3.09 330 12:43 02.05.2021
4411 Clouds 9 1019 66 10000 3.6 310 12:22 02.05.2021
4412 Clouds 8 1019 71 10000 3.6 300 11:49 02.05.2021
4413 Clouds 8 1019 76 10000 2.06 290 11:31 02.05.2021
4414 Clouds 7 1019 81 10000 1.54 0 10:51 02.05.2021
4415 Clouds 6 1019 81 10000 1.03 0 10:21 02.05.2021
4416 Clouds 6 1019 87 10000 0.51 0 09:45 02.05.2021
4417 Clouds 5 1019 87 10000 0.51 0 09:26 02.05.2021
4418 Clouds 5 1019 87 10000 0.51 0 09:26 02.05.2021
4419 Clouds 4 1019 93 10000 0.51 210 08:52 02.05.2021
4420 Clouds 3 1019 93 10000 0.51 0 08:28 02.05.2021
4421 Clouds 1 1019 100 10000 0.84 230 07:38 02.05.2021
4422 Clouds 1 1019 93 10000 1.54 220 06:50 02.05.2021
4423 Clouds 1 1018 93 10000 1.03 250 05:20 02.05.2021
4424 Clouds 4 1019 93 10000 0.51 0 01:38 02.05.2021
4425 Clouds 6 1018 87 10000 1.54 30 23:48 01.05.2021
4426 Clouds 5 1018 87 10000 2.06 50 23:28 01.05.2021
4427 Clouds 5 1018 87 10000 2.57 60 22:53 01.05.2021
4428 Clouds 5 1018 81 10000 2.57 50 22:30 01.05.2021
4429 Clouds 8 1018 71 10000 1.54 30 21:55 01.05.2021
4430 Clouds 8 1018 71 10000 1.54 30 21:37 01.05.2021
4431 Clouds 8 1018 71 10000 1.54 80 21:19 01.05.2021
4432 Rain 8 1018 66 10000 3.09 100 20:40 01.05.2021
4433 Rain 9 1018 66 10000 3.6 90 20:22 01.05.2021
4434 Rain 9 1018 66 10000 4.12 90 19:46 01.05.2021
4435 Rain 10 1017 50 10000 2.06 330 19:23 01.05.2021
4436 Clouds 10 1017 50 10000 3.09 320 18:42 01.05.2021
4437 Clouds 11 1017 54 10000 3.09 310 18:21 01.05.2021
4438 Clouds 10 1017 62 10000 4.63 300 17:36 01.05.2021
4439 Clouds 10 1017 57 10000 4.63 250 16:55 01.05.2021
4440 Clouds 10 1017 57 10000 4.63 250 16:37 01.05.2021
4441 Clouds 11 1018 54 10000 4.12 270 15:57 01.05.2021
4442 Clouds 11 1018 54 10000 3.09 260 14:58 01.05.2021
4443 Clouds 11 1018 54 10000 2.06 0 13:58 01.05.2021
4444 Clouds 10 1018 53 10000 1.54 0 13:25 01.05.2021
4445 Clouds 9 1018 57 10000 1.54 0 12:52 01.05.2021
4446 Clouds 9 1018 57 10000 1.03 0 12:24 01.05.2021
4447 Clouds 9 1018 57 10000 1.54 0 11:48 01.05.2021
4448 Clouds 8 1019 66 10000 2.06 80 11:30 01.05.2021
4449 Clouds 7 1019 70 10000 2.06 100 10:56 01.05.2021
4450 Clouds 7 1019 81 10000 0.51 0 10:28 01.05.2021
4451 Clouds 6 1019 87 10000 1.03 0 09:42 01.05.2021
4452 Clouds 5 1019 87 10000 0.51 0 09:24 01.05.2021
4453 Clouds 4 1018 93 10000 2.06 70 08:23 01.05.2021
4454 Fog 3 1018 93 900 1.03 60 07:37 01.05.2021
4455 Fog 3 1018 100 900 1.54 50 05:50 01.05.2021
4456 Rain 5 1019 93 10000 1.03 240 01:44 01.05.2021
4457 Rain 6 1019 87 10000 3.09 50 00:30 01.05.2021
4458 Rain 6 1018 87 10000 3.09 40 23:54 30.04.2021
4459 Rain 7 1018 76 10000 5.14 60 22:48 30.04.2021
4460 Rain 7 1018 70 10000 5.14 40 22:20 30.04.2021
4461 Clouds 8 1017 61 10000 3.6 60 21:48 30.04.2021
4462 Clouds 9 1017 57 10000 1.54 60 21:30 30.04.2021
4463 Clouds 9 1017 57 10000 2.06 50 20:52 30.04.2021
4464 Clouds 9 1017 57 10000 2.06 50 20:33 30.04.2021
4465 Clouds 9 1017 57 10000 5.14 60 19:48 30.04.2021
4466 Clouds 10 1017 43 10000 2.57 0 18:58 30.04.2021
4467 Clouds 10 1017 43 10000 2.57 0 18:58 30.04.2021
4468 Clouds 11 1017 43 10000 2.57 0 18:39 30.04.2021
4469 Clouds 10 1017 46 10000 2.57 320 18:21 30.04.2021
4470 Clouds 10 1017 50 10000 3.09 350 17:43 30.04.2021
4471 Clouds 11 1017 43 10000 3.09 300 16:58 30.04.2021
4472 Clouds 11 1017 43 10000 3.09 300 16:40 30.04.2021
4473 Clouds 10 1018 43 10000 1.03 0 16:20 30.04.2021
4474 Clouds 10 1018 46 10000 4.12 30 15:40 30.04.2021
4475 Clouds 10 1018 43 10000 3.09 80 15:19 30.04.2021
4476 Clouds 11 1018 40 10000 3.6 110 14:42 30.04.2021
4477 Clouds 10 1018 43 10000 2.57 100 14:19 30.04.2021
4478 Clouds 10 1018 46 10000 4.12 60 13:41 30.04.2021
4479 Clouds 9 1018 53 10000 3.6 60 13:23 30.04.2021
4480 Clouds 9 1018 50 10000 4.12 100 12:40 30.04.2021
4481 Clouds 8 1019 53 10000 4.12 80 11:56 30.04.2021
4482 Clouds 8 1019 61 10000 5.14 100 11:23 30.04.2021
4483 Clouds 7 1019 65 10000 5.14 50 10:51 30.04.2021
4484 Clouds 7 1019 65 10000 5.14 50 10:33 30.04.2021
4485 Clouds 5 1019 81 10000 1.54 200 09:49 30.04.2021
4486 Clouds 4 1018 87 10000 1.03 0 09:22 30.04.2021
4487 Clouds 2 1018 93 10000 0.51 0 08:40 30.04.2021
4488 Clouds 1 1018 93 10000 1.54 160 07:43 30.04.2021
4489 Clouds 1 1018 93 10000 1.54 0 07:21 30.04.2021
4490 Clouds 1 1018 86 10000 2.57 40 06:45 30.04.2021
4491 Clouds 2 1018 87 10000 3.09 20 06:23 30.04.2021
4492 Clear 3 1018 87 10000 1.54 0 03:50 30.04.2021
4493 Clouds 3 1018 75 10000 1.03 0 01:55 30.04.2021
4494 Clouds 4 1018 75 10000 1.03 0 01:36 30.04.2021
4495 Clouds 5 1017 87 10000 1.03 0 23:32 29.04.2021
4496 Clouds 5 1016 87 10000 1.03 0 22:48 29.04.2021
4497 Clouds 6 1016 81 10000 1.03 0 22:28 29.04.2021
4498 Clouds 7 1016 81 10000 2.06 340 21:58 29.04.2021
4499 Clouds 7 1016 81 10000 2.06 340 21:39 29.04.2021
4500 Clouds 7 1016 70 10000 0.51 0 21:20 29.04.2021
4501 Clouds 7 1015 76 10000 2.57 100 20:45 29.04.2021
4502 Clouds 6 1015 81 10000 2.06 120 20:26 29.04.2021
4503 Clouds 8 1015 61 10000 7.72 40 19:57 29.04.2021
4504 Clouds 8 1015 61 10000 7.72 40 19:37 29.04.2021
4505 Rain 9 1015 46 10000 3.09 60 19:19 29.04.2021
4506 Clouds 9 1015 46 10000 2.57 50 18:40 29.04.2021
4507 Clouds 8 1015 61 10000 1.03 0 17:48 29.04.2021
4508 Clouds 9 1015 57 10000 3.09 100 17:26 29.04.2021
4509 Clouds 8 1015 61 10000 4.12 40 16:52 29.04.2021
4510 Clouds 9 1015 53 10000 6.17 30 16:27 29.04.2021
4511 Rain 10 1015 46 10000 2.57 110 15:56 29.04.2021
4512 Clouds 10 1015 50 10000 2.06 0 15:28 29.04.2021
4513 Clouds 9 1015 53 10000 3.09 30 14:53 29.04.2021
4514 Clouds 10 1015 53 10000 2.06 60 14:28 29.04.2021
4515 Clouds 8 1015 61 10000 3.6 20 13:55 29.04.2021
4516 Clouds 8 1015 57 10000 4.63 10 13:30 29.04.2021
4517 Clouds 9 1015 53 10000 2.57 10 12:50 29.04.2021
4518 Clouds 8 1015 57 10000 3.09 30 12:30 29.04.2021
4519 Clouds 8 1015 57 10000 3.6 50 11:51 29.04.2021
4520 Clouds 7 1015 61 10000 3.6 20 11:29 29.04.2021
4521 Clouds 8 1015 61 10000 3.09 40 10:55 29.04.2021
4522 Clouds 7 1015 61 10000 3.09 40 10:35 29.04.2021
4523 Clouds 6 1015 75 10000 1.03 0 09:54 29.04.2021
4524 Clouds 6 1015 75 10000 1.03 0 09:33 29.04.2021
4525 Clouds 4 1015 100 10000 1.03 260 08:56 29.04.2021
4526 Clouds 2 1015 100 10000 1.03 190 08:33 29.04.2021
4527 Clouds 1 1014 100 10000 1.54 250 07:53 29.04.2021
4528 Clouds 1 1014 100 10000 2.06 250 07:28 29.04.2021
4529 Clouds 2 1014 93 10000 0.51 60 06:26 29.04.2021
4530 Clouds 5 1014 87 10000 1.54 30 02:53 29.04.2021
4531 Clouds 6 1014 81 10000 1.03 360 00:20 29.04.2021
4532 Clouds 6 1014 75 10000 2.57 60 23:20 28.04.2021
4533 Clouds 7 1014 70 10000 3.09 80 22:49 28.04.2021
4534 Clouds 7 1014 70 10000 3.6 70 22:21 28.04.2021
4535 Clouds 7 1014 70 10000 3.09 70 21:39 28.04.2021
4536 Clouds 7 1014 70 10000 3.6 70 21:21 28.04.2021
4537 Clouds 7 1014 70 10000 4.63 70 20:43 28.04.2021
4538 Clouds 8 1013 57 10000 5.66 60 20:25 28.04.2021
4539 Rain 9 1014 57 10000 2.06 40 19:58 28.04.2021
4540 Clouds 9 1014 57 10000 2.57 60 19:28 28.04.2021
4541 Clouds 10 1014 53 10000 3.09 50 18:52 28.04.2021
4542 Clouds 9 1014 53 10000 4.63 70 18:32 28.04.2021
4543 Clouds 10 1014 50 10000 2.57 50 17:50 28.04.2021
4544 Clouds 10 1014 50 10000 3.09 70 17:26 28.04.2021
4545 Clouds 10 1014 46 10000 3.6 80 16:49 28.04.2021
4546 Clouds 11 1014 43 10000 3.6 50 16:20 28.04.2021
4547 Clouds 10 1015 46 10000 4.12 70 15:46 28.04.2021
4548 Clouds 10 1015 43 10000 5.66 60 14:58 28.04.2021
4549 Clouds 10 1015 43 10000 5.66 60 14:39 28.04.2021
4550 Clouds 10 1015 46 10000 6.17 50 14:20 28.04.2021
4551 Clouds 9 1015 46 10000 6.17 40 13:41 28.04.2021
4552 Clouds 10 1015 46 10000 6.69 60 12:58 28.04.2021
4553 Clouds 9 1015 46 10000 6.69 60 12:40 28.04.2021
4554 Clouds 9 1016 57 10000 6.69 50 11:56 28.04.2021
4555 Clouds 9 1016 57 10000 6.69 50 11:33 28.04.2021
4556 Clouds 8 1016 66 10000 5.66 40 10:58 28.04.2021
4557 Clouds 8 1016 66 10000 5.66 40 10:39 28.04.2021
4558 Clouds 7 1016 76 10000 4.63 30 10:19 28.04.2021
4559 Clouds 6 1016 76 10000 6.17 40 09:40 28.04.2021
4560 Clouds 6 1016 81 10000 3.09 30 09:22 28.04.2021
4561 Clouds 5 1016 81 10000 2.57 40 08:47 28.04.2021
4562 Clouds 4 1016 81 10000 4.12 40 07:31 28.04.2021
4563 Clouds 4 1016 87 10000 3.09 30 06:40 28.04.2021
4564 Clouds 4 1016 81 10000 2.06 30 05:25 28.04.2021
4565 Clouds 5 1016 81 10000 4.63 30 02:40 28.04.2021
4566 Clouds 5 1016 81 10000 4.12 40 01:24 28.04.2021
4567 Clouds 5 1016 81 10000 5.66 50 00:25 28.04.2021
4568 Clouds 6 1016 75 10000 5.66 60 23:41 27.04.2021
4569 Clouds 6 1016 75 10000 6.17 70 22:53 27.04.2021
4570 Clouds 6 1016 75 10000 6.17 70 22:33 27.04.2021
4571 Clouds 7 1015 81 10000 7.72 60 21:57 27.04.2021
4572 Rain 7 1015 81 10000 7.72 60 21:39 27.04.2021
4573 Clouds 7 1015 81 10000 7.2 60 21:18 27.04.2021
4574 Rain 7 1014 81 10000 8.23 50 20:43 27.04.2021
4575 Clouds 7 1014 81 10000 7.2 50 20:19 27.04.2021
4576 Rain 8 1014 81 10000 8.75 50 19:41 27.04.2021
4577 Clouds 8 1014 81 10000 9.77 60 19:21 27.04.2021
4578 Clouds 8 1014 81 10000 8.75 50 18:46 27.04.2021
4579 Clouds 8 1013 81 10000 9.77 50 18:28 27.04.2021
4580 Clouds 8 1013 87 7000 7.2 30 17:42 27.04.2021
4581 Rain 8 1013 81 10000 9.26 30 17:24 27.04.2021
4582 Clouds 8 1013 87 6000 8.75 40 16:43 27.04.2021
4583 Clouds 8 1013 87 6000 8.75 40 16:43 27.04.2021
4584 Rain 9 1012 76 10000 11.32 30 16:22 27.04.2021
4585 Rain 9 1012 76 10000 8.75 40 15:43 27.04.2021
4586 Rain 9 1012 76 10000 8.75 40 15:22 27.04.2021
4587 Clouds 9 1012 76 10000 9.26 30 14:50 27.04.2021
4588 Clouds 9 1012 76 10000 8.75 30 14:28 27.04.2021
4589 Clouds 9 1012 71 10000 8.23 30 13:57 27.04.2021
4590 Clouds 9 1012 71 10000 8.23 30 13:32 27.04.2021
4591 Clouds 8 1012 81 10000 7.72 40 12:42 27.04.2021
4592 Clouds 9 1012 81 10000 5.14 40 11:59 27.04.2021
4593 Clouds 8 1012 87 10000 2.06 40 11:29 27.04.2021
4594 Clouds 8 1011 87 10000 2.57 30 10:52 27.04.2021
4595 Rain 8 1011 87 9000 5.66 20 10:28 27.04.2021
4596 Rain 8 1011 76 10000 2.06 350 09:55 27.04.2021
4597 Clouds 7 1011 93 10000 1.54 0 08:57 27.04.2021
4598 Clouds 7 1011 93 10000 1.54 0 08:37 27.04.2021
4599 Clouds 7 1010 93 10000 1.54 300 07:50 27.04.2021
4600 Clouds 6 1010 100 10000 2.57 220 07:20 27.04.2021
4601 Clouds 7 1011 93 10000 1.54 260 06:30 27.04.2021
4602 Clouds 7 1011 93 10000 1.54 250 05:34 27.04.2021
4603 Clouds 7 1012 93 10000 2.57 240 02:18 27.04.2021
4604 Clouds 8 1013 87 10000 2.06 250 00:29 27.04.2021
4605 Clouds 8 1013 87 10000 3.09 240 23:48 26.04.2021
4606 Clouds 8 1014 87 10000 4.12 250 23:21 26.04.2021
4607 Clouds 8 1014 87 10000 3.6 250 22:52 26.04.2021
4608 Clouds 9 1013 81 10000 4.12 260 22:27 26.04.2021
4609 Clouds 9 1014 81 10000 4.63 280 21:42 26.04.2021
4610 Clouds 9 1014 81 10000 4.63 280 21:42 26.04.2021
4611 Clouds 9 1014 81 10000 4.12 260 21:23 26.04.2021
4612 Clouds 9 1014 81 10000 4.12 260 21:23 26.04.2021
4613 Clouds 10 1014 76 10000 6.17 260 20:46 26.04.2021
4614 Clouds 10 1014 76 10000 6.69 270 20:28 26.04.2021
4615 Clouds 10 1014 76 10000 6.69 250 19:49 26.04.2021
4616 Clouds 10 1014 76 10000 5.66 240 19:26 26.04.2021
4617 Clouds 11 1015 87 10000 6.17 250 18:46 26.04.2021
4618 Clouds 10 1015 81 7000 8.23 220 18:28 26.04.2021
4619 Clouds 10 1015 81 7000 8.23 220 18:28 26.04.2021
4620 Clouds 11 1016 71 10000 8.75 230 17:50 26.04.2021
4621 Rain 12 1016 62 10000 8.75 230 17:30 26.04.2021
4622 Clouds 12 1017 62 10000 8.23 220 16:48 26.04.2021
4623 Clouds 12 1017 62 10000 7.2 210 16:26 26.04.2021
4624 Clouds 11 1018 71 10000 7.2 180 15:48 26.04.2021
4625 Clouds 11 1019 76 10000 6.17 190 15:24 26.04.2021
4626 Clouds 11 1020 71 10000 6.69 210 14:59 26.04.2021
4627 Clouds 11 1020 71 10000 6.69 210 14:35 26.04.2021
4628 Clouds 10 1021 81 10000 6.69 230 13:53 26.04.2021
4629 Rain 10 1021 81 10000 6.69 230 13:34 26.04.2021
4630 Clouds 10 1021 76 10000 7.2 220 12:58 26.04.2021
4631 Clouds 10 1022 71 10000 6.17 220 11:56 26.04.2021
4632 Clouds 10 1022 71 10000 6.17 220 11:38 26.04.2021
4633 Clouds 10 1023 76 10000 3.6 240 10:51 26.04.2021
4634 Clouds 9 1023 76 10000 3.6 240 10:32 26.04.2021
4635 Clouds 7 1023 81 10000 1.03 0 09:48 26.04.2021
4636 Clouds 6 1024 87 10000 0.51 0 09:25 26.04.2021
4637 Clouds 7 1024 93 10000 0.51 0 08:56 26.04.2021
4638 Clouds 5 1024 93 10000 1.03 0 08:22 26.04.2021
4639 Clouds 5 1025 93 10000 1.03 0 07:53 26.04.2021
4640 Clouds 4 1025 93 10000 0.51 270 07:26 26.04.2021
4641 Clouds 4 1026 87 10000 1.54 210 06:38 26.04.2021
4642 Clouds 4 1026 93 10000 0.51 0 05:37 26.04.2021
4643 Clouds 5 1027 93 10000 2.06 240 04:37 26.04.2021
4644 Clouds 6 1028 87 10000 1.54 260 02:51 26.04.2021
4645 Clouds 7 1028 87 10000 2.06 270 01:19 26.04.2021
4646 Clouds 7 1028 87 10000 1.54 280 00:43 26.04.2021
4647 Clouds 8 1029 81 10000 2.06 260 23:46 25.04.2021
4648 Clouds 9 1029 76 10000 2.06 260 23:26 25.04.2021
4649 Clouds 9 1029 62 10000 1.54 0 22:50 25.04.2021
4650 Clouds 11 1028 66 10000 2.06 10 22:22 25.04.2021
4651 Clouds 11 1028 62 10000 1.54 0 21:58 25.04.2021
4652 Clouds 11 1028 62 10000 1.54 0 21:37 25.04.2021
4653 Clouds 13 1028 54 10000 2.57 300 21:19 25.04.2021
4654 Clouds 13 1028 54 10000 2.57 300 21:19 25.04.2021
4655 Clouds 16 1028 41 10000 1.54 0 20:46 25.04.2021
4656 Clouds 16 1028 41 10000 1.54 0 20:25 25.04.2021
4657 Clouds 16 1028 39 10000 1.03 0 19:45 25.04.2021
4658 Clouds 16 1029 41 10000 1.54 0 19:22 25.04.2021
4659 Clouds 16 1029 41 10000 1.54 0 19:22 25.04.2021
4660 Clouds 17 1029 39 10000 1.03 0 18:49 25.04.2021
4661 Clouds 17 1029 39 10000 1.03 0 18:49 25.04.2021
4662 Clouds 16 1029 41 10000 1.54 0 18:28 25.04.2021
4663 Clouds 16 1030 41 10000 2.06 210 17:46 25.04.2021
4664 Clear 16 1030 41 10000 1.03 0 17:25 25.04.2021
4665 Clear 16 1030 44 10000 1.54 0 16:49 25.04.2021
4666 Clear 15 1031 44 10000 2.06 0 16:31 25.04.2021
4667 Clear 14 1031 47 10000 1.54 0 15:55 25.04.2021
4668 Clear 14 1031 47 10000 2.06 0 15:26 25.04.2021
4669 Clear 13 1031 47 10000 2.06 0 14:46 25.04.2021
4670 Clouds 13 1032 50 10000 1.54 0 14:19 25.04.2021
4671 Clouds 12 1032 50 10000 2.06 90 13:41 25.04.2021
4672 Clouds 11 1032 54 10000 2.06 90 13:19 25.04.2021
4673 Clouds 11 1032 58 10000 2.57 110 12:44 25.04.2021
4674 Clouds 10 1032 66 10000 2.06 0 12:22 25.04.2021
4675 Clouds 10 1032 66 10000 2.06 0 12:22 25.04.2021
4676 Clouds 9 1032 66 10000 2.57 80 11:39 25.04.2021
4677 Clouds 7 1033 81 10000 2.06 90 10:58 25.04.2021
4678 Clouds 7 1033 81 10000 2.06 70 10:25 25.04.2021
4679 Clouds 6 1033 81 10000 0.51 0 09:56 25.04.2021
4680 Clouds 5 1033 81 10000 1.03 60 09:37 25.04.2021
4681 Clouds 5 1033 81 10000 1.03 60 09:18 25.04.2021
4682 Clouds 4 1032 87 10000 1.03 0 07:57 25.04.2021
4683 Clouds 3 1032 87 10000 1.03 0 07:37 25.04.2021
4684 Clouds 3 1032 87 10000 2.06 80 07:19 25.04.2021
4685 Clouds 2 1032 93 10000 2.06 60 06:20 25.04.2021
4686 Clouds 3 1032 93 10000 0.51 0 04:47 25.04.2021
4687 Clouds 5 1032 81 10000 2.57 50 02:54 25.04.2021
4688 Clouds 6 1032 81 10000 3.6 60 01:38 25.04.2021
4689 Clouds 7 1032 76 10000 4.63 60 00:37 25.04.2021
4690 Clouds 7 1031 70 10000 4.63 70 23:51 24.04.2021
4691 Clouds 7 1031 70 10000 4.63 70 23:51 24.04.2021
4692 Clouds 8 1031 71 10000 5.14 70 23:28 24.04.2021
4693 Clouds 9 1031 61 10000 6.69 70 22:52 24.04.2021
4694 Clouds 9 1030 61 10000 5.66 60 22:32 24.04.2021
4695 Clouds 11 1030 58 10000 6.17 80 21:43 24.04.2021
4696 Clouds 12 1030 58 10000 5.14 80 21:23 24.04.2021
4697 Clouds 13 1030 58 10000 5.14 70 20:44 24.04.2021
4698 Clear 13 1030 54 10000 5.66 70 20:26 24.04.2021
4699 Clear 14 1030 51 10000 5.14 60 19:42 24.04.2021
4700 Clouds 15 1030 47 10000 4.63 60 19:21 24.04.2021
4701 Clouds 15 1030 51 10000 4.63 60 18:49 24.04.2021
4702 Clouds 15 1030 47 10000 5.14 60 18:27 24.04.2021
4703 Clouds 15 1030 51 10000 4.63 60 17:45 24.04.2021
4704 Clear 15 1030 51 10000 4.63 50 17:20 24.04.2021
4705 Clear 15 1030 47 10000 4.12 70 16:44 24.04.2021
4706 Clear 14 1030 51 10000 4.63 60 16:25 24.04.2021
4707 Clear 13 1030 54 10000 4.63 60 15:34 24.04.2021
4708 Clear 13 1031 58 10000 5.66 50 14:39 24.04.2021
4709 Clouds 13 1031 58 10000 5.66 50 14:21 24.04.2021
4710 Clouds 13 1031 58 10000 6.17 50 13:40 24.04.2021
4711 Clouds 12 1031 62 10000 6.17 40 12:59 24.04.2021
4712 Clouds 11 1031 66 10000 6.17 50 12:19 24.04.2021
4713 Clouds 10 1031 71 10000 6.17 50 11:49 24.04.2021
4714 Clouds 10 1031 71 10000 5.66 60 11:21 24.04.2021
4715 Clouds 9 1031 76 10000 5.66 60 10:47 24.04.2021
4716 Clouds 8 1031 76 10000 5.66 90 10:21 24.04.2021
4717 Clouds 8 1031 76 10000 5.66 60 09:46 24.04.2021
4718 Clouds 8 1031 81 10000 4.63 60 08:43 24.04.2021
4719 Clouds 7 1030 81 10000 4.63 60 07:36 24.04.2021
4720 Clouds 7 1030 87 10000 5.14 60 05:47 24.04.2021
4721 Clouds 8 1030 76 10000 5.14 60 01:35 24.04.2021
4722 Clouds 9 1029 71 10000 5.66 70 00:28 24.04.2021
4723 Clouds 10 1029 66 10000 7.2 80 22:56 23.04.2021
4724 Clouds 10 1029 62 10000 8.23 60 22:23 23.04.2021
4725 Clouds 11 1028 54 10000 7.72 70 21:55 23.04.2021
4726 Clouds 12 1028 47 10000 6.69 70 21:28 23.04.2021
4727 Clouds 15 1027 41 10000 2.57 300 20:47 23.04.2021
4728 Clouds 15 1027 41 10000 2.57 300 20:26 23.04.2021
4729 Clouds 16 1027 39 10000 3.09 310 19:59 23.04.2021
4730 Clouds 16 1027 39 10000 3.09 310 19:40 23.04.2021
4731 Clouds 16 1027 39 10000 4.12 310 19:21 23.04.2021
4732 Clouds 17 1027 36 10000 3.6 310 18:42 23.04.2021
4733 Clouds 18 1027 32 10000 2.57 260 18:24 23.04.2021
4734 Clouds 18 1027 27 10000 1.03 0 17:42 23.04.2021
4735 Clouds 18 1027 29 10000 1.03 0 17:21 23.04.2021
4736 Clouds 18 1027 29 10000 1.54 0 16:47 23.04.2021
4737 Clouds 18 1027 29 10000 1.54 0 16:26 23.04.2021
4738 Clouds 17 1028 34 10000 2.57 300 15:42 23.04.2021
4739 Clouds 16 1028 36 10000 1.54 0 14:57 23.04.2021
4740 Clouds 15 1028 38 10000 1.03 0 13:44 23.04.2021
4741 Clouds 15 1029 41 10000 1.03 0 13:25 23.04.2021
4742 Clouds 14 1029 41 10000 1.03 0 12:36 23.04.2021
4743 Clouds 11 1029 58 10000 0.51 0 11:58 23.04.2021
4744 Clouds 11 1029 58 10000 0.51 0 11:39 23.04.2021
4745 Clouds 11 1030 71 10000 0.51 0 10:57 23.04.2021
4746 Clouds 10 1030 71 10000 0.51 0 10:38 23.04.2021
4747 Clouds 8 1029 76 10000 0.51 0 10:18 23.04.2021
4748 Clouds 5 1029 93 10000 0.51 0 09:28 23.04.2021
4749 Clouds 1 1029 100 10000 0.51 0 08:45 23.04.2021
4750 Clear 0 1029 93 10000 0.51 0 07:50 23.04.2021
4751 Clouds 0 1029 93 9000 0.51 230 07:22 23.04.2021
4752 Clouds 2 1028 93 10000 1.03 270 06:22 23.04.2021
4753 Clouds 4 1028 93 10000 0.51 270 03:45 23.04.2021
4754 Clouds 4 1028 93 10000 1.03 270 02:48 23.04.2021
4755 Clouds 7 1027 76 10000 2.06 270 00:21 23.04.2021
4756 Clouds 8 1027 76 10000 3.09 250 23:21 22.04.2021
4757 Clouds 7 1027 81 10000 3.6 240 22:39 22.04.2021
4758 Clouds 9 1027 71 10000 3.09 240 22:18 22.04.2021
4759 Clouds 10 1027 66 10000 3.6 240 21:42 22.04.2021
4760 Clouds 12 1026 54 10000 2.06 250 21:20 22.04.2021
4761 Clouds 15 1026 44 10000 1.54 0 20:50 22.04.2021
4762 Clouds 15 1026 41 10000 1.03 0 20:28 22.04.2021
4763 Clouds 15 1026 44 10000 2.06 250 19:53 22.04.2021
4764 Clouds 15 1026 44 10000 2.06 250 19:33 22.04.2021
4765 Clouds 15 1027 47 10000 3.6 210 18:46 22.04.2021
4766 Clouds 15 1027 47 10000 4.12 220 18:21 22.04.2021
4767 Clouds 15 1027 47 10000 4.12 230 17:52 22.04.2021
4768 Clouds 15 1027 47 10000 4.12 220 17:20 22.04.2021
4769 Clouds 15 1027 47 10000 5.14 220 16:49 22.04.2021
4770 Clouds 15 1027 47 10000 4.63 220 16:28 22.04.2021
4771 Clouds 15 1027 47 10000 5.14 230 15:48 22.04.2021
4772 Clouds 15 1027 47 10000 4.63 230 15:27 22.04.2021
4773 Clouds 14 1027 47 10000 4.12 210 14:50 22.04.2021
4774 Clouds 14 1027 47 10000 4.12 210 14:29 22.04.2021
4775 Clouds 13 1027 54 10000 4.63 220 13:46 22.04.2021
4776 Clouds 13 1027 54 10000 5.14 220 13:24 22.04.2021
4777 Clouds 12 1027 58 10000 4.63 230 12:55 22.04.2021
4778 Clouds 11 1027 58 10000 4.63 230 12:37 22.04.2021
4779 Clouds 11 1027 62 10000 3.09 230 12:18 22.04.2021
4780 Clouds 10 1027 62 10000 1.54 0 11:42 22.04.2021
4781 Clouds 9 1028 66 10000 1.03 0 11:19 22.04.2021
4782 Clouds 9 1028 70 10000 1.03 0 10:41 22.04.2021
4783 Clouds 6 1028 75 10000 0.51 0 10:20 22.04.2021
4784 Clouds 6 1028 81 10000 0.51 0 09:38 22.04.2021
4785 Clouds 3 1027 86 10000 1.54 230 08:55 22.04.2021
4786 Clouds 2 1027 86 10000 1.54 230 08:36 22.04.2021
4787 Clouds 2 1027 100 10000 0.51 0 08:18 22.04.2021
4788 Clouds 2 1027 93 10000 1.03 0 07:31 22.04.2021
4789 Clouds 2 1027 93 10000 1.03 0 07:31 22.04.2021
4790 Clouds 1 1027 93 10000 2.06 230 06:57 22.04.2021
4791 Clouds 1 1027 93 10000 1.54 220 06:21 22.04.2021
4792 Clouds 1 1026 93 10000 1.54 230 05:24 22.04.2021
4793 Clouds 4 1026 75 10000 1.03 0 02:29 22.04.2021
4794 Clouds 6 1026 65 10000 1.54 60 00:25 22.04.2021
4795 Clouds 5 1025 70 10000 2.57 50 23:41 21.04.2021
4796 Clouds 6 1025 65 10000 3.09 60 23:21 21.04.2021
4797 Clouds 7 1025 61 10000 4.12 60 22:41 21.04.2021
4798 Clouds 8 1025 57 10000 4.12 70 22:21 21.04.2021
4799 Clouds 10 1025 53 10000 5.66 60 21:41 21.04.2021
4800 Clouds 10 1025 53 10000 5.66 60 21:23 21.04.2021
4801 Clouds 11 1025 50 10000 5.14 60 20:32 21.04.2021
4802 Clouds 12 1024 47 10000 6.17 60 19:58 21.04.2021
4803 Clouds 12 1024 47 10000 6.17 60 19:38 21.04.2021
4804 Clouds 12 1024 47 10000 5.66 40 19:18 21.04.2021
4805 Clouds 13 1024 47 10000 5.66 50 18:42 21.04.2021
4806 Clouds 13 1024 47 10000 5.66 50 18:22 21.04.2021
4807 Clouds 13 1024 44 10000 5.66 50 17:45 21.04.2021
4808 Clouds 13 1024 41 10000 3.09 90 17:22 21.04.2021
4809 Clouds 13 1025 41 10000 3.6 60 16:40 21.04.2021
4810 Clouds 12 1025 40 10000 4.63 80 15:52 21.04.2021
4811 Clouds 12 1025 40 10000 4.12 100 15:26 21.04.2021
4812 Clouds 12 1025 40 10000 4.63 80 14:46 21.04.2021
4813 Clouds 11 1025 46 10000 5.14 80 14:27 21.04.2021
4814 Clouds 11 1025 43 10000 4.63 60 13:50 21.04.2021
4815 Clouds 10 1025 46 10000 6.17 50 13:23 21.04.2021
4816 Clouds 10 1025 46 10000 6.17 70 12:48 21.04.2021
4817 Clouds 9 1025 53 10000 6.17 70 12:24 21.04.2021
4818 Clouds 9 1025 53 10000 5.66 90 11:46 21.04.2021
4819 Clouds 8 1025 57 10000 6.69 70 11:25 21.04.2021
4820 Clouds 8 1025 53 10000 6.69 90 10:40 21.04.2021
4821 Clouds 7 1025 61 10000 4.12 70 09:57 21.04.2021
4822 Clear 6 1025 61 10000 4.63 70 09:31 21.04.2021
4823 Clouds 5 1025 65 10000 4.12 80 08:51 21.04.2021
4824 Clouds 5 1025 70 10000 4.12 60 08:24 21.04.2021
4825 Clouds 5 1024 70 10000 5.66 60 07:57 21.04.2021
4826 Clouds 6 1024 65 10000 5.66 60 07:29 21.04.2021
4827 Clouds 7 1024 65 10000 5.14 70 06:22 21.04.2021
4828 Clouds 7 1022 93 10000 2.57 50 02:28 21.04.2021
4829 Clouds 8 1022 81 10000 5.14 60 00:20 21.04.2021
4830 Clouds 8 1021 87 10000 6.17 60 23:40 20.04.2021
4831 Clouds 8 1021 87 10000 6.17 60 22:49 20.04.2021
4832 Clouds 10 1020 76 10000 2.06 310 22:24 20.04.2021
4833 Clouds 10 1020 81 10000 2.06 300 21:57 20.04.2021
4834 Clouds 10 1020 81 10000 2.06 300 21:39 20.04.2021
4835 Clouds 11 1020 76 10000 2.57 300 21:21 20.04.2021
4836 Clouds 12 1020 71 10000 2.06 290 20:39 20.04.2021
4837 Clouds 12 1020 71 10000 2.57 280 20:20 20.04.2021
4838 Clouds 12 1020 71 10000 2.06 290 19:47 20.04.2021
4839 Clouds 11 1020 76 10000 3.09 300 19:29 20.04.2021
4840 Clouds 11 1020 76 10000 4.12 290 18:46 20.04.2021
4841 Clouds 11 1020 76 10000 3.6 290 18:28 20.04.2021
4842 Clouds 11 1020 76 10000 4.63 300 17:41 20.04.2021
4843 Clouds 11 1020 76 10000 3.09 300 16:51 20.04.2021
4844 Clouds 11 1020 82 10000 2.57 300 16:28 20.04.2021
4845 Clouds 11 1020 82 10000 3.6 300 15:36 20.04.2021
4846 Clouds 11 1020 76 10000 4.12 320 15:18 20.04.2021
4847 Clouds 11 1019 76 10000 4.12 290 14:39 20.04.2021
4848 Clouds 11 1019 76 10000 3.09 270 14:20 20.04.2021
4849 Clouds 11 1019 76 10000 3.09 240 13:28 20.04.2021
4850 Clouds 10 1019 81 10000 2.06 250 12:53 20.04.2021
4851 Clouds 10 1019 76 10000 2.06 240 12:24 20.04.2021
4852 Clouds 10 1019 76 10000 2.57 240 11:46 20.04.2021
4853 Clouds 10 1019 76 10000 2.57 240 11:46 20.04.2021
4854 Clouds 10 1019 81 10000 2.06 250 11:25 20.04.2021
4855 Clouds 9 1019 87 10000 1.54 0 10:47 20.04.2021
4856 Clouds 9 1019 87 10000 0.51 0 10:24 20.04.2021
4857 Rain 8 1019 93 6000 1.03 220 09:45 20.04.2021
4858 Rain 7 1019 93 8000 1.03 250 08:59 20.04.2021
4859 Rain 7 1019 93 8000 1.03 250 08:35 20.04.2021
4860 Clouds 7 1019 93 10000 1.54 260 07:52 20.04.2021
4861 Rain 7 1018 87 10000 1.54 260 07:21 20.04.2021
4862 Rain 7 1018 87 10000 1.54 210 05:41 20.04.2021
4863 Clouds 7 1018 81 10000 1.54 210 04:42 20.04.2021
4864 Clouds 9 1019 76 10000 2.06 250 02:58 20.04.2021
4865 Clouds 8 1019 71 10000 3.09 230 00:50 20.04.2021
4866 Clouds 8 1019 71 10000 2.06 230 23:47 19.04.2021
4867 Clouds 9 1019 66 10000 2.06 240 23:27 19.04.2021
4868 Clouds 9 1019 66 10000 3.09 230 22:37 19.04.2021
4869 Clouds 9 1018 66 10000 2.57 240 21:59 19.04.2021
4870 Clouds 10 1018 66 10000 2.57 240 21:37 19.04.2021
4871 Clouds 10 1018 62 10000 2.57 230 21:19 19.04.2021
4872 Clouds 11 1019 58 10000 3.6 230 20:40 19.04.2021
4873 Clouds 11 1019 58 10000 5.14 230 20:20 19.04.2021
4874 Clouds 12 1019 54 10000 5.14 240 19:43 19.04.2021
4875 Clouds 12 1019 54 10000 5.66 240 19:24 19.04.2021
4876 Clouds 13 1019 54 10000 6.17 240 18:47 19.04.2021
4877 Clouds 13 1019 54 10000 6.17 240 18:47 19.04.2021
4878 Clouds 13 1019 54 10000 6.69 240 18:24 19.04.2021
4879 Clouds 14 1019 51 10000 5.14 210 17:55 19.04.2021
4880 Clouds 14 1019 58 10000 4.12 230 17:30 19.04.2021
4881 Clouds 15 1019 55 10000 4.63 220 16:58 19.04.2021
4882 Clouds 15 1019 55 10000 4.63 220 16:39 19.04.2021
4883 Clouds 15 1019 51 10000 5.14 220 16:20 19.04.2021
4884 Clouds 15 1019 55 10000 5.66 240 15:40 19.04.2021
4885 Clouds 15 1019 55 10000 5.66 240 15:40 19.04.2021
4886 Clouds 15 1019 55 10000 5.14 220 15:20 19.04.2021
4887 Clouds 15 1020 51 10000 4.63 190 14:37 19.04.2021
4888 Clouds 15 1020 51 10000 4.12 200 14:19 19.04.2021
4889 Clouds 14 1020 54 10000 5.14 160 13:36 19.04.2021
4890 Clouds 13 1020 62 10000 2.06 200 13:18 19.04.2021
4891 Clouds 13 1021 58 10000 2.06 250 12:42 19.04.2021
4892 Clouds 12 1021 62 10000 2.06 0 12:22 19.04.2021
4893 Clouds 12 1021 62 10000 2.06 210 11:53 19.04.2021
4894 Clouds 11 1021 66 10000 1.03 0 11:21 19.04.2021
4895 Clouds 10 1021 66 10000 1.54 0 10:45 19.04.2021
4896 Clouds 10 1021 71 10000 1.54 0 10:21 19.04.2021
4897 Clouds 9 1022 76 10000 1.54 0 09:49 19.04.2021
4898 Clouds 8 1022 81 10000 1.54 80 09:27 19.04.2021
4899 Clouds 7 1022 87 10000 0.51 0 08:55 19.04.2021
4900 Clouds 6 1022 93 10000 1.03 70 08:24 19.04.2021
4901 Clouds 6 1022 100 10000 1.03 60 07:45 19.04.2021
4902 Clouds 6 1022 93 10000 1.54 40 07:18 19.04.2021
4903 Clouds 6 1022 87 10000 1.54 110 05:43 19.04.2021
4904 Clouds 9 1023 81 10000 1.03 110 02:34 19.04.2021
4905 Clouds 9 1023 81 10000 1.54 100 00:45 19.04.2021
4906 Clouds 9 1024 76 10000 2.06 160 23:22 18.04.2021
4907 Clouds 10 1024 76 10000 3.09 160 22:58 18.04.2021
4908 Clouds 10 1024 76 10000 3.09 160 22:40 18.04.2021
4909 Clouds 10 1024 76 10000 2.57 170 22:22 18.04.2021
4910 Clouds 10 1024 76 10000 1.54 220 21:29 18.04.2021
4911 Clouds 10 1024 76 10000 1.03 240 20:55 18.04.2021
4912 Clouds 10 1024 76 10000 1.03 240 20:55 18.04.2021
4913 Clouds 10 1024 76 10000 1.03 240 20:37 18.04.2021
4914 Clouds 10 1024 76 10000 1.54 260 20:19 18.04.2021
4915 Clouds 10 1024 76 10000 2.57 250 19:41 18.04.2021
4916 Clouds 10 1023 76 10000 3.6 240 19:21 18.04.2021
4917 Clouds 11 1023 66 10000 4.12 230 18:45 18.04.2021
4918 Clouds 11 1023 66 10000 2.06 190 18:26 18.04.2021
4919 Clouds 11 1023 71 10000 3.09 230 17:47 18.04.2021
4920 Clouds 11 1023 71 10000 3.09 210 17:28 18.04.2021
4921 Clouds 10 1024 76 10000 2.57 120 16:52 18.04.2021
4922 Clouds 10 1024 76 10000 2.57 120 16:34 18.04.2021
4923 Rain 10 1024 76 10000 2.57 150 15:49 18.04.2021
4924 Clouds 10 1024 76 10000 3.6 220 15:28 18.04.2021
4925 Clouds 10 1024 71 10000 3.09 180 14:53 18.04.2021
4926 Clouds 10 1024 71 10000 4.12 160 14:28 18.04.2021
4927 Clouds 10 1024 71 10000 4.12 160 13:56 18.04.2021
4928 Clouds 10 1024 71 10000 4.12 160 13:38 18.04.2021
4929 Clouds 10 1024 71 10000 4.63 170 13:18 18.04.2021
4930 Clouds 9 1024 76 10000 4.12 160 12:33 18.04.2021
4931 Clouds 8 1024 81 10000 3.6 120 11:45 18.04.2021
4932 Clouds 8 1024 81 10000 3.6 120 11:22 18.04.2021
4933 Rain 8 1024 81 10000 3.6 110 10:48 18.04.2021
4934 Rain 6 1024 87 10000 3.6 110 10:28 18.04.2021
4935 Rain 6 1024 87 8000 2.06 80 09:53 18.04.2021
4936 Rain 6 1024 87 8000 2.06 80 09:53 18.04.2021
4937 Rain 6 1024 87 8000 2.06 80 09:35 18.04.2021
4938 Rain 6 1024 87 8000 2.57 40 08:58 18.04.2021
4939 Rain 5 1024 87 8000 2.57 40 08:37 18.04.2021
4940 Rain 5 1024 87 8000 2.57 50 08:18 18.04.2021
4941 Rain 5 1024 81 10000 2.57 60 07:38 18.04.2021
4942 Clouds 5 1024 75 10000 2.06 40 05:43 18.04.2021
4943 Clouds 5 1024 81 10000 2.57 40 05:24 18.04.2021
4944 Clouds 4 1025 81 10000 1.54 0 02:56 18.04.2021
4945 Clouds 4 1025 87 10000 1.54 120 02:22 18.04.2021
4946 Clouds 5 1025 81 10000 0.51 0 00:38 18.04.2021
4947 Clouds 7 1026 70 10000 1.54 0 23:38 17.04.2021
4948 Clouds 7 1026 70 10000 1.03 300 22:51 17.04.2021
4949 Clouds 7 1026 65 10000 2.06 220 22:31 17.04.2021
4950 Clouds 7 1026 65 10000 3.6 220 21:50 17.04.2021
4951 Clouds 9 1026 57 10000 4.63 220 21:30 17.04.2021
4952 Clouds 11 1026 53 10000 4.12 230 20:48 17.04.2021
4953 Clouds 11 1026 50 10000 5.66 220 20:27 17.04.2021
4954 Clouds 12 1026 47 10000 6.69 230 19:45 17.04.2021
4955 Clouds 12 1026 50 10000 6.17 240 19:21 17.04.2021
4956 Clouds 13 1026 47 10000 5.66 220 18:55 17.04.2021
4957 Clouds 13 1026 47 10000 5.66 220 18:35 17.04.2021
4958 Clouds 14 1027 44 10000 6.17 220 17:56 17.04.2021
4959 Clouds 14 1027 44 10000 6.17 220 17:56 17.04.2021
4960 Clouds 14 1027 44 10000 6.17 220 17:38 17.04.2021
4961 Clouds 13 1027 47 10000 5.66 210 16:52 17.04.2021
4962 Clouds 13 1027 50 10000 4.12 220 16:27 17.04.2021
4963 Clouds 13 1028 50 10000 4.63 210 15:39 17.04.2021
4964 Clouds 12 1028 50 10000 4.12 210 14:50 17.04.2021
4965 Clouds 12 1028 47 10000 6.69 230 14:29 17.04.2021
4966 Clouds 12 1029 47 10000 5.66 230 13:46 17.04.2021
4967 Clouds 12 1029 43 10000 6.17 230 13:19 17.04.2021
4968 Clouds 11 1029 54 10000 1.54 0 12:36 17.04.2021
4969 Clouds 9 1030 57 10000 1.03 0 11:59 17.04.2021
4970 Clouds 9 1030 57 10000 1.03 0 11:39 17.04.2021
4971 Clouds 9 1030 57 10000 1.03 0 11:39 17.04.2021
4972 Clouds 8 1030 57 10000 0.51 0 11:20 17.04.2021
4973 Clouds 7 1030 65 10000 0.51 0 10:41 17.04.2021
4974 Clouds 5 1030 75 10000 0.51 0 10:18 17.04.2021
4975 Clouds 4 1030 93 10000 1.54 240 09:19 17.04.2021
4976 Clouds 2 1030 93 10000 1.54 220 08:34 17.04.2021
4977 Clouds 0 1030 93 10000 0.51 230 07:59 17.04.2021
4978 Clouds 0 1030 100 10000 0.84 141 06:41 17.04.2021
4979 Clouds 2 1030 86 10000 0.51 0 03:49 17.04.2021
4980 Clouds 3 1030 87 10000 2.06 40 02:26 17.04.2021
4981 Clouds 5 1030 70 10000 1.03 100 00:42 17.04.2021
4982 Clouds 5 1030 70 10000 2.06 210 00:20 17.04.2021
4983 Clouds 4 1030 70 10000 0.51 0 23:43 16.04.2021
4984 Clouds 6 1030 61 10000 1.54 220 22:52 16.04.2021
4985 Clouds 5 1030 65 10000 4.12 220 22:25 16.04.2021
4986 Clouds 7 1030 57 10000 4.12 230 21:58 16.04.2021
4987 Clouds 7 1030 57 10000 4.12 230 21:40 16.04.2021
4988 Clouds 9 1029 49 10000 4.63 240 21:21 16.04.2021
4989 Clouds 10 1029 46 10000 5.14 240 20:45 16.04.2021
4990 Clouds 11 1029 43 10000 6.17 230 20:18 16.04.2021
4991 Clouds 12 1029 40 10000 6.17 240 19:47 16.04.2021
4992 Clouds 12 1029 40 10000 5.66 220 19:21 16.04.2021
4993 Clouds 13 1029 41 10000 6.17 220 18:28 16.04.2021
4994 Clouds 13 1029 41 10000 6.69 220 17:53 16.04.2021
4995 Clouds 13 1029 41 10000 5.66 210 17:20 16.04.2021
4996 Clouds 13 1029 41 10000 6.69 220 16:56 16.04.2021
4997 Clouds 13 1029 41 10000 6.69 220 16:38 16.04.2021
4998 Clouds 13 1030 44 10000 6.17 210 16:19 16.04.2021
4999 Clouds 13 1030 41 10000 6.17 230 15:39 16.04.2021
5000 Clouds 12 1030 40 10000 4.63 230 14:47 16.04.2021
5001 Clouds 12 1030 47 10000 5.14 240 14:28 16.04.2021
5002 Clouds 12 1030 50 10000 5.14 230 13:58 16.04.2021
5003 Clouds 11 1030 54 10000 3.09 240 13:23 16.04.2021
5004 Clouds 10 1031 57 10000 1.54 0 12:58 16.04.2021
5005 Clouds 10 1031 57 10000 1.54 0 12:39 16.04.2021
5006 Clouds 9 1031 57 10000 1.03 0 12:21 16.04.2021
5007 Clouds 8 1031 57 10000 1.03 0 11:42 16.04.2021
5008 Clouds 7 1031 65 10000 1.03 0 11:21 16.04.2021
5009 Clouds 6 1032 75 10000 0.51 0 10:42 16.04.2021
5010 Clouds 5 1032 81 10000 0.51 0 10:21 16.04.2021
5011 Clouds 4 1032 93 10000 0.51 0 09:44 16.04.2021
5012 Clear 3 1031 93 8000 1.03 240 09:22 16.04.2021
5013 Clouds 2 1031 100 6000 1.03 230 08:45 16.04.2021
5014 Fog 0 1031 100 8000 0.51 0 08:19 16.04.2021
5015 Fog -1 1031 93 8000 1.54 0 07:43 16.04.2021
5016 Clear 0 1031 100 6000 1.03 0 07:25 16.04.2021
5017 Clear 0 1031 100 8000 1.03 0 06:39 16.04.2021
5018 Clear 0 1031 100 10000 1.54 250 05:32 16.04.2021
5019 Clouds 4 1032 93 10000 0.51 0 01:41 16.04.2021
5020 Clouds 3 1032 87 10000 0.51 360 00:44 16.04.2021
5021 Clouds 5 1032 75 10000 1.03 260 00:20 16.04.2021
5022 Clouds 6 1032 75 10000 2.06 240 23:51 15.04.2021
5023 Clouds 6 1032 70 10000 1.54 270 23:27 15.04.2021
5024 Clouds 5 1032 75 10000 2.57 230 22:47 15.04.2021
5025 Clouds 7 1032 66 10000 5.14 210 22:23 15.04.2021
5026 Clouds 7 1032 66 10000 5.14 210 22:23 15.04.2021
5027 Clouds 9 1032 66 10000 4.63 220 21:43 15.04.2021
5028 Clouds 10 1031 58 10000 5.14 210 21:24 15.04.2021
5029 Clouds 12 1031 54 10000 4.63 220 20:48 15.04.2021
5030 Clouds 12 1031 54 10000 4.12 220 20:25 15.04.2021
5031 Clouds 13 1032 50 10000 4.12 240 19:47 15.04.2021
5032 Clouds 12 1032 54 10000 3.6 230 19:28 15.04.2021
5033 Clouds 13 1032 47 10000 2.06 270 18:59 15.04.2021
5034 Clouds 13 1032 47 10000 2.06 270 18:37 15.04.2021
5035 Clouds 13 1032 44 10000 2.06 270 18:18 15.04.2021
5036 Clouds 13 1032 47 10000 2.57 250 17:44 15.04.2021
5037 Clouds 14 1032 44 10000 2.57 270 17:24 15.04.2021
5038 Clouds 14 1032 41 10000 1.54 0 16:43 15.04.2021
5039 Clouds 13 1033 41 10000 2.06 0 16:24 15.04.2021
5040 Clouds 14 1033 44 10000 2.57 280 15:47 15.04.2021
5041 Clouds 13 1033 44 10000 2.06 360 15:27 15.04.2021
5042 Clouds 13 1033 47 10000 1.03 0 14:42 15.04.2021
5043 Clouds 13 1034 47 10000 1.54 0 14:24 15.04.2021
5044 Clouds 12 1034 54 10000 1.03 0 13:48 15.04.2021
5045 Clouds 11 1034 58 10000 1.03 0 13:23 15.04.2021
5046 Clouds 10 1035 62 10000 1.03 0 12:47 15.04.2021
5047 Clouds 9 1035 66 10000 0.51 0 12:26 15.04.2021
5048 Clouds 9 1035 66 10000 0.51 0 11:47 15.04.2021
5049 Clouds 7 1035 76 10000 0.51 0 11:26 15.04.2021
5050 Clouds 6 1035 81 10000 0.51 0 10:57 15.04.2021
5051 Clouds 6 1035 93 10000 0.51 230 10:28 15.04.2021
5052 Clouds 4 1035 100 10000 0.51 220 09:50 15.04.2021
5053 Clouds 3 1035 100 10000 1.03 250 09:28 15.04.2021
5054 Clouds 2 1035 100 10000 1.54 240 08:49 15.04.2021
5055 Mist 1 1035 100 4900 1.03 250 08:24 15.04.2021
5056 Fog 0 1035 100 750 1.03 220 07:26 15.04.2021
5057 Clouds 0 1035 100 10000 0.51 0 06:55 15.04.2021
5058 Clouds 0 1035 100 10000 0.51 0 06:33 15.04.2021
5059 Clouds 1 1035 100 10000 1.54 230 04:53 15.04.2021
5060 Clouds 3 1035 100 6000 2.06 240 02:51 15.04.2021
5061 Clouds 3 1034 87 10000 3.6 240 23:47 14.04.2021
5062 Clouds 4 1034 81 10000 3.09 240 23:28 14.04.2021
5063 Clouds 5 1034 70 10000 3.09 240 22:47 14.04.2021
5064 Clouds 7 1033 65 10000 2.57 240 22:27 14.04.2021
5065 Clouds 8 1033 57 10000 2.06 250 21:53 14.04.2021
5066 Clouds 9 1033 57 10000 2.06 250 21:32 14.04.2021
5067 Clouds 11 1033 54 10000 3.09 310 20:58 14.04.2021
5068 Clouds 11 1033 54 10000 3.09 310 20:35 14.04.2021
5069 Clouds 12 1033 41 10000 2.57 240 19:55 14.04.2021
5070 Clouds 12 1033 41 10000 2.57 240 19:55 14.04.2021
5071 Clouds 13 1033 41 10000 2.57 240 19:36 14.04.2021
5072 Clouds 14 1033 38 10000 2.06 0 19:18 14.04.2021
5073 Clouds 14 1033 41 10000 2.06 200 18:46 14.04.2021
5074 Clouds 13 1033 41 10000 1.03 0 18:18 14.04.2021
5075 Clouds 13 1033 41 10000 1.54 0 17:46 14.04.2021
5076 Clouds 13 1034 41 10000 1.54 0 17:23 14.04.2021
5077 Clouds 13 1034 44 10000 1.03 0 16:39 14.04.2021
5078 Clouds 12 1034 50 10000 1.54 0 16:19 14.04.2021
5079 Clouds 12 1034 54 10000 1.03 0 15:39 14.04.2021
5080 Clouds 12 1034 58 10000 1.03 0 15:18 14.04.2021
5081 Clouds 11 1034 62 10000 1.03 0 14:40 14.04.2021
5082 Clouds 10 1035 66 10000 1.03 0 14:20 14.04.2021
5083 Clouds 9 1035 71 10000 1.03 0 13:46 14.04.2021
5084 Clouds 7 1035 81 10000 2.06 170 12:45 14.04.2021
5085 Clouds 5 1035 93 9000 1.54 0 12:18 14.04.2021
5086 Clouds 5 1035 93 8000 1.03 0 11:41 14.04.2021
5087 Mist 4 1035 100 5000 1.03 0 11:22 14.04.2021
5088 Fog 3 1035 100 750 1.03 0 10:34 14.04.2021
5089 Clouds 3 1035 100 10000 1.54 0 09:43 14.04.2021
5090 Mist 1 1035 93 5000 0.51 0 09:25 14.04.2021
5091 Fog 1 1035 100 650 0.51 210 08:52 14.04.2021
5092 Fog 1 1034 93 200 0.51 0 08:29 14.04.2021
5093 Fog 0 1034 100 250 0.58 55 07:36 14.04.2021
5094 Fog 0 1034 93 150 1.03 260 06:34 14.04.2021
5095 Fog 0 1034 93 8000 1.54 240 05:31 14.04.2021
5096 Clouds 1 1033 100 10000 2.57 50 02:27 14.04.2021
5097 Clouds 3 1033 100 10000 1.54 220 00:50 14.04.2021
5098 Clouds 3 1033 100 10000 1.54 220 00:50 14.04.2021
5099 Clouds 4 1033 100 10000 1.03 0 00:27 14.04.2021
5100 Clouds 4 1032 93 10000 1.03 0 23:32 13.04.2021
5101 Clouds 4 1032 93 10000 2.06 240 22:44 13.04.2021
5102 Clouds 6 1032 87 10000 1.54 270 22:21 13.04.2021
5103 Clouds 8 1032 81 10000 1.54 0 21:49 13.04.2021
5104 Clouds 8 1032 76 10000 3.6 360 21:30 13.04.2021
5105 Clouds 8 1032 76 10000 3.6 360 21:30 13.04.2021
5106 Clouds 9 1032 71 10000 3.09 320 20:50 13.04.2021
5107 Clouds 9 1032 76 10000 2.57 290 20:25 13.04.2021
5108 Clouds 9 1031 76 10000 2.57 310 19:58 13.04.2021
5109 Clouds 9 1031 76 10000 3.09 280 19:26 13.04.2021
5110 Clouds 9 1031 81 10000 3.09 240 18:49 13.04.2021
5111 Clouds 9 1031 81 10000 4.12 220 18:30 13.04.2021
5112 Clouds 9 1032 76 10000 3.09 230 17:40 13.04.2021
5113 Clouds 9 1032 76 10000 3.09 230 17:21 13.04.2021
5114 Clouds 9 1032 71 10000 3.09 240 16:45 13.04.2021
5115 Clouds 9 1032 71 10000 3.09 250 16:26 13.04.2021
5116 Rain 9 1032 71 10000 1.03 0 15:55 13.04.2021
5117 Clouds 9 1032 71 10000 1.03 0 15:36 13.04.2021
5118 Clouds 9 1032 66 10000 2.57 250 14:54 13.04.2021
5119 Clouds 9 1032 61 10000 2.57 270 14:24 13.04.2021
5120 Clouds 9 1032 61 10000 2.06 320 13:53 13.04.2021
5121 Clouds 8 1032 61 10000 2.57 290 13:27 13.04.2021
5122 Rain 8 1032 66 10000 2.06 290 12:58 13.04.2021
5123 Clouds 8 1032 66 10000 2.06 290 12:37 13.04.2021
5124 Clouds 8 1032 66 10000 1.03 0 12:18 13.04.2021
5125 Clouds 8 1032 66 10000 1.03 0 11:34 13.04.2021
5126 Clouds 7 1032 70 10000 0.51 0 10:56 13.04.2021
5127 Clouds 7 1032 70 10000 0.51 0 10:56 13.04.2021
5128 Clouds 7 1032 70 10000 0.51 0 10:37 13.04.2021
5129 Clouds 5 1032 81 10000 1.54 0 10:18 13.04.2021
5130 Clouds 4 1032 87 10000 0.51 0 09:40 13.04.2021
5131 Clouds 2 1032 93 10000 1.03 0 09:18 13.04.2021
5132 Clouds 1 1031 93 10000 1.54 250 08:41 13.04.2021
5133 Clouds 1 1031 93 10000 1.03 0 08:20 13.04.2021
5134 Clouds 1 1031 93 10000 1.03 240 07:36 13.04.2021
5135 Clouds 1 1031 93 10000 1.54 240 06:51 13.04.2021
5136 Clouds 2 1031 87 10000 1.54 250 04:52 13.04.2021
5137 Clouds 3 1031 75 10000 1.54 230 02:41 13.04.2021
5138 Clear 2 1031 80 10000 1.03 0 00:39 13.04.2021
5139 Clear 1 1030 80 10000 1.54 240 23:49 12.04.2021
5140 Clear 3 1030 75 10000 2.06 260 23:27 12.04.2021
5141 Clear 2 1030 75 10000 2.06 250 22:39 12.04.2021
5142 Clear 4 1030 65 10000 3.09 250 22:18 12.04.2021
5143 Clear 3 1030 65 10000 3.09 240 21:45 12.04.2021
5144 Clear 5 1029 60 10000 3.6 230 21:20 12.04.2021
5145 Clear 7 1029 49 10000 3.09 250 20:41 12.04.2021
5146 Clear 8 1029 42 10000 4.12 270 20:22 12.04.2021
5147 Clear 9 1029 40 10000 4.12 260 19:55 12.04.2021
5148 Clear 9 1029 40 10000 4.12 260 19:37 12.04.2021
5149 Clear 9 1029 37 10000 3.6 280 19:18 12.04.2021
5150 Clear 9 1028 37 10000 3.6 280 18:44 12.04.2021
5151 Clear 9 1028 40 10000 3.09 280 18:25 12.04.2021
5152 Clear 8 1028 39 10000 2.57 300 17:43 12.04.2021
5153 Clear 9 1029 37 10000 3.09 290 17:23 12.04.2021
5154 Clear 8 1029 39 10000 2.57 290 16:47 12.04.2021
5155 Clear 9 1029 34 10000 3.09 330 16:27 12.04.2021
5156 Clear 9 1029 34 10000 3.09 330 16:27 12.04.2021
5157 Clear 8 1029 39 10000 3.09 300 15:48 12.04.2021
5158 Clear 8 1028 39 10000 3.09 300 15:27 12.04.2021
5159 Clear 8 1028 39 10000 3.09 240 14:50 12.04.2021
5160 Clouds 7 1028 45 10000 2.06 0 14:30 12.04.2021
5161 Clouds 7 1028 45 10000 2.06 0 14:30 12.04.2021
5162 Clouds 6 1028 49 10000 1.54 0 13:46 12.04.2021
5163 Clouds 7 1028 53 10000 2.06 290 13:27 12.04.2021
5164 Clear 6 1028 56 10000 2.06 240 12:48 12.04.2021
5165 Clear 5 1028 65 10000 1.54 0 12:26 12.04.2021
5166 Clear 4 1028 70 10000 1.03 0 11:59 12.04.2021
5167 Clear 4 1028 70 10000 1.03 0 11:59 12.04.2021
5168 Clear 3 1028 81 10000 0.51 0 11:20 12.04.2021
5169 Clear 2 1028 93 10000 1.03 0 10:43 12.04.2021
5170 Clear 1 1028 100 10000 1.03 0 10:23 12.04.2021
5171 Clear 0 1028 100 10000 1.03 0 09:46 12.04.2021
5172 Clear -1 1027 93 10000 0.51 0 09:18 12.04.2021
5173 Clear -5 1027 100 10000 1.03 240 08:36 12.04.2021
5174 Fog -5 1027 100 900 1.03 250 07:40 12.04.2021
5175 Fog -4 1026 93 800 1.03 230 07:20 12.04.2021
5176 Clear -4 1026 100 10000 0.51 290 05:52 12.04.2021
5177 Clear -3 1026 93 10000 1.54 240 04:48 12.04.2021
5178 Clouds -1 1025 100 10000 1.54 250 01:31 12.04.2021
5179 Clouds -1 1024 93 10000 3.09 230 00:25 12.04.2021
5180 Clouds 0 1024 93 10000 1.03 0 23:48 11.04.2021
5181 Clouds 0 1024 86 10000 2.06 340 23:27 11.04.2021
5182 Clouds 1 1024 86 10000 2.06 210 22:46 11.04.2021
5183 Clouds 2 1024 87 10000 4.12 210 22:25 11.04.2021
5184 Clouds 2 1023 80 10000 1.54 0 21:49 11.04.2021
5185 Clouds 2 1023 80 10000 3.09 260 21:30 11.04.2021
5186 Clouds 3 1023 75 10000 4.12 300 20:57 11.04.2021
5187 Clouds 4 1023 70 10000 4.63 310 20:30 11.04.2021
5188 Clouds 5 1022 52 10000 4.12 260 19:56 11.04.2021
5189 Clouds 6 1022 52 10000 4.12 260 19:37 11.04.2021
5190 Clouds 5 1021 52 10000 4.12 260 19:19 11.04.2021
5191 Clouds 6 1021 45 10000 4.63 290 18:42 11.04.2021
5192 Clouds 6 1021 42 10000 4.12 300 18:24 11.04.2021
5193 Clouds 6 1021 42 10000 6.17 310 17:46 11.04.2021
5194 Clouds 7 1021 36 10000 3.6 280 17:27 11.04.2021
5195 Clouds 7 1021 36 10000 5.14 290 16:51 11.04.2021
5196 Clouds 7 1021 36 10000 4.63 300 16:23 11.04.2021
5197 Clouds 7 1021 36 10000 2.57 270 15:54 11.04.2021
5198 Clouds 8 1021 34 10000 3.09 330 15:28 11.04.2021
5199 Clouds 7 1021 39 10000 2.06 270 14:59 11.04.2021
5200 Clouds 7 1021 39 10000 2.06 270 14:41 11.04.2021
5201 Clouds 6 1021 42 10000 2.57 360 13:52 11.04.2021
5202 Clouds 6 1021 49 10000 1.54 0 13:31 11.04.2021
5203 Clouds 5 1021 52 10000 1.54 0 12:54 11.04.2021
5204 Clouds 5 1021 60 10000 1.54 0 12:21 11.04.2021
5205 Clouds 5 1021 60 10000 1.03 0 11:52 11.04.2021
5206 Clouds 3 1021 70 10000 1.03 0 11:24 11.04.2021
5207 Clouds 2 1021 80 10000 1.54 0 10:49 11.04.2021
5208 Clouds 1 1021 86 10000 0.51 0 10:31 11.04.2021
5209 Snow 1 1021 93 10000 0.51 0 09:57 11.04.2021
5210 Snow 1 1021 93 10000 0.51 0 09:33 11.04.2021
5211 Clouds -2 1021 100 10000 0.76 317 08:54 11.04.2021
5212 Clouds -4 1021 100 10000 1.03 250 08:25 11.04.2021
5213 Clouds -3 1020 100 10000 1.54 250 07:22 11.04.2021
5214 Clouds -3 1020 100 10000 1.03 200 06:51 11.04.2021
5215 Clouds -3 1020 93 10000 1.54 250 05:42 11.04.2021
5216 Clouds -2 1020 93 10000 1.54 260 05:20 11.04.2021
5217 Clouds -2 1020 100 10000 2.06 250 04:34 11.04.2021
5218 Clouds 0 1020 86 10000 1.03 40 01:49 11.04.2021
5219 Snow 1 1020 86 10000 1.03 40 00:34 11.04.2021
5220 Snow 0 1019 80 10000 2.57 30 23:48 10.04.2021
5221 Clouds 2 1019 80 10000 2.57 40 23:25 10.04.2021
5222 Clouds 2 1019 80 10000 2.57 40 23:25 10.04.2021
5223 Clouds 3 1019 75 10000 2.06 70 22:43 10.04.2021
5224 Clouds 2 1019 80 10000 3.09 50 22:20 10.04.2021
5225 Clouds 3 1019 75 10000 3.6 30 21:41 10.04.2021
5226 Clouds 4 1018 65 10000 3.09 10 21:21 10.04.2021
5227 Clouds 4 1018 70 10000 3.09 30 20:44 10.04.2021
5228 Rain 5 1017 56 10000 5.14 340 20:23 10.04.2021
5229 Rain 5 1017 56 10000 5.14 340 20:23 10.04.2021
5230 Clouds 6 1017 52 10000 4.63 310 19:44 10.04.2021
5231 Clouds 6 1017 53 10000 5.14 310 19:25 10.04.2021
5232 Clouds 7 1017 53 10000 4.12 310 18:50 10.04.2021
5233 Clouds 7 1017 53 10000 4.63 290 18:28 10.04.2021
5234 Clouds 7 1017 46 10000 2.06 0 17:38 10.04.2021
5235 Clouds 6 1018 70 10000 3.6 40 16:57 10.04.2021
5236 Clouds 6 1018 60 10000 6.69 10 16:27 10.04.2021
5237 Rain 6 1017 45 10000 1.03 0 15:54 10.04.2021
5238 Clouds 6 1018 45 10000 1.54 0 15:19 10.04.2021
5239 Clouds 6 1018 45 10000 1.54 0 14:41 10.04.2021
5240 Clouds 6 1018 49 10000 1.03 0 14:18 10.04.2021
5241 Clouds 6 1017 49 10000 1.03 0 13:41 10.04.2021
5242 Clouds 6 1018 49 10000 1.03 0 12:53 10.04.2021
5243 Clouds 5 1018 56 10000 1.03 0 12:28 10.04.2021
5244 Clouds 5 1017 65 10000 0.51 0 11:47 10.04.2021
5245 Clouds 3 1017 75 10000 1.03 0 11:25 10.04.2021
5246 Clouds 3 1017 80 10000 1.03 0 10:52 10.04.2021
5247 Clouds 1 1017 86 10000 1.03 0 10:31 10.04.2021
5248 Clouds 0 1017 93 10000 0.51 0 09:48 10.04.2021
5249 Clouds -1 1017 100 10000 0.51 0 09:20 10.04.2021
5250 Clouds -2 1017 93 10000 1.03 0 08:47 10.04.2021
5251 Clouds -3 1017 93 10000 0.51 0 08:28 10.04.2021
5252 Clouds -4 1017 93 10000 0.51 0 07:38 10.04.2021
5253 Clouds -5 1017 100 10000 1.54 0 07:19 10.04.2021
5254 Clear -3 1017 93 10000 1.03 250 06:24 10.04.2021
5255 Clear -2 1017 93 10000 1.54 0 03:49 10.04.2021
5256 Clear -2 1016 93 10000 1.03 0 02:50 10.04.2021
5257 Clear -1 1016 86 10000 2.57 270 02:18 10.04.2021
5258 Clear 0 1016 80 10000 2.57 270 00:41 10.04.2021
5259 Clear 0 1016 80 10000 2.57 240 00:19 10.04.2021
5260 Clear 0 1015 80 10000 2.57 270 23:37 09.04.2021
5261 Clear 2 1015 69 10000 3.6 270 22:58 09.04.2021
5262 Clear 2 1015 69 10000 3.6 270 22:37 09.04.2021
5263 Clear 3 1015 60 10000 4.63 310 21:55 09.04.2021
5264 Clear 3 1015 60 10000 4.63 310 21:37 09.04.2021
5265 Clouds 4 1014 56 10000 5.14 310 21:18 09.04.2021
5266 Clouds 5 1014 52 10000 4.12 300 20:40 09.04.2021
5267 Clouds 5 1014 52 10000 4.12 300 20:40 09.04.2021
5268 Clouds 6 1014 49 10000 5.66 310 20:21 09.04.2021
5269 Clouds 6 1014 49 10000 5.66 290 19:43 09.04.2021
5270 Clouds 6 1014 45 10000 7.2 280 19:23 09.04.2021
5271 Clouds 7 1014 45 10000 6.69 270 18:50 09.04.2021
5272 Clouds 7 1013 45 10000 6.17 280 18:29 09.04.2021
5273 Clouds 7 1013 42 10000 6.69 290 17:52 09.04.2021
5274 Clouds 7 1013 45 10000 5.14 310 17:33 09.04.2021
5275 Clouds 7 1013 45 10000 4.63 290 16:55 09.04.2021
5276 Clouds 7 1013 45 10000 4.12 260 16:32 09.04.2021
5277 Clouds 7 1013 53 10000 6.17 310 15:50 09.04.2021
5278 Clouds 7 1013 39 10000 6.69 290 15:25 09.04.2021
5279 Clouds 6 1013 45 10000 6.17 290 14:47 09.04.2021
5280 Clouds 7 1013 45 10000 7.2 290 14:29 09.04.2021
5281 Clouds 6 1013 49 10000 7.72 290 13:49 09.04.2021
5282 Clouds 6 1013 49 10000 6.17 290 13:23 09.04.2021
5283 Clouds 5 1013 52 10000 7.2 280 12:48 09.04.2021
5284 Clouds 5 1013 52 10000 7.2 280 12:48 09.04.2021
5285 Clear 5 1012 56 10000 6.69 290 12:27 09.04.2021
5286 Clear 5 1012 56 10000 5.66 290 11:44 09.04.2021
5287 Clear 5 1012 56 10000 4.63 300 11:21 09.04.2021
5288 Clear 4 1012 65 10000 4.63 290 10:40 09.04.2021
5289 Clear 4 1012 65 10000 3.6 290 10:18 09.04.2021
5290 Clear 2 1011 80 10000 1.03 0 09:29 09.04.2021
5291 Clear 1 1011 86 10000 2.06 220 08:56 09.04.2021
5292 Clear 1 1011 86 10000 2.06 220 08:34 09.04.2021
5293 Clear 1 1010 80 10000 3.6 290 07:34 09.04.2021
5294 Clear 2 1009 75 10000 3.09 280 06:30 09.04.2021
5295 Clear 2 1009 80 10000 1.54 0 05:44 09.04.2021
5296 Clear 4 1008 75 10000 5.14 300 03:43 09.04.2021
5297 Clouds 4 1007 81 10000 5.66 240 00:39 09.04.2021
5298 Clouds 5 1006 81 10000 5.66 240 00:21 09.04.2021
5299 Clouds 5 1006 75 10000 5.66 230 23:56 08.04.2021
5300 Clouds 5 1006 75 10000 6.17 240 22:56 08.04.2021
5301 Clouds 5 1006 75 10000 6.17 240 22:36 08.04.2021
5302 Clouds 5 1006 81 10000 5.66 250 22:18 08.04.2021
5303 Clouds 5 1006 81 10000 5.66 240 21:41 08.04.2021
5304 Clouds 6 1006 81 10000 6.17 250 21:22 08.04.2021
5305 Rain 6 1006 81 10000 6.69 260 20:59 08.04.2021
5306 Rain 6 1006 81 10000 6.69 260 20:40 08.04.2021
5307 Rain 6 1006 87 10000 7.2 270 20:19 08.04.2021
5308 Rain 6 1006 87 10000 5.66 280 19:40 08.04.2021
5309 Rain 6 1006 81 9000 9.77 250 19:19 08.04.2021
5310 Rain 8 1005 87 10000 9.26 220 18:42 08.04.2021
5311 Rain 8 1005 87 10000 9.26 220 18:42 08.04.2021
5312 Rain 8 1006 81 10000 11.32 230 18:19 08.04.2021
5313 Rain 8 1006 87 10000 9.77 230 17:42 08.04.2021
5314 Rain 8 1007 81 10000 9.77 210 17:20 08.04.2021
5315 Rain 8 1008 81 10000 7.72 220 16:45 08.04.2021
5316 Rain 8 1008 81 10000 12.35 220 16:22 08.04.2021
5317 Rain 8 1009 81 10000 9.26 220 15:46 08.04.2021
5318 Rain 9 1009 71 10000 11.83 240 15:26 08.04.2021
5319 Clouds 9 1009 71 10000 12.86 240 14:43 08.04.2021
5320 Clouds 9 1010 81 10000 11.83 240 14:21 08.04.2021
5321 Clouds 8 1010 87 10000 11.32 240 13:49 08.04.2021
5322 Rain 9 1010 81 10000 11.83 240 13:24 08.04.2021
5323 Rain 9 1010 81 10000 12.35 250 12:57 08.04.2021
5324 Clouds 9 1010 81 10000 12.35 250 12:33 08.04.2021
5325 Clouds 9 1010 76 10000 11.83 250 11:57 08.04.2021
5326 Clouds 9 1011 76 10000 11.83 250 11:26 08.04.2021
5327 Clouds 9 1011 81 10000 11.32 250 10:55 08.04.2021
5328 Clouds 8 1012 87 10000 9.26 250 10:25 08.04.2021
5329 Clouds 8 1012 87 10000 9.26 250 09:46 08.04.2021
5330 Clouds 8 1012 87 10000 10.8 240 09:26 08.04.2021
5331 Clouds 8 1012 81 10000 10.29 250 08:44 08.04.2021
5332 Clouds 8 1012 81 10000 9.77 250 08:22 08.04.2021
5333 Clouds 8 1013 81 10000 9.26 260 07:45 08.04.2021
5334 Clouds 6 1014 93 10000 6.17 220 05:45 08.04.2021
5335 Clouds 4 1019 81 10000 3.6 230 01:25 08.04.2021
5336 Clouds 3 1020 81 10000 3.09 220 00:31 08.04.2021
5337 Clouds 3 1020 81 10000 4.12 210 23:48 07.04.2021
5338 Clouds 2 1020 75 10000 2.57 230 23:25 07.04.2021
5339 Clouds 3 1020 70 10000 3.09 240 22:56 07.04.2021
5340 Clouds 3 1020 70 10000 3.09 240 22:38 07.04.2021
5341 Clouds 4 1020 65 10000 1.54 240 22:19 07.04.2021
5342 Clouds 4 1021 65 10000 2.06 260 21:34 07.04.2021
5343 Clouds 5 1021 60 10000 2.57 280 20:52 07.04.2021
5344 Clouds 5 1021 60 10000 3.6 300 20:29 07.04.2021
5345 Clouds 6 1021 52 10000 4.63 290 19:52 07.04.2021
5346 Clouds 6 1021 52 10000 4.63 290 19:33 07.04.2021
5347 Clouds 6 1021 52 10000 4.63 270 18:57 07.04.2021
5348 Clouds 6 1021 52 10000 4.63 270 18:39 07.04.2021
5349 Clouds 6 1021 52 10000 4.63 290 18:18 07.04.2021
5350 Clouds 6 1021 52 10000 4.12 300 17:43 07.04.2021
5351 Clouds 6 1022 49 10000 4.63 290 17:24 07.04.2021
5352 Clouds 6 1022 45 10000 4.63 290 16:45 07.04.2021
5353 Clouds 6 1022 49 10000 5.66 280 16:21 07.04.2021
5354 Clouds 7 1022 45 10000 5.66 290 15:53 07.04.2021
5355 Clouds 6 1022 42 10000 5.66 280 15:25 07.04.2021
5356 Clouds 6 1022 45 10000 5.66 290 14:42 07.04.2021
5357 Clouds 6 1022 45 10000 6.17 290 14:19 07.04.2021
5358 Clouds 6 1022 45 10000 7.2 290 13:38 07.04.2021
5359 Clouds 6 1022 45 10000 5.14 310 13:20 07.04.2021
5360 Clouds 5 1022 45 10000 5.14 300 12:42 07.04.2021
5361 Clouds 5 1023 48 10000 5.14 300 12:18 07.04.2021
5362 Clouds 4 1023 48 10000 4.12 300 11:41 07.04.2021
5363 Clouds 4 1023 52 10000 4.12 290 11:21 07.04.2021
5364 Clouds 4 1023 56 10000 4.63 290 10:46 07.04.2021
5365 Clouds 2 1023 69 10000 3.09 280 09:47 07.04.2021
5366 Clouds 1 1023 74 10000 2.57 250 09:28 07.04.2021
5367 Clouds 0 1023 86 10000 3.09 250 08:51 07.04.2021
5368 Clouds 0 1022 74 10000 3.09 240 08:30 07.04.2021
5369 Clouds 0 1022 74 10000 4.12 280 07:48 07.04.2021
5370 Clouds 0 1022 74 10000 3.6 270 07:28 07.04.2021
5371 Clouds 0 1022 80 10000 3.09 260 06:39 07.04.2021
5372 Clear -1 1022 80 10000 3.6 240 04:37 07.04.2021
5373 Clear 0 1023 69 10000 2.06 280 01:21 07.04.2021
5374 Clear 1 1022 64 10000 3.09 290 23:47 06.04.2021
5375 Clouds 1 1022 64 10000 3.09 280 23:22 06.04.2021
5376 Clouds 2 1022 60 10000 4.12 300 22:50 06.04.2021
5377 Clouds 2 1022 55 10000 4.12 310 22:21 06.04.2021
5378 Clouds 3 1022 48 10000 4.12 300 21:43 06.04.2021
5379 Clouds 4 1022 45 10000 4.63 300 21:23 06.04.2021
5380 Clouds 4 1022 45 10000 4.63 290 20:55 06.04.2021
5381 Clouds 5 1022 42 10000 2.57 340 20:26 06.04.2021
5382 Clouds 5 1022 42 10000 2.57 340 20:26 06.04.2021
5383 Clouds 5 1022 38 10000 5.14 330 19:59 06.04.2021
5384 Clouds 5 1022 38 10000 5.14 330 19:38 06.04.2021
5385 Clouds 5 1021 42 10000 4.63 330 19:19 06.04.2021
5386 Clouds 6 1022 39 10000 5.66 320 18:41 06.04.2021
5387 Clouds 6 1022 45 10000 6.17 340 18:19 06.04.2021
5388 Clouds 5 1021 48 10000 7.2 10 17:44 06.04.2021
5389 Clouds 6 1021 39 10000 5.14 310 17:19 06.04.2021
5390 Clouds 6 1021 39 10000 7.72 320 16:46 06.04.2021
5391 Clouds 6 1021 42 10000 6.17 330 16:26 06.04.2021
5392 Clouds 6 1021 36 10000 7.2 320 15:27 06.04.2021
5393 Clouds 5 1021 39 10000 8.23 340 14:45 06.04.2021
5394 Clouds 5 1021 39 10000 8.23 340 14:45 06.04.2021
5395 Clouds 6 1021 39 10000 5.66 310 14:24 06.04.2021
5396 Clouds 5 1021 39 10000 6.69 340 13:47 06.04.2021
5397 Clouds 4 1022 48 10000 6.69 310 13:26 06.04.2021
5398 Clouds 4 1022 52 10000 6.17 300 12:47 06.04.2021
5399 Clouds 4 1022 52 10000 6.69 300 12:28 06.04.2021
5400 Clouds 4 1022 56 10000 7.72 290 11:59 06.04.2021
5401 Clouds 4 1022 56 10000 7.72 290 11:40 06.04.2021
5402 Clouds 3 1022 60 10000 7.2 300 11:19 06.04.2021
5403 Clouds 3 1022 60 10000 7.2 300 10:42 06.04.2021
5404 Clouds 2 1022 64 10000 4.63 300 10:21 06.04.2021
5405 Clouds 2 1022 64 10000 2.57 270 09:44 06.04.2021
5406 Clouds 1 1022 69 10000 3.09 280 09:20 06.04.2021
5407 Clouds -2 1022 80 10000 1.54 270 08:26 06.04.2021
5408 Clouds -1 1022 74 10000 3.6 210 07:22 06.04.2021
5409 Clouds -2 1022 80 10000 2.57 210 06:51 06.04.2021
5410 Clouds 0 1023 74 10000 3.6 240 03:54 06.04.2021
5411 Clouds 1 1024 69 10000 4.63 300 00:49 06.04.2021
5412 Clouds 1 1024 69 10000 4.63 300 00:22 06.04.2021
5413 Clouds 1 1024 69 10000 5.14 310 23:52 05.04.2021
5414 Clouds 1 1024 69 10000 5.66 300 23:30 05.04.2021
5415 Clouds 2 1024 64 10000 5.66 300 22:58 05.04.2021
5416 Clouds 2 1024 64 10000 5.66 300 22:38 05.04.2021
5417 Clouds 3 1024 60 10000 5.14 290 21:50 05.04.2021
5418 Clouds 3 1023 65 10000 6.69 290 21:27 05.04.2021
5419 Clouds 3 1023 65 10000 6.69 290 21:27 05.04.2021
5420 Clouds 4 1023 60 10000 6.17 290 20:49 05.04.2021
5421 Clouds 5 1023 56 10000 7.2 290 20:30 05.04.2021
5422 Clouds 5 1023 56 10000 8.75 290 19:45 05.04.2021
5423 Clouds 6 1023 52 10000 8.23 290 19:27 05.04.2021
5424 Clouds 6 1023 52 10000 8.23 290 19:27 05.04.2021
5425 Clouds 6 1023 45 10000 5.66 330 18:58 05.04.2021
5426 Clouds 6 1023 45 10000 5.66 330 18:39 05.04.2021
5427 Clouds 5 1023 48 10000 5.66 310 18:19 05.04.2021
5428 Rain 6 1023 49 10000 7.72 290 17:46 05.04.2021
5429 Rain 5 1023 45 10000 7.2 310 17:21 05.04.2021
5430 Clouds 6 1023 45 10000 9.26 300 16:45 05.04.2021
5431 Clouds 6 1022 49 10000 9.26 290 16:22 05.04.2021
5432 Clouds 6 1022 42 10000 8.75 310 15:56 05.04.2021
5433 Clouds 6 1022 42 10000 8.75 310 15:32 05.04.2021
5434 Clouds 5 1022 42 10000 6.17 320 14:58 05.04.2021
5435 Clouds 5 1022 45 10000 5.14 300 14:35 05.04.2021
5436 Clouds 4 1022 52 10000 8.23 300 13:41 05.04.2021
5437 Clouds 4 1022 48 10000 9.26 300 13:22 05.04.2021
5438 Clouds 4 1022 48 10000 7.72 310 12:45 05.04.2021
5439 Clouds 3 1022 56 10000 8.23 300 12:23 05.04.2021
5440 Clouds 3 1022 52 10000 7.2 310 11:46 05.04.2021
5441 Clouds 2 1022 51 10000 7.2 290 11:27 05.04.2021
5442 Clouds 2 1022 55 10000 6.69 290 10:46 05.04.2021
5443 Clear 1 1022 55 10000 6.69 290 10:28 05.04.2021
5444 Clear 0 1021 59 10000 4.63 290 09:48 05.04.2021
5445 Clear 0 1021 59 10000 2.57 280 09:25 05.04.2021
5446 Clear -1 1021 69 10000 1.03 0 08:45 05.04.2021
5447 Clouds -1 1021 74 10000 1.54 360 08:26 05.04.2021
5448 Clouds -1 1020 69 10000 3.6 340 07:38 05.04.2021
5449 Clouds 0 1019 51 10000 4.63 360 06:40 05.04.2021
5450 Clouds 4 1016 70 10000 6.17 300 02:32 05.04.2021
5451 Clouds 5 1016 60 10000 9.26 300 00:52 05.04.2021
5452 Clouds 6 1015 61 10000 7.72 280 23:52 04.04.2021
5453 Clouds 6 1015 65 10000 9.26 280 23:29 04.04.2021
5454 Clouds 7 1015 70 10000 7.72 280 22:53 04.04.2021
5455 Clouds 7 1015 71 10000 8.23 270 22:30 04.04.2021
5456 Clouds 8 1014 87 10000 8.75 290 21:43 04.04.2021
5457 Clouds 8 1015 87 10000 7.2 250 21:19 04.04.2021
5458 Clouds 9 1015 81 10000 8.75 260 20:31 04.04.2021
5459 Rain 9 1016 81 10000 8.75 250 19:58 04.04.2021
5460 Clouds 9 1016 81 10000 8.75 250 19:38 04.04.2021
5461 Rain 9 1017 81 10000 8.75 260 19:19 04.04.2021
5462 Clouds 9 1017 76 10000 8.23 250 18:45 04.04.2021
5463 Clouds 9 1018 76 10000 9.77 260 18:24 04.04.2021
5464 Clouds 9 1018 81 10000 10.29 260 17:45 04.04.2021
5465 Clouds 9 1018 81 7000 10.29 260 17:24 04.04.2021
5466 Clouds 9 1019 76 10000 11.32 260 16:47 04.04.2021
5467 Clouds 10 1019 71 10000 10.8 270 16:20 04.04.2021
5468 Clouds 10 1020 71 10000 10.29 250 15:36 04.04.2021
5469 Clouds 9 1022 71 10000 8.23 250 14:50 04.04.2021
5470 Clouds 9 1022 71 10000 8.23 250 14:28 04.04.2021
5471 Clouds 8 1023 76 10000 7.2 240 13:52 04.04.2021
5472 Clouds 8 1023 76 10000 9.26 250 13:25 04.04.2021
5473 Clouds 8 1024 76 10000 9.77 260 12:44 04.04.2021
5474 Clouds 7 1024 81 10000 7.72 250 12:25 04.04.2021
5475 Clouds 7 1025 81 10000 5.66 250 11:42 04.04.2021
5476 Clouds 6 1025 87 10000 7.2 250 11:24 04.04.2021
5477 Clouds 6 1025 81 10000 6.17 220 10:46 04.04.2021
5478 Clouds 5 1026 87 10000 5.14 250 09:57 04.04.2021
5479 Clear 3 1026 93 10000 3.6 230 09:26 04.04.2021
5480 Clear 3 1026 93 10000 3.6 230 09:26 04.04.2021
5481 Clear 3 1026 100 10000 3.09 280 08:55 04.04.2021
5482 Clear 3 1026 100 10000 3.09 280 08:37 04.04.2021
5483 Clouds 3 1027 100 10000 3.09 220 08:19 04.04.2021
5484 Clouds 3 1028 93 10000 2.57 240 06:38 04.04.2021
5485 Clouds 3 1028 93 10000 3.09 260 05:33 04.04.2021
5486 Clouds 5 1031 93 10000 2.06 260 01:33 04.04.2021
5487 Clouds 6 1031 93 10000 2.57 260 00:23 04.04.2021
5488 Clouds 6 1031 93 10000 2.57 260 23:51 03.04.2021
5489 Clouds 6 1031 93 10000 2.57 260 23:32 03.04.2021
5490 Clouds 6 1032 87 10000 2.06 250 22:53 03.04.2021
5491 Clouds 6 1032 87 10000 2.06 230 22:22 03.04.2021
5492 Clouds 7 1032 81 10000 3.09 220 21:54 03.04.2021
5493 Clouds 8 1032 81 10000 3.09 230 21:25 03.04.2021
5494 Clouds 10 1032 76 10000 3.6 230 20:59 03.04.2021
5495 Clouds 12 1032 66 10000 4.63 230 20:28 03.04.2021
5496 Clouds 13 1032 62 10000 4.63 230 19:51 03.04.2021
5497 Clouds 14 1032 58 10000 5.14 220 19:29 03.04.2021
5498 Clouds 14 1033 58 10000 4.63 220 18:54 03.04.2021
5499 Clouds 14 1033 58 10000 4.63 220 18:34 03.04.2021
5500 Clouds 15 1033 55 10000 2.06 230 17:56 03.04.2021
5501 Clouds 15 1033 51 10000 1.03 0 17:27 03.04.2021
5502 Clouds 14 1034 54 10000 2.06 320 16:55 03.04.2021
5503 Clouds 14 1034 54 10000 2.06 0 16:28 03.04.2021
5504 Clouds 13 1034 54 10000 2.06 300 15:52 03.04.2021
5505 Clouds 13 1035 58 10000 1.54 0 15:31 03.04.2021
5506 Clouds 12 1035 58 10000 2.06 260 14:52 03.04.2021
5507 Clouds 11 1035 58 10000 2.06 260 14:26 03.04.2021
5508 Clouds 10 1035 62 10000 1.03 0 13:55 03.04.2021
5509 Clouds 10 1035 62 10000 1.03 0 13:35 03.04.2021
5510 Clouds 9 1036 71 10000 1.03 0 12:59 03.04.2021
5511 Clouds 10 1036 71 10000 1.03 0 12:34 03.04.2021
5512 Clouds 8 1036 76 10000 0.51 0 11:45 03.04.2021
5513 Clouds 7 1036 76 10000 1.03 0 11:26 03.04.2021
5514 Clouds 6 1036 87 10000 1.03 0 10:45 03.04.2021
5515 Clouds 4 1036 93 10000 1.03 0 10:26 03.04.2021
5516 Clouds 3 1036 100 10000 1.03 20 09:39 03.04.2021
5517 Clouds 2 1036 100 7000 0.51 0 09:21 03.04.2021
5518 Clouds 0 1036 100 7000 1.03 230 08:35 03.04.2021
5519 Clear 0 1036 93 10000 1.03 250 07:40 03.04.2021
5520 Clear 0 1036 93 7000 1.03 210 07:22 03.04.2021
5521 Clear 2 1037 93 10000 2.57 230 03:54 03.04.2021
5522 Clear 3 1037 87 10000 1.54 250 02:55 03.04.2021
5523 Clear 2 1036 87 10000 2.57 230 02:30 03.04.2021
5524 Clear 6 1036 75 10000 1.54 0 00:32 03.04.2021
5525 Clouds 8 1036 71 10000 2.06 20 23:59 02.04.2021
5526 Clouds 7 1036 71 10000 2.06 20 23:38 02.04.2021
5527 Clouds 7 1036 66 10000 2.57 20 23:18 02.04.2021
5528 Clouds 7 1035 66 10000 1.54 40 22:43 02.04.2021
5529 Clouds 9 1035 66 10000 2.06 30 22:23 02.04.2021
5530 Clouds 9 1035 61 10000 1.03 0 21:41 02.04.2021
5531 Clouds 10 1035 62 10000 2.57 10 21:18 02.04.2021
5532 Clouds 11 1035 58 10000 2.57 20 20:39 02.04.2021
5533 Clouds 11 1035 58 10000 3.09 10 20:20 02.04.2021
5534 Clouds 11 1034 58 10000 2.57 40 19:41 02.04.2021
5535 Clouds 12 1034 50 10000 1.54 0 19:22 02.04.2021
5536 Clouds 12 1034 54 10000 2.57 70 18:46 02.04.2021
5537 Clouds 13 1034 47 10000 3.09 80 18:28 02.04.2021
5538 Clouds 12 1034 50 10000 3.09 20 17:56 02.04.2021
5539 Clear 12 1034 50 10000 2.06 0 17:25 02.04.2021
5540 Clouds 12 1034 54 10000 2.57 350 16:24 02.04.2021
5541 Clear 12 1035 50 10000 2.06 0 15:43 02.04.2021
5542 Clouds 11 1035 54 10000 3.6 50 15:20 02.04.2021
5543 Clear 11 1035 54 10000 2.06 40 14:33 02.04.2021
5544 Clear 9 1035 57 10000 3.09 90 13:50 02.04.2021
5545 Clear 9 1035 57 10000 2.57 100 13:28 02.04.2021
5546 Clear 8 1035 61 10000 2.06 100 12:55 02.04.2021
5547 Clear 7 1035 65 10000 2.06 90 12:21 02.04.2021
5548 Clear 8 1035 70 10000 1.03 0 11:59 02.04.2021
5549 Clear 7 1035 70 10000 1.03 0 11:38 02.04.2021
5550 Clear 5 1035 81 10000 1.03 0 11:18 02.04.2021
5551 Clear 4 1035 81 10000 1.54 0 10:42 02.04.2021
5552 Clear 3 1035 87 10000 2.06 70 10:20 02.04.2021
5553 Clear 2 1034 93 10000 1.03 60 09:39 02.04.2021
5554 Clear 0 1034 100 10000 1.03 80 09:20 02.04.2021
5555 Clear -2 1034 100 10000 1.03 90 08:44 02.04.2021
5556 Clear -2 1034 100 10000 0.51 0 08:22 02.04.2021
5557 Clear -2 1033 93 10000 1.03 360 07:19 02.04.2021
5558 Clear -2 1033 93 10000 2.06 230 06:31 02.04.2021
5559 Clear 0 1034 93 10000 1.03 250 03:24 02.04.2021
5560 Clear 2 1033 80 10000 3.09 60 00:56 02.04.2021
5561 Clear 2 1033 80 10000 3.09 60 00:36 02.04.2021
5562 Clear 3 1033 75 10000 3.09 60 23:42 01.04.2021
5563 Clear 4 1033 75 10000 2.57 70 23:24 01.04.2021
5564 Clear 4 1032 70 10000 3.09 50 22:22 01.04.2021
5565 Clear 6 1032 61 10000 3.6 80 21:52 01.04.2021
5566 Clear 7 1032 57 10000 5.14 70 21:29 01.04.2021
5567 Clear 7 1032 61 10000 4.12 70 21:00 01.04.2021
5568 Clear 7 1032 61 10000 4.12 70 20:33 01.04.2021
5569 Clouds 9 1031 53 10000 5.14 90 19:57 01.04.2021
5570 Clouds 9 1031 53 10000 5.14 90 19:39 01.04.2021
5571 Clouds 9 1031 57 10000 5.66 50 18:51 01.04.2021
5572 Clouds 10 1031 53 10000 5.14 80 18:19 01.04.2021
5573 Clouds 10 1031 57 10000 5.66 50 17:58 01.04.2021
5574 Clouds 10 1031 57 10000 5.66 50 17:38 01.04.2021
5575 Clouds 9 1031 57 10000 4.63 90 17:19 01.04.2021
5576 Clouds 9 1031 57 10000 5.14 90 16:41 01.04.2021
5577 Clouds 9 1031 57 10000 5.14 90 16:41 01.04.2021
5578 Clouds 9 1031 57 10000 5.66 80 15:49 01.04.2021
5579 Clouds 8 1031 66 10000 6.17 100 15:23 01.04.2021
5580 Clouds 8 1031 61 10000 6.69 80 14:51 01.04.2021
5581 Clouds 8 1031 61 10000 7.72 80 14:29 01.04.2021
5582 Clouds 7 1031 61 10000 6.17 80 13:59 01.04.2021
5583 Clouds 7 1031 61 10000 6.17 80 13:32 01.04.2021
5584 Clouds 7 1031 65 10000 7.2 80 12:58 01.04.2021
5585 Clouds 6 1031 65 10000 7.2 80 12:37 01.04.2021
5586 Clouds 6 1031 65 10000 7.72 80 12:18 01.04.2021
5587 Clouds 6 1031 70 10000 6.17 80 11:42 01.04.2021
5588 Clouds 6 1031 70 10000 6.69 70 11:18 01.04.2021
5589 Clouds 5 1030 75 10000 6.17 60 10:46 01.04.2021
5590 Clouds 5 1030 75 10000 5.66 60 10:25 01.04.2021
5591 Clouds 4 1030 75 10000 4.63 60 09:32 01.04.2021
5592 Clouds 4 1030 81 10000 4.63 60 08:54 01.04.2021
5593 Clouds 4 1030 81 10000 4.63 60 08:32 01.04.2021
5594 Clouds 4 1029 81 10000 4.63 60 07:22 01.04.2021
5595 Clouds 4 1029 81 10000 4.63 60 06:56 01.04.2021
5596 Clouds 5 1029 75 10000 5.14 60 06:20 01.04.2021
5597 Clouds 5 1028 81 10000 6.17 60 03:20 01.04.2021
5598 Clouds 6 1027 81 10000 8.23 70 00:19 01.04.2021
5599 Clouds 6 1026 81 10000 6.17 70 23:40 31.03.2021
5600 Clouds 6 1026 81 10000 6.17 70 22:45 31.03.2021
5601 Clouds 6 1026 81 10000 6.17 70 22:23 31.03.2021
5602 Clouds 6 1025 87 10000 6.69 70 21:57 31.03.2021
5603 Clouds 6 1025 87 10000 6.69 70 21:39 31.03.2021
5604 Clouds 6 1025 81 10000 8.23 80 21:19 31.03.2021
5605 Clouds 6 1025 81 10000 6.69 70 20:41 31.03.2021
5606 Clouds 7 1024 81 10000 7.2 70 20:21 31.03.2021
5607 Clouds 7 1023 87 10000 7.2 80 19:42 31.03.2021
5608 Clouds 7 1023 87 10000 8.23 70 19:21 31.03.2021
5609 Clouds 7 1023 81 10000 9.26 70 18:55 31.03.2021
5610 Clouds 8 1023 81 10000 9.26 70 18:35 31.03.2021
5611 Clouds 9 1022 81 10000 8.75 80 17:44 31.03.2021
5612 Clouds 9 1022 87 10000 6.69 80 17:20 31.03.2021
5613 Clouds 9 1021 87 10000 8.75 90 16:55 31.03.2021
5614 Rain 9 1021 87 10000 8.75 90 16:35 31.03.2021
5615 Rain 11 1020 87 4900 8.23 70 15:54 31.03.2021
5616 Haze 13 1020 76 3500 4.63 50 15:22 31.03.2021
5617 Haze 13 1020 76 4900 3.09 40 14:50 31.03.2021
5618 Clouds 13 1020 71 10000 1.54 0 14:26 31.03.2021
5619 Clouds 12 1019 76 8000 1.03 0 13:55 31.03.2021
5620 Clouds 12 1019 76 10000 1.03 0 13:24 31.03.2021
5621 Clouds 11 1019 82 10000 1.03 0 12:41 31.03.2021
5622 Haze 11 1019 82 4900 1.03 0 12:18 31.03.2021
5623 Clouds 10 1019 81 10000 1.03 0 11:23 31.03.2021
5624 Clouds 9 1019 87 10000 1.54 0 10:50 31.03.2021
5625 Clouds 9 1018 93 10000 1.03 40 10:28 31.03.2021
5626 Clouds 8 1019 93 10000 0.51 60 09:56 31.03.2021
5627 Clouds 7 1018 100 10000 0.51 0 09:31 31.03.2021
5628 Clouds 8 1018 100 10000 1.03 0 08:46 31.03.2021
5629 Clouds 6 1018 100 8000 1.03 150 08:26 31.03.2021
5630 Clouds 6 1018 100 8000 0.51 40 07:37 31.03.2021
5631 Clouds 7 1019 93 9000 1.54 60 05:21 31.03.2021
5632 Clouds 8 1020 93 10000 0.51 0 02:37 31.03.2021
5633 Haze 9 1020 87 4300 0.51 0 00:54 31.03.2021
5634 Haze 9 1020 87 2600 1.54 340 00:25 31.03.2021
5635 Clouds 9 1021 87 10000 2.57 180 23:57 30.03.2021
5636 Clouds 10 1021 81 10000 2.57 200 23:25 30.03.2021
5637 Clouds 10 1021 87 10000 1.54 0 22:50 30.03.2021
5638 Clouds 11 1021 82 10000 1.03 0 22:30 30.03.2021
5639 Clouds 11 1021 82 10000 1.03 0 21:57 30.03.2021
5640 Clouds 11 1021 82 10000 2.06 250 21:29 30.03.2021
5641 Clouds 12 1021 87 10000 3.09 230 20:59 30.03.2021
5642 Clouds 12 1021 87 10000 3.09 230 20:38 30.03.2021
5643 Clouds 12 1021 82 10000 5.14 220 20:19 30.03.2021
5644 Clouds 14 1021 72 10000 4.63 230 19:41 30.03.2021
5645 Clouds 14 1021 72 10000 7.72 220 18:57 30.03.2021
5646 Clouds 14 1022 72 10000 8.75 210 18:27 30.03.2021
5647 Clouds 14 1022 77 10000 8.75 220 17:47 30.03.2021
5648 Clouds 14 1022 72 10000 9.26 210 17:29 30.03.2021
5649 Clouds 14 1022 72 10000 9.77 210 16:47 30.03.2021
5650 Clouds 14 1022 72 10000 10.8 210 16:27 30.03.2021
5651 Clouds 14 1022 77 10000 9.77 210 15:38 30.03.2021
5652 Clouds 14 1023 72 10000 11.32 220 15:19 30.03.2021
5653 Clouds 14 1023 76 10000 12.35 210 14:45 30.03.2021
5654 Clouds 14 1023 76 10000 10.8 200 14:20 30.03.2021
5655 Clouds 13 1023 76 10000 8.75 210 13:49 30.03.2021
5656 Clouds 13 1023 76 10000 10.29 210 13:24 30.03.2021
5657 Clouds 13 1023 76 10000 9.26 210 12:41 30.03.2021
5658 Clouds 13 1023 76 10000 9.26 210 12:41 30.03.2021
5659 Clouds 13 1023 82 10000 6.69 220 12:21 30.03.2021
5660 Clouds 12 1023 82 10000 6.17 230 11:43 30.03.2021
5661 Clouds 12 1023 87 10000 6.17 220 11:19 30.03.2021
5662 Clouds 12 1022 82 10000 7.2 220 10:41 30.03.2021
5663 Clouds 12 1022 87 10000 4.12 230 10:19 30.03.2021
5664 Clouds 12 1022 87 10000 5.14 230 09:41 30.03.2021
5665 Clouds 12 1022 87 10000 5.14 230 09:41 30.03.2021
5666 Clouds 11 1022 93 10000 2.57 240 09:21 30.03.2021
5667 Clouds 11 1022 93 10000 4.12 230 08:42 30.03.2021
5668 Clouds 10 1021 93 10000 4.63 230 07:56 30.03.2021
5669 Clouds 11 1021 87 10000 3.09 240 07:31 30.03.2021
5670 Clouds 11 1021 87 10000 6.17 230 06:30 30.03.2021
5671 Clouds 11 1021 87 10000 6.69 220 05:25 30.03.2021
5672 Clouds 11 1020 87 10000 5.66 230 01:47 30.03.2021
5673 Clouds 11 1019 93 10000 7.72 240 23:54 29.03.2021
5674 Clouds 11 1019 93 10000 7.72 240 23:21 29.03.2021
5675 Clouds 12 1018 87 10000 8.23 230 22:43 29.03.2021
5676 Clouds 12 1018 87 10000 7.2 240 21:55 29.03.2021
5677 Clouds 13 1018 87 10000 7.2 240 21:34 29.03.2021
5678 Clouds 13 1017 88 10000 8.23 220 20:51 29.03.2021
5679 Clouds 13 1016 88 10000 9.26 230 20:30 29.03.2021
5680 Clouds 13 1016 88 10000 9.26 220 19:56 29.03.2021
5681 Clouds 13 1015 88 10000 9.77 220 19:28 29.03.2021
5682 Clouds 14 1015 88 10000 9.26 230 18:56 29.03.2021
5683 Clouds 14 1015 88 10000 9.26 230 18:37 29.03.2021
5684 Clouds 14 1015 88 10000 9.26 230 18:18 29.03.2021
5685 Clouds 14 1015 88 10000 10.29 230 17:35 29.03.2021
5686 Clouds 14 1014 88 10000 10.8 220 16:53 29.03.2021
5687 Clouds 14 1014 88 10000 9.77 230 16:30 29.03.2021
5688 Clouds 13 1014 94 10000 10.8 220 15:43 29.03.2021
5689 Clouds 13 1014 94 10000 10.8 220 15:24 29.03.2021
5690 Clouds 13 1013 94 3500 9.26 220 14:48 29.03.2021
5691 Clouds 13 1013 94 9000 9.26 230 14:21 29.03.2021
5692 Rain 13 1013 94 10000 9.26 230 13:40 29.03.2021
5693 Rain 12 1012 94 10000 8.23 230 13:18 29.03.2021
5694 Rain 12 1012 100 10000 8.75 230 12:49 29.03.2021
5695 Rain 12 1011 100 4000 10.29 220 11:48 29.03.2021
5696 Rain 12 1011 94 3800 10.29 220 11:28 29.03.2021
5697 Clouds 12 1010 94 2900 7.2 230 10:49 29.03.2021
5698 Rain 12 1010 94 2700 9.26 220 10:23 29.03.2021
5699 Rain 12 1009 94 2500 10.29 220 09:33 29.03.2021
5700 Rain 12 1008 100 3500 12.35 220 08:43 29.03.2021
5701 Rain 12 1007 94 3900 12.35 220 08:25 29.03.2021
5702 Rain 12 1007 94 3100 11.32 220 07:20 29.03.2021
5703 Rain 12 1006 94 6000 13.38 220 06:25 29.03.2021
5704 Rain 12 1004 94 10000 12.86 220 02:58 29.03.2021
5705 Clouds 13 1004 88 10000 12.86 210 00:45 29.03.2021
5706 Rain 13 1004 88 8000 11.83 210 00:18 29.03.2021
5707 Rain 12 1004 94 3700 12.35 210 23:30 28.03.2021
5708 Rain 12 1003 94 3200 11.32 220 22:50 28.03.2021
5709 Rain 12 1003 94 2800 11.83 220 22:30 28.03.2021
5710 Rain 12 1003 94 2900 13.38 220 21:49 28.03.2021
5711 Rain 12 1002 94 2500 14.4 220 21:26 28.03.2021
5712 Rain 12 1002 88 3000 15.43 210 20:58 28.03.2021
5713 Rain 13 1002 88 3000 15.43 210 20:40 28.03.2021
5714 Rain 13 1002 88 3000 15.43 210 20:40 28.03.2021
5715 Rain 13 1001 88 7000 14.92 210 20:19 28.03.2021
5716 Rain 12 1001 94 3800 12.86 200 19:42 28.03.2021
5717 Rain 12 1001 94 4300 12.35 200 19:21 28.03.2021
5718 Rain 12 1002 87 3600 11.83 200 18:51 28.03.2021
5719 Rain 11 1002 93 2900 7.2 190 18:24 28.03.2021
5720 Rain 11 1003 93 5000 8.23 180 17:42 28.03.2021
5721 Rain 11 1003 93 7000 7.2 190 17:20 28.03.2021
5722 Rain 11 1005 87 10000 7.2 200 16:41 28.03.2021
5723 Rain 10 1005 93 10000 6.69 210 16:21 28.03.2021
5724 Rain 10 1006 87 9000 8.23 210 15:25 28.03.2021
5725 Rain 9 1006 87 10000 7.2 220 14:50 28.03.2021
5726 Clouds 9 1007 87 10000 9.26 220 14:26 28.03.2021
5727 Clouds 8 1007 87 10000 9.77 230 13:38 28.03.2021
5728 Clouds 9 1007 76 10000 10.29 220 12:59 28.03.2021
5729 Rain 9 1007 76 10000 10.29 220 12:35 28.03.2021
5730 Clouds 8 1006 76 10000 9.77 220 11:59 28.03.2021
5731 Clouds 8 1006 76 10000 9.77 220 11:38 28.03.2021
5732 Clouds 8 1006 76 10000 9.77 230 10:55 28.03.2021
5733 Clouds 8 1006 76 10000 9.77 230 10:32 28.03.2021
5734 Clouds 8 1005 87 10000 7.2 250 09:56 28.03.2021
5735 Clouds 8 1005 81 10000 7.2 230 09:30 28.03.2021
5736 Clouds 7 1004 81 10000 6.17 240 08:56 28.03.2021
5737 Clouds 7 1004 81 10000 6.17 240 08:35 28.03.2021
5738 Clouds 8 1003 87 10000 5.66 240 07:43 28.03.2021
5739 Rain 8 1002 93 10000 5.14 250 06:22 28.03.2021
5740 Clouds 10 1001 87 10000 13.38 200 03:50 28.03.2021
5741 Clouds 9 1003 87 10000 12.86 200 00:45 28.03.2021
5742 Rain 9 1003 87 10000 10.29 190 00:18 28.03.2021
5743 Rain 8 1004 87 7000 10.29 190 23:36 27.03.2021
5744 Rain 8 1005 81 10000 10.29 190 22:49 27.03.2021
5745 Clouds 8 1005 87 10000 9.77 190 22:30 27.03.2021
5746 Rain 8 1006 87 8000 9.26 190 21:45 27.03.2021
5747 Rain 8 1006 87 7000 8.23 180 21:21 27.03.2021
5748 Rain 8 1006 87 7000 8.23 180 21:21 27.03.2021
5749 Rain 8 1007 87 10000 7.2 180 20:59 27.03.2021
5750 Rain 8 1007 87 10000 7.2 180 20:37 27.03.2021
5751 Rain 8 1008 81 10000 8.75 170 19:57 27.03.2021
5752 Rain 8 1008 81 10000 8.75 170 19:38 27.03.2021
5753 Rain 8 1009 76 10000 7.72 180 19:20 27.03.2021
5754 Rain 8 1009 71 10000 8.23 180 18:46 27.03.2021
5755 Rain 8 1010 71 10000 9.26 190 18:22 27.03.2021
5756 Clouds 8 1010 71 10000 8.75 180 17:36 27.03.2021
5757 Clouds 8 1011 66 10000 9.26 190 17:18 27.03.2021
5758 Clouds 8 1012 66 10000 7.2 190 16:43 27.03.2021
5759 Clouds 8 1012 66 10000 8.75 210 16:23 27.03.2021
5760 Clouds 8 1013 70 10000 7.2 210 15:45 27.03.2021
5761 Clouds 7 1013 70 10000 9.77 220 14:59 27.03.2021
5762 Clouds 7 1013 70 10000 9.77 220 14:38 27.03.2021
5763 Clouds 7 1013 76 10000 9.26 210 13:39 27.03.2021
5764 Rain 7 1013 81 10000 5.66 230 13:19 27.03.2021
5765 Clouds 7 1013 70 10000 7.2 230 12:43 27.03.2021
5766 Clouds 7 1013 76 10000 4.12 250 11:50 27.03.2021
5767 Clouds 7 1013 81 10000 6.69 250 11:31 27.03.2021
5768 Rain 6 1012 76 10000 4.63 240 10:49 27.03.2021
5769 Clouds 5 1012 81 10000 2.57 250 10:30 27.03.2021
5770 Clouds 4 1011 87 10000 3.09 260 09:47 27.03.2021
5771 Clouds 4 1010 93 10000 4.63 240 09:18 27.03.2021
5772 Clouds 3 1010 93 10000 6.17 250 08:39 27.03.2021
5773 Rain 3 1008 93 10000 3.6 260 07:49 27.03.2021
5774 Clouds 2 1007 93 10000 2.06 220 06:59 27.03.2021
5775 Clouds 2 1007 93 10000 2.06 220 06:59 27.03.2021
5776 Clouds 2 1007 93 10000 2.06 220 06:39 27.03.2021
5777 Clouds 1 1005 93 10000 2.57 250 04:42 27.03.2021
5778 Clouds 2 1002 87 10000 4.63 240 02:19 27.03.2021
5779 Clouds 3 1001 87 10000 2.57 250 00:33 27.03.2021
5780 Clouds 3 1000 87 10000 3.6 270 23:59 26.03.2021
5781 Rain 3 1000 93 10000 3.6 240 23:25 26.03.2021
5782 Clouds 3 999 93 10000 7.2 250 22:39 26.03.2021
5783 Rain 3 999 87 10000 9.26 220 21:42 26.03.2021
5784 Rain 4 999 93 8000 8.23 230 21:23 26.03.2021
5785 Rain 4 998 81 10000 7.2 200 20:54 26.03.2021
5786 Clouds 5 998 81 10000 5.14 210 20:31 26.03.2021
5787 Rain 4 998 93 9000 7.2 220 19:51 26.03.2021
5788 Rain 4 998 93 9000 7.2 220 19:32 26.03.2021
5789 Rain 5 998 81 10000 3.6 200 18:49 26.03.2021
5790 Clouds 6 998 75 10000 6.17 220 18:30 26.03.2021
5791 Rain 5 998 70 10000 11.32 220 17:50 26.03.2021
5792 Clouds 6 998 65 10000 8.75 210 17:23 26.03.2021
5793 Clouds 7 998 61 10000 10.29 210 16:34 26.03.2021
5794 Clouds 7 998 61 10000 11.83 230 15:59 26.03.2021
5795 Clouds 7 998 70 10000 9.26 230 15:28 26.03.2021
5796 Clouds 7 998 76 10000 6.17 240 14:43 26.03.2021
5797 Clouds 7 997 66 10000 11.32 220 13:51 26.03.2021
5798 Clouds 7 997 70 10000 11.83 220 13:22 26.03.2021
5799 Clouds 6 997 76 10000 10.8 230 12:35 26.03.2021
5800 Clouds 6 996 81 10000 7.72 220 11:47 26.03.2021
5801 Clouds 6 996 81 10000 7.2 230 11:27 26.03.2021
5802 Rain 5 996 81 10000 10.8 240 10:42 26.03.2021
5803 Clouds 5 995 87 10000 5.14 260 10:19 26.03.2021
5804 Rain 5 995 87 10000 6.69 250 09:41 26.03.2021
5805 Rain 5 994 87 10000 5.66 240 08:48 26.03.2021
5806 Rain 5 994 87 10000 6.17 250 08:26 26.03.2021
5807 Rain 6 993 81 10000 7.2 250 07:43 26.03.2021
5808 Rain 8 993 87 10000 9.26 200 07:21 26.03.2021
5809 Rain 8 993 87 10000 8.75 190 06:55 26.03.2021
5810 Rain 8 995 87 8000 8.75 190 05:32 26.03.2021
5811 Clouds 8 997 87 10000 5.14 190 03:28 26.03.2021
5812 Clouds 9 1000 81 10000 8.23 190 00:50 26.03.2021
5813 Clouds 9 1000 81 10000 7.2 190 23:49 25.03.2021
5814 Clouds 9 1001 81 10000 6.17 190 23:30 25.03.2021
5815 Clouds 9 1001 81 10000 5.14 180 22:40 25.03.2021
5816 Clouds 9 1002 81 10000 6.69 190 21:55 25.03.2021
5817 Clouds 9 1002 81 10000 6.69 190 21:35 25.03.2021
5818 Clouds 8 1003 87 10000 3.6 190 20:59 25.03.2021
5819 Clouds 8 1003 87 10000 3.6 190 20:37 25.03.2021
5820 Clouds 8 1003 87 10000 6.69 180 20:18 25.03.2021
5821 Clouds 9 1003 87 10000 9.26 200 19:39 25.03.2021
5822 Rain 9 1003 81 10000 7.2 190 19:21 25.03.2021
5823 Clouds 10 1004 81 10000 6.69 180 18:40 25.03.2021
5824 Clouds 10 1004 81 10000 5.14 170 18:22 25.03.2021
5825 Clouds 10 1005 81 10000 6.17 190 17:38 25.03.2021
5826 Clouds 9 1006 87 9000 5.66 190 16:58 25.03.2021
5827 Clouds 9 1006 87 9000 5.66 190 16:35 25.03.2021
5828 Clouds 9 1007 81 10000 7.72 200 15:49 25.03.2021
5829 Rain 9 1007 87 10000 7.72 200 15:27 25.03.2021
5830 Rain 9 1007 87 10000 9.77 210 14:58 25.03.2021
5831 Rain 9 1007 87 10000 9.77 210 14:38 25.03.2021
5832 Rain 9 1008 87 10000 10.29 210 13:29 25.03.2021
5833 Rain 9 1009 87 10000 6.69 210 12:56 25.03.2021
5834 Clouds 9 1009 87 10000 6.69 210 12:36 25.03.2021
5835 Clouds 9 1009 87 10000 7.72 220 12:18 25.03.2021
5836 Clouds 9 1009 81 10000 8.23 210 11:44 25.03.2021
5837 Clouds 8 1009 93 10000 6.69 210 11:25 25.03.2021
5838 Clouds 8 1009 87 10000 7.72 200 10:49 25.03.2021
5839 Clouds 8 1010 87 10000 7.2 200 10:21 25.03.2021
5840 Clouds 8 1010 87 10000 6.69 210 09:50 25.03.2021
5841 Clouds 8 1010 87 10000 6.69 210 09:31 25.03.2021
5842 Clouds 7 1010 87 10000 5.66 220 08:37 25.03.2021
5843 Clouds 7 1010 87 10000 7.2 210 07:50 25.03.2021
5844 Clouds 7 1010 87 10000 4.63 210 06:48 25.03.2021
5845 Clouds 7 1010 87 10000 4.63 210 06:24 25.03.2021
5846 Clouds 6 1010 87 10000 3.6 220 04:52 25.03.2021
5847 Clouds 5 1011 87 10000 3.6 260 02:28 25.03.2021
5848 Clouds 6 1012 81 10000 3.6 200 00:20 25.03.2021
5849 Clouds 7 1012 81 10000 6.69 210 23:40 24.03.2021
5850 Rain 7 1012 81 10000 5.66 210 23:20 24.03.2021
5851 Clouds 6 1012 76 10000 5.14 220 22:40 24.03.2021
5852 Clouds 7 1011 81 10000 6.69 250 21:57 24.03.2021
5853 Clouds 6 1011 81 10000 6.69 250 21:39 24.03.2021
5854 Clouds 7 1011 76 10000 7.72 260 21:19 24.03.2021
5855 Clouds 7 1011 87 10000 6.17 240 20:41 24.03.2021
5856 Clouds 7 1011 87 10000 5.66 250 20:18 24.03.2021
5857 Clouds 8 1011 81 10000 6.69 240 19:34 24.03.2021
5858 Clouds 8 1010 87 10000 11.32 210 18:56 24.03.2021
5859 Rain 8 1010 87 10000 11.32 210 18:37 24.03.2021
5860 Clouds 9 1010 81 10000 13.38 210 18:19 24.03.2021
5861 Clouds 9 1010 76 10000 12.86 200 17:33 24.03.2021
5862 Rain 10 1011 62 10000 10.29 200 16:59 24.03.2021
5863 Clouds 10 1011 62 10000 10.29 200 16:40 24.03.2021
5864 Clouds 10 1011 62 10000 10.8 210 16:19 24.03.2021
5865 Clouds 10 1012 66 10000 9.77 210 15:41 24.03.2021
5866 Clouds 10 1012 66 10000 11.83 230 15:20 24.03.2021
5867 Clouds 10 1012 66 10000 12.35 220 14:30 24.03.2021
5868 Clouds 9 1012 71 10000 9.77 220 13:58 24.03.2021
5869 Clouds 9 1013 71 10000 9.26 210 13:28 24.03.2021
5870 Clouds 9 1013 71 10000 9.26 210 13:28 24.03.2021
5871 Clouds 9 1013 71 10000 9.77 220 12:51 24.03.2021
5872 Clouds 9 1013 71 10000 9.77 210 12:30 24.03.2021
5873 Clouds 9 1013 71 10000 9.77 220 11:54 24.03.2021
5874 Clouds 9 1013 71 10000 9.77 220 11:36 24.03.2021
5875 Clouds 8 1012 76 10000 9.77 220 10:49 24.03.2021
5876 Clouds 8 1012 76 10000 9.26 220 10:28 24.03.2021
5877 Clouds 7 1012 87 10000 7.72 220 09:54 24.03.2021
5878 Clouds 7 1012 87 10000 7.2 220 09:29 24.03.2021
5879 Clouds 6 1012 87 10000 8.23 220 08:57 24.03.2021
5880 Clouds 6 1012 87 10000 8.23 220 08:34 24.03.2021
5881 Clouds 6 1012 87 10000 6.69 210 07:48 24.03.2021
5882 Clouds 6 1012 81 10000 5.66 210 07:18 24.03.2021
5883 Clouds 6 1012 81 10000 5.66 210 06:41 24.03.2021
5884 Clouds 4 1012 93 10000 3.6 230 01:26 24.03.2021
5885 Clouds 6 1012 93 10000 4.63 230 00:36 24.03.2021
5886 Clouds 7 1012 87 10000 3.6 240 23:43 23.03.2021
5887 Clouds 7 1012 87 10000 2.57 240 23:19 23.03.2021
5888 Clouds 8 1012 76 10000 5.14 250 22:44 23.03.2021
5889 Clouds 8 1011 81 10000 5.66 240 22:24 23.03.2021
5890 Clouds 8 1011 81 10000 6.17 240 21:41 23.03.2021
5891 Clouds 8 1011 87 10000 4.63 240 21:22 23.03.2021
5892 Clouds 9 1011 87 10000 4.63 250 20:43 23.03.2021
5893 Clouds 9 1010 87 7000 8.75 230 20:25 23.03.2021
5894 Clouds 10 1010 76 10000 8.75 210 19:45 23.03.2021
5895 Clouds 10 1010 71 10000 7.2 200 19:25 23.03.2021
5896 Clouds 10 1010 71 10000 8.75 200 18:43 23.03.2021
5897 Clouds 10 1010 71 10000 10.8 200 18:22 23.03.2021
5898 Clouds 10 1011 71 10000 9.77 200 17:45 23.03.2021
5899 Clouds 10 1011 66 10000 9.26 210 17:21 23.03.2021
5900 Clouds 10 1011 66 10000 9.26 210 17:21 23.03.2021
5901 Clouds 10 1012 66 10000 9.26 210 16:26 23.03.2021
5902 Clouds 11 1012 62 10000 8.75 210 15:59 23.03.2021
5903 Clouds 11 1012 62 10000 8.75 210 15:38 23.03.2021
5904 Clouds 10 1013 66 10000 10.29 210 14:52 23.03.2021
5905 Clouds 10 1013 66 10000 9.26 210 14:21 23.03.2021
5906 Clouds 10 1014 66 10000 10.29 210 13:50 23.03.2021
5907 Clouds 9 1014 66 10000 8.75 200 13:26 23.03.2021
5908 Clouds 9 1014 66 10000 8.75 200 13:26 23.03.2021
5909 Clouds 9 1015 66 10000 8.75 200 12:47 23.03.2021
5910 Clouds 9 1015 71 10000 8.23 200 12:27 23.03.2021
5911 Clouds 9 1016 71 10000 8.23 200 11:56 23.03.2021
5912 Clouds 9 1016 71 10000 8.23 200 11:37 23.03.2021
5913 Clouds 9 1016 71 10000 5.66 190 10:44 23.03.2021
5914 Clouds 8 1016 76 10000 6.17 200 10:22 23.03.2021
5915 Clouds 8 1016 81 10000 5.14 200 09:57 23.03.2021
5916 Clouds 8 1017 81 10000 6.17 200 09:29 23.03.2021
5917 Clouds 8 1017 76 10000 5.66 200 08:58 23.03.2021
5918 Clouds 8 1017 76 10000 5.66 200 08:39 23.03.2021
5919 Clouds 8 1017 81 10000 5.14 190 08:20 23.03.2021
5920 Clouds 8 1017 76 10000 4.63 200 07:28 23.03.2021
5921 Clouds 8 1018 76 10000 2.57 230 06:57 23.03.2021
5922 Clouds 8 1018 76 10000 2.57 230 06:57 23.03.2021
5923 Clouds 8 1018 81 10000 3.6 230 06:18 23.03.2021
5924 Clouds 8 1020 81 10000 2.57 200 03:20 23.03.2021
5925 Clouds 8 1021 87 10000 4.63 220 00:42 23.03.2021
5926 Clouds 8 1021 87 10000 4.63 220 23:24 22.03.2021
5927 Clouds 8 1021 87 10000 5.14 210 22:46 22.03.2021
5928 Clouds 8 1022 87 10000 6.69 200 22:22 22.03.2021
5929 Clouds 8 1022 87 10000 6.17 210 21:52 22.03.2021
5930 Clouds 8 1022 87 10000 6.17 210 21:52 22.03.2021
5931 Clouds 8 1022 81 10000 5.66 210 21:29 22.03.2021
5932 Clouds 8 1022 81 10000 5.66 220 20:54 22.03.2021
5933 Clouds 9 1022 76 10000 6.17 210 20:30 22.03.2021
5934 Clouds 9 1022 76 10000 7.72 210 19:59 22.03.2021
5935 Clouds 9 1022 76 10000 7.72 210 19:59 22.03.2021
5936 Clouds 9 1022 76 10000 7.72 210 19:40 22.03.2021
5937 Clouds 9 1022 76 10000 8.23 210 19:21 22.03.2021
5938 Clouds 9 1022 76 10000 8.23 210 19:21 22.03.2021
5939 Clouds 9 1022 81 10000 6.69 220 18:42 22.03.2021
5940 Clouds 10 1022 76 10000 6.69 230 18:23 22.03.2021
5941 Clouds 10 1022 76 10000 7.2 230 17:51 22.03.2021
5942 Clouds 10 1022 76 10000 7.72 220 17:22 22.03.2021
5943 Clouds 10 1022 76 10000 7.72 230 16:58 22.03.2021
5944 Clouds 10 1022 76 10000 7.72 230 16:39 22.03.2021
5945 Clouds 10 1023 76 10000 8.23 230 15:43 22.03.2021
5946 Clouds 10 1023 71 10000 9.26 230 15:25 22.03.2021
5947 Clouds 10 1023 71 10000 8.75 230 14:59 22.03.2021
5948 Clouds 10 1023 71 10000 8.75 230 14:34 22.03.2021
5949 Clouds 10 1023 71 10000 8.23 220 13:52 22.03.2021
5950 Clouds 10 1023 71 10000 8.23 220 13:34 22.03.2021
5951 Clouds 9 1023 76 10000 8.75 220 12:59 22.03.2021
5952 Clouds 9 1023 76 10000 8.75 220 12:38 22.03.2021
5953 Clouds 9 1023 76 10000 8.75 220 12:18 22.03.2021
5954 Clouds 9 1023 76 10000 7.2 230 11:40 22.03.2021
5955 Clouds 9 1023 76 10000 7.2 230 11:20 22.03.2021
5956 Clouds 9 1023 76 10000 6.69 230 10:42 22.03.2021
5957 Clouds 9 1023 76 10000 6.69 230 10:42 22.03.2021
5958 Clouds 8 1024 81 10000 5.66 220 10:20 22.03.2021
5959 Clouds 8 1024 76 10000 5.14 220 09:37 22.03.2021
5960 Clouds 7 1024 81 10000 3.09 230 08:59 22.03.2021
5961 Clouds 7 1024 81 10000 3.09 230 08:40 22.03.2021
5962 Clouds 7 1024 76 10000 6.17 260 08:21 22.03.2021
5963 Clouds 7 1024 76 10000 6.17 270 07:43 22.03.2021
5964 Clouds 7 1024 81 10000 5.66 250 06:52 22.03.2021
5965 Clouds 7 1025 87 10000 4.63 240 05:19 22.03.2021
5966 Clouds 6 1027 87 10000 3.6 240 00:55 22.03.2021
5967 Clouds 6 1027 87 10000 4.63 250 00:21 22.03.2021
5968 Clouds 5 1027 87 10000 5.14 230 23:48 21.03.2021
5969 Clouds 5 1027 87 10000 4.12 220 23:19 21.03.2021
5970 Clouds 4 1027 93 10000 3.09 230 22:54 21.03.2021
5971 Clear 5 1027 87 10000 4.63 250 21:45 21.03.2021
5972 Clear 6 1027 81 10000 5.14 250 21:27 21.03.2021
5973 Clear 6 1027 81 10000 4.12 250 20:58 21.03.2021
5974 Clear 6 1027 81 10000 4.12 250 20:39 21.03.2021
5975 Clear 7 1027 76 10000 4.12 260 20:21 21.03.2021
5976 Clear 8 1027 71 10000 5.14 270 19:49 21.03.2021
5977 Clouds 9 1027 66 10000 4.63 260 19:20 21.03.2021
5978 Clouds 9 1027 71 10000 4.12 270 18:45 21.03.2021
5979 Clear 10 1027 62 10000 4.63 280 18:26 21.03.2021
5980 Clouds 10 1027 62 10000 5.14 280 17:44 21.03.2021
5981 Clear 10 1028 62 10000 4.63 290 17:19 21.03.2021
5982 Clear 11 1028 58 10000 5.66 280 16:51 21.03.2021
5983 Clear 11 1028 58 10000 5.66 280 16:51 21.03.2021
5984 Clouds 11 1028 58 10000 5.66 280 16:27 21.03.2021
5985 Clouds 10 1028 62 10000 5.14 300 15:48 21.03.2021
5986 Clouds 9 1029 66 10000 5.14 300 15:22 21.03.2021
5987 Clouds 10 1029 62 10000 5.14 300 14:56 21.03.2021
5988 Clouds 11 1029 62 10000 5.14 300 14:38 21.03.2021
5989 Clouds 10 1029 66 10000 4.63 290 14:19 21.03.2021
5990 Clouds 11 1030 66 10000 5.14 290 13:51 21.03.2021
5991 Clouds 10 1030 66 10000 4.63 300 12:45 21.03.2021
5992 Clouds 9 1030 66 10000 4.12 300 12:25 21.03.2021
5993 Clouds 8 1030 71 10000 4.12 270 11:44 21.03.2021
5994 Clouds 8 1030 71 10000 4.12 290 11:26 21.03.2021
5995 Clouds 7 1030 81 10000 4.12 280 10:48 21.03.2021
5996 Clouds 7 1030 81 10000 1.54 0 10:29 21.03.2021
5997 Clouds 5 1030 87 10000 2.57 250 09:51 21.03.2021
5998 Clouds 4 1030 87 10000 2.57 250 09:32 21.03.2021
5999 Clouds 3 1031 100 10000 2.57 230 08:59 21.03.2021
6000 Clouds 3 1031 100 10000 2.57 230 08:37 21.03.2021
6001 Clouds 2 1030 100 10000 3.6 220 08:19 21.03.2021
6002 Clouds 0 1030 100 10000 1.03 0 07:29 21.03.2021
6003 Clouds 2 1030 93 10000 1.54 210 06:21 21.03.2021
6004 Clouds 3 1030 93 10000 3.6 230 04:56 21.03.2021
6005 Clouds 6 1030 87 10000 3.09 250 00:58 21.03.2021
6006 Clouds 6 1030 87 10000 3.09 250 00:39 21.03.2021
6007 Clouds 6 1030 87 10000 2.06 260 00:20 21.03.2021
6008 Clouds 5 1030 93 10000 3.6 230 23:45 20.03.2021
6009 Clouds 7 1030 93 10000 3.09 280 23:20 20.03.2021
6010 Clouds 7 1030 93 10000 4.12 240 22:24 20.03.2021
6011 Clouds 9 1030 87 10000 2.06 260 21:51 20.03.2021
6012 Clouds 9 1030 87 10000 2.06 260 21:33 20.03.2021
6013 Clouds 9 1030 87 10000 3.09 260 20:58 20.03.2021
6014 Clouds 9 1030 87 10000 3.09 260 20:39 20.03.2021
6015 Clouds 10 1030 81 10000 4.12 270 20:21 20.03.2021
6016 Clouds 10 1030 81 10000 4.12 270 20:21 20.03.2021
6017 Clouds 10 1029 76 10000 4.63 270 19:41 20.03.2021
6018 Clouds 10 1029 76 10000 5.66 270 19:22 20.03.2021
6019 Clouds 10 1029 76 10000 6.17 290 18:45 20.03.2021
6020 Clouds 10 1029 76 10000 6.17 290 18:45 20.03.2021
6021 Clouds 11 1029 71 10000 5.14 290 18:21 20.03.2021
6022 Clouds 11 1029 71 10000 6.17 290 17:44 20.03.2021
6023 Clouds 11 1029 71 10000 7.72 280 17:23 20.03.2021
6024 Clouds 10 1029 76 10000 7.2 280 16:44 20.03.2021
6025 Clouds 11 1029 71 10000 7.72 280 16:20 20.03.2021
6026 Clouds 11 1030 71 10000 6.69 270 15:49 20.03.2021
6027 Clouds 11 1029 66 10000 6.69 270 15:29 20.03.2021
6028 Clouds 11 1030 71 10000 8.23 260 14:41 20.03.2021
6029 Clouds 11 1030 66 10000 6.69 260 14:20 20.03.2021
6030 Clouds 11 1031 76 10000 6.17 270 13:31 20.03.2021
6031 Clouds 11 1031 71 10000 5.14 280 12:42 20.03.2021
6032 Clouds 10 1031 76 10000 5.66 280 12:23 20.03.2021
6033 Clouds 10 1031 76 10000 6.17 270 11:44 20.03.2021
6034 Clouds 9 1031 81 10000 5.14 270 11:23 20.03.2021
6035 Clouds 9 1031 81 10000 7.2 270 10:47 20.03.2021
6036 Clouds 9 1031 81 10000 5.66 250 10:25 20.03.2021
6037 Clouds 8 1031 87 10000 5.66 250 09:53 20.03.2021
6038 Clouds 7 1031 93 10000 3.6 250 09:23 20.03.2021
6039 Clouds 7 1031 93 10000 4.63 280 08:53 20.03.2021
6040 Clouds 7 1031 100 10000 5.14 260 08:27 20.03.2021
6041 Clouds 7 1031 100 10000 4.12 240 07:49 20.03.2021
6042 Clouds 7 1031 100 10000 3.6 230 07:29 20.03.2021
6043 Clouds 7 1031 100 8000 4.12 230 06:41 20.03.2021
6044 Mist 7 1032 100 2300 4.12 240 05:29 20.03.2021
6045 Mist 7 1032 100 3500 4.63 240 03:45 20.03.2021
6046 Clouds 7 1033 100 7000 1.54 0 01:43 20.03.2021
6047 Clouds 8 1033 93 10000 2.06 270 23:48 19.03.2021
6048 Clouds 8 1033 93 10000 2.06 270 23:20 19.03.2021
6049 Clouds 8 1033 93 10000 2.57 270 22:45 19.03.2021
6050 Clouds 8 1033 87 10000 2.06 260 22:24 19.03.2021
6051 Clouds 9 1033 87 10000 2.57 260 21:51 19.03.2021
6052 Clouds 10 1032 87 10000 2.06 240 21:21 19.03.2021
6053 Clouds 10 1032 81 10000 3.09 240 20:46 19.03.2021
6054 Clouds 11 1032 82 10000 3.6 250 20:26 19.03.2021
6055 Clouds 12 1032 76 10000 3.09 240 19:50 19.03.2021
6056 Clouds 12 1032 67 10000 4.12 220 19:24 19.03.2021
6057 Clouds 13 1032 62 10000 1.54 230 18:50 19.03.2021
6058 Clouds 15 1032 58 10000 1.03 0 18:30 19.03.2021
6059 Clouds 15 1032 55 10000 1.03 0 17:58 19.03.2021
6060 Clouds 15 1032 55 10000 1.03 0 17:39 19.03.2021
6061 Clouds 15 1032 58 10000 1.03 0 17:18 19.03.2021
6062 Clouds 15 1032 58 10000 1.54 0 16:44 19.03.2021
6063 Clouds 16 1032 55 10000 1.03 0 16:25 19.03.2021
6064 Clouds 14 1032 58 10000 1.54 0 15:34 19.03.2021
6065 Clouds 14 1032 58 10000 0.51 0 14:53 19.03.2021
6066 Clouds 14 1032 58 10000 0.51 0 14:34 19.03.2021
6067 Clouds 13 1032 62 10000 1.54 0 13:53 19.03.2021
6068 Clouds 13 1032 62 10000 1.54 0 13:19 19.03.2021
6069 Clouds 11 1033 66 10000 2.06 100 12:47 19.03.2021
6070 Clouds 11 1033 71 10000 1.03 0 12:18 19.03.2021
6071 Clouds 10 1033 76 10000 1.03 0 11:33 19.03.2021
6072 Clouds 9 1032 87 10000 1.03 0 10:52 19.03.2021
6073 Clouds 7 1032 100 10000 1.54 0 10:23 19.03.2021
6074 Clouds 6 1032 100 10000 1.03 0 09:44 19.03.2021
6075 Fog 5 1032 100 5000 1.03 0 09:26 19.03.2021
6076 Fog 4 1032 100 350 0.51 0 08:52 19.03.2021
6077 Fog 3 1032 100 300 0.51 0 08:29 19.03.2021
6078 Fog 3 1031 100 800 1.54 0 07:50 19.03.2021
6079 Fog 3 1031 100 800 1.54 0 07:50 19.03.2021
6080 Fog 3 1031 100 800 1.54 0 07:50 19.03.2021
6081 Fog 4 1031 100 200 1.54 240 07:31 19.03.2021
6082 Clear 4 1030 93 10000 2.06 220 05:29 19.03.2021
6083 Clear 7 1030 87 10000 1.03 0 02:20 19.03.2021
6084 Clouds 8 1030 87 10000 4.12 300 23:57 18.03.2021
6085 Clouds 8 1030 87 10000 2.57 300 23:29 18.03.2021
6086 Clouds 9 1030 87 10000 2.57 280 22:54 18.03.2021
6087 Clouds 10 1030 87 10000 2.57 280 22:26 18.03.2021
6088 Clouds 10 1030 87 10000 2.57 280 22:26 18.03.2021
6089 Clouds 10 1030 81 10000 2.57 0 21:55 18.03.2021
6090 Clouds 10 1030 81 10000 2.57 0 21:36 18.03.2021
6091 Clouds 11 1029 82 10000 5.14 300 20:43 18.03.2021
6092 Clouds 11 1029 82 10000 3.09 270 20:22 18.03.2021
6093 Clouds 12 1029 76 10000 5.14 290 19:43 18.03.2021
6094 Clouds 13 1029 71 10000 6.17 290 19:23 18.03.2021
6095 Clouds 13 1029 72 10000 5.66 300 18:47 18.03.2021
6096 Clouds 14 1029 72 10000 7.72 290 18:25 18.03.2021
6097 Clouds 15 1029 67 10000 7.2 300 17:43 18.03.2021
6098 Clouds 15 1030 67 10000 5.66 280 17:20 18.03.2021
6099 Clouds 16 1030 63 10000 6.69 290 16:41 18.03.2021
6100 Clouds 16 1030 63 10000 6.69 290 16:23 18.03.2021
6101 Clouds 16 1030 63 10000 6.69 290 16:23 18.03.2021
6102 Clouds 15 1030 63 10000 6.69 300 15:41 18.03.2021
6103 Clouds 15 1031 63 10000 7.2 300 15:21 18.03.2021
6104 Clouds 15 1031 63 10000 6.17 300 14:49 18.03.2021
6105 Clouds 14 1031 67 10000 7.2 300 14:23 18.03.2021
6106 Clouds 14 1032 67 10000 6.69 300 13:40 18.03.2021
6107 Clouds 13 1032 71 10000 5.66 290 13:21 18.03.2021
6108 Clouds 12 1032 76 10000 5.66 290 12:38 18.03.2021
6109 Clouds 12 1032 76 10000 5.14 290 12:20 18.03.2021
6110 Clouds 11 1032 76 10000 3.09 280 11:45 18.03.2021
6111 Clouds 11 1033 81 10000 3.6 270 11:22 18.03.2021
6112 Clouds 10 1033 81 10000 3.09 270 10:41 18.03.2021
6113 Clouds 10 1033 81 10000 2.57 260 10:23 18.03.2021
6114 Clouds 9 1033 87 10000 4.12 270 09:52 18.03.2021
6115 Clouds 8 1033 93 10000 3.09 260 09:27 18.03.2021
6116 Clouds 7 1033 93 10000 3.09 220 08:45 18.03.2021
6117 Clouds 6 1033 100 10000 3.6 230 08:25 18.03.2021
6118 Clouds 6 1033 93 10000 3.09 240 07:47 18.03.2021
6119 Clouds 6 1033 100 10000 1.54 0 06:49 18.03.2021
6120 Clouds 6 1033 100 10000 2.06 190 06:25 18.03.2021
6121 Clouds 5 1033 93 10000 3.09 230 05:27 18.03.2021
6122 Clouds 7 1035 93 10000 3.09 210 00:49 18.03.2021
6123 Clouds 8 1035 93 10000 2.06 280 23:39 17.03.2021
6124 Clouds 9 1035 81 10000 4.12 270 22:42 17.03.2021
6125 Clouds 10 1034 81 10000 4.63 290 22:23 17.03.2021
6126 Clouds 8 1034 87 10000 2.57 260 21:51 17.03.2021
6127 Clouds 9 1034 87 10000 3.09 280 21:32 17.03.2021
6128 Clouds 10 1035 81 10000 3.6 270 20:54 17.03.2021
6129 Clouds 10 1035 81 10000 3.6 270 20:54 17.03.2021
6130 Clouds 10 1035 81 10000 3.6 270 20:36 17.03.2021
6131 Clouds 10 1034 81 9000 2.57 290 20:18 17.03.2021
6132 Clouds 11 1034 76 10000 3.09 260 19:40 17.03.2021
6133 Clouds 12 1034 71 10000 5.66 290 19:19 17.03.2021
6134 Clouds 12 1034 67 10000 4.12 280 18:49 17.03.2021
6135 Clouds 13 1034 67 10000 5.14 280 18:31 17.03.2021
6136 Clouds 14 1034 62 10000 5.66 280 17:34 17.03.2021
6137 Clouds 14 1034 58 10000 3.6 270 16:59 17.03.2021
6138 Clouds 14 1034 58 10000 3.6 290 16:39 17.03.2021
6139 Clouds 14 1034 58 10000 3.6 290 16:20 17.03.2021
6140 Clouds 14 1034 58 10000 3.09 280 15:45 17.03.2021
6141 Clouds 14 1034 58 10000 2.57 280 15:26 17.03.2021
6142 Clouds 13 1034 58 10000 2.57 240 14:40 17.03.2021
6143 Clouds 13 1034 58 10000 3.09 290 14:19 17.03.2021
6144 Clouds 12 1035 62 10000 4.63 300 13:54 17.03.2021
6145 Clouds 12 1035 62 10000 5.14 290 13:24 17.03.2021
6146 Clouds 10 1035 71 10000 4.63 290 12:43 17.03.2021
6147 Clouds 10 1035 71 10000 4.63 300 12:25 17.03.2021
6148 Clouds 9 1035 76 10000 4.12 270 11:41 17.03.2021
6149 Clouds 9 1035 76 10000 3.09 270 11:21 17.03.2021
6150 Clouds 9 1035 71 10000 3.09 260 10:52 17.03.2021
6151 Clouds 8 1035 76 10000 3.6 270 10:23 17.03.2021
6152 Clouds 7 1035 76 10000 4.12 270 09:46 17.03.2021
6153 Clouds 7 1035 81 10000 4.63 190 09:20 17.03.2021
6154 Clouds 7 1035 81 10000 4.63 190 08:47 17.03.2021
6155 Clouds 6 1035 87 10000 3.09 230 08:27 17.03.2021
6156 Clouds 6 1035 87 10000 1.54 230 07:43 17.03.2021
6157 Clouds 6 1035 81 10000 2.57 200 06:57 17.03.2021
6158 Clouds 6 1035 81 10000 2.06 210 06:28 17.03.2021
6159 Clouds 6 1036 87 10000 5.14 280 03:32 17.03.2021
6160 Clouds 6 1036 87 10000 4.12 270 02:37 17.03.2021
6161 Clouds 6 1036 81 10000 6.69 290 00:38 17.03.2021
6162 Clouds 5 1036 87 10000 2.57 240 23:27 16.03.2021
6163 Clouds 7 1035 81 10000 3.6 240 22:45 16.03.2021
6164 Clouds 8 1035 76 10000 4.12 250 22:27 16.03.2021
6165 Clouds 8 1035 71 10000 5.14 290 21:44 16.03.2021
6166 Clouds 9 1034 66 10000 5.14 290 21:26 16.03.2021
6167 Clouds 9 1034 66 10000 5.14 290 20:57 16.03.2021
6168 Clouds 9 1033 66 10000 4.63 290 20:20 16.03.2021
6169 Clouds 10 1033 66 10000 5.14 290 19:51 16.03.2021
6170 Clouds 11 1033 62 10000 5.66 290 19:29 16.03.2021
6171 Clouds 12 1032 58 10000 5.14 280 18:57 16.03.2021
6172 Clouds 12 1032 58 10000 5.14 280 18:57 16.03.2021
6173 Clouds 11 1032 58 10000 5.14 280 18:39 16.03.2021
6174 Clouds 13 1031 54 10000 6.69 290 17:59 16.03.2021
6175 Clouds 13 1031 54 10000 6.69 290 17:59 16.03.2021
6176 Clouds 13 1031 54 10000 6.69 290 17:40 16.03.2021
6177 Clouds 13 1031 54 10000 6.17 280 17:21 16.03.2021
6178 Clouds 13 1031 54 10000 4.63 270 16:47 16.03.2021
6179 Clouds 13 1031 54 10000 4.12 280 16:25 16.03.2021
6180 Clouds 13 1030 54 10000 5.66 290 15:46 16.03.2021
6181 Clouds 13 1030 54 10000 7.2 290 15:20 16.03.2021
6182 Clouds 13 1030 54 10000 6.69 280 14:57 16.03.2021
6183 Clouds 13 1030 54 10000 6.69 280 14:38 16.03.2021
6184 Clouds 12 1029 58 10000 5.66 290 14:18 16.03.2021
6185 Clouds 12 1029 62 10000 7.2 290 13:44 16.03.2021
6186 Clouds 12 1029 62 10000 6.17 290 13:21 16.03.2021
6187 Clouds 12 1028 62 10000 6.69 290 12:46 16.03.2021
6188 Clouds 12 1028 62 10000 6.17 290 12:27 16.03.2021
6189 Clouds 12 1027 66 10000 5.14 290 11:38 16.03.2021
6190 Clouds 11 1026 71 10000 5.66 290 10:53 16.03.2021
6191 Clouds 11 1025 76 10000 7.2 290 10:24 16.03.2021
6192 Clouds 11 1025 82 10000 6.17 290 09:47 16.03.2021
6193 Clouds 11 1025 82 10000 2.57 270 09:24 16.03.2021
6194 Clouds 10 1024 93 10000 2.06 190 08:57 16.03.2021
6195 Clouds 10 1024 93 10000 2.06 190 08:39 16.03.2021
6196 Clouds 10 1023 87 10000 3.09 250 07:57 16.03.2021
6197 Clouds 9 1023 93 10000 4.12 260 07:30 16.03.2021
6198 Clouds 9 1023 93 10000 4.12 250 06:38 16.03.2021
6199 Clouds 9 1022 100 10000 6.17 230 05:37 16.03.2021
6200 Clouds 9 1022 93 10000 4.63 240 04:28 16.03.2021
6201 Clouds 9 1023 100 10000 3.6 240 02:29 16.03.2021
6202 Clouds 9 1023 93 8000 5.66 230 01:23 16.03.2021
6203 Clouds 8 1023 93 10000 5.14 230 23:54 15.03.2021
6204 Clouds 8 1023 93 3400 4.63 230 23:28 15.03.2021
6205 Clouds 8 1023 93 6000 2.57 230 22:49 15.03.2021
6206 Clouds 8 1023 93 8000 2.57 220 22:29 15.03.2021
6207 Clouds 8 1023 93 8000 2.57 220 22:29 15.03.2021
6208 Clouds 8 1023 93 10000 2.57 230 21:52 15.03.2021
6209 Clouds 8 1023 93 5000 4.63 230 21:32 15.03.2021
6210 Clouds 8 1023 87 10000 3.09 220 20:57 15.03.2021
6211 Clouds 8 1023 87 10000 3.09 220 20:38 15.03.2021
6212 Clouds 8 1023 87 10000 3.09 220 20:38 15.03.2021
6213 Clouds 9 1023 87 10000 2.06 240 20:20 15.03.2021
6214 Clouds 9 1023 81 10000 4.12 230 19:48 15.03.2021
6215 Clouds 9 1023 81 10000 2.57 230 19:30 15.03.2021
6216 Clouds 9 1023 81 10000 2.06 230 18:48 15.03.2021
6217 Clouds 10 1023 71 10000 0.51 0 18:23 15.03.2021
6218 Clouds 9 1023 76 10000 3.09 270 17:55 15.03.2021
6219 Rain 10 1023 66 10000 3.09 280 17:29 15.03.2021
6220 Clouds 10 1022 71 10000 4.12 300 16:50 15.03.2021
6221 Clouds 10 1022 71 10000 4.63 300 16:25 15.03.2021
6222 Clouds 10 1022 66 10000 5.14 300 15:44 15.03.2021
6223 Clouds 10 1022 71 10000 3.6 300 15:25 15.03.2021
6224 Clouds 10 1022 66 10000 4.12 290 14:42 15.03.2021
6225 Clouds 10 1022 66 10000 4.12 280 14:21 15.03.2021
6226 Clouds 9 1022 71 10000 4.12 300 13:46 15.03.2021
6227 Clouds 9 1021 71 10000 5.14 300 13:24 15.03.2021
6228 Clouds 9 1021 71 10000 5.14 300 12:47 15.03.2021
6229 Clouds 9 1021 71 10000 4.63 290 12:18 15.03.2021
6230 Clouds 9 1021 71 10000 4.63 290 11:48 15.03.2021
6231 Clouds 8 1020 81 10000 4.12 300 11:30 15.03.2021
6232 Clouds 7 1020 81 10000 3.09 290 10:45 15.03.2021
6233 Clouds 7 1020 87 10000 2.06 300 10:27 15.03.2021
6234 Clouds 6 1019 93 10000 2.06 290 09:51 15.03.2021
6235 Clouds 5 1019 93 10000 3.09 250 09:31 15.03.2021
6236 Clouds 5 1018 87 10000 2.06 270 08:49 15.03.2021
6237 Clouds 5 1018 87 10000 3.09 270 08:28 15.03.2021
6238 Clouds 3 1017 93 10000 2.06 220 07:49 15.03.2021
6239 Clouds 3 1017 93 10000 2.06 230 07:30 15.03.2021
6240 Clouds 4 1017 100 10000 2.57 230 06:36 15.03.2021
6241 Clouds 6 1015 93 10000 3.6 260 05:24 15.03.2021
6242 Clouds 6 1013 87 10000 5.14 250 01:25 15.03.2021
6243 Clouds 6 1013 87 10000 5.66 220 23:52 14.03.2021
6244 Clouds 6 1012 87 10000 4.63 230 23:19 14.03.2021
6245 Clouds 6 1012 87 10000 3.6 250 22:42 14.03.2021
6246 Clouds 6 1012 87 10000 3.6 220 22:18 14.03.2021
6247 Clouds 6 1011 93 10000 4.63 220 21:41 14.03.2021
6248 Clouds 6 1011 87 10000 2.57 200 21:18 14.03.2021
6249 Clouds 6 1010 87 10000 2.57 200 20:42 14.03.2021
6250 Clouds 7 1010 87 10000 3.09 190 20:24 14.03.2021
6251 Clouds 6 1010 93 10000 2.06 200 19:42 14.03.2021
6252 Clouds 7 1009 87 10000 1.54 0 19:20 14.03.2021
6253 Clouds 7 1009 87 10000 4.12 260 18:41 14.03.2021
6254 Clouds 7 1008 93 10000 4.63 260 17:58 14.03.2021
6255 Clouds 7 1008 93 10000 4.63 260 17:38 14.03.2021
6256 Clouds 7 1008 93 10000 3.6 250 17:19 14.03.2021
6257 Rain 7 1008 93 10000 4.12 260 16:42 14.03.2021
6258 Rain 7 1008 87 10000 5.14 260 16:23 14.03.2021
6259 Rain 7 1007 87 10000 6.17 250 15:49 14.03.2021
6260 Rain 7 1007 81 10000 6.17 250 15:24 14.03.2021
6261 Rain 8 1007 81 10000 6.69 250 14:40 14.03.2021
6262 Clouds 8 1007 81 10000 7.2 260 14:20 14.03.2021
6263 Clouds 7 1007 81 10000 7.2 250 13:45 14.03.2021
6264 Clouds 7 1008 81 10000 7.2 250 13:26 14.03.2021
6265 Clouds 7 1008 87 10000 7.72 260 12:43 14.03.2021
6266 Clouds 7 1008 81 10000 5.66 260 12:23 14.03.2021
6267 Clouds 7 1008 81 10000 6.17 260 11:41 14.03.2021
6268 Clouds 7 1008 81 10000 7.2 270 11:22 14.03.2021
6269 Clouds 6 1007 87 10000 6.17 260 10:38 14.03.2021
6270 Rain 6 1007 87 10000 7.72 270 10:20 14.03.2021
6271 Clouds 7 1007 81 10000 5.66 240 09:57 14.03.2021
6272 Rain 7 1007 81 10000 5.66 240 09:39 14.03.2021
6273 Clouds 6 1006 87 10000 5.14 240 09:20 14.03.2021
6274 Clouds 5 1006 81 10000 3.09 250 08:37 14.03.2021
6275 Clouds 5 1005 87 10000 6.17 260 07:58 14.03.2021
6276 Clouds 5 1005 81 10000 4.12 250 07:28 14.03.2021
6277 Clouds 5 1004 87 10000 4.63 250 05:38 14.03.2021
6278 Clouds 4 1000 87 10000 3.6 240 01:29 14.03.2021
6279 Clouds 5 1000 81 10000 4.63 250 00:42 14.03.2021
6280 Clouds 5 999 87 10000 4.63 230 00:18 14.03.2021
6281 Clouds 5 999 81 10000 6.17 220 23:40 13.03.2021
6282 Clouds 4 998 87 10000 4.63 240 23:19 13.03.2021
6283 Clouds 5 998 87 10000 4.12 260 22:46 13.03.2021
6284 Clouds 4 997 87 10000 2.06 250 22:21 13.03.2021
6285 Clouds 5 997 87 10000 3.09 250 21:35 13.03.2021
6286 Clouds 5 995 87 10000 2.57 260 20:59 13.03.2021
6287 Clouds 5 995 87 10000 2.57 260 20:41 13.03.2021
6288 Clouds 5 994 87 10000 3.09 260 20:23 13.03.2021
6289 Clouds 6 993 81 10000 4.12 270 19:40 13.03.2021
6290 Clouds 6 993 76 10000 4.63 260 19:22 13.03.2021
6291 Rain 7 992 81 10000 5.14 250 18:42 13.03.2021
6292 Clouds 6 991 81 10000 5.66 250 18:20 13.03.2021
6293 Clouds 6 991 81 10000 6.17 250 17:49 13.03.2021
6294 Clouds 6 991 81 10000 6.17 250 17:49 13.03.2021
6295 Clouds 6 990 81 10000 6.69 260 17:31 13.03.2021
6296 Clouds 6 990 87 10000 9.26 240 16:52 13.03.2021
6297 Clouds 6 990 87 10000 9.26 240 16:34 13.03.2021
6298 Clouds 6 990 87 10000 6.69 250 15:55 13.03.2021
6299 Clouds 5 989 87 8000 7.2 240 14:59 13.03.2021
6300 Clouds 5 989 87 8000 7.2 240 14:41 13.03.2021
6301 Clouds 6 989 87 10000 7.2 250 14:20 13.03.2021
6302 Clouds 6 988 81 9000 9.26 270 13:27 13.03.2021
6303 Rain 6 987 76 10000 6.69 250 12:52 13.03.2021
6304 Clouds 6 987 76 10000 5.66 230 12:30 13.03.2021
6305 Clouds 6 987 81 10000 7.2 260 11:53 13.03.2021
6306 Clouds 6 986 81 10000 3.09 220 11:32 13.03.2021
6307 Clouds 5 986 81 10000 5.14 260 10:56 13.03.2021
6308 Clouds 4 985 87 10000 6.17 260 10:31 13.03.2021
6309 Rain 4 985 87 10000 2.06 260 09:57 13.03.2021
6310 Clouds 3 984 93 10000 3.6 260 09:31 13.03.2021
6311 Clouds 3 984 93 10000 2.57 250 08:53 13.03.2021
6312 Clouds 3 983 93 10000 3.09 270 08:20 13.03.2021
6313 Clouds 2 982 93 10000 3.09 250 07:56 13.03.2021
6314 Rain 3 982 93 7000 2.57 270 07:20 13.03.2021
6315 Clouds 3 979 100 7000 1.54 280 03:33 13.03.2021
6316 Clouds 3 980 93 10000 1.54 60 01:21 13.03.2021
6317 Clouds 3 980 93 10000 1.54 60 01:21 13.03.2021
6318 Clouds 3 980 93 9000 2.06 80 00:20 13.03.2021
6319 Rain 3 981 93 8000 2.06 100 23:33 12.03.2021
6320 Clouds 3 982 87 10000 3.6 170 22:50 12.03.2021
6321 Rain 4 982 87 10000 3.09 170 22:29 12.03.2021
6322 Rain 4 983 87 10000 4.63 190 21:46 12.03.2021
6323 Rain 5 984 87 10000 4.12 180 21:27 12.03.2021
6324 Rain 5 985 87 10000 3.6 210 20:59 12.03.2021
6325 Rain 5 985 87 10000 3.6 210 20:40 12.03.2021
6326 Rain 5 985 81 10000 4.63 200 20:18 12.03.2021
6327 Clouds 5 986 81 10000 4.63 200 19:42 12.03.2021
6328 Clouds 5 986 81 10000 6.17 210 19:24 12.03.2021
6329 Clouds 6 987 75 10000 5.66 230 18:36 12.03.2021
6330 Clouds 6 987 75 10000 6.17 230 18:18 12.03.2021
6331 Clouds 6 987 81 10000 6.69 230 17:39 12.03.2021
6332 Clouds 6 987 81 10000 6.17 230 17:20 12.03.2021
6333 Clouds 6 988 81 10000 8.23 220 16:42 12.03.2021
6334 Rain 5 989 87 9000 7.2 240 15:52 12.03.2021
6335 Clouds 6 989 81 10000 9.77 220 15:32 12.03.2021
6336 Clouds 6 989 81 10000 8.75 260 14:49 12.03.2021
6337 Clouds 7 989 76 10000 10.29 240 14:21 12.03.2021
6338 Clouds 6 989 81 10000 9.26 220 13:44 12.03.2021
6339 Clouds 5 989 87 10000 9.77 220 13:24 12.03.2021
6340 Clouds 5 989 87 9000 7.2 240 12:58 12.03.2021
6341 Clouds 5 989 87 9000 7.2 240 12:38 12.03.2021
6342 Rain 5 989 93 10000 6.17 240 12:20 12.03.2021
6343 Clouds 6 989 81 10000 9.26 220 11:50 12.03.2021
6344 Clouds 5 989 87 10000 7.2 240 11:22 12.03.2021
6345 Clouds 5 989 87 10000 6.69 240 10:50 12.03.2021
6346 Clouds 5 989 87 9000 8.75 230 10:25 12.03.2021
6347 Rain 4 989 93 9000 8.23 230 09:52 12.03.2021
6348 Rain 4 989 87 10000 6.69 230 09:20 12.03.2021
6349 Rain 3 989 93 10000 8.23 230 08:44 12.03.2021
6350 Clouds 3 989 93 4000 6.17 230 07:56 12.03.2021
6351 Rain 4 989 87 10000 6.69 260 07:31 12.03.2021
6352 Rain 4 989 87 10000 4.12 260 06:46 12.03.2021
6353 Rain 4 989 93 10000 4.63 290 06:26 12.03.2021
6354 Clouds 4 990 93 10000 6.69 230 02:20 12.03.2021
6355 Rain 3 990 93 6000 7.72 230 00:18 12.03.2021
6356 Rain 3 990 93 10000 6.69 230 23:19 11.03.2021
6357 Clouds 3 990 87 10000 7.72 240 22:42 11.03.2021
6358 Rain 3 990 81 10000 10.8 250 22:22 11.03.2021
6359 Rain 4 990 87 10000 6.17 240 21:46 11.03.2021
6360 Clouds 4 989 87 5000 9.77 250 21:26 11.03.2021
6361 Rain 5 989 70 10000 8.75 260 20:49 11.03.2021
6362 Rain 6 988 70 10000 9.77 250 20:27 11.03.2021
6363 Clouds 5 987 75 10000 7.72 250 19:57 11.03.2021
6364 Rain 5 987 75 10000 7.72 250 19:38 11.03.2021
6365 Clouds 5 987 75 10000 10.8 250 18:55 11.03.2021
6366 Rain 6 987 75 10000 10.8 250 18:35 11.03.2021
6367 Clouds 6 986 81 10000 8.23 240 17:57 11.03.2021
6368 Clouds 6 986 81 10000 8.23 240 17:39 11.03.2021
6369 Rain 6 986 81 10000 7.72 250 16:42 11.03.2021
6370 Rain 6 985 81 10000 8.75 240 16:24 11.03.2021
6371 Clouds 6 985 81 10000 9.77 240 15:44 11.03.2021
6372 Rain 6 984 81 10000 9.77 240 15:21 11.03.2021
6373 Clouds 6 984 81 10000 9.26 250 14:45 11.03.2021
6374 Rain 6 983 81 10000 10.8 240 14:19 11.03.2021
6375 Clouds 6 983 81 10000 9.26 240 13:46 11.03.2021
6376 Clouds 6 983 93 10000 6.69 240 13:22 11.03.2021
6377 Clouds 6 982 81 6000 10.29 240 12:56 11.03.2021
6378 Rain 7 982 76 10000 7.72 260 12:30 11.03.2021
6379 Rain 7 981 76 10000 10.29 250 11:49 11.03.2021
6380 Clouds 7 980 81 10000 7.72 250 11:31 11.03.2021
6381 Clouds 6 980 81 10000 7.2 250 10:57 11.03.2021
6382 Rain 6 979 81 10000 7.72 250 10:28 11.03.2021
6383 Clouds 6 978 81 10000 7.2 250 09:53 11.03.2021
6384 Clouds 6 978 81 10000 7.2 250 09:33 11.03.2021
6385 Clouds 5 977 81 10000 6.17 260 08:51 11.03.2021
6386 Clouds 5 977 81 10000 6.17 260 08:32 11.03.2021
6387 Clouds 6 975 81 10000 8.23 280 07:50 11.03.2021
6388 Rain 6 974 87 10000 5.66 260 07:21 11.03.2021
6389 Clouds 6 973 93 9000 6.69 270 06:47 11.03.2021
6390 Clouds 6 971 81 10000 3.09 270 06:23 11.03.2021
6391 Rain 8 969 87 10000 11.83 210 02:31 11.03.2021
6392 -273 0 0 0 0 0 00:31 11.03.2021
6393 -273 0 0 0 0 0 00:30 11.03.2021
6394 Rain 8 973 81 10000 11.83 210 23:23 10.03.2021
6395 Clouds 9 974 81 9000 9.26 210 22:42 10.03.2021
6396 Clouds 9 974 81 10000 10.29 210 22:21 10.03.2021
6397 Clouds 9 975 81 10000 9.77 210 21:44 10.03.2021
6398 Clouds 9 975 81 10000 9.77 210 21:44 10.03.2021
6399 Clouds 9 975 81 10000 11.32 210 21:22 10.03.2021
6400 Clouds 9 975 81 10000 11.32 210 21:22 10.03.2021
6401 Clouds 10 976 81 10000 12.35 210 20:45 10.03.2021
6402 Clouds 10 976 87 10000 10.8 210 20:27 10.03.2021
6403 Clouds 10 976 81 10000 13.38 220 19:43 10.03.2021
6404 Rain 10 977 93 4300 10.29 210 19:24 10.03.2021
6405 Rain 11 977 87 3600 9.26 190 18:44 10.03.2021
6406 Rain 11 978 87 6000 10.29 190 18:24 10.03.2021
6407 Rain 10 980 93 10000 8.23 190 17:55 10.03.2021
6408 Clouds 9 980 93 10000 8.23 190 17:36 10.03.2021
6409 Clouds 8 981 100 10000 3.6 0 17:18 10.03.2021
6410 Drizzle 8 983 93 3800 2.57 160 16:41 10.03.2021
6411 Drizzle 7 984 93 4600 4.12 60 16:22 10.03.2021
6412 Clouds 6 985 100 8000 4.12 80 15:44 10.03.2021
6413 Drizzle 6 987 93 3600 4.12 130 15:22 10.03.2021
6414 Rain 6 989 93 6000 5.14 160 14:46 10.03.2021
6415 Rain 7 990 93 9000 4.63 160 14:19 10.03.2021
6416 Clouds 7 991 81 10000 5.66 180 13:50 10.03.2021
6417 Rain 7 992 81 10000 6.17 190 13:27 10.03.2021
6418 Rain 7 993 81 10000 7.2 200 12:45 10.03.2021
6419 Clouds 7 994 76 10000 8.23 200 12:19 10.03.2021
6420 Clouds 7 994 76 10000 8.75 210 11:32 10.03.2021
6421 Clouds 7 995 76 10000 7.2 210 10:58 10.03.2021
6422 Clouds 7 995 76 10000 7.2 210 10:37 10.03.2021
6423 Clouds 6 996 81 10000 5.14 220 10:19 10.03.2021
6424 Clouds 6 996 81 10000 6.17 230 09:42 10.03.2021
6425 Clouds 6 996 75 10000 5.66 210 09:21 10.03.2021
6426 Clouds 5 996 81 10000 6.17 230 08:50 10.03.2021
6427 Clouds 5 996 81 10000 4.63 210 08:28 10.03.2021
6428 Clouds 5 997 87 10000 5.66 220 07:58 10.03.2021
6429 Clouds 6 997 75 10000 4.63 260 07:30 10.03.2021
6430 Clouds 6 997 75 10000 4.63 260 07:30 10.03.2021
6431 Clouds 6 996 70 10000 6.69 220 06:56 10.03.2021
6432 Clouds 6 996 75 10000 6.69 250 06:23 10.03.2021
6433 Rain 8 996 87 6000 11.32 240 02:26 10.03.2021
6434 Rain 7 998 87 2100 11.83 180 23:49 09.03.2021
6435 Rain 7 998 87 5000 12.86 180 23:19 09.03.2021
6436 Rain 7 999 87 3800 13.38 170 22:39 09.03.2021
6437 Rain 7 1000 87 4900 12.35 170 22:18 09.03.2021
6438 Rain 7 1001 87 5000 12.86 170 21:45 09.03.2021
6439 Rain 7 1002 87 6000 9.77 180 21:24 09.03.2021
6440 Rain 8 1003 87 7000 9.26 170 20:58 09.03.2021
6441 Rain 8 1003 87 7000 9.26 170 20:39 09.03.2021
6442 Rain 8 1004 87 9000 7.2 170 20:20 09.03.2021
6443 Rain 8 1004 87 6000 8.23 170 19:46 09.03.2021
6444 Rain 8 1005 87 9000 7.72 180 19:25 09.03.2021
6445 Rain 9 1006 81 10000 9.26 190 18:43 09.03.2021
6446 Rain 9 1006 81 10000 7.72 180 18:25 09.03.2021
6447 Clouds 9 1007 81 10000 6.69 160 17:50 09.03.2021
6448 Clouds 9 1008 81 10000 6.17 170 17:28 09.03.2021
6449 Clouds 9 1008 81 10000 6.17 170 17:28 09.03.2021
6450 Clouds 9 1009 87 10000 5.14 160 16:41 09.03.2021
6451 Clouds 9 1009 87 10000 6.17 170 16:23 09.03.2021
6452 Clouds 9 1010 87 10000 6.17 170 15:57 09.03.2021
6453 Clouds 9 1011 81 10000 6.17 170 15:28 09.03.2021
6454 Clouds 9 1011 76 10000 4.63 190 14:55 09.03.2021
6455 Clouds 9 1012 76 10000 4.12 200 14:27 09.03.2021
6456 Clouds 10 1013 71 10000 5.14 180 13:43 09.03.2021
6457 Clouds 9 1013 81 10000 5.66 190 13:22 09.03.2021
6458 Clouds 9 1013 81 10000 6.69 210 12:55 09.03.2021
6459 Clouds 9 1013 81 10000 6.69 210 12:37 09.03.2021
6460 Clouds 9 1014 87 10000 4.12 200 11:58 09.03.2021
6461 Clouds 9 1014 87 10000 4.12 200 11:39 09.03.2021
6462 Clouds 9 1014 87 10000 4.12 180 11:19 09.03.2021
6463 Clouds 8 1014 93 8000 3.6 180 10:39 09.03.2021
6464 Haze 8 1015 93 3800 4.12 190 10:21 09.03.2021
6465 Clouds 8 1015 93 10000 4.12 180 09:47 09.03.2021
6466 Clouds 8 1015 87 10000 3.6 190 09:27 09.03.2021
6467 Clouds 7 1015 87 10000 2.57 190 08:57 09.03.2021
6468 Clouds 7 1015 87 10000 2.57 190 08:33 09.03.2021
6469 Clouds 7 1015 93 10000 2.57 160 07:47 09.03.2021
6470 Clouds 7 1016 93 10000 2.06 160 07:27 09.03.2021
6471 Clouds 7 1016 93 10000 2.06 160 06:59 09.03.2021
6472 Clouds 7 1016 100 9000 2.57 180 05:53 09.03.2021
6473 Clouds 8 1018 87 10000 0.51 0 01:43 09.03.2021
6474 Clouds 7 1019 93 10000 2.57 230 23:58 08.03.2021
6475 Clouds 7 1019 93 10000 2.57 230 23:39 08.03.2021
6476 Clouds 7 1019 100 10000 2.57 220 23:18 08.03.2021
6477 Clouds 7 1019 93 10000 1.54 0 22:40 08.03.2021
6478 Clouds 7 1019 93 10000 0.51 0 22:21 08.03.2021
6479 Clouds 7 1019 93 10000 0.51 250 21:48 08.03.2021
6480 Clouds 7 1019 93 10000 1.54 240 21:29 08.03.2021
6481 Clouds 7 1019 93 10000 1.03 0 20:40 08.03.2021
6482 Clouds 7 1019 93 10000 3.6 230 20:21 08.03.2021
6483 Clouds 7 1019 93 10000 3.6 210 19:45 08.03.2021
6484 Clouds 8 1019 87 10000 5.14 210 19:20 08.03.2021
6485 Clouds 8 1019 87 10000 3.09 230 18:37 08.03.2021
6486 Clouds 8 1019 87 10000 3.6 250 18:19 08.03.2021
6487 Clouds 9 1019 81 10000 3.09 250 17:43 08.03.2021
6488 Clouds 9 1019 81 10000 4.63 260 17:22 08.03.2021
6489 Clouds 9 1019 81 10000 4.12 260 16:42 08.03.2021
6490 Clouds 9 1019 81 10000 4.63 260 16:22 08.03.2021
6491 Clouds 9 1019 81 10000 5.66 260 15:41 08.03.2021
6492 Clouds 9 1019 81 10000 5.14 250 15:22 08.03.2021
6493 Clouds 9 1020 81 10000 4.63 250 14:21 08.03.2021
6494 Clouds 8 1020 87 10000 5.66 260 13:54 08.03.2021
6495 Rain 8 1020 87 10000 5.66 260 13:23 08.03.2021
6496 Clouds 8 1020 93 10000 5.14 250 12:56 08.03.2021
6497 Clouds 8 1020 93 10000 5.66 250 12:29 08.03.2021
6498 Rain 8 1020 93 5000 6.69 240 11:48 08.03.2021
6499 Rain 8 1020 93 10000 5.66 240 11:29 08.03.2021
6500 Rain 8 1020 93 10000 5.66 250 10:55 08.03.2021
6501 Rain 8 1020 93 10000 5.66 250 10:37 08.03.2021
6502 Rain 8 1019 93 10000 6.17 250 10:18 08.03.2021
6503 Rain 8 1019 93 10000 6.17 250 09:26 08.03.2021
6504 Clouds 8 1019 93 10000 5.66 250 08:50 08.03.2021
6505 Rain 8 1019 93 10000 5.14 250 08:23 08.03.2021
6506 Clouds 8 1019 93 10000 4.63 230 07:21 08.03.2021
6507 Clouds 8 1020 87 10000 5.66 240 05:23 08.03.2021
6508 Rain 6 1022 93 8000 5.14 210 02:19 08.03.2021
6509 Rain 6 1022 100 6000 3.09 230 00:42 08.03.2021
6510 Rain 6 1023 93 9000 3.09 230 23:53 07.03.2021
6511 Clouds 6 1023 93 10000 2.57 250 23:21 07.03.2021
6512 Clouds 6 1023 93 10000 3.09 240 22:47 07.03.2021
6513 Clouds 6 1023 93 10000 3.6 240 22:27 07.03.2021
6514 Clouds 6 1023 93 10000 3.6 240 22:27 07.03.2021
6515 Clouds 6 1023 93 10000 3.6 240 21:50 07.03.2021
6516 Clouds 6 1023 93 10000 3.6 240 21:32 07.03.2021
6517 Clouds 6 1024 93 10000 1.03 0 20:58 07.03.2021
6518 Clouds 6 1024 93 10000 1.03 0 20:40 07.03.2021
6519 Clouds 6 1024 93 10000 1.54 240 20:18 07.03.2021
6520 Clouds 7 1024 87 10000 3.6 260 19:40 07.03.2021
6521 Rain 7 1024 87 10000 3.6 250 19:22 07.03.2021
6522 Clouds 7 1024 81 10000 3.6 230 18:51 07.03.2021
6523 Clouds 8 1024 76 10000 3.6 240 18:21 07.03.2021
6524 Clouds 8 1024 76 10000 4.63 230 17:57 07.03.2021
6525 Clouds 8 1024 76 10000 4.63 230 17:37 07.03.2021
6526 Clouds 8 1024 76 10000 5.66 230 17:18 07.03.2021
6527 Clouds 8 1024 81 10000 5.66 230 16:42 07.03.2021
6528 Clouds 9 1025 81 10000 4.63 230 16:20 07.03.2021
6529 Clouds 9 1025 71 10000 4.63 240 15:47 07.03.2021
6530 Clouds 9 1025 76 10000 4.63 240 15:29 07.03.2021
6531 Clouds 9 1025 71 10000 5.14 230 14:47 07.03.2021
6532 Clouds 8 1026 76 10000 4.63 220 14:28 07.03.2021
6533 Clouds 8 1026 76 10000 4.63 230 13:44 07.03.2021
6534 Rain 8 1026 76 10000 4.63 230 13:24 07.03.2021
6535 Clouds 7 1026 76 10000 5.14 230 12:47 07.03.2021
6536 Clouds 7 1026 81 10000 5.14 230 12:29 07.03.2021
6537 Clouds 7 1026 81 10000 5.14 230 12:29 07.03.2021
6538 Clouds 6 1027 81 10000 4.12 230 11:52 07.03.2021
6539 Clouds 5 1027 87 10000 3.09 240 11:23 07.03.2021
6540 Clouds 5 1027 81 10000 3.09 250 10:50 07.03.2021
6541 Clouds 5 1027 81 10000 2.57 250 10:31 07.03.2021
6542 Clouds 3 1027 100 10000 0.51 0 09:51 07.03.2021
6543 Clouds 1 1027 100 8000 1.03 0 09:26 07.03.2021
6544 Mist 0 1027 93 2600 0.51 0 08:48 07.03.2021
6545 Clouds 0 1027 100 6000 0.51 0 08:25 07.03.2021
6546 Clouds 1 1027 93 10000 1.03 0 07:51 07.03.2021
6547 Clouds 3 1029 81 10000 1.54 250 02:44 07.03.2021
6548 Clouds 3 1029 81 10000 1.03 310 01:45 07.03.2021
6549 Clouds 3 1030 81 10000 2.06 260 23:56 06.03.2021
6550 Clouds 3 1030 81 10000 2.06 260 23:37 06.03.2021
6551 Clouds 3 1031 81 10000 2.06 240 22:52 06.03.2021
6552 Clouds 3 1031 81 10000 2.06 220 22:30 06.03.2021
6553 Clouds 3 1031 81 10000 1.54 250 21:59 06.03.2021
6554 Clouds 4 1031 81 10000 1.54 270 21:25 06.03.2021
6555 Clouds 4 1031 75 10000 2.06 240 20:55 06.03.2021
6556 Clouds 4 1031 75 10000 2.06 240 20:36 06.03.2021
6557 Clouds 4 1031 75 10000 2.57 230 19:50 06.03.2021
6558 Clouds 5 1031 70 10000 1.54 250 19:23 06.03.2021
6559 Clouds 5 1032 70 10000 2.06 250 18:57 06.03.2021
6560 Clouds 5 1032 70 10000 2.06 250 18:38 06.03.2021
6561 Clouds 5 1032 70 10000 2.57 240 18:18 06.03.2021
6562 Clouds 5 1032 70 10000 4.12 230 17:45 06.03.2021
6563 Clouds 5 1032 65 10000 4.63 230 17:25 06.03.2021
6564 Clouds 6 1032 61 10000 4.12 240 16:52 06.03.2021
6565 Clouds 6 1032 61 10000 4.12 220 16:29 06.03.2021
6566 Clouds 6 1033 61 10000 5.14 220 15:54 06.03.2021
6567 Clouds 6 1033 61 10000 5.14 220 15:34 06.03.2021
6568 Clouds 6 1033 61 10000 5.14 210 14:54 06.03.2021
6569 Clouds 6 1034 61 10000 5.14 220 14:30 06.03.2021
6570 Clouds 5 1034 65 10000 5.14 240 13:44 06.03.2021
6571 Clouds 5 1034 70 10000 4.63 240 13:23 06.03.2021
6572 Clouds 4 1034 70 10000 4.63 230 12:46 06.03.2021
6573 Clouds 4 1034 75 10000 1.54 0 12:20 06.03.2021
6574 Clouds 4 1034 75 10000 1.54 0 12:20 06.03.2021
6575 Clouds 4 1034 75 10000 1.54 0 12:20 06.03.2021
6576 Clouds 4 1034 70 10000 1.03 0 11:57 06.03.2021
6577 Clouds 4 1034 70 10000 0.51 0 11:22 06.03.2021
6578 Clouds 3 1034 75 10000 0.51 0 10:52 06.03.2021
6579 Clouds 3 1035 75 10000 0.51 60 10:28 06.03.2021
6580 Clouds 2 1035 80 10000 1.03 50 09:49 06.03.2021
6581 Clouds 2 1035 80 10000 1.54 30 09:21 06.03.2021
6582 Clouds 2 1035 80 10000 1.54 30 08:51 06.03.2021
6583 Clouds 2 1035 80 10000 1.54 20 07:59 06.03.2021
6584 Clouds 2 1035 80 10000 1.54 20 07:41 06.03.2021
6585 Clouds 2 1035 80 10000 1.54 360 07:20 06.03.2021
6586 Clouds 2 1034 75 10000 1.03 10 05:38 06.03.2021
6587 Clouds 2 1036 75 10000 2.06 190 02:39 06.03.2021
6588 Clouds 2 1036 75 10000 1.03 190 01:20 06.03.2021
6589 Clouds 2 1036 75 10000 1.03 0 00:39 06.03.2021
6590 Clouds 1 1036 75 10000 0.51 0 23:31 05.03.2021
6591 Clouds 1 1036 75 10000 1.54 250 22:50 05.03.2021
6592 Clouds 1 1035 80 10000 1.54 0 22:25 05.03.2021
6593 Clouds 1 1035 80 10000 1.03 270 21:57 05.03.2021
6594 Clouds 1 1035 80 10000 1.03 270 21:39 05.03.2021
6595 Clouds 1 1036 75 10000 1.03 0 20:59 05.03.2021
6596 Clouds 2 1036 75 10000 1.03 0 20:41 05.03.2021
6597 Clouds 2 1036 75 10000 1.54 300 20:23 05.03.2021
6598 Clouds 2 1036 69 10000 2.06 270 19:43 05.03.2021
6599 Clouds 2 1035 69 10000 3.09 260 19:21 05.03.2021
6600 Clouds 3 1035 60 10000 2.06 270 18:43 05.03.2021
6601 Clouds 4 1035 60 10000 2.06 240 18:25 05.03.2021
6602 Clouds 4 1035 60 10000 1.54 0 17:39 05.03.2021
6603 Clouds 4 1035 60 10000 1.54 0 17:20 05.03.2021
6604 Clouds 4 1035 60 10000 2.57 240 16:41 05.03.2021
6605 Clouds 4 1035 60 10000 2.06 280 16:22 05.03.2021
6606 Clouds 4 1036 60 10000 1.03 0 15:53 05.03.2021
6607 Clouds 4 1036 60 10000 1.03 0 15:26 05.03.2021
6608 Clouds 4 1036 65 10000 2.57 220 14:39 05.03.2021
6609 Clouds 4 1036 60 10000 0.51 0 14:19 05.03.2021
6610 Clouds 4 1036 60 10000 2.06 220 13:42 05.03.2021
6611 Clouds 4 1036 56 10000 1.54 0 13:20 05.03.2021
6612 Clouds 4 1036 60 10000 1.54 0 12:40 05.03.2021
6613 Clouds 3 1036 60 10000 1.03 0 11:37 05.03.2021
6614 Clouds 3 1036 60 10000 1.03 0 11:18 05.03.2021
6615 Clouds 3 1036 65 10000 1.03 0 10:42 05.03.2021
6616 Clouds 3 1036 60 10000 1.03 0 10:24 05.03.2021
6617 Clouds 3 1036 65 10000 1.54 0 09:50 05.03.2021
6618 Clouds 2 1035 75 10000 1.54 60 09:27 05.03.2021
6619 Clouds 2 1035 69 10000 1.54 40 08:46 05.03.2021
6620 Clouds 2 1035 69 10000 2.06 20 08:27 05.03.2021
6621 Clouds 2 1035 69 10000 2.06 20 07:58 05.03.2021
6622 Clouds 2 1035 69 10000 2.57 40 07:29 05.03.2021
6623 Clouds 2 1035 69 10000 2.57 40 06:33 05.03.2021
6624 Clouds 2 1034 69 10000 3.09 60 05:33 05.03.2021
6625 Clouds 3 1033 70 10000 3.09 40 00:53 05.03.2021
6626 Clouds 4 1033 60 10000 3.09 50 23:44 04.03.2021
6627 Clouds 4 1033 65 10000 2.57 60 23:19 04.03.2021
6628 Clouds 4 1033 65 10000 2.57 50 22:28 04.03.2021
6629 Clouds 4 1032 65 10000 2.57 70 21:52 04.03.2021
6630 Clouds 4 1032 60 10000 3.09 70 21:29 04.03.2021
6631 Clouds 4 1032 65 10000 4.63 60 20:42 04.03.2021
6632 Clouds 4 1032 60 10000 5.14 70 20:23 04.03.2021
6633 Clouds 4 1032 60 10000 6.17 60 19:58 04.03.2021
6634 Clouds 4 1032 60 10000 6.17 60 19:39 04.03.2021
6635 Clouds 5 1032 56 10000 6.17 70 19:21 04.03.2021
6636 Clouds 5 1031 56 10000 5.66 60 18:45 04.03.2021
6637 Clouds 5 1031 60 10000 4.63 60 18:24 04.03.2021
6638 Clouds 5 1031 56 10000 5.14 70 17:46 04.03.2021
6639 Clouds 5 1031 60 10000 5.66 70 17:27 04.03.2021
6640 Clouds 5 1031 60 10000 5.66 70 17:27 04.03.2021
6641 Clouds 5 1031 56 10000 5.66 70 16:46 04.03.2021
6642 Clouds 5 1031 65 10000 6.69 70 16:25 04.03.2021
6643 Clouds 5 1031 61 10000 6.69 70 15:50 04.03.2021
6644 Clouds 6 1031 65 10000 5.66 70 15:31 04.03.2021
6645 Clouds 6 1031 65 10000 6.69 50 14:48 04.03.2021
6646 Clouds 6 1031 70 10000 7.2 60 14:26 04.03.2021
6647 Clouds 6 1031 70 10000 7.2 60 14:26 04.03.2021
6648 Clouds 6 1031 70 10000 7.72 70 13:47 04.03.2021
6649 Clouds 6 1031 75 10000 7.2 80 13:29 04.03.2021
6650 Clouds 5 1031 81 10000 7.72 70 12:49 04.03.2021
6651 Clouds 5 1030 93 10000 6.17 70 12:31 04.03.2021
6652 Clouds 5 1030 93 9000 7.2 70 11:43 04.03.2021
6653 Clouds 5 1030 87 10000 1.54 0 11:23 04.03.2021
6654 Clouds 5 1030 87 10000 1.03 0 10:47 04.03.2021
6655 Clouds</